<?xml version="1.0"?>
<gpx xmlns="http://www.topografix.com/GPX/1/1" xmlns:xsi="http://www.w3.org/2001/XMLSchema-instance" version="1.1" creator="GPX RubyGem 1.0.0 -- http://dougfales.github.io/gpx/" xsi:schemaLocation="http://www.topografix.com/GPX/1/1 http://www.topografix.com/GPX/1/1/gpx.xsd">
  <metadata>
    <name/>
    <time>2026-05-08T05:57:13+00:00</time>
    <bound minlat="90.0" minlon="180.0" maxlat="-90.0" maxlon="-180.0"/>
  </metadata>
  <trk>
    <name/>
    <trkseg>
      <trkpt lat="45.29049" lon="6.90947">
        <time>1970-01-01T00:00:00+00:00</time>
        <ele>1462.0</ele>
      </trkpt>
      <trkpt lat="45.29049" lon="6.90947">
        <time>1970-01-01T00:00:00+00:00</time>
        <ele>1462.0</ele>
      </trkpt>
      <trkpt lat="45.29047" lon="6.90953">
        <time>1970-01-01T00:00:00+00:00</time>
        <ele>1462.0</ele>
      </trkpt>
      <trkpt lat="45.29047" lon="6.90953">
        <time>1970-01-01T00:00:00+00:00</time>
        <ele>1462.0</ele>
      </trkpt>
      <trkpt lat="45.29044" lon="6.90958">
        <time>1970-01-01T00:00:00+00:00</time>
        <ele>1463.0</ele>
      </trkpt>
      <trkpt lat="45.29044" lon="6.90958">
        <time>1970-01-01T00:00:00+00:00</time>
        <ele>1463.0</ele>
      </trkpt>
      <trkpt lat="45.29041" lon="6.90965">
        <time>1970-01-01T00:00:00+00:00</time>
        <ele>1463.0</ele>
      </trkpt>
      <trkpt lat="45.29041" lon="6.90965">
        <time>1970-01-01T00:00:00+00:00</time>
        <ele>1463.0</ele>
      </trkpt>
      <trkpt lat="45.29041" lon="6.90972">
        <time>1970-01-01T00:00:00+00:00</time>
        <ele>1463.0</ele>
      </trkpt>
      <trkpt lat="45.29041" lon="6.90972">
        <time>1970-01-01T00:00:00+00:00</time>
        <ele>1463.0</ele>
      </trkpt>
      <trkpt lat="45.29041" lon="6.90979">
        <time>1970-01-01T00:00:00+00:00</time>
        <ele>1463.0</ele>
      </trkpt>
      <trkpt lat="45.29041" lon="6.90979">
        <time>1970-01-01T00:00:00+00:00</time>
        <ele>1463.0</ele>
      </trkpt>
      <trkpt lat="45.29039" lon="6.90985">
        <time>1970-01-01T00:00:00+00:00</time>
        <ele>1464.0</ele>
      </trkpt>
      <trkpt lat="45.29039" lon="6.90985">
        <time>1970-01-01T00:00:00+00:00</time>
        <ele>1464.0</ele>
      </trkpt>
      <trkpt lat="45.29037" lon="6.90991">
        <time>1970-01-01T00:00:00+00:00</time>
        <ele>1465.0</ele>
      </trkpt>
      <trkpt lat="45.29037" lon="6.90991">
        <time>1970-01-01T00:00:00+00:00</time>
        <ele>1465.0</ele>
      </trkpt>
      <trkpt lat="45.29034" lon="6.90998">
        <time>1970-01-01T00:00:00+00:00</time>
        <ele>1467.0</ele>
      </trkpt>
      <trkpt lat="45.29034" lon="6.90998">
        <time>1970-01-01T00:00:00+00:00</time>
        <ele>1467.0</ele>
      </trkpt>
      <trkpt lat="45.29033" lon="6.91005">
        <time>1970-01-01T00:00:00+00:00</time>
        <ele>1468.0</ele>
      </trkpt>
      <trkpt lat="45.29033" lon="6.91005">
        <time>1970-01-01T00:00:00+00:00</time>
        <ele>1468.0</ele>
      </trkpt>
      <trkpt lat="45.29033" lon="6.91012">
        <time>1970-01-01T00:00:00+00:00</time>
        <ele>1469.0</ele>
      </trkpt>
      <trkpt lat="45.29033" lon="6.91012">
        <time>1970-01-01T00:00:00+00:00</time>
        <ele>1469.0</ele>
      </trkpt>
      <trkpt lat="45.29032" lon="6.91019">
        <time>1970-01-01T00:00:00+00:00</time>
        <ele>1470.0</ele>
      </trkpt>
      <trkpt lat="45.29032" lon="6.91019">
        <time>1970-01-01T00:00:00+00:00</time>
        <ele>1470.0</ele>
      </trkpt>
      <trkpt lat="45.29032" lon="6.91026">
        <time>1970-01-01T00:00:00+00:00</time>
        <ele>1470.0</ele>
      </trkpt>
      <trkpt lat="45.29032" lon="6.91026">
        <time>1970-01-01T00:00:00+00:00</time>
        <ele>1470.0</ele>
      </trkpt>
      <trkpt lat="45.29031" lon="6.91033">
        <time>1970-01-01T00:00:00+00:00</time>
        <ele>1470.0</ele>
      </trkpt>
      <trkpt lat="45.29031" lon="6.91033">
        <time>1970-01-01T00:00:00+00:00</time>
        <ele>1470.0</ele>
      </trkpt>
      <trkpt lat="45.2903" lon="6.9104">
        <time>1970-01-01T00:00:00+00:00</time>
        <ele>1470.0</ele>
      </trkpt>
      <trkpt lat="45.2903" lon="6.9104">
        <time>1970-01-01T00:00:00+00:00</time>
        <ele>1470.0</ele>
      </trkpt>
      <trkpt lat="45.29028" lon="6.91047">
        <time>1970-01-01T00:00:00+00:00</time>
        <ele>1471.0</ele>
      </trkpt>
      <trkpt lat="45.29028" lon="6.91047">
        <time>1970-01-01T00:00:00+00:00</time>
        <ele>1471.0</ele>
      </trkpt>
      <trkpt lat="45.29029" lon="6.91054">
        <time>1970-01-01T00:00:00+00:00</time>
        <ele>1470.0</ele>
      </trkpt>
      <trkpt lat="45.29029" lon="6.91054">
        <time>1970-01-01T00:00:00+00:00</time>
        <ele>1470.0</ele>
      </trkpt>
      <trkpt lat="45.29027" lon="6.91061">
        <time>1970-01-01T00:00:00+00:00</time>
        <ele>1470.0</ele>
      </trkpt>
      <trkpt lat="45.29027" lon="6.91061">
        <time>1970-01-01T00:00:00+00:00</time>
        <ele>1470.0</ele>
      </trkpt>
      <trkpt lat="45.29025" lon="6.91068">
        <time>1970-01-01T00:00:00+00:00</time>
        <ele>1471.0</ele>
      </trkpt>
      <trkpt lat="45.29025" lon="6.91068">
        <time>1970-01-01T00:00:00+00:00</time>
        <ele>1471.0</ele>
      </trkpt>
      <trkpt lat="45.29024" lon="6.91075">
        <time>1970-01-01T00:00:00+00:00</time>
        <ele>1470.0</ele>
      </trkpt>
      <trkpt lat="45.29024" lon="6.91075">
        <time>1970-01-01T00:00:00+00:00</time>
        <ele>1470.0</ele>
      </trkpt>
      <trkpt lat="45.29022" lon="6.91081">
        <time>1970-01-01T00:00:00+00:00</time>
        <ele>1470.0</ele>
      </trkpt>
      <trkpt lat="45.29022" lon="6.91081">
        <time>1970-01-01T00:00:00+00:00</time>
        <ele>1470.0</ele>
      </trkpt>
      <trkpt lat="45.2902" lon="6.91087">
        <time>1970-01-01T00:00:00+00:00</time>
        <ele>1470.0</ele>
      </trkpt>
      <trkpt lat="45.2902" lon="6.91087">
        <time>1970-01-01T00:00:00+00:00</time>
        <ele>1470.0</ele>
      </trkpt>
      <trkpt lat="45.29018" lon="6.91093">
        <time>1970-01-01T00:00:00+00:00</time>
        <ele>1469.0</ele>
      </trkpt>
      <trkpt lat="45.29018" lon="6.91093">
        <time>1970-01-01T00:00:00+00:00</time>
        <ele>1469.0</ele>
      </trkpt>
      <trkpt lat="45.29016" lon="6.91101">
        <time>1970-01-01T00:00:00+00:00</time>
        <ele>1469.0</ele>
      </trkpt>
      <trkpt lat="45.29016" lon="6.91101">
        <time>1970-01-01T00:00:00+00:00</time>
        <ele>1469.0</ele>
      </trkpt>
      <trkpt lat="45.29013" lon="6.91107">
        <time>1970-01-01T00:00:00+00:00</time>
        <ele>1470.0</ele>
      </trkpt>
      <trkpt lat="45.29013" lon="6.91107">
        <time>1970-01-01T00:00:00+00:00</time>
        <ele>1470.0</ele>
      </trkpt>
      <trkpt lat="45.29011" lon="6.91113">
        <time>1970-01-01T00:00:00+00:00</time>
        <ele>1470.0</ele>
      </trkpt>
      <trkpt lat="45.29011" lon="6.91113">
        <time>1970-01-01T00:00:00+00:00</time>
        <ele>1470.0</ele>
      </trkpt>
      <trkpt lat="45.29009" lon="6.9112">
        <time>1970-01-01T00:00:00+00:00</time>
        <ele>1470.0</ele>
      </trkpt>
      <trkpt lat="45.29009" lon="6.9112">
        <time>1970-01-01T00:00:00+00:00</time>
        <ele>1470.0</ele>
      </trkpt>
      <trkpt lat="45.29006" lon="6.91126">
        <time>1970-01-01T00:00:00+00:00</time>
        <ele>1470.0</ele>
      </trkpt>
      <trkpt lat="45.29006" lon="6.91126">
        <time>1970-01-01T00:00:00+00:00</time>
        <ele>1470.0</ele>
      </trkpt>
      <trkpt lat="45.29004" lon="6.91132">
        <time>1970-01-01T00:00:00+00:00</time>
        <ele>1470.0</ele>
      </trkpt>
      <trkpt lat="45.29004" lon="6.91132">
        <time>1970-01-01T00:00:00+00:00</time>
        <ele>1470.0</ele>
      </trkpt>
      <trkpt lat="45.29001" lon="6.91137">
        <time>1970-01-01T00:00:00+00:00</time>
        <ele>1470.0</ele>
      </trkpt>
      <trkpt lat="45.29001" lon="6.91137">
        <time>1970-01-01T00:00:00+00:00</time>
        <ele>1470.0</ele>
      </trkpt>
      <trkpt lat="45.28997" lon="6.91142">
        <time>1970-01-01T00:00:00+00:00</time>
        <ele>1471.0</ele>
      </trkpt>
      <trkpt lat="45.28997" lon="6.91142">
        <time>1970-01-01T00:00:00+00:00</time>
        <ele>1471.0</ele>
      </trkpt>
      <trkpt lat="45.28993" lon="6.91145">
        <time>1970-01-01T00:00:00+00:00</time>
        <ele>1472.0</ele>
      </trkpt>
      <trkpt lat="45.28993" lon="6.91145">
        <time>1970-01-01T00:00:00+00:00</time>
        <ele>1472.0</ele>
      </trkpt>
      <trkpt lat="45.28989" lon="6.91142">
        <time>1970-01-01T00:00:00+00:00</time>
        <ele>1474.0</ele>
      </trkpt>
      <trkpt lat="45.28989" lon="6.91142">
        <time>1970-01-01T00:00:00+00:00</time>
        <ele>1474.0</ele>
      </trkpt>
      <trkpt lat="45.28989" lon="6.91135">
        <time>1970-01-01T00:00:00+00:00</time>
        <ele>1475.0</ele>
      </trkpt>
      <trkpt lat="45.28989" lon="6.91135">
        <time>1970-01-01T00:00:00+00:00</time>
        <ele>1475.0</ele>
      </trkpt>
      <trkpt lat="45.28989" lon="6.91128">
        <time>1970-01-01T00:00:00+00:00</time>
        <ele>1476.0</ele>
      </trkpt>
      <trkpt lat="45.28989" lon="6.91128">
        <time>1970-01-01T00:00:00+00:00</time>
        <ele>1476.0</ele>
      </trkpt>
      <trkpt lat="45.28989" lon="6.91121">
        <time>1970-01-01T00:00:00+00:00</time>
        <ele>1477.0</ele>
      </trkpt>
      <trkpt lat="45.28989" lon="6.91121">
        <time>1970-01-01T00:00:00+00:00</time>
        <ele>1477.0</ele>
      </trkpt>
      <trkpt lat="45.28987" lon="6.91115">
        <time>1970-01-01T00:00:00+00:00</time>
        <ele>1478.0</ele>
      </trkpt>
      <trkpt lat="45.28987" lon="6.91115">
        <time>1970-01-01T00:00:00+00:00</time>
        <ele>1478.0</ele>
      </trkpt>
      <trkpt lat="45.28981" lon="6.91115">
        <time>1970-01-01T00:00:00+00:00</time>
        <ele>1479.0</ele>
      </trkpt>
      <trkpt lat="45.28981" lon="6.91115">
        <time>1970-01-01T00:00:00+00:00</time>
        <ele>1479.0</ele>
      </trkpt>
      <trkpt lat="45.28978" lon="6.91121">
        <time>1970-01-01T00:00:00+00:00</time>
        <ele>1479.0</ele>
      </trkpt>
      <trkpt lat="45.28978" lon="6.91121">
        <time>1970-01-01T00:00:00+00:00</time>
        <ele>1479.0</ele>
      </trkpt>
      <trkpt lat="45.28973" lon="6.91121">
        <time>1970-01-01T00:00:00+00:00</time>
        <ele>1480.0</ele>
      </trkpt>
      <trkpt lat="45.28973" lon="6.91121">
        <time>1970-01-01T00:00:00+00:00</time>
        <ele>1480.0</ele>
      </trkpt>
      <trkpt lat="45.28967" lon="6.91119">
        <time>1970-01-01T00:00:00+00:00</time>
        <ele>1481.0</ele>
      </trkpt>
      <trkpt lat="45.28967" lon="6.91119">
        <time>1970-01-01T00:00:00+00:00</time>
        <ele>1481.0</ele>
      </trkpt>
      <trkpt lat="45.28961" lon="6.91116">
        <time>1970-01-01T00:00:00+00:00</time>
        <ele>1481.0</ele>
      </trkpt>
      <trkpt lat="45.28961" lon="6.91116">
        <time>1970-01-01T00:00:00+00:00</time>
        <ele>1481.0</ele>
      </trkpt>
      <trkpt lat="45.28957" lon="6.91112">
        <time>1970-01-01T00:00:00+00:00</time>
        <ele>1481.0</ele>
      </trkpt>
      <trkpt lat="45.28957" lon="6.91112">
        <time>1970-01-01T00:00:00+00:00</time>
        <ele>1481.0</ele>
      </trkpt>
      <trkpt lat="45.28953" lon="6.91107">
        <time>1970-01-01T00:00:00+00:00</time>
        <ele>1481.0</ele>
      </trkpt>
      <trkpt lat="45.28953" lon="6.91107">
        <time>1970-01-01T00:00:00+00:00</time>
        <ele>1481.0</ele>
      </trkpt>
      <trkpt lat="45.28949" lon="6.91102">
        <time>1970-01-01T00:00:00+00:00</time>
        <ele>1482.0</ele>
      </trkpt>
      <trkpt lat="45.28949" lon="6.91102">
        <time>1970-01-01T00:00:00+00:00</time>
        <ele>1482.0</ele>
      </trkpt>
      <trkpt lat="45.28946" lon="6.91097">
        <time>1970-01-01T00:00:00+00:00</time>
        <ele>1482.0</ele>
      </trkpt>
      <trkpt lat="45.28946" lon="6.91097">
        <time>1970-01-01T00:00:00+00:00</time>
        <ele>1482.0</ele>
      </trkpt>
      <trkpt lat="45.28942" lon="6.91092">
        <time>1970-01-01T00:00:00+00:00</time>
        <ele>1481.0</ele>
      </trkpt>
      <trkpt lat="45.28942" lon="6.91092">
        <time>1970-01-01T00:00:00+00:00</time>
        <ele>1481.0</ele>
      </trkpt>
      <trkpt lat="45.28937" lon="6.91091">
        <time>1970-01-01T00:00:00+00:00</time>
        <ele>1481.0</ele>
      </trkpt>
      <trkpt lat="45.28937" lon="6.91091">
        <time>1970-01-01T00:00:00+00:00</time>
        <ele>1481.0</ele>
      </trkpt>
      <trkpt lat="45.28932" lon="6.91093">
        <time>1970-01-01T00:00:00+00:00</time>
        <ele>1481.0</ele>
      </trkpt>
      <trkpt lat="45.28932" lon="6.91093">
        <time>1970-01-01T00:00:00+00:00</time>
        <ele>1481.0</ele>
      </trkpt>
      <trkpt lat="45.28927" lon="6.91094">
        <time>1970-01-01T00:00:00+00:00</time>
        <ele>1482.0</ele>
      </trkpt>
      <trkpt lat="45.28927" lon="6.91094">
        <time>1970-01-01T00:00:00+00:00</time>
        <ele>1482.0</ele>
      </trkpt>
      <trkpt lat="45.28922" lon="6.91094">
        <time>1970-01-01T00:00:00+00:00</time>
        <ele>1482.0</ele>
      </trkpt>
      <trkpt lat="45.28922" lon="6.91094">
        <time>1970-01-01T00:00:00+00:00</time>
        <ele>1482.0</ele>
      </trkpt>
      <trkpt lat="45.28918" lon="6.9109">
        <time>1970-01-01T00:00:00+00:00</time>
        <ele>1482.0</ele>
      </trkpt>
      <trkpt lat="45.28918" lon="6.9109">
        <time>1970-01-01T00:00:00+00:00</time>
        <ele>1482.0</ele>
      </trkpt>
      <trkpt lat="45.28914" lon="6.91087">
        <time>1970-01-01T00:00:00+00:00</time>
        <ele>1482.0</ele>
      </trkpt>
      <trkpt lat="45.28914" lon="6.91087">
        <time>1970-01-01T00:00:00+00:00</time>
        <ele>1482.0</ele>
      </trkpt>
      <trkpt lat="45.2891" lon="6.91084">
        <time>1970-01-01T00:00:00+00:00</time>
        <ele>1482.0</ele>
      </trkpt>
      <trkpt lat="45.2891" lon="6.91084">
        <time>1970-01-01T00:00:00+00:00</time>
        <ele>1482.0</ele>
      </trkpt>
      <trkpt lat="45.28905" lon="6.91081">
        <time>1970-01-01T00:00:00+00:00</time>
        <ele>1482.0</ele>
      </trkpt>
      <trkpt lat="45.28905" lon="6.91081">
        <time>1970-01-01T00:00:00+00:00</time>
        <ele>1482.0</ele>
      </trkpt>
      <trkpt lat="45.28902" lon="6.91074">
        <time>1970-01-01T00:00:00+00:00</time>
        <ele>1482.0</ele>
      </trkpt>
      <trkpt lat="45.28902" lon="6.91074">
        <time>1970-01-01T00:00:00+00:00</time>
        <ele>1482.0</ele>
      </trkpt>
      <trkpt lat="45.289" lon="6.91068">
        <time>1970-01-01T00:00:00+00:00</time>
        <ele>1482.0</ele>
      </trkpt>
      <trkpt lat="45.289" lon="6.91068">
        <time>1970-01-01T00:00:00+00:00</time>
        <ele>1482.0</ele>
      </trkpt>
      <trkpt lat="45.28897" lon="6.91062">
        <time>1970-01-01T00:00:00+00:00</time>
        <ele>1482.0</ele>
      </trkpt>
      <trkpt lat="45.28897" lon="6.91062">
        <time>1970-01-01T00:00:00+00:00</time>
        <ele>1482.0</ele>
      </trkpt>
      <trkpt lat="45.28894" lon="6.91056">
        <time>1970-01-01T00:00:00+00:00</time>
        <ele>1481.0</ele>
      </trkpt>
      <trkpt lat="45.28894" lon="6.91056">
        <time>1970-01-01T00:00:00+00:00</time>
        <ele>1481.0</ele>
      </trkpt>
      <trkpt lat="45.28892" lon="6.9105">
        <time>1970-01-01T00:00:00+00:00</time>
        <ele>1481.0</ele>
      </trkpt>
      <trkpt lat="45.28892" lon="6.9105">
        <time>1970-01-01T00:00:00+00:00</time>
        <ele>1481.0</ele>
      </trkpt>
      <trkpt lat="45.28889" lon="6.91044">
        <time>1970-01-01T00:00:00+00:00</time>
        <ele>1481.0</ele>
      </trkpt>
      <trkpt lat="45.28889" lon="6.91044">
        <time>1970-01-01T00:00:00+00:00</time>
        <ele>1481.0</ele>
      </trkpt>
      <trkpt lat="45.28887" lon="6.91037">
        <time>1970-01-01T00:00:00+00:00</time>
        <ele>1481.0</ele>
      </trkpt>
      <trkpt lat="45.28887" lon="6.91037">
        <time>1970-01-01T00:00:00+00:00</time>
        <ele>1481.0</ele>
      </trkpt>
      <trkpt lat="45.28886" lon="6.91029">
        <time>1970-01-01T00:00:00+00:00</time>
        <ele>1480.0</ele>
      </trkpt>
      <trkpt lat="45.28886" lon="6.91029">
        <time>1970-01-01T00:00:00+00:00</time>
        <ele>1480.0</ele>
      </trkpt>
      <trkpt lat="45.28885" lon="6.91022">
        <time>1970-01-01T00:00:00+00:00</time>
        <ele>1480.0</ele>
      </trkpt>
      <trkpt lat="45.28885" lon="6.91022">
        <time>1970-01-01T00:00:00+00:00</time>
        <ele>1480.0</ele>
      </trkpt>
      <trkpt lat="45.28884" lon="6.91015">
        <time>1970-01-01T00:00:00+00:00</time>
        <ele>1479.0</ele>
      </trkpt>
      <trkpt lat="45.28884" lon="6.91015">
        <time>1970-01-01T00:00:00+00:00</time>
        <ele>1479.0</ele>
      </trkpt>
      <trkpt lat="45.28882" lon="6.91009">
        <time>1970-01-01T00:00:00+00:00</time>
        <ele>1479.0</ele>
      </trkpt>
      <trkpt lat="45.28882" lon="6.91009">
        <time>1970-01-01T00:00:00+00:00</time>
        <ele>1479.0</ele>
      </trkpt>
      <trkpt lat="45.2888" lon="6.91002">
        <time>1970-01-01T00:00:00+00:00</time>
        <ele>1478.0</ele>
      </trkpt>
      <trkpt lat="45.2888" lon="6.91002">
        <time>1970-01-01T00:00:00+00:00</time>
        <ele>1478.0</ele>
      </trkpt>
      <trkpt lat="45.28878" lon="6.90996">
        <time>1970-01-01T00:00:00+00:00</time>
        <ele>1477.0</ele>
      </trkpt>
      <trkpt lat="45.28878" lon="6.90996">
        <time>1970-01-01T00:00:00+00:00</time>
        <ele>1477.0</ele>
      </trkpt>
      <trkpt lat="45.28876" lon="6.9099">
        <time>1970-01-01T00:00:00+00:00</time>
        <ele>1477.0</ele>
      </trkpt>
      <trkpt lat="45.28876" lon="6.9099">
        <time>1970-01-01T00:00:00+00:00</time>
        <ele>1477.0</ele>
      </trkpt>
      <trkpt lat="45.28874" lon="6.90984">
        <time>1970-01-01T00:00:00+00:00</time>
        <ele>1476.0</ele>
      </trkpt>
      <trkpt lat="45.28874" lon="6.90984">
        <time>1970-01-01T00:00:00+00:00</time>
        <ele>1476.0</ele>
      </trkpt>
      <trkpt lat="45.28871" lon="6.90978">
        <time>1970-01-01T00:00:00+00:00</time>
        <ele>1476.0</ele>
      </trkpt>
      <trkpt lat="45.28871" lon="6.90978">
        <time>1970-01-01T00:00:00+00:00</time>
        <ele>1476.0</ele>
      </trkpt>
      <trkpt lat="45.28868" lon="6.90973">
        <time>1970-01-01T00:00:00+00:00</time>
        <ele>1476.0</ele>
      </trkpt>
      <trkpt lat="45.28868" lon="6.90973">
        <time>1970-01-01T00:00:00+00:00</time>
        <ele>1476.0</ele>
      </trkpt>
      <trkpt lat="45.28864" lon="6.9097">
        <time>1970-01-01T00:00:00+00:00</time>
        <ele>1476.0</ele>
      </trkpt>
      <trkpt lat="45.28864" lon="6.9097">
        <time>1970-01-01T00:00:00+00:00</time>
        <ele>1476.0</ele>
      </trkpt>
      <trkpt lat="45.28859" lon="6.90967">
        <time>1970-01-01T00:00:00+00:00</time>
        <ele>1477.0</ele>
      </trkpt>
      <trkpt lat="45.28859" lon="6.90967">
        <time>1970-01-01T00:00:00+00:00</time>
        <ele>1477.0</ele>
      </trkpt>
      <trkpt lat="45.28854" lon="6.90965">
        <time>1970-01-01T00:00:00+00:00</time>
        <ele>1477.0</ele>
      </trkpt>
      <trkpt lat="45.28854" lon="6.90965">
        <time>1970-01-01T00:00:00+00:00</time>
        <ele>1477.0</ele>
      </trkpt>
      <trkpt lat="45.28849" lon="6.90963">
        <time>1970-01-01T00:00:00+00:00</time>
        <ele>1478.0</ele>
      </trkpt>
      <trkpt lat="45.28849" lon="6.90963">
        <time>1970-01-01T00:00:00+00:00</time>
        <ele>1478.0</ele>
      </trkpt>
      <trkpt lat="45.28844" lon="6.90962">
        <time>1970-01-01T00:00:00+00:00</time>
        <ele>1478.0</ele>
      </trkpt>
      <trkpt lat="45.28844" lon="6.90962">
        <time>1970-01-01T00:00:00+00:00</time>
        <ele>1478.0</ele>
      </trkpt>
      <trkpt lat="45.2884" lon="6.90958">
        <time>1970-01-01T00:00:00+00:00</time>
        <ele>1479.0</ele>
      </trkpt>
      <trkpt lat="45.2884" lon="6.90958">
        <time>1970-01-01T00:00:00+00:00</time>
        <ele>1479.0</ele>
      </trkpt>
      <trkpt lat="45.28836" lon="6.90954">
        <time>1970-01-01T00:00:00+00:00</time>
        <ele>1479.0</ele>
      </trkpt>
      <trkpt lat="45.28836" lon="6.90954">
        <time>1970-01-01T00:00:00+00:00</time>
        <ele>1479.0</ele>
      </trkpt>
      <trkpt lat="45.28831" lon="6.90952">
        <time>1970-01-01T00:00:00+00:00</time>
        <ele>1480.0</ele>
      </trkpt>
      <trkpt lat="45.28831" lon="6.90952">
        <time>1970-01-01T00:00:00+00:00</time>
        <ele>1480.0</ele>
      </trkpt>
      <trkpt lat="45.28826" lon="6.9095">
        <time>1970-01-01T00:00:00+00:00</time>
        <ele>1481.0</ele>
      </trkpt>
      <trkpt lat="45.28826" lon="6.9095">
        <time>1970-01-01T00:00:00+00:00</time>
        <ele>1481.0</ele>
      </trkpt>
      <trkpt lat="45.28821" lon="6.9095">
        <time>1970-01-01T00:00:00+00:00</time>
        <ele>1482.0</ele>
      </trkpt>
      <trkpt lat="45.28821" lon="6.9095">
        <time>1970-01-01T00:00:00+00:00</time>
        <ele>1482.0</ele>
      </trkpt>
      <trkpt lat="45.28817" lon="6.90953">
        <time>1970-01-01T00:00:00+00:00</time>
        <ele>1483.0</ele>
      </trkpt>
      <trkpt lat="45.28817" lon="6.90953">
        <time>1970-01-01T00:00:00+00:00</time>
        <ele>1483.0</ele>
      </trkpt>
      <trkpt lat="45.28812" lon="6.90953">
        <time>1970-01-01T00:00:00+00:00</time>
        <ele>1484.0</ele>
      </trkpt>
      <trkpt lat="45.28812" lon="6.90953">
        <time>1970-01-01T00:00:00+00:00</time>
        <ele>1484.0</ele>
      </trkpt>
      <trkpt lat="45.28808" lon="6.90949">
        <time>1970-01-01T00:00:00+00:00</time>
        <ele>1485.0</ele>
      </trkpt>
      <trkpt lat="45.28808" lon="6.90949">
        <time>1970-01-01T00:00:00+00:00</time>
        <ele>1485.0</ele>
      </trkpt>
      <trkpt lat="45.28805" lon="6.90944">
        <time>1970-01-01T00:00:00+00:00</time>
        <ele>1485.0</ele>
      </trkpt>
      <trkpt lat="45.28805" lon="6.90944">
        <time>1970-01-01T00:00:00+00:00</time>
        <ele>1485.0</ele>
      </trkpt>
      <trkpt lat="45.288" lon="6.90944">
        <time>1970-01-01T00:00:00+00:00</time>
        <ele>1486.0</ele>
      </trkpt>
      <trkpt lat="45.288" lon="6.90944">
        <time>1970-01-01T00:00:00+00:00</time>
        <ele>1486.0</ele>
      </trkpt>
      <trkpt lat="45.28795" lon="6.90945">
        <time>1970-01-01T00:00:00+00:00</time>
        <ele>1488.0</ele>
      </trkpt>
      <trkpt lat="45.28795" lon="6.90945">
        <time>1970-01-01T00:00:00+00:00</time>
        <ele>1488.0</ele>
      </trkpt>
      <trkpt lat="45.2879" lon="6.90947">
        <time>1970-01-01T00:00:00+00:00</time>
        <ele>1489.0</ele>
      </trkpt>
      <trkpt lat="45.2879" lon="6.90947">
        <time>1970-01-01T00:00:00+00:00</time>
        <ele>1489.0</ele>
      </trkpt>
      <trkpt lat="45.28785" lon="6.90949">
        <time>1970-01-01T00:00:00+00:00</time>
        <ele>1490.0</ele>
      </trkpt>
      <trkpt lat="45.28785" lon="6.90949">
        <time>1970-01-01T00:00:00+00:00</time>
        <ele>1490.0</ele>
      </trkpt>
      <trkpt lat="45.28781" lon="6.90953">
        <time>1970-01-01T00:00:00+00:00</time>
        <ele>1491.0</ele>
      </trkpt>
      <trkpt lat="45.28781" lon="6.90953">
        <time>1970-01-01T00:00:00+00:00</time>
        <ele>1491.0</ele>
      </trkpt>
      <trkpt lat="45.28778" lon="6.9096">
        <time>1970-01-01T00:00:00+00:00</time>
        <ele>1492.0</ele>
      </trkpt>
      <trkpt lat="45.28778" lon="6.9096">
        <time>1970-01-01T00:00:00+00:00</time>
        <ele>1492.0</ele>
      </trkpt>
      <trkpt lat="45.28774" lon="6.90965">
        <time>1970-01-01T00:00:00+00:00</time>
        <ele>1494.0</ele>
      </trkpt>
      <trkpt lat="45.28774" lon="6.90965">
        <time>1970-01-01T00:00:00+00:00</time>
        <ele>1494.0</ele>
      </trkpt>
      <trkpt lat="45.28771" lon="6.90971">
        <time>1970-01-01T00:00:00+00:00</time>
        <ele>1495.0</ele>
      </trkpt>
      <trkpt lat="45.28771" lon="6.90971">
        <time>1970-01-01T00:00:00+00:00</time>
        <ele>1495.0</ele>
      </trkpt>
      <trkpt lat="45.28766" lon="6.90973">
        <time>1970-01-01T00:00:00+00:00</time>
        <ele>1497.0</ele>
      </trkpt>
      <trkpt lat="45.28766" lon="6.90973">
        <time>1970-01-01T00:00:00+00:00</time>
        <ele>1497.0</ele>
      </trkpt>
      <trkpt lat="45.28762" lon="6.90976">
        <time>1970-01-01T00:00:00+00:00</time>
        <ele>1499.0</ele>
      </trkpt>
      <trkpt lat="45.28762" lon="6.90976">
        <time>1970-01-01T00:00:00+00:00</time>
        <ele>1499.0</ele>
      </trkpt>
      <trkpt lat="45.28758" lon="6.9098">
        <time>1970-01-01T00:00:00+00:00</time>
        <ele>1500.0</ele>
      </trkpt>
      <trkpt lat="45.28758" lon="6.9098">
        <time>1970-01-01T00:00:00+00:00</time>
        <ele>1500.0</ele>
      </trkpt>
      <trkpt lat="45.28754" lon="6.90983">
        <time>1970-01-01T00:00:00+00:00</time>
        <ele>1502.0</ele>
      </trkpt>
      <trkpt lat="45.28754" lon="6.90983">
        <time>1970-01-01T00:00:00+00:00</time>
        <ele>1502.0</ele>
      </trkpt>
      <trkpt lat="45.2875" lon="6.90986">
        <time>1970-01-01T00:00:00+00:00</time>
        <ele>1503.0</ele>
      </trkpt>
      <trkpt lat="45.2875" lon="6.90986">
        <time>1970-01-01T00:00:00+00:00</time>
        <ele>1503.0</ele>
      </trkpt>
      <trkpt lat="45.28746" lon="6.90989">
        <time>1970-01-01T00:00:00+00:00</time>
        <ele>1505.0</ele>
      </trkpt>
      <trkpt lat="45.28746" lon="6.90989">
        <time>1970-01-01T00:00:00+00:00</time>
        <ele>1505.0</ele>
      </trkpt>
      <trkpt lat="45.28742" lon="6.90992">
        <time>1970-01-01T00:00:00+00:00</time>
        <ele>1506.0</ele>
      </trkpt>
      <trkpt lat="45.28742" lon="6.90992">
        <time>1970-01-01T00:00:00+00:00</time>
        <ele>1506.0</ele>
      </trkpt>
      <trkpt lat="45.28739" lon="6.90997">
        <time>1970-01-01T00:00:00+00:00</time>
        <ele>1507.0</ele>
      </trkpt>
      <trkpt lat="45.28739" lon="6.90997">
        <time>1970-01-01T00:00:00+00:00</time>
        <ele>1507.0</ele>
      </trkpt>
      <trkpt lat="45.28735" lon="6.91001">
        <time>1970-01-01T00:00:00+00:00</time>
        <ele>1508.0</ele>
      </trkpt>
      <trkpt lat="45.28735" lon="6.91001">
        <time>1970-01-01T00:00:00+00:00</time>
        <ele>1508.0</ele>
      </trkpt>
      <trkpt lat="45.2873" lon="6.90999">
        <time>1970-01-01T00:00:00+00:00</time>
        <ele>1509.0</ele>
      </trkpt>
      <trkpt lat="45.2873" lon="6.90999">
        <time>1970-01-01T00:00:00+00:00</time>
        <ele>1509.0</ele>
      </trkpt>
      <trkpt lat="45.28726" lon="6.90996">
        <time>1970-01-01T00:00:00+00:00</time>
        <ele>1510.0</ele>
      </trkpt>
      <trkpt lat="45.28726" lon="6.90996">
        <time>1970-01-01T00:00:00+00:00</time>
        <ele>1510.0</ele>
      </trkpt>
      <trkpt lat="45.28721" lon="6.90995">
        <time>1970-01-01T00:00:00+00:00</time>
        <ele>1511.0</ele>
      </trkpt>
      <trkpt lat="45.28721" lon="6.90995">
        <time>1970-01-01T00:00:00+00:00</time>
        <ele>1511.0</ele>
      </trkpt>
      <trkpt lat="45.28716" lon="6.90994">
        <time>1970-01-01T00:00:00+00:00</time>
        <ele>1511.0</ele>
      </trkpt>
      <trkpt lat="45.28716" lon="6.90994">
        <time>1970-01-01T00:00:00+00:00</time>
        <ele>1511.0</ele>
      </trkpt>
      <trkpt lat="45.28711" lon="6.90993">
        <time>1970-01-01T00:00:00+00:00</time>
        <ele>1511.0</ele>
      </trkpt>
      <trkpt lat="45.28711" lon="6.90993">
        <time>1970-01-01T00:00:00+00:00</time>
        <ele>1511.0</ele>
      </trkpt>
      <trkpt lat="45.28707" lon="6.90997">
        <time>1970-01-01T00:00:00+00:00</time>
        <ele>1511.0</ele>
      </trkpt>
      <trkpt lat="45.28707" lon="6.90997">
        <time>1970-01-01T00:00:00+00:00</time>
        <ele>1511.0</ele>
      </trkpt>
      <trkpt lat="45.28704" lon="6.91003">
        <time>1970-01-01T00:00:00+00:00</time>
        <ele>1512.0</ele>
      </trkpt>
      <trkpt lat="45.28704" lon="6.91003">
        <time>1970-01-01T00:00:00+00:00</time>
        <ele>1512.0</ele>
      </trkpt>
      <trkpt lat="45.28701" lon="6.91008">
        <time>1970-01-01T00:00:00+00:00</time>
        <ele>1513.0</ele>
      </trkpt>
      <trkpt lat="45.28701" lon="6.91008">
        <time>1970-01-01T00:00:00+00:00</time>
        <ele>1513.0</ele>
      </trkpt>
      <trkpt lat="45.28698" lon="6.91014">
        <time>1970-01-01T00:00:00+00:00</time>
        <ele>1513.0</ele>
      </trkpt>
      <trkpt lat="45.28698" lon="6.91014">
        <time>1970-01-01T00:00:00+00:00</time>
        <ele>1513.0</ele>
      </trkpt>
      <trkpt lat="45.28695" lon="6.9102">
        <time>1970-01-01T00:00:00+00:00</time>
        <ele>1514.0</ele>
      </trkpt>
      <trkpt lat="45.28695" lon="6.9102">
        <time>1970-01-01T00:00:00+00:00</time>
        <ele>1514.0</ele>
      </trkpt>
      <trkpt lat="45.28693" lon="6.91026">
        <time>1970-01-01T00:00:00+00:00</time>
        <ele>1515.0</ele>
      </trkpt>
      <trkpt lat="45.28693" lon="6.91026">
        <time>1970-01-01T00:00:00+00:00</time>
        <ele>1515.0</ele>
      </trkpt>
      <trkpt lat="45.2869" lon="6.91031">
        <time>1970-01-01T00:00:00+00:00</time>
        <ele>1516.0</ele>
      </trkpt>
      <trkpt lat="45.2869" lon="6.91031">
        <time>1970-01-01T00:00:00+00:00</time>
        <ele>1516.0</ele>
      </trkpt>
      <trkpt lat="45.28687" lon="6.91036">
        <time>1970-01-01T00:00:00+00:00</time>
        <ele>1516.0</ele>
      </trkpt>
      <trkpt lat="45.28687" lon="6.91036">
        <time>1970-01-01T00:00:00+00:00</time>
        <ele>1516.0</ele>
      </trkpt>
      <trkpt lat="45.28683" lon="6.91039">
        <time>1970-01-01T00:00:00+00:00</time>
        <ele>1517.0</ele>
      </trkpt>
      <trkpt lat="45.28683" lon="6.91039">
        <time>1970-01-01T00:00:00+00:00</time>
        <ele>1517.0</ele>
      </trkpt>
      <trkpt lat="45.2868" lon="6.91046">
        <time>1970-01-01T00:00:00+00:00</time>
        <ele>1518.0</ele>
      </trkpt>
      <trkpt lat="45.2868" lon="6.91046">
        <time>1970-01-01T00:00:00+00:00</time>
        <ele>1518.0</ele>
      </trkpt>
      <trkpt lat="45.28679" lon="6.91053">
        <time>1970-01-01T00:00:00+00:00</time>
        <ele>1519.0</ele>
      </trkpt>
      <trkpt lat="45.28679" lon="6.91053">
        <time>1970-01-01T00:00:00+00:00</time>
        <ele>1519.0</ele>
      </trkpt>
      <trkpt lat="45.28678" lon="6.9106">
        <time>1970-01-01T00:00:00+00:00</time>
        <ele>1520.0</ele>
      </trkpt>
      <trkpt lat="45.28678" lon="6.9106">
        <time>1970-01-01T00:00:00+00:00</time>
        <ele>1520.0</ele>
      </trkpt>
      <trkpt lat="45.28676" lon="6.91066">
        <time>1970-01-01T00:00:00+00:00</time>
        <ele>1521.0</ele>
      </trkpt>
      <trkpt lat="45.28676" lon="6.91066">
        <time>1970-01-01T00:00:00+00:00</time>
        <ele>1521.0</ele>
      </trkpt>
      <trkpt lat="45.28673" lon="6.91072">
        <time>1970-01-01T00:00:00+00:00</time>
        <ele>1522.0</ele>
      </trkpt>
      <trkpt lat="45.28673" lon="6.91072">
        <time>1970-01-01T00:00:00+00:00</time>
        <ele>1522.0</ele>
      </trkpt>
      <trkpt lat="45.28673" lon="6.91079">
        <time>1970-01-01T00:00:00+00:00</time>
        <ele>1523.0</ele>
      </trkpt>
      <trkpt lat="45.28673" lon="6.91079">
        <time>1970-01-01T00:00:00+00:00</time>
        <ele>1523.0</ele>
      </trkpt>
      <trkpt lat="45.28671" lon="6.91086">
        <time>1970-01-01T00:00:00+00:00</time>
        <ele>1524.0</ele>
      </trkpt>
      <trkpt lat="45.28671" lon="6.91086">
        <time>1970-01-01T00:00:00+00:00</time>
        <ele>1524.0</ele>
      </trkpt>
      <trkpt lat="45.2867" lon="6.91093">
        <time>1970-01-01T00:00:00+00:00</time>
        <ele>1525.0</ele>
      </trkpt>
      <trkpt lat="45.2867" lon="6.91093">
        <time>1970-01-01T00:00:00+00:00</time>
        <ele>1525.0</ele>
      </trkpt>
      <trkpt lat="45.28668" lon="6.911">
        <time>1970-01-01T00:00:00+00:00</time>
        <ele>1525.0</ele>
      </trkpt>
      <trkpt lat="45.28668" lon="6.911">
        <time>1970-01-01T00:00:00+00:00</time>
        <ele>1525.0</ele>
      </trkpt>
      <trkpt lat="45.28667" lon="6.91107">
        <time>1970-01-01T00:00:00+00:00</time>
        <ele>1526.0</ele>
      </trkpt>
      <trkpt lat="45.28667" lon="6.91107">
        <time>1970-01-01T00:00:00+00:00</time>
        <ele>1526.0</ele>
      </trkpt>
      <trkpt lat="45.28665" lon="6.91114">
        <time>1970-01-01T00:00:00+00:00</time>
        <ele>1526.0</ele>
      </trkpt>
      <trkpt lat="45.28665" lon="6.91114">
        <time>1970-01-01T00:00:00+00:00</time>
        <ele>1526.0</ele>
      </trkpt>
      <trkpt lat="45.28664" lon="6.91121">
        <time>1970-01-01T00:00:00+00:00</time>
        <ele>1527.0</ele>
      </trkpt>
      <trkpt lat="45.28664" lon="6.91121">
        <time>1970-01-01T00:00:00+00:00</time>
        <ele>1527.0</ele>
      </trkpt>
      <trkpt lat="45.28661" lon="6.91128">
        <time>1970-01-01T00:00:00+00:00</time>
        <ele>1527.0</ele>
      </trkpt>
      <trkpt lat="45.28661" lon="6.91128">
        <time>1970-01-01T00:00:00+00:00</time>
        <ele>1527.0</ele>
      </trkpt>
      <trkpt lat="45.28659" lon="6.91135">
        <time>1970-01-01T00:00:00+00:00</time>
        <ele>1528.0</ele>
      </trkpt>
      <trkpt lat="45.28659" lon="6.91135">
        <time>1970-01-01T00:00:00+00:00</time>
        <ele>1528.0</ele>
      </trkpt>
      <trkpt lat="45.28657" lon="6.91141">
        <time>1970-01-01T00:00:00+00:00</time>
        <ele>1529.0</ele>
      </trkpt>
      <trkpt lat="45.28657" lon="6.91141">
        <time>1970-01-01T00:00:00+00:00</time>
        <ele>1529.0</ele>
      </trkpt>
      <trkpt lat="45.28654" lon="6.91148">
        <time>1970-01-01T00:00:00+00:00</time>
        <ele>1530.0</ele>
      </trkpt>
      <trkpt lat="45.28654" lon="6.91148">
        <time>1970-01-01T00:00:00+00:00</time>
        <ele>1530.0</ele>
      </trkpt>
      <trkpt lat="45.28653" lon="6.91156">
        <time>1970-01-01T00:00:00+00:00</time>
        <ele>1531.0</ele>
      </trkpt>
      <trkpt lat="45.28653" lon="6.91156">
        <time>1970-01-01T00:00:00+00:00</time>
        <ele>1531.0</ele>
      </trkpt>
      <trkpt lat="45.28651" lon="6.91162">
        <time>1970-01-01T00:00:00+00:00</time>
        <ele>1531.0</ele>
      </trkpt>
      <trkpt lat="45.28651" lon="6.91162">
        <time>1970-01-01T00:00:00+00:00</time>
        <ele>1531.0</ele>
      </trkpt>
      <trkpt lat="45.28649" lon="6.91168">
        <time>1970-01-01T00:00:00+00:00</time>
        <ele>1532.0</ele>
      </trkpt>
      <trkpt lat="45.28649" lon="6.91168">
        <time>1970-01-01T00:00:00+00:00</time>
        <ele>1532.0</ele>
      </trkpt>
      <trkpt lat="45.28648" lon="6.91175">
        <time>1970-01-01T00:00:00+00:00</time>
        <ele>1533.0</ele>
      </trkpt>
      <trkpt lat="45.28648" lon="6.91175">
        <time>1970-01-01T00:00:00+00:00</time>
        <ele>1533.0</ele>
      </trkpt>
      <trkpt lat="45.28647" lon="6.91182">
        <time>1970-01-01T00:00:00+00:00</time>
        <ele>1534.0</ele>
      </trkpt>
      <trkpt lat="45.28647" lon="6.91182">
        <time>1970-01-01T00:00:00+00:00</time>
        <ele>1534.0</ele>
      </trkpt>
      <trkpt lat="45.28644" lon="6.91188">
        <time>1970-01-01T00:00:00+00:00</time>
        <ele>1534.0</ele>
      </trkpt>
      <trkpt lat="45.28644" lon="6.91188">
        <time>1970-01-01T00:00:00+00:00</time>
        <ele>1534.0</ele>
      </trkpt>
      <trkpt lat="45.28642" lon="6.91194">
        <time>1970-01-01T00:00:00+00:00</time>
        <ele>1534.0</ele>
      </trkpt>
      <trkpt lat="45.28642" lon="6.91194">
        <time>1970-01-01T00:00:00+00:00</time>
        <ele>1534.0</ele>
      </trkpt>
      <trkpt lat="45.2864" lon="6.912">
        <time>1970-01-01T00:00:00+00:00</time>
        <ele>1534.0</ele>
      </trkpt>
      <trkpt lat="45.2864" lon="6.912">
        <time>1970-01-01T00:00:00+00:00</time>
        <ele>1534.0</ele>
      </trkpt>
      <trkpt lat="45.28638" lon="6.91208">
        <time>1970-01-01T00:00:00+00:00</time>
        <ele>1535.0</ele>
      </trkpt>
      <trkpt lat="45.28638" lon="6.91208">
        <time>1970-01-01T00:00:00+00:00</time>
        <ele>1535.0</ele>
      </trkpt>
      <trkpt lat="45.28635" lon="6.91214">
        <time>1970-01-01T00:00:00+00:00</time>
        <ele>1536.0</ele>
      </trkpt>
      <trkpt lat="45.28635" lon="6.91214">
        <time>1970-01-01T00:00:00+00:00</time>
        <ele>1536.0</ele>
      </trkpt>
      <trkpt lat="45.28632" lon="6.91219">
        <time>1970-01-01T00:00:00+00:00</time>
        <ele>1537.0</ele>
      </trkpt>
      <trkpt lat="45.28632" lon="6.91219">
        <time>1970-01-01T00:00:00+00:00</time>
        <ele>1537.0</ele>
      </trkpt>
      <trkpt lat="45.28628" lon="6.91223">
        <time>1970-01-01T00:00:00+00:00</time>
        <ele>1537.0</ele>
      </trkpt>
      <trkpt lat="45.28628" lon="6.91223">
        <time>1970-01-01T00:00:00+00:00</time>
        <ele>1537.0</ele>
      </trkpt>
      <trkpt lat="45.28625" lon="6.91228">
        <time>1970-01-01T00:00:00+00:00</time>
        <ele>1538.0</ele>
      </trkpt>
      <trkpt lat="45.28625" lon="6.91228">
        <time>1970-01-01T00:00:00+00:00</time>
        <ele>1538.0</ele>
      </trkpt>
      <trkpt lat="45.28621" lon="6.91232">
        <time>1970-01-01T00:00:00+00:00</time>
        <ele>1539.0</ele>
      </trkpt>
      <trkpt lat="45.28621" lon="6.91232">
        <time>1970-01-01T00:00:00+00:00</time>
        <ele>1539.0</ele>
      </trkpt>
      <trkpt lat="45.28617" lon="6.91236">
        <time>1970-01-01T00:00:00+00:00</time>
        <ele>1539.0</ele>
      </trkpt>
      <trkpt lat="45.28617" lon="6.91236">
        <time>1970-01-01T00:00:00+00:00</time>
        <ele>1539.0</ele>
      </trkpt>
      <trkpt lat="45.28612" lon="6.91238">
        <time>1970-01-01T00:00:00+00:00</time>
        <ele>1539.0</ele>
      </trkpt>
      <trkpt lat="45.28612" lon="6.91238">
        <time>1970-01-01T00:00:00+00:00</time>
        <ele>1539.0</ele>
      </trkpt>
      <trkpt lat="45.28608" lon="6.91241">
        <time>1970-01-01T00:00:00+00:00</time>
        <ele>1539.0</ele>
      </trkpt>
      <trkpt lat="45.28608" lon="6.91241">
        <time>1970-01-01T00:00:00+00:00</time>
        <ele>1539.0</ele>
      </trkpt>
      <trkpt lat="45.28604" lon="6.91246">
        <time>1970-01-01T00:00:00+00:00</time>
        <ele>1540.0</ele>
      </trkpt>
      <trkpt lat="45.28604" lon="6.91246">
        <time>1970-01-01T00:00:00+00:00</time>
        <ele>1540.0</ele>
      </trkpt>
      <trkpt lat="45.286" lon="6.91249">
        <time>1970-01-01T00:00:00+00:00</time>
        <ele>1540.0</ele>
      </trkpt>
      <trkpt lat="45.286" lon="6.91249">
        <time>1970-01-01T00:00:00+00:00</time>
        <ele>1540.0</ele>
      </trkpt>
      <trkpt lat="45.28595" lon="6.91252">
        <time>1970-01-01T00:00:00+00:00</time>
        <ele>1541.0</ele>
      </trkpt>
      <trkpt lat="45.28595" lon="6.91252">
        <time>1970-01-01T00:00:00+00:00</time>
        <ele>1541.0</ele>
      </trkpt>
      <trkpt lat="45.28591" lon="6.91255">
        <time>1970-01-01T00:00:00+00:00</time>
        <ele>1542.0</ele>
      </trkpt>
      <trkpt lat="45.28591" lon="6.91255">
        <time>1970-01-01T00:00:00+00:00</time>
        <ele>1542.0</ele>
      </trkpt>
      <trkpt lat="45.28587" lon="6.91259">
        <time>1970-01-01T00:00:00+00:00</time>
        <ele>1543.0</ele>
      </trkpt>
      <trkpt lat="45.28587" lon="6.91259">
        <time>1970-01-01T00:00:00+00:00</time>
        <ele>1543.0</ele>
      </trkpt>
      <trkpt lat="45.28582" lon="6.91262">
        <time>1970-01-01T00:00:00+00:00</time>
        <ele>1544.0</ele>
      </trkpt>
      <trkpt lat="45.28582" lon="6.91262">
        <time>1970-01-01T00:00:00+00:00</time>
        <ele>1544.0</ele>
      </trkpt>
      <trkpt lat="45.28577" lon="6.91264">
        <time>1970-01-01T00:00:00+00:00</time>
        <ele>1545.0</ele>
      </trkpt>
      <trkpt lat="45.28577" lon="6.91264">
        <time>1970-01-01T00:00:00+00:00</time>
        <ele>1545.0</ele>
      </trkpt>
      <trkpt lat="45.28572" lon="6.91267">
        <time>1970-01-01T00:00:00+00:00</time>
        <ele>1546.0</ele>
      </trkpt>
      <trkpt lat="45.28572" lon="6.91267">
        <time>1970-01-01T00:00:00+00:00</time>
        <ele>1546.0</ele>
      </trkpt>
      <trkpt lat="45.28567" lon="6.91269">
        <time>1970-01-01T00:00:00+00:00</time>
        <ele>1547.0</ele>
      </trkpt>
      <trkpt lat="45.28567" lon="6.91269">
        <time>1970-01-01T00:00:00+00:00</time>
        <ele>1547.0</ele>
      </trkpt>
      <trkpt lat="45.28562" lon="6.9127">
        <time>1970-01-01T00:00:00+00:00</time>
        <ele>1548.0</ele>
      </trkpt>
      <trkpt lat="45.28562" lon="6.9127">
        <time>1970-01-01T00:00:00+00:00</time>
        <ele>1548.0</ele>
      </trkpt>
      <trkpt lat="45.28557" lon="6.91273">
        <time>1970-01-01T00:00:00+00:00</time>
        <ele>1550.0</ele>
      </trkpt>
      <trkpt lat="45.28557" lon="6.91273">
        <time>1970-01-01T00:00:00+00:00</time>
        <ele>1550.0</ele>
      </trkpt>
      <trkpt lat="45.28552" lon="6.91276">
        <time>1970-01-01T00:00:00+00:00</time>
        <ele>1551.0</ele>
      </trkpt>
      <trkpt lat="45.28552" lon="6.91276">
        <time>1970-01-01T00:00:00+00:00</time>
        <ele>1551.0</ele>
      </trkpt>
      <trkpt lat="45.28547" lon="6.91277">
        <time>1970-01-01T00:00:00+00:00</time>
        <ele>1553.0</ele>
      </trkpt>
      <trkpt lat="45.28547" lon="6.91277">
        <time>1970-01-01T00:00:00+00:00</time>
        <ele>1553.0</ele>
      </trkpt>
      <trkpt lat="45.28542" lon="6.91277">
        <time>1970-01-01T00:00:00+00:00</time>
        <ele>1555.0</ele>
      </trkpt>
      <trkpt lat="45.28542" lon="6.91277">
        <time>1970-01-01T00:00:00+00:00</time>
        <ele>1555.0</ele>
      </trkpt>
      <trkpt lat="45.28537" lon="6.91277">
        <time>1970-01-01T00:00:00+00:00</time>
        <ele>1556.0</ele>
      </trkpt>
      <trkpt lat="45.28537" lon="6.91277">
        <time>1970-01-01T00:00:00+00:00</time>
        <ele>1556.0</ele>
      </trkpt>
      <trkpt lat="45.28532" lon="6.91276">
        <time>1970-01-01T00:00:00+00:00</time>
        <ele>1558.0</ele>
      </trkpt>
      <trkpt lat="45.28532" lon="6.91276">
        <time>1970-01-01T00:00:00+00:00</time>
        <ele>1558.0</ele>
      </trkpt>
      <trkpt lat="45.28527" lon="6.91274">
        <time>1970-01-01T00:00:00+00:00</time>
        <ele>1559.0</ele>
      </trkpt>
      <trkpt lat="45.28527" lon="6.91274">
        <time>1970-01-01T00:00:00+00:00</time>
        <ele>1559.0</ele>
      </trkpt>
      <trkpt lat="45.28522" lon="6.91273">
        <time>1970-01-01T00:00:00+00:00</time>
        <ele>1560.0</ele>
      </trkpt>
      <trkpt lat="45.28522" lon="6.91273">
        <time>1970-01-01T00:00:00+00:00</time>
        <ele>1560.0</ele>
      </trkpt>
      <trkpt lat="45.28518" lon="6.9127">
        <time>1970-01-01T00:00:00+00:00</time>
        <ele>1561.0</ele>
      </trkpt>
      <trkpt lat="45.28518" lon="6.9127">
        <time>1970-01-01T00:00:00+00:00</time>
        <ele>1561.0</ele>
      </trkpt>
      <trkpt lat="45.28513" lon="6.91268">
        <time>1970-01-01T00:00:00+00:00</time>
        <ele>1562.0</ele>
      </trkpt>
      <trkpt lat="45.28513" lon="6.91268">
        <time>1970-01-01T00:00:00+00:00</time>
        <ele>1562.0</ele>
      </trkpt>
      <trkpt lat="45.28508" lon="6.91267">
        <time>1970-01-01T00:00:00+00:00</time>
        <ele>1562.0</ele>
      </trkpt>
      <trkpt lat="45.28508" lon="6.91267">
        <time>1970-01-01T00:00:00+00:00</time>
        <ele>1562.0</ele>
      </trkpt>
      <trkpt lat="45.28503" lon="6.91266">
        <time>1970-01-01T00:00:00+00:00</time>
        <ele>1563.0</ele>
      </trkpt>
      <trkpt lat="45.28503" lon="6.91266">
        <time>1970-01-01T00:00:00+00:00</time>
        <ele>1563.0</ele>
      </trkpt>
      <trkpt lat="45.28498" lon="6.91268">
        <time>1970-01-01T00:00:00+00:00</time>
        <ele>1564.0</ele>
      </trkpt>
      <trkpt lat="45.28498" lon="6.91268">
        <time>1970-01-01T00:00:00+00:00</time>
        <ele>1564.0</ele>
      </trkpt>
      <trkpt lat="45.28493" lon="6.91269">
        <time>1970-01-01T00:00:00+00:00</time>
        <ele>1565.0</ele>
      </trkpt>
      <trkpt lat="45.28493" lon="6.91269">
        <time>1970-01-01T00:00:00+00:00</time>
        <ele>1565.0</ele>
      </trkpt>
      <trkpt lat="45.28489" lon="6.91272">
        <time>1970-01-01T00:00:00+00:00</time>
        <ele>1566.0</ele>
      </trkpt>
      <trkpt lat="45.28489" lon="6.91272">
        <time>1970-01-01T00:00:00+00:00</time>
        <ele>1566.0</ele>
      </trkpt>
      <trkpt lat="45.28485" lon="6.91275">
        <time>1970-01-01T00:00:00+00:00</time>
        <ele>1566.0</ele>
      </trkpt>
      <trkpt lat="45.28485" lon="6.91275">
        <time>1970-01-01T00:00:00+00:00</time>
        <ele>1566.0</ele>
      </trkpt>
      <trkpt lat="45.2848" lon="6.91273">
        <time>1970-01-01T00:00:00+00:00</time>
        <ele>1567.0</ele>
      </trkpt>
      <trkpt lat="45.2848" lon="6.91273">
        <time>1970-01-01T00:00:00+00:00</time>
        <ele>1567.0</ele>
      </trkpt>
      <trkpt lat="45.28475" lon="6.91273">
        <time>1970-01-01T00:00:00+00:00</time>
        <ele>1568.0</ele>
      </trkpt>
      <trkpt lat="45.28475" lon="6.91273">
        <time>1970-01-01T00:00:00+00:00</time>
        <ele>1568.0</ele>
      </trkpt>
      <trkpt lat="45.2847" lon="6.91274">
        <time>1970-01-01T00:00:00+00:00</time>
        <ele>1569.0</ele>
      </trkpt>
      <trkpt lat="45.2847" lon="6.91274">
        <time>1970-01-01T00:00:00+00:00</time>
        <ele>1569.0</ele>
      </trkpt>
      <trkpt lat="45.28466" lon="6.91277">
        <time>1970-01-01T00:00:00+00:00</time>
        <ele>1569.0</ele>
      </trkpt>
      <trkpt lat="45.28466" lon="6.91277">
        <time>1970-01-01T00:00:00+00:00</time>
        <ele>1569.0</ele>
      </trkpt>
      <trkpt lat="45.2846" lon="6.91278">
        <time>1970-01-01T00:00:00+00:00</time>
        <ele>1570.0</ele>
      </trkpt>
      <trkpt lat="45.2846" lon="6.91278">
        <time>1970-01-01T00:00:00+00:00</time>
        <ele>1570.0</ele>
      </trkpt>
      <trkpt lat="45.28455" lon="6.91281">
        <time>1970-01-01T00:00:00+00:00</time>
        <ele>1571.0</ele>
      </trkpt>
      <trkpt lat="45.28455" lon="6.91281">
        <time>1970-01-01T00:00:00+00:00</time>
        <ele>1571.0</ele>
      </trkpt>
      <trkpt lat="45.28451" lon="6.91285">
        <time>1970-01-01T00:00:00+00:00</time>
        <ele>1573.0</ele>
      </trkpt>
      <trkpt lat="45.28451" lon="6.91285">
        <time>1970-01-01T00:00:00+00:00</time>
        <ele>1573.0</ele>
      </trkpt>
      <trkpt lat="45.28447" lon="6.9129">
        <time>1970-01-01T00:00:00+00:00</time>
        <ele>1574.0</ele>
      </trkpt>
      <trkpt lat="45.28447" lon="6.9129">
        <time>1970-01-01T00:00:00+00:00</time>
        <ele>1574.0</ele>
      </trkpt>
      <trkpt lat="45.28443" lon="6.91295">
        <time>1970-01-01T00:00:00+00:00</time>
        <ele>1575.0</ele>
      </trkpt>
      <trkpt lat="45.28443" lon="6.91295">
        <time>1970-01-01T00:00:00+00:00</time>
        <ele>1575.0</ele>
      </trkpt>
      <trkpt lat="45.28439" lon="6.913">
        <time>1970-01-01T00:00:00+00:00</time>
        <ele>1576.0</ele>
      </trkpt>
      <trkpt lat="45.28439" lon="6.913">
        <time>1970-01-01T00:00:00+00:00</time>
        <ele>1576.0</ele>
      </trkpt>
      <trkpt lat="45.28435" lon="6.91305">
        <time>1970-01-01T00:00:00+00:00</time>
        <ele>1578.0</ele>
      </trkpt>
      <trkpt lat="45.28435" lon="6.91305">
        <time>1970-01-01T00:00:00+00:00</time>
        <ele>1578.0</ele>
      </trkpt>
      <trkpt lat="45.28431" lon="6.9131">
        <time>1970-01-01T00:00:00+00:00</time>
        <ele>1579.0</ele>
      </trkpt>
      <trkpt lat="45.28431" lon="6.9131">
        <time>1970-01-01T00:00:00+00:00</time>
        <ele>1579.0</ele>
      </trkpt>
      <trkpt lat="45.2843" lon="6.91317">
        <time>1970-01-01T00:00:00+00:00</time>
        <ele>1580.0</ele>
      </trkpt>
      <trkpt lat="45.2843" lon="6.91317">
        <time>1970-01-01T00:00:00+00:00</time>
        <ele>1580.0</ele>
      </trkpt>
      <trkpt lat="45.28427" lon="6.91322">
        <time>1970-01-01T00:00:00+00:00</time>
        <ele>1581.0</ele>
      </trkpt>
      <trkpt lat="45.28427" lon="6.91322">
        <time>1970-01-01T00:00:00+00:00</time>
        <ele>1581.0</ele>
      </trkpt>
      <trkpt lat="45.28423" lon="6.91326">
        <time>1970-01-01T00:00:00+00:00</time>
        <ele>1582.0</ele>
      </trkpt>
      <trkpt lat="45.28423" lon="6.91326">
        <time>1970-01-01T00:00:00+00:00</time>
        <ele>1582.0</ele>
      </trkpt>
      <trkpt lat="45.2842" lon="6.91331">
        <time>1970-01-01T00:00:00+00:00</time>
        <ele>1583.0</ele>
      </trkpt>
      <trkpt lat="45.2842" lon="6.91331">
        <time>1970-01-01T00:00:00+00:00</time>
        <ele>1583.0</ele>
      </trkpt>
      <trkpt lat="45.28416" lon="6.91335">
        <time>1970-01-01T00:00:00+00:00</time>
        <ele>1584.0</ele>
      </trkpt>
      <trkpt lat="45.28416" lon="6.91335">
        <time>1970-01-01T00:00:00+00:00</time>
        <ele>1584.0</ele>
      </trkpt>
      <trkpt lat="45.28411" lon="6.91337">
        <time>1970-01-01T00:00:00+00:00</time>
        <ele>1585.0</ele>
      </trkpt>
      <trkpt lat="45.28411" lon="6.91337">
        <time>1970-01-01T00:00:00+00:00</time>
        <ele>1585.0</ele>
      </trkpt>
      <trkpt lat="45.28406" lon="6.91339">
        <time>1970-01-01T00:00:00+00:00</time>
        <ele>1587.0</ele>
      </trkpt>
      <trkpt lat="45.28406" lon="6.91339">
        <time>1970-01-01T00:00:00+00:00</time>
        <ele>1587.0</ele>
      </trkpt>
      <trkpt lat="45.28401" lon="6.91341">
        <time>1970-01-01T00:00:00+00:00</time>
        <ele>1588.0</ele>
      </trkpt>
      <trkpt lat="45.28401" lon="6.91341">
        <time>1970-01-01T00:00:00+00:00</time>
        <ele>1588.0</ele>
      </trkpt>
      <trkpt lat="45.28396" lon="6.91342">
        <time>1970-01-01T00:00:00+00:00</time>
        <ele>1590.0</ele>
      </trkpt>
      <trkpt lat="45.28396" lon="6.91342">
        <time>1970-01-01T00:00:00+00:00</time>
        <ele>1590.0</ele>
      </trkpt>
      <trkpt lat="45.28391" lon="6.91343">
        <time>1970-01-01T00:00:00+00:00</time>
        <ele>1592.0</ele>
      </trkpt>
      <trkpt lat="45.28391" lon="6.91343">
        <time>1970-01-01T00:00:00+00:00</time>
        <ele>1592.0</ele>
      </trkpt>
      <trkpt lat="45.28386" lon="6.91345">
        <time>1970-01-01T00:00:00+00:00</time>
        <ele>1594.0</ele>
      </trkpt>
      <trkpt lat="45.28386" lon="6.91345">
        <time>1970-01-01T00:00:00+00:00</time>
        <ele>1594.0</ele>
      </trkpt>
      <trkpt lat="45.28381" lon="6.91345">
        <time>1970-01-01T00:00:00+00:00</time>
        <ele>1596.0</ele>
      </trkpt>
      <trkpt lat="45.28381" lon="6.91345">
        <time>1970-01-01T00:00:00+00:00</time>
        <ele>1596.0</ele>
      </trkpt>
      <trkpt lat="45.28376" lon="6.91345">
        <time>1970-01-01T00:00:00+00:00</time>
        <ele>1597.0</ele>
      </trkpt>
      <trkpt lat="45.28376" lon="6.91345">
        <time>1970-01-01T00:00:00+00:00</time>
        <ele>1597.0</ele>
      </trkpt>
      <trkpt lat="45.28372" lon="6.91342">
        <time>1970-01-01T00:00:00+00:00</time>
        <ele>1598.0</ele>
      </trkpt>
      <trkpt lat="45.28372" lon="6.91342">
        <time>1970-01-01T00:00:00+00:00</time>
        <ele>1598.0</ele>
      </trkpt>
      <trkpt lat="45.28367" lon="6.91343">
        <time>1970-01-01T00:00:00+00:00</time>
        <ele>1599.0</ele>
      </trkpt>
      <trkpt lat="45.28367" lon="6.91343">
        <time>1970-01-01T00:00:00+00:00</time>
        <ele>1599.0</ele>
      </trkpt>
      <trkpt lat="45.28362" lon="6.91344">
        <time>1970-01-01T00:00:00+00:00</time>
        <ele>1601.0</ele>
      </trkpt>
      <trkpt lat="45.28362" lon="6.91344">
        <time>1970-01-01T00:00:00+00:00</time>
        <ele>1601.0</ele>
      </trkpt>
      <trkpt lat="45.28357" lon="6.91344">
        <time>1970-01-01T00:00:00+00:00</time>
        <ele>1602.0</ele>
      </trkpt>
      <trkpt lat="45.28357" lon="6.91344">
        <time>1970-01-01T00:00:00+00:00</time>
        <ele>1602.0</ele>
      </trkpt>
      <trkpt lat="45.28352" lon="6.91342">
        <time>1970-01-01T00:00:00+00:00</time>
        <ele>1603.0</ele>
      </trkpt>
      <trkpt lat="45.28352" lon="6.91342">
        <time>1970-01-01T00:00:00+00:00</time>
        <ele>1603.0</ele>
      </trkpt>
      <trkpt lat="45.28347" lon="6.91343">
        <time>1970-01-01T00:00:00+00:00</time>
        <ele>1605.0</ele>
      </trkpt>
      <trkpt lat="45.28347" lon="6.91343">
        <time>1970-01-01T00:00:00+00:00</time>
        <ele>1605.0</ele>
      </trkpt>
      <trkpt lat="45.28342" lon="6.91341">
        <time>1970-01-01T00:00:00+00:00</time>
        <ele>1606.0</ele>
      </trkpt>
      <trkpt lat="45.28342" lon="6.91341">
        <time>1970-01-01T00:00:00+00:00</time>
        <ele>1606.0</ele>
      </trkpt>
      <trkpt lat="45.28339" lon="6.91336">
        <time>1970-01-01T00:00:00+00:00</time>
        <ele>1606.0</ele>
      </trkpt>
      <trkpt lat="45.28339" lon="6.91336">
        <time>1970-01-01T00:00:00+00:00</time>
        <ele>1606.0</ele>
      </trkpt>
      <trkpt lat="45.28335" lon="6.91333">
        <time>1970-01-01T00:00:00+00:00</time>
        <ele>1607.0</ele>
      </trkpt>
      <trkpt lat="45.28335" lon="6.91333">
        <time>1970-01-01T00:00:00+00:00</time>
        <ele>1607.0</ele>
      </trkpt>
      <trkpt lat="45.2833" lon="6.9133">
        <time>1970-01-01T00:00:00+00:00</time>
        <ele>1608.0</ele>
      </trkpt>
      <trkpt lat="45.2833" lon="6.9133">
        <time>1970-01-01T00:00:00+00:00</time>
        <ele>1608.0</ele>
      </trkpt>
      <trkpt lat="45.28326" lon="6.91327">
        <time>1970-01-01T00:00:00+00:00</time>
        <ele>1609.0</ele>
      </trkpt>
      <trkpt lat="45.28326" lon="6.91327">
        <time>1970-01-01T00:00:00+00:00</time>
        <ele>1609.0</ele>
      </trkpt>
      <trkpt lat="45.28321" lon="6.91326">
        <time>1970-01-01T00:00:00+00:00</time>
        <ele>1611.0</ele>
      </trkpt>
      <trkpt lat="45.28321" lon="6.91326">
        <time>1970-01-01T00:00:00+00:00</time>
        <ele>1611.0</ele>
      </trkpt>
      <trkpt lat="45.28316" lon="6.91328">
        <time>1970-01-01T00:00:00+00:00</time>
        <ele>1612.0</ele>
      </trkpt>
      <trkpt lat="45.28316" lon="6.91328">
        <time>1970-01-01T00:00:00+00:00</time>
        <ele>1612.0</ele>
      </trkpt>
      <trkpt lat="45.28311" lon="6.91329">
        <time>1970-01-01T00:00:00+00:00</time>
        <ele>1614.0</ele>
      </trkpt>
      <trkpt lat="45.28311" lon="6.91329">
        <time>1970-01-01T00:00:00+00:00</time>
        <ele>1614.0</ele>
      </trkpt>
      <trkpt lat="45.28306" lon="6.91329">
        <time>1970-01-01T00:00:00+00:00</time>
        <ele>1615.0</ele>
      </trkpt>
      <trkpt lat="45.28306" lon="6.91329">
        <time>1970-01-01T00:00:00+00:00</time>
        <ele>1615.0</ele>
      </trkpt>
      <trkpt lat="45.28301" lon="6.91328">
        <time>1970-01-01T00:00:00+00:00</time>
        <ele>1617.0</ele>
      </trkpt>
      <trkpt lat="45.28301" lon="6.91328">
        <time>1970-01-01T00:00:00+00:00</time>
        <ele>1617.0</ele>
      </trkpt>
      <trkpt lat="45.28296" lon="6.91328">
        <time>1970-01-01T00:00:00+00:00</time>
        <ele>1618.0</ele>
      </trkpt>
      <trkpt lat="45.28296" lon="6.91328">
        <time>1970-01-01T00:00:00+00:00</time>
        <ele>1618.0</ele>
      </trkpt>
      <trkpt lat="45.28291" lon="6.91328">
        <time>1970-01-01T00:00:00+00:00</time>
        <ele>1620.0</ele>
      </trkpt>
      <trkpt lat="45.28291" lon="6.91328">
        <time>1970-01-01T00:00:00+00:00</time>
        <ele>1620.0</ele>
      </trkpt>
      <trkpt lat="45.28287" lon="6.91323">
        <time>1970-01-01T00:00:00+00:00</time>
        <ele>1621.0</ele>
      </trkpt>
      <trkpt lat="45.28287" lon="6.91323">
        <time>1970-01-01T00:00:00+00:00</time>
        <ele>1621.0</ele>
      </trkpt>
      <trkpt lat="45.28283" lon="6.9132">
        <time>1970-01-01T00:00:00+00:00</time>
        <ele>1623.0</ele>
      </trkpt>
      <trkpt lat="45.28283" lon="6.9132">
        <time>1970-01-01T00:00:00+00:00</time>
        <ele>1623.0</ele>
      </trkpt>
      <trkpt lat="45.2828" lon="6.91315">
        <time>1970-01-01T00:00:00+00:00</time>
        <ele>1624.0</ele>
      </trkpt>
      <trkpt lat="45.2828" lon="6.91315">
        <time>1970-01-01T00:00:00+00:00</time>
        <ele>1624.0</ele>
      </trkpt>
      <trkpt lat="45.28278" lon="6.91309">
        <time>1970-01-01T00:00:00+00:00</time>
        <ele>1625.0</ele>
      </trkpt>
      <trkpt lat="45.28278" lon="6.91309">
        <time>1970-01-01T00:00:00+00:00</time>
        <ele>1625.0</ele>
      </trkpt>
      <trkpt lat="45.28279" lon="6.91302">
        <time>1970-01-01T00:00:00+00:00</time>
        <ele>1624.0</ele>
      </trkpt>
      <trkpt lat="45.28279" lon="6.91302">
        <time>1970-01-01T00:00:00+00:00</time>
        <ele>1624.0</ele>
      </trkpt>
      <trkpt lat="45.28276" lon="6.91296">
        <time>1970-01-01T00:00:00+00:00</time>
        <ele>1625.0</ele>
      </trkpt>
      <trkpt lat="45.28276" lon="6.91296">
        <time>1970-01-01T00:00:00+00:00</time>
        <ele>1625.0</ele>
      </trkpt>
      <trkpt lat="45.28276" lon="6.91288">
        <time>1970-01-01T00:00:00+00:00</time>
        <ele>1625.0</ele>
      </trkpt>
      <trkpt lat="45.28276" lon="6.91288">
        <time>1970-01-01T00:00:00+00:00</time>
        <ele>1625.0</ele>
      </trkpt>
      <trkpt lat="45.28274" lon="6.91281">
        <time>1970-01-01T00:00:00+00:00</time>
        <ele>1626.0</ele>
      </trkpt>
      <trkpt lat="45.28274" lon="6.91281">
        <time>1970-01-01T00:00:00+00:00</time>
        <ele>1626.0</ele>
      </trkpt>
      <trkpt lat="45.28271" lon="6.91276">
        <time>1970-01-01T00:00:00+00:00</time>
        <ele>1627.0</ele>
      </trkpt>
      <trkpt lat="45.28271" lon="6.91276">
        <time>1970-01-01T00:00:00+00:00</time>
        <ele>1627.0</ele>
      </trkpt>
      <trkpt lat="45.28269" lon="6.9127">
        <time>1970-01-01T00:00:00+00:00</time>
        <ele>1628.0</ele>
      </trkpt>
      <trkpt lat="45.28269" lon="6.9127">
        <time>1970-01-01T00:00:00+00:00</time>
        <ele>1628.0</ele>
      </trkpt>
      <trkpt lat="45.28266" lon="6.91264">
        <time>1970-01-01T00:00:00+00:00</time>
        <ele>1629.0</ele>
      </trkpt>
      <trkpt lat="45.28266" lon="6.91264">
        <time>1970-01-01T00:00:00+00:00</time>
        <ele>1629.0</ele>
      </trkpt>
      <trkpt lat="45.28262" lon="6.91261">
        <time>1970-01-01T00:00:00+00:00</time>
        <ele>1632.0</ele>
      </trkpt>
      <trkpt lat="45.28262" lon="6.91261">
        <time>1970-01-01T00:00:00+00:00</time>
        <ele>1632.0</ele>
      </trkpt>
      <trkpt lat="45.28258" lon="6.91258">
        <time>1970-01-01T00:00:00+00:00</time>
        <ele>1634.0</ele>
      </trkpt>
      <trkpt lat="45.28258" lon="6.91258">
        <time>1970-01-01T00:00:00+00:00</time>
        <ele>1634.0</ele>
      </trkpt>
      <trkpt lat="45.28254" lon="6.91254">
        <time>1970-01-01T00:00:00+00:00</time>
        <ele>1636.0</ele>
      </trkpt>
      <trkpt lat="45.28254" lon="6.91254">
        <time>1970-01-01T00:00:00+00:00</time>
        <ele>1636.0</ele>
      </trkpt>
      <trkpt lat="45.2825" lon="6.9125">
        <time>1970-01-01T00:00:00+00:00</time>
        <ele>1638.0</ele>
      </trkpt>
      <trkpt lat="45.2825" lon="6.9125">
        <time>1970-01-01T00:00:00+00:00</time>
        <ele>1638.0</ele>
      </trkpt>
      <trkpt lat="45.28246" lon="6.91245">
        <time>1970-01-01T00:00:00+00:00</time>
        <ele>1639.0</ele>
      </trkpt>
      <trkpt lat="45.28246" lon="6.91245">
        <time>1970-01-01T00:00:00+00:00</time>
        <ele>1639.0</ele>
      </trkpt>
      <trkpt lat="45.28242" lon="6.91241">
        <time>1970-01-01T00:00:00+00:00</time>
        <ele>1640.0</ele>
      </trkpt>
      <trkpt lat="45.28242" lon="6.91241">
        <time>1970-01-01T00:00:00+00:00</time>
        <ele>1640.0</ele>
      </trkpt>
      <trkpt lat="45.28237" lon="6.91239">
        <time>1970-01-01T00:00:00+00:00</time>
        <ele>1641.0</ele>
      </trkpt>
      <trkpt lat="45.28237" lon="6.91239">
        <time>1970-01-01T00:00:00+00:00</time>
        <ele>1641.0</ele>
      </trkpt>
      <trkpt lat="45.28232" lon="6.91238">
        <time>1970-01-01T00:00:00+00:00</time>
        <ele>1643.0</ele>
      </trkpt>
      <trkpt lat="45.28232" lon="6.91238">
        <time>1970-01-01T00:00:00+00:00</time>
        <ele>1643.0</ele>
      </trkpt>
      <trkpt lat="45.28227" lon="6.91238">
        <time>1970-01-01T00:00:00+00:00</time>
        <ele>1645.0</ele>
      </trkpt>
      <trkpt lat="45.28227" lon="6.91238">
        <time>1970-01-01T00:00:00+00:00</time>
        <ele>1645.0</ele>
      </trkpt>
      <trkpt lat="45.28222" lon="6.91239">
        <time>1970-01-01T00:00:00+00:00</time>
        <ele>1645.0</ele>
      </trkpt>
      <trkpt lat="45.28222" lon="6.91239">
        <time>1970-01-01T00:00:00+00:00</time>
        <ele>1645.0</ele>
      </trkpt>
      <trkpt lat="45.28217" lon="6.91238">
        <time>1970-01-01T00:00:00+00:00</time>
        <ele>1646.0</ele>
      </trkpt>
      <trkpt lat="45.28217" lon="6.91238">
        <time>1970-01-01T00:00:00+00:00</time>
        <ele>1646.0</ele>
      </trkpt>
      <trkpt lat="45.28212" lon="6.91239">
        <time>1970-01-01T00:00:00+00:00</time>
        <ele>1647.0</ele>
      </trkpt>
      <trkpt lat="45.28212" lon="6.91239">
        <time>1970-01-01T00:00:00+00:00</time>
        <ele>1647.0</ele>
      </trkpt>
      <trkpt lat="45.28208" lon="6.91242">
        <time>1970-01-01T00:00:00+00:00</time>
        <ele>1647.0</ele>
      </trkpt>
      <trkpt lat="45.28208" lon="6.91242">
        <time>1970-01-01T00:00:00+00:00</time>
        <ele>1647.0</ele>
      </trkpt>
      <trkpt lat="45.28205" lon="6.91247">
        <time>1970-01-01T00:00:00+00:00</time>
        <ele>1649.0</ele>
      </trkpt>
      <trkpt lat="45.28205" lon="6.91247">
        <time>1970-01-01T00:00:00+00:00</time>
        <ele>1649.0</ele>
      </trkpt>
      <trkpt lat="45.28202" lon="6.91252">
        <time>1970-01-01T00:00:00+00:00</time>
        <ele>1650.0</ele>
      </trkpt>
      <trkpt lat="45.28202" lon="6.91252">
        <time>1970-01-01T00:00:00+00:00</time>
        <ele>1650.0</ele>
      </trkpt>
      <trkpt lat="45.28199" lon="6.91258">
        <time>1970-01-01T00:00:00+00:00</time>
        <ele>1651.0</ele>
      </trkpt>
      <trkpt lat="45.28199" lon="6.91258">
        <time>1970-01-01T00:00:00+00:00</time>
        <ele>1651.0</ele>
      </trkpt>
      <trkpt lat="45.28195" lon="6.91261">
        <time>1970-01-01T00:00:00+00:00</time>
        <ele>1652.0</ele>
      </trkpt>
      <trkpt lat="45.28195" lon="6.91261">
        <time>1970-01-01T00:00:00+00:00</time>
        <ele>1652.0</ele>
      </trkpt>
      <trkpt lat="45.2819" lon="6.91264">
        <time>1970-01-01T00:00:00+00:00</time>
        <ele>1653.0</ele>
      </trkpt>
      <trkpt lat="45.2819" lon="6.91264">
        <time>1970-01-01T00:00:00+00:00</time>
        <ele>1653.0</ele>
      </trkpt>
      <trkpt lat="45.28186" lon="6.91267">
        <time>1970-01-01T00:00:00+00:00</time>
        <ele>1654.0</ele>
      </trkpt>
      <trkpt lat="45.28186" lon="6.91267">
        <time>1970-01-01T00:00:00+00:00</time>
        <ele>1654.0</ele>
      </trkpt>
      <trkpt lat="45.28182" lon="6.91271">
        <time>1970-01-01T00:00:00+00:00</time>
        <ele>1654.0</ele>
      </trkpt>
      <trkpt lat="45.28182" lon="6.91271">
        <time>1970-01-01T00:00:00+00:00</time>
        <ele>1654.0</ele>
      </trkpt>
      <trkpt lat="45.28177" lon="6.91274">
        <time>1970-01-01T00:00:00+00:00</time>
        <ele>1655.0</ele>
      </trkpt>
      <trkpt lat="45.28177" lon="6.91274">
        <time>1970-01-01T00:00:00+00:00</time>
        <ele>1655.0</ele>
      </trkpt>
      <trkpt lat="45.28173" lon="6.91278">
        <time>1970-01-01T00:00:00+00:00</time>
        <ele>1655.0</ele>
      </trkpt>
      <trkpt lat="45.28173" lon="6.91278">
        <time>1970-01-01T00:00:00+00:00</time>
        <ele>1655.0</ele>
      </trkpt>
      <trkpt lat="45.28169" lon="6.91282">
        <time>1970-01-01T00:00:00+00:00</time>
        <ele>1657.0</ele>
      </trkpt>
      <trkpt lat="45.28169" lon="6.91282">
        <time>1970-01-01T00:00:00+00:00</time>
        <ele>1657.0</ele>
      </trkpt>
      <trkpt lat="45.28164" lon="6.91283">
        <time>1970-01-01T00:00:00+00:00</time>
        <ele>1659.0</ele>
      </trkpt>
      <trkpt lat="45.28164" lon="6.91283">
        <time>1970-01-01T00:00:00+00:00</time>
        <ele>1659.0</ele>
      </trkpt>
      <trkpt lat="45.28159" lon="6.91285">
        <time>1970-01-01T00:00:00+00:00</time>
        <ele>1662.0</ele>
      </trkpt>
      <trkpt lat="45.28159" lon="6.91285">
        <time>1970-01-01T00:00:00+00:00</time>
        <ele>1662.0</ele>
      </trkpt>
      <trkpt lat="45.28154" lon="6.91284">
        <time>1970-01-01T00:00:00+00:00</time>
        <ele>1664.0</ele>
      </trkpt>
      <trkpt lat="45.28154" lon="6.91284">
        <time>1970-01-01T00:00:00+00:00</time>
        <ele>1664.0</ele>
      </trkpt>
      <trkpt lat="45.28148" lon="6.91283">
        <time>1970-01-01T00:00:00+00:00</time>
        <ele>1666.0</ele>
      </trkpt>
      <trkpt lat="45.28148" lon="6.91283">
        <time>1970-01-01T00:00:00+00:00</time>
        <ele>1666.0</ele>
      </trkpt>
      <trkpt lat="45.28145" lon="6.91289">
        <time>1970-01-01T00:00:00+00:00</time>
        <ele>1667.0</ele>
      </trkpt>
      <trkpt lat="45.28145" lon="6.91289">
        <time>1970-01-01T00:00:00+00:00</time>
        <ele>1667.0</ele>
      </trkpt>
      <trkpt lat="45.28144" lon="6.91297">
        <time>1970-01-01T00:00:00+00:00</time>
        <ele>1668.0</ele>
      </trkpt>
      <trkpt lat="45.28144" lon="6.91297">
        <time>1970-01-01T00:00:00+00:00</time>
        <ele>1668.0</ele>
      </trkpt>
      <trkpt lat="45.28141" lon="6.91302">
        <time>1970-01-01T00:00:00+00:00</time>
        <ele>1670.0</ele>
      </trkpt>
      <trkpt lat="45.28141" lon="6.91302">
        <time>1970-01-01T00:00:00+00:00</time>
        <ele>1670.0</ele>
      </trkpt>
      <trkpt lat="45.28138" lon="6.91307">
        <time>1970-01-01T00:00:00+00:00</time>
        <ele>1671.0</ele>
      </trkpt>
      <trkpt lat="45.28138" lon="6.91307">
        <time>1970-01-01T00:00:00+00:00</time>
        <ele>1671.0</ele>
      </trkpt>
      <trkpt lat="45.28134" lon="6.91311">
        <time>1970-01-01T00:00:00+00:00</time>
        <ele>1674.0</ele>
      </trkpt>
      <trkpt lat="45.28134" lon="6.91311">
        <time>1970-01-01T00:00:00+00:00</time>
        <ele>1674.0</ele>
      </trkpt>
      <trkpt lat="45.2813" lon="6.91308">
        <time>1970-01-01T00:00:00+00:00</time>
        <ele>1674.0</ele>
      </trkpt>
      <trkpt lat="45.2813" lon="6.91308">
        <time>1970-01-01T00:00:00+00:00</time>
        <ele>1674.0</ele>
      </trkpt>
      <trkpt lat="45.28125" lon="6.91307">
        <time>1970-01-01T00:00:00+00:00</time>
        <ele>1676.0</ele>
      </trkpt>
      <trkpt lat="45.28125" lon="6.91307">
        <time>1970-01-01T00:00:00+00:00</time>
        <ele>1676.0</ele>
      </trkpt>
      <trkpt lat="45.2812" lon="6.9131">
        <time>1970-01-01T00:00:00+00:00</time>
        <ele>1678.0</ele>
      </trkpt>
      <trkpt lat="45.2812" lon="6.9131">
        <time>1970-01-01T00:00:00+00:00</time>
        <ele>1678.0</ele>
      </trkpt>
      <trkpt lat="45.28115" lon="6.91313">
        <time>1970-01-01T00:00:00+00:00</time>
        <ele>1680.0</ele>
      </trkpt>
      <trkpt lat="45.28115" lon="6.91313">
        <time>1970-01-01T00:00:00+00:00</time>
        <ele>1680.0</ele>
      </trkpt>
      <trkpt lat="45.28112" lon="6.91318">
        <time>1970-01-01T00:00:00+00:00</time>
        <ele>1681.0</ele>
      </trkpt>
      <trkpt lat="45.28112" lon="6.91318">
        <time>1970-01-01T00:00:00+00:00</time>
        <ele>1681.0</ele>
      </trkpt>
      <trkpt lat="45.28109" lon="6.91323">
        <time>1970-01-01T00:00:00+00:00</time>
        <ele>1683.0</ele>
      </trkpt>
      <trkpt lat="45.28109" lon="6.91323">
        <time>1970-01-01T00:00:00+00:00</time>
        <ele>1683.0</ele>
      </trkpt>
      <trkpt lat="45.28108" lon="6.9133">
        <time>1970-01-01T00:00:00+00:00</time>
        <ele>1683.0</ele>
      </trkpt>
      <trkpt lat="45.28108" lon="6.9133">
        <time>1970-01-01T00:00:00+00:00</time>
        <ele>1683.0</ele>
      </trkpt>
      <trkpt lat="45.28104" lon="6.91334">
        <time>1970-01-01T00:00:00+00:00</time>
        <ele>1685.0</ele>
      </trkpt>
      <trkpt lat="45.28104" lon="6.91334">
        <time>1970-01-01T00:00:00+00:00</time>
        <ele>1685.0</ele>
      </trkpt>
      <trkpt lat="45.28099" lon="6.91335">
        <time>1970-01-01T00:00:00+00:00</time>
        <ele>1687.0</ele>
      </trkpt>
      <trkpt lat="45.28099" lon="6.91335">
        <time>1970-01-01T00:00:00+00:00</time>
        <ele>1687.0</ele>
      </trkpt>
      <trkpt lat="45.28094" lon="6.91335">
        <time>1970-01-01T00:00:00+00:00</time>
        <ele>1688.0</ele>
      </trkpt>
      <trkpt lat="45.28094" lon="6.91335">
        <time>1970-01-01T00:00:00+00:00</time>
        <ele>1688.0</ele>
      </trkpt>
      <trkpt lat="45.2809" lon="6.91332">
        <time>1970-01-01T00:00:00+00:00</time>
        <ele>1689.0</ele>
      </trkpt>
      <trkpt lat="45.2809" lon="6.91332">
        <time>1970-01-01T00:00:00+00:00</time>
        <ele>1689.0</ele>
      </trkpt>
      <trkpt lat="45.28085" lon="6.91329">
        <time>1970-01-01T00:00:00+00:00</time>
        <ele>1691.0</ele>
      </trkpt>
      <trkpt lat="45.28085" lon="6.91329">
        <time>1970-01-01T00:00:00+00:00</time>
        <ele>1691.0</ele>
      </trkpt>
      <trkpt lat="45.2808" lon="6.91327">
        <time>1970-01-01T00:00:00+00:00</time>
        <ele>1693.0</ele>
      </trkpt>
      <trkpt lat="45.2808" lon="6.91327">
        <time>1970-01-01T00:00:00+00:00</time>
        <ele>1693.0</ele>
      </trkpt>
      <trkpt lat="45.28075" lon="6.91329">
        <time>1970-01-01T00:00:00+00:00</time>
        <ele>1694.0</ele>
      </trkpt>
      <trkpt lat="45.28075" lon="6.91329">
        <time>1970-01-01T00:00:00+00:00</time>
        <ele>1694.0</ele>
      </trkpt>
      <trkpt lat="45.2807" lon="6.91329">
        <time>1970-01-01T00:00:00+00:00</time>
        <ele>1696.0</ele>
      </trkpt>
      <trkpt lat="45.2807" lon="6.91329">
        <time>1970-01-01T00:00:00+00:00</time>
        <ele>1696.0</ele>
      </trkpt>
      <trkpt lat="45.28065" lon="6.91326">
        <time>1970-01-01T00:00:00+00:00</time>
        <ele>1698.0</ele>
      </trkpt>
      <trkpt lat="45.28065" lon="6.91326">
        <time>1970-01-01T00:00:00+00:00</time>
        <ele>1698.0</ele>
      </trkpt>
      <trkpt lat="45.28061" lon="6.91323">
        <time>1970-01-01T00:00:00+00:00</time>
        <ele>1699.0</ele>
      </trkpt>
      <trkpt lat="45.28061" lon="6.91323">
        <time>1970-01-01T00:00:00+00:00</time>
        <ele>1699.0</ele>
      </trkpt>
      <trkpt lat="45.28058" lon="6.91318">
        <time>1970-01-01T00:00:00+00:00</time>
        <ele>1700.0</ele>
      </trkpt>
      <trkpt lat="45.28058" lon="6.91318">
        <time>1970-01-01T00:00:00+00:00</time>
        <ele>1700.0</ele>
      </trkpt>
      <trkpt lat="45.28054" lon="6.91313">
        <time>1970-01-01T00:00:00+00:00</time>
        <ele>1701.0</ele>
      </trkpt>
      <trkpt lat="45.28054" lon="6.91313">
        <time>1970-01-01T00:00:00+00:00</time>
        <ele>1701.0</ele>
      </trkpt>
      <trkpt lat="45.28051" lon="6.91308">
        <time>1970-01-01T00:00:00+00:00</time>
        <ele>1701.0</ele>
      </trkpt>
      <trkpt lat="45.28051" lon="6.91308">
        <time>1970-01-01T00:00:00+00:00</time>
        <ele>1701.0</ele>
      </trkpt>
      <trkpt lat="45.28047" lon="6.91305">
        <time>1970-01-01T00:00:00+00:00</time>
        <ele>1702.0</ele>
      </trkpt>
      <trkpt lat="45.28047" lon="6.91305">
        <time>1970-01-01T00:00:00+00:00</time>
        <ele>1702.0</ele>
      </trkpt>
      <trkpt lat="45.28042" lon="6.91302">
        <time>1970-01-01T00:00:00+00:00</time>
        <ele>1703.0</ele>
      </trkpt>
      <trkpt lat="45.28042" lon="6.91302">
        <time>1970-01-01T00:00:00+00:00</time>
        <ele>1703.0</ele>
      </trkpt>
      <trkpt lat="45.28037" lon="6.91301">
        <time>1970-01-01T00:00:00+00:00</time>
        <ele>1705.0</ele>
      </trkpt>
      <trkpt lat="45.28037" lon="6.91301">
        <time>1970-01-01T00:00:00+00:00</time>
        <ele>1705.0</ele>
      </trkpt>
      <trkpt lat="45.28032" lon="6.91301">
        <time>1970-01-01T00:00:00+00:00</time>
        <ele>1706.0</ele>
      </trkpt>
      <trkpt lat="45.28032" lon="6.91301">
        <time>1970-01-01T00:00:00+00:00</time>
        <ele>1706.0</ele>
      </trkpt>
      <trkpt lat="45.28027" lon="6.91299">
        <time>1970-01-01T00:00:00+00:00</time>
        <ele>1708.0</ele>
      </trkpt>
      <trkpt lat="45.28027" lon="6.91299">
        <time>1970-01-01T00:00:00+00:00</time>
        <ele>1708.0</ele>
      </trkpt>
      <trkpt lat="45.28022" lon="6.91301">
        <time>1970-01-01T00:00:00+00:00</time>
        <ele>1710.0</ele>
      </trkpt>
      <trkpt lat="45.28022" lon="6.91301">
        <time>1970-01-01T00:00:00+00:00</time>
        <ele>1710.0</ele>
      </trkpt>
      <trkpt lat="45.28018" lon="6.91297">
        <time>1970-01-01T00:00:00+00:00</time>
        <ele>1711.0</ele>
      </trkpt>
      <trkpt lat="45.28018" lon="6.91297">
        <time>1970-01-01T00:00:00+00:00</time>
        <ele>1711.0</ele>
      </trkpt>
      <trkpt lat="45.28014" lon="6.91292">
        <time>1970-01-01T00:00:00+00:00</time>
        <ele>1713.0</ele>
      </trkpt>
      <trkpt lat="45.28014" lon="6.91292">
        <time>1970-01-01T00:00:00+00:00</time>
        <ele>1713.0</ele>
      </trkpt>
      <trkpt lat="45.2801" lon="6.91288">
        <time>1970-01-01T00:00:00+00:00</time>
        <ele>1714.0</ele>
      </trkpt>
      <trkpt lat="45.2801" lon="6.91288">
        <time>1970-01-01T00:00:00+00:00</time>
        <ele>1714.0</ele>
      </trkpt>
      <trkpt lat="45.28005" lon="6.91285">
        <time>1970-01-01T00:00:00+00:00</time>
        <ele>1717.0</ele>
      </trkpt>
      <trkpt lat="45.28005" lon="6.91285">
        <time>1970-01-01T00:00:00+00:00</time>
        <ele>1717.0</ele>
      </trkpt>
      <trkpt lat="45.28003" lon="6.91279">
        <time>1970-01-01T00:00:00+00:00</time>
        <ele>1717.0</ele>
      </trkpt>
      <trkpt lat="45.28003" lon="6.91279">
        <time>1970-01-01T00:00:00+00:00</time>
        <ele>1717.0</ele>
      </trkpt>
      <trkpt lat="45.27999" lon="6.91274">
        <time>1970-01-01T00:00:00+00:00</time>
        <ele>1719.0</ele>
      </trkpt>
      <trkpt lat="45.27999" lon="6.91274">
        <time>1970-01-01T00:00:00+00:00</time>
        <ele>1719.0</ele>
      </trkpt>
      <trkpt lat="45.27993" lon="6.91272">
        <time>1970-01-01T00:00:00+00:00</time>
        <ele>1721.0</ele>
      </trkpt>
      <trkpt lat="45.27993" lon="6.91272">
        <time>1970-01-01T00:00:00+00:00</time>
        <ele>1721.0</ele>
      </trkpt>
      <trkpt lat="45.27989" lon="6.91267">
        <time>1970-01-01T00:00:00+00:00</time>
        <ele>1723.0</ele>
      </trkpt>
      <trkpt lat="45.27989" lon="6.91267">
        <time>1970-01-01T00:00:00+00:00</time>
        <ele>1723.0</ele>
      </trkpt>
      <trkpt lat="45.27984" lon="6.91264">
        <time>1970-01-01T00:00:00+00:00</time>
        <ele>1725.0</ele>
      </trkpt>
      <trkpt lat="45.27984" lon="6.91264">
        <time>1970-01-01T00:00:00+00:00</time>
        <ele>1725.0</ele>
      </trkpt>
      <trkpt lat="45.2798" lon="6.91261">
        <time>1970-01-01T00:00:00+00:00</time>
        <ele>1727.0</ele>
      </trkpt>
      <trkpt lat="45.2798" lon="6.91261">
        <time>1970-01-01T00:00:00+00:00</time>
        <ele>1727.0</ele>
      </trkpt>
      <trkpt lat="45.27976" lon="6.91258">
        <time>1970-01-01T00:00:00+00:00</time>
        <ele>1728.0</ele>
      </trkpt>
      <trkpt lat="45.27976" lon="6.91258">
        <time>1970-01-01T00:00:00+00:00</time>
        <ele>1728.0</ele>
      </trkpt>
      <trkpt lat="45.27972" lon="6.91253">
        <time>1970-01-01T00:00:00+00:00</time>
        <ele>1729.0</ele>
      </trkpt>
      <trkpt lat="45.27972" lon="6.91253">
        <time>1970-01-01T00:00:00+00:00</time>
        <ele>1729.0</ele>
      </trkpt>
      <trkpt lat="45.27968" lon="6.9125">
        <time>1970-01-01T00:00:00+00:00</time>
        <ele>1731.0</ele>
      </trkpt>
      <trkpt lat="45.27968" lon="6.9125">
        <time>1970-01-01T00:00:00+00:00</time>
        <ele>1731.0</ele>
      </trkpt>
      <trkpt lat="45.27964" lon="6.91245">
        <time>1970-01-01T00:00:00+00:00</time>
        <ele>1732.0</ele>
      </trkpt>
      <trkpt lat="45.27964" lon="6.91245">
        <time>1970-01-01T00:00:00+00:00</time>
        <ele>1732.0</ele>
      </trkpt>
      <trkpt lat="45.27961" lon="6.9124">
        <time>1970-01-01T00:00:00+00:00</time>
        <ele>1733.0</ele>
      </trkpt>
      <trkpt lat="45.27961" lon="6.9124">
        <time>1970-01-01T00:00:00+00:00</time>
        <ele>1733.0</ele>
      </trkpt>
      <trkpt lat="45.27957" lon="6.91236">
        <time>1970-01-01T00:00:00+00:00</time>
        <ele>1734.0</ele>
      </trkpt>
      <trkpt lat="45.27957" lon="6.91236">
        <time>1970-01-01T00:00:00+00:00</time>
        <ele>1734.0</ele>
      </trkpt>
      <trkpt lat="45.27953" lon="6.91232">
        <time>1970-01-01T00:00:00+00:00</time>
        <ele>1736.0</ele>
      </trkpt>
      <trkpt lat="45.27953" lon="6.91232">
        <time>1970-01-01T00:00:00+00:00</time>
        <ele>1736.0</ele>
      </trkpt>
      <trkpt lat="45.27949" lon="6.91229">
        <time>1970-01-01T00:00:00+00:00</time>
        <ele>1737.0</ele>
      </trkpt>
      <trkpt lat="45.27949" lon="6.91229">
        <time>1970-01-01T00:00:00+00:00</time>
        <ele>1737.0</ele>
      </trkpt>
      <trkpt lat="45.27945" lon="6.91225">
        <time>1970-01-01T00:00:00+00:00</time>
        <ele>1738.0</ele>
      </trkpt>
      <trkpt lat="45.27945" lon="6.91225">
        <time>1970-01-01T00:00:00+00:00</time>
        <ele>1738.0</ele>
      </trkpt>
      <trkpt lat="45.27942" lon="6.9122">
        <time>1970-01-01T00:00:00+00:00</time>
        <ele>1739.0</ele>
      </trkpt>
      <trkpt lat="45.27942" lon="6.9122">
        <time>1970-01-01T00:00:00+00:00</time>
        <ele>1739.0</ele>
      </trkpt>
      <trkpt lat="45.27939" lon="6.91215">
        <time>1970-01-01T00:00:00+00:00</time>
        <ele>1739.0</ele>
      </trkpt>
      <trkpt lat="45.27939" lon="6.91215">
        <time>1970-01-01T00:00:00+00:00</time>
        <ele>1739.0</ele>
      </trkpt>
      <trkpt lat="45.27935" lon="6.91211">
        <time>1970-01-01T00:00:00+00:00</time>
        <ele>1741.0</ele>
      </trkpt>
      <trkpt lat="45.27935" lon="6.91211">
        <time>1970-01-01T00:00:00+00:00</time>
        <ele>1741.0</ele>
      </trkpt>
      <trkpt lat="45.27931" lon="6.91207">
        <time>1970-01-01T00:00:00+00:00</time>
        <ele>1742.0</ele>
      </trkpt>
      <trkpt lat="45.27931" lon="6.91207">
        <time>1970-01-01T00:00:00+00:00</time>
        <ele>1742.0</ele>
      </trkpt>
      <trkpt lat="45.27927" lon="6.91204">
        <time>1970-01-01T00:00:00+00:00</time>
        <ele>1744.0</ele>
      </trkpt>
      <trkpt lat="45.27927" lon="6.91204">
        <time>1970-01-01T00:00:00+00:00</time>
        <ele>1744.0</ele>
      </trkpt>
      <trkpt lat="45.27931" lon="6.91199">
        <time>1970-01-01T00:00:00+00:00</time>
        <ele>1741.0</ele>
      </trkpt>
      <trkpt lat="45.27931" lon="6.91199">
        <time>1970-01-01T00:00:00+00:00</time>
        <ele>1741.0</ele>
      </trkpt>
      <trkpt lat="45.27929" lon="6.91192">
        <time>1970-01-01T00:00:00+00:00</time>
        <ele>1742.0</ele>
      </trkpt>
      <trkpt lat="45.27929" lon="6.91192">
        <time>1970-01-01T00:00:00+00:00</time>
        <ele>1742.0</ele>
      </trkpt>
      <trkpt lat="45.27928" lon="6.91185">
        <time>1970-01-01T00:00:00+00:00</time>
        <ele>1741.0</ele>
      </trkpt>
      <trkpt lat="45.27928" lon="6.91185">
        <time>1970-01-01T00:00:00+00:00</time>
        <ele>1741.0</ele>
      </trkpt>
      <trkpt lat="45.27924" lon="6.91181">
        <time>1970-01-01T00:00:00+00:00</time>
        <ele>1743.0</ele>
      </trkpt>
      <trkpt lat="45.27924" lon="6.91181">
        <time>1970-01-01T00:00:00+00:00</time>
        <ele>1743.0</ele>
      </trkpt>
      <trkpt lat="45.2792" lon="6.91178">
        <time>1970-01-01T00:00:00+00:00</time>
        <ele>1745.0</ele>
      </trkpt>
      <trkpt lat="45.2792" lon="6.91178">
        <time>1970-01-01T00:00:00+00:00</time>
        <ele>1745.0</ele>
      </trkpt>
      <trkpt lat="45.27917" lon="6.91173">
        <time>1970-01-01T00:00:00+00:00</time>
        <ele>1746.0</ele>
      </trkpt>
      <trkpt lat="45.27917" lon="6.91173">
        <time>1970-01-01T00:00:00+00:00</time>
        <ele>1746.0</ele>
      </trkpt>
      <trkpt lat="45.27914" lon="6.91168">
        <time>1970-01-01T00:00:00+00:00</time>
        <ele>1748.0</ele>
      </trkpt>
      <trkpt lat="45.27914" lon="6.91168">
        <time>1970-01-01T00:00:00+00:00</time>
        <ele>1748.0</ele>
      </trkpt>
      <trkpt lat="45.2791" lon="6.91164">
        <time>1970-01-01T00:00:00+00:00</time>
        <ele>1750.0</ele>
      </trkpt>
      <trkpt lat="45.2791" lon="6.91164">
        <time>1970-01-01T00:00:00+00:00</time>
        <ele>1750.0</ele>
      </trkpt>
      <trkpt lat="45.27912" lon="6.91158">
        <time>1970-01-01T00:00:00+00:00</time>
        <ele>1749.0</ele>
      </trkpt>
      <trkpt lat="45.27912" lon="6.91158">
        <time>1970-01-01T00:00:00+00:00</time>
        <ele>1749.0</ele>
      </trkpt>
      <trkpt lat="45.27909" lon="6.91152">
        <time>1970-01-01T00:00:00+00:00</time>
        <ele>1750.0</ele>
      </trkpt>
      <trkpt lat="45.27909" lon="6.91152">
        <time>1970-01-01T00:00:00+00:00</time>
        <ele>1750.0</ele>
      </trkpt>
      <trkpt lat="45.27906" lon="6.91145">
        <time>1970-01-01T00:00:00+00:00</time>
        <ele>1752.0</ele>
      </trkpt>
      <trkpt lat="45.27906" lon="6.91145">
        <time>1970-01-01T00:00:00+00:00</time>
        <ele>1752.0</ele>
      </trkpt>
      <trkpt lat="45.27905" lon="6.91138">
        <time>1970-01-01T00:00:00+00:00</time>
        <ele>1752.0</ele>
      </trkpt>
      <trkpt lat="45.27905" lon="6.91138">
        <time>1970-01-01T00:00:00+00:00</time>
        <ele>1752.0</ele>
      </trkpt>
      <trkpt lat="45.27903" lon="6.91132">
        <time>1970-01-01T00:00:00+00:00</time>
        <ele>1754.0</ele>
      </trkpt>
      <trkpt lat="45.27903" lon="6.91132">
        <time>1970-01-01T00:00:00+00:00</time>
        <ele>1754.0</ele>
      </trkpt>
      <trkpt lat="45.279" lon="6.91126">
        <time>1970-01-01T00:00:00+00:00</time>
        <ele>1755.0</ele>
      </trkpt>
      <trkpt lat="45.279" lon="6.91126">
        <time>1970-01-01T00:00:00+00:00</time>
        <ele>1755.0</ele>
      </trkpt>
      <trkpt lat="45.27898" lon="6.9112">
        <time>1970-01-01T00:00:00+00:00</time>
        <ele>1756.0</ele>
      </trkpt>
      <trkpt lat="45.27898" lon="6.9112">
        <time>1970-01-01T00:00:00+00:00</time>
        <ele>1756.0</ele>
      </trkpt>
      <trkpt lat="45.27896" lon="6.91114">
        <time>1970-01-01T00:00:00+00:00</time>
        <ele>1758.0</ele>
      </trkpt>
      <trkpt lat="45.27896" lon="6.91114">
        <time>1970-01-01T00:00:00+00:00</time>
        <ele>1758.0</ele>
      </trkpt>
      <trkpt lat="45.27893" lon="6.91109">
        <time>1970-01-01T00:00:00+00:00</time>
        <ele>1759.0</ele>
      </trkpt>
      <trkpt lat="45.27893" lon="6.91109">
        <time>1970-01-01T00:00:00+00:00</time>
        <ele>1759.0</ele>
      </trkpt>
      <trkpt lat="45.27891" lon="6.91103">
        <time>1970-01-01T00:00:00+00:00</time>
        <ele>1760.0</ele>
      </trkpt>
      <trkpt lat="45.27891" lon="6.91103">
        <time>1970-01-01T00:00:00+00:00</time>
        <ele>1760.0</ele>
      </trkpt>
      <trkpt lat="45.27889" lon="6.91097">
        <time>1970-01-01T00:00:00+00:00</time>
        <ele>1761.0</ele>
      </trkpt>
      <trkpt lat="45.27889" lon="6.91097">
        <time>1970-01-01T00:00:00+00:00</time>
        <ele>1761.0</ele>
      </trkpt>
      <trkpt lat="45.27886" lon="6.91091">
        <time>1970-01-01T00:00:00+00:00</time>
        <ele>1762.0</ele>
      </trkpt>
      <trkpt lat="45.27886" lon="6.91091">
        <time>1970-01-01T00:00:00+00:00</time>
        <ele>1762.0</ele>
      </trkpt>
      <trkpt lat="45.27884" lon="6.91084">
        <time>1970-01-01T00:00:00+00:00</time>
        <ele>1763.0</ele>
      </trkpt>
      <trkpt lat="45.27884" lon="6.91084">
        <time>1970-01-01T00:00:00+00:00</time>
        <ele>1763.0</ele>
      </trkpt>
      <trkpt lat="45.27882" lon="6.91078">
        <time>1970-01-01T00:00:00+00:00</time>
        <ele>1764.0</ele>
      </trkpt>
      <trkpt lat="45.27882" lon="6.91078">
        <time>1970-01-01T00:00:00+00:00</time>
        <ele>1764.0</ele>
      </trkpt>
      <trkpt lat="45.27878" lon="6.91072">
        <time>1970-01-01T00:00:00+00:00</time>
        <ele>1767.0</ele>
      </trkpt>
      <trkpt lat="45.27878" lon="6.91072">
        <time>1970-01-01T00:00:00+00:00</time>
        <ele>1767.0</ele>
      </trkpt>
      <trkpt lat="45.27874" lon="6.91067">
        <time>1970-01-01T00:00:00+00:00</time>
        <ele>1769.0</ele>
      </trkpt>
      <trkpt lat="45.27874" lon="6.91067">
        <time>1970-01-01T00:00:00+00:00</time>
        <ele>1769.0</ele>
      </trkpt>
      <trkpt lat="45.27871" lon="6.91062">
        <time>1970-01-01T00:00:00+00:00</time>
        <ele>1770.0</ele>
      </trkpt>
      <trkpt lat="45.27871" lon="6.91062">
        <time>1970-01-01T00:00:00+00:00</time>
        <ele>1770.0</ele>
      </trkpt>
      <trkpt lat="45.27869" lon="6.91056">
        <time>1970-01-01T00:00:00+00:00</time>
        <ele>1770.0</ele>
      </trkpt>
      <trkpt lat="45.27869" lon="6.91056">
        <time>1970-01-01T00:00:00+00:00</time>
        <ele>1770.0</ele>
      </trkpt>
      <trkpt lat="45.27867" lon="6.9105">
        <time>1970-01-01T00:00:00+00:00</time>
        <ele>1771.0</ele>
      </trkpt>
      <trkpt lat="45.27867" lon="6.9105">
        <time>1970-01-01T00:00:00+00:00</time>
        <ele>1771.0</ele>
      </trkpt>
      <trkpt lat="45.27865" lon="6.91044">
        <time>1970-01-01T00:00:00+00:00</time>
        <ele>1771.0</ele>
      </trkpt>
      <trkpt lat="45.27865" lon="6.91044">
        <time>1970-01-01T00:00:00+00:00</time>
        <ele>1771.0</ele>
      </trkpt>
      <trkpt lat="45.27863" lon="6.91038">
        <time>1970-01-01T00:00:00+00:00</time>
        <ele>1771.0</ele>
      </trkpt>
      <trkpt lat="45.27863" lon="6.91038">
        <time>1970-01-01T00:00:00+00:00</time>
        <ele>1771.0</ele>
      </trkpt>
      <trkpt lat="45.27859" lon="6.91033">
        <time>1970-01-01T00:00:00+00:00</time>
        <ele>1773.0</ele>
      </trkpt>
      <trkpt lat="45.27859" lon="6.91033">
        <time>1970-01-01T00:00:00+00:00</time>
        <ele>1773.0</ele>
      </trkpt>
      <trkpt lat="45.27856" lon="6.91028">
        <time>1970-01-01T00:00:00+00:00</time>
        <ele>1773.0</ele>
      </trkpt>
      <trkpt lat="45.27856" lon="6.91028">
        <time>1970-01-01T00:00:00+00:00</time>
        <ele>1773.0</ele>
      </trkpt>
      <trkpt lat="45.27853" lon="6.91022">
        <time>1970-01-01T00:00:00+00:00</time>
        <ele>1774.0</ele>
      </trkpt>
      <trkpt lat="45.27853" lon="6.91022">
        <time>1970-01-01T00:00:00+00:00</time>
        <ele>1774.0</ele>
      </trkpt>
      <trkpt lat="45.2785" lon="6.91016">
        <time>1970-01-01T00:00:00+00:00</time>
        <ele>1775.0</ele>
      </trkpt>
      <trkpt lat="45.2785" lon="6.91016">
        <time>1970-01-01T00:00:00+00:00</time>
        <ele>1775.0</ele>
      </trkpt>
      <trkpt lat="45.2785" lon="6.91009">
        <time>1970-01-01T00:00:00+00:00</time>
        <ele>1774.0</ele>
      </trkpt>
      <trkpt lat="45.2785" lon="6.91009">
        <time>1970-01-01T00:00:00+00:00</time>
        <ele>1774.0</ele>
      </trkpt>
      <trkpt lat="45.27847" lon="6.91003">
        <time>1970-01-01T00:00:00+00:00</time>
        <ele>1775.0</ele>
      </trkpt>
      <trkpt lat="45.27847" lon="6.91003">
        <time>1970-01-01T00:00:00+00:00</time>
        <ele>1775.0</ele>
      </trkpt>
      <trkpt lat="45.27844" lon="6.90998">
        <time>1970-01-01T00:00:00+00:00</time>
        <ele>1776.0</ele>
      </trkpt>
      <trkpt lat="45.27844" lon="6.90998">
        <time>1970-01-01T00:00:00+00:00</time>
        <ele>1776.0</ele>
      </trkpt>
      <trkpt lat="45.27841" lon="6.90993">
        <time>1970-01-01T00:00:00+00:00</time>
        <ele>1777.0</ele>
      </trkpt>
      <trkpt lat="45.27841" lon="6.90993">
        <time>1970-01-01T00:00:00+00:00</time>
        <ele>1777.0</ele>
      </trkpt>
      <trkpt lat="45.27838" lon="6.90987">
        <time>1970-01-01T00:00:00+00:00</time>
        <ele>1778.0</ele>
      </trkpt>
      <trkpt lat="45.27838" lon="6.90987">
        <time>1970-01-01T00:00:00+00:00</time>
        <ele>1778.0</ele>
      </trkpt>
      <trkpt lat="45.27835" lon="6.90981">
        <time>1970-01-01T00:00:00+00:00</time>
        <ele>1780.0</ele>
      </trkpt>
      <trkpt lat="45.27835" lon="6.90981">
        <time>1970-01-01T00:00:00+00:00</time>
        <ele>1780.0</ele>
      </trkpt>
      <trkpt lat="45.27833" lon="6.90975">
        <time>1970-01-01T00:00:00+00:00</time>
        <ele>1781.0</ele>
      </trkpt>
      <trkpt lat="45.27833" lon="6.90975">
        <time>1970-01-01T00:00:00+00:00</time>
        <ele>1781.0</ele>
      </trkpt>
      <trkpt lat="45.27832" lon="6.90968">
        <time>1970-01-01T00:00:00+00:00</time>
        <ele>1781.0</ele>
      </trkpt>
      <trkpt lat="45.27832" lon="6.90968">
        <time>1970-01-01T00:00:00+00:00</time>
        <ele>1781.0</ele>
      </trkpt>
      <trkpt lat="45.2783" lon="6.90962">
        <time>1970-01-01T00:00:00+00:00</time>
        <ele>1781.0</ele>
      </trkpt>
      <trkpt lat="45.2783" lon="6.90962">
        <time>1970-01-01T00:00:00+00:00</time>
        <ele>1781.0</ele>
      </trkpt>
      <trkpt lat="45.27827" lon="6.90956">
        <time>1970-01-01T00:00:00+00:00</time>
        <ele>1783.0</ele>
      </trkpt>
      <trkpt lat="45.27827" lon="6.90956">
        <time>1970-01-01T00:00:00+00:00</time>
        <ele>1783.0</ele>
      </trkpt>
      <trkpt lat="45.27824" lon="6.90951">
        <time>1970-01-01T00:00:00+00:00</time>
        <ele>1785.0</ele>
      </trkpt>
      <trkpt lat="45.27824" lon="6.90951">
        <time>1970-01-01T00:00:00+00:00</time>
        <ele>1785.0</ele>
      </trkpt>
      <trkpt lat="45.27822" lon="6.90944">
        <time>1970-01-01T00:00:00+00:00</time>
        <ele>1785.0</ele>
      </trkpt>
      <trkpt lat="45.27822" lon="6.90944">
        <time>1970-01-01T00:00:00+00:00</time>
        <ele>1785.0</ele>
      </trkpt>
      <trkpt lat="45.27818" lon="6.90939">
        <time>1970-01-01T00:00:00+00:00</time>
        <ele>1788.0</ele>
      </trkpt>
      <trkpt lat="45.27818" lon="6.90939">
        <time>1970-01-01T00:00:00+00:00</time>
        <ele>1788.0</ele>
      </trkpt>
      <trkpt lat="45.27814" lon="6.90934">
        <time>1970-01-01T00:00:00+00:00</time>
        <ele>1790.0</ele>
      </trkpt>
      <trkpt lat="45.27814" lon="6.90934">
        <time>1970-01-01T00:00:00+00:00</time>
        <ele>1790.0</ele>
      </trkpt>
      <trkpt lat="45.27813" lon="6.90927">
        <time>1970-01-01T00:00:00+00:00</time>
        <ele>1789.0</ele>
      </trkpt>
      <trkpt lat="45.27813" lon="6.90927">
        <time>1970-01-01T00:00:00+00:00</time>
        <ele>1789.0</ele>
      </trkpt>
      <trkpt lat="45.27811" lon="6.9092">
        <time>1970-01-01T00:00:00+00:00</time>
        <ele>1788.0</ele>
      </trkpt>
      <trkpt lat="45.27811" lon="6.9092">
        <time>1970-01-01T00:00:00+00:00</time>
        <ele>1788.0</ele>
      </trkpt>
      <trkpt lat="45.27809" lon="6.90914">
        <time>1970-01-01T00:00:00+00:00</time>
        <ele>1788.0</ele>
      </trkpt>
      <trkpt lat="45.27809" lon="6.90914">
        <time>1970-01-01T00:00:00+00:00</time>
        <ele>1788.0</ele>
      </trkpt>
      <trkpt lat="45.27808" lon="6.90907">
        <time>1970-01-01T00:00:00+00:00</time>
        <ele>1787.0</ele>
      </trkpt>
      <trkpt lat="45.27808" lon="6.90907">
        <time>1970-01-01T00:00:00+00:00</time>
        <ele>1787.0</ele>
      </trkpt>
      <trkpt lat="45.27804" lon="6.90901">
        <time>1970-01-01T00:00:00+00:00</time>
        <ele>1789.0</ele>
      </trkpt>
      <trkpt lat="45.27804" lon="6.90901">
        <time>1970-01-01T00:00:00+00:00</time>
        <ele>1789.0</ele>
      </trkpt>
      <trkpt lat="45.278" lon="6.90897">
        <time>1970-01-01T00:00:00+00:00</time>
        <ele>1790.0</ele>
      </trkpt>
      <trkpt lat="45.278" lon="6.90897">
        <time>1970-01-01T00:00:00+00:00</time>
        <ele>1790.0</ele>
      </trkpt>
      <trkpt lat="45.27799" lon="6.9089">
        <time>1970-01-01T00:00:00+00:00</time>
        <ele>1790.0</ele>
      </trkpt>
      <trkpt lat="45.27799" lon="6.9089">
        <time>1970-01-01T00:00:00+00:00</time>
        <ele>1790.0</ele>
      </trkpt>
      <trkpt lat="45.27797" lon="6.90884">
        <time>1970-01-01T00:00:00+00:00</time>
        <ele>1790.0</ele>
      </trkpt>
      <trkpt lat="45.27797" lon="6.90884">
        <time>1970-01-01T00:00:00+00:00</time>
        <ele>1790.0</ele>
      </trkpt>
      <trkpt lat="45.27793" lon="6.9088">
        <time>1970-01-01T00:00:00+00:00</time>
        <ele>1790.0</ele>
      </trkpt>
      <trkpt lat="45.27793" lon="6.9088">
        <time>1970-01-01T00:00:00+00:00</time>
        <ele>1790.0</ele>
      </trkpt>
      <trkpt lat="45.2779" lon="6.90875">
        <time>1970-01-01T00:00:00+00:00</time>
        <ele>1792.0</ele>
      </trkpt>
      <trkpt lat="45.2779" lon="6.90875">
        <time>1970-01-01T00:00:00+00:00</time>
        <ele>1792.0</ele>
      </trkpt>
      <trkpt lat="45.27788" lon="6.90868">
        <time>1970-01-01T00:00:00+00:00</time>
        <ele>1793.0</ele>
      </trkpt>
      <trkpt lat="45.27788" lon="6.90868">
        <time>1970-01-01T00:00:00+00:00</time>
        <ele>1793.0</ele>
      </trkpt>
      <trkpt lat="45.27786" lon="6.90861">
        <time>1970-01-01T00:00:00+00:00</time>
        <ele>1794.0</ele>
      </trkpt>
      <trkpt lat="45.27786" lon="6.90861">
        <time>1970-01-01T00:00:00+00:00</time>
        <ele>1794.0</ele>
      </trkpt>
      <trkpt lat="45.27783" lon="6.90855">
        <time>1970-01-01T00:00:00+00:00</time>
        <ele>1796.0</ele>
      </trkpt>
      <trkpt lat="45.27783" lon="6.90855">
        <time>1970-01-01T00:00:00+00:00</time>
        <ele>1796.0</ele>
      </trkpt>
      <trkpt lat="45.27781" lon="6.90849">
        <time>1970-01-01T00:00:00+00:00</time>
        <ele>1797.0</ele>
      </trkpt>
      <trkpt lat="45.27781" lon="6.90849">
        <time>1970-01-01T00:00:00+00:00</time>
        <ele>1797.0</ele>
      </trkpt>
      <trkpt lat="45.27777" lon="6.90846">
        <time>1970-01-01T00:00:00+00:00</time>
        <ele>1798.0</ele>
      </trkpt>
      <trkpt lat="45.27777" lon="6.90846">
        <time>1970-01-01T00:00:00+00:00</time>
        <ele>1798.0</ele>
      </trkpt>
      <trkpt lat="45.27774" lon="6.90841">
        <time>1970-01-01T00:00:00+00:00</time>
        <ele>1799.0</ele>
      </trkpt>
      <trkpt lat="45.27774" lon="6.90841">
        <time>1970-01-01T00:00:00+00:00</time>
        <ele>1799.0</ele>
      </trkpt>
      <trkpt lat="45.2777" lon="6.90836">
        <time>1970-01-01T00:00:00+00:00</time>
        <ele>1801.0</ele>
      </trkpt>
      <trkpt lat="45.2777" lon="6.90836">
        <time>1970-01-01T00:00:00+00:00</time>
        <ele>1801.0</ele>
      </trkpt>
      <trkpt lat="45.27765" lon="6.90834">
        <time>1970-01-01T00:00:00+00:00</time>
        <ele>1803.0</ele>
      </trkpt>
      <trkpt lat="45.27765" lon="6.90834">
        <time>1970-01-01T00:00:00+00:00</time>
        <ele>1803.0</ele>
      </trkpt>
      <trkpt lat="45.2776" lon="6.90832">
        <time>1970-01-01T00:00:00+00:00</time>
        <ele>1805.0</ele>
      </trkpt>
      <trkpt lat="45.2776" lon="6.90832">
        <time>1970-01-01T00:00:00+00:00</time>
        <ele>1805.0</ele>
      </trkpt>
      <trkpt lat="45.27755" lon="6.90831">
        <time>1970-01-01T00:00:00+00:00</time>
        <ele>1807.0</ele>
      </trkpt>
      <trkpt lat="45.27755" lon="6.90831">
        <time>1970-01-01T00:00:00+00:00</time>
        <ele>1807.0</ele>
      </trkpt>
      <trkpt lat="45.2775" lon="6.9083">
        <time>1970-01-01T00:00:00+00:00</time>
        <ele>1809.0</ele>
      </trkpt>
      <trkpt lat="45.2775" lon="6.9083">
        <time>1970-01-01T00:00:00+00:00</time>
        <ele>1809.0</ele>
      </trkpt>
      <trkpt lat="45.27745" lon="6.9083">
        <time>1970-01-01T00:00:00+00:00</time>
        <ele>1810.0</ele>
      </trkpt>
      <trkpt lat="45.27745" lon="6.9083">
        <time>1970-01-01T00:00:00+00:00</time>
        <ele>1810.0</ele>
      </trkpt>
      <trkpt lat="45.2774" lon="6.90832">
        <time>1970-01-01T00:00:00+00:00</time>
        <ele>1812.0</ele>
      </trkpt>
      <trkpt lat="45.2774" lon="6.90832">
        <time>1970-01-01T00:00:00+00:00</time>
        <ele>1812.0</ele>
      </trkpt>
      <trkpt lat="45.27735" lon="6.90832">
        <time>1970-01-01T00:00:00+00:00</time>
        <ele>1814.0</ele>
      </trkpt>
      <trkpt lat="45.27735" lon="6.90832">
        <time>1970-01-01T00:00:00+00:00</time>
        <ele>1814.0</ele>
      </trkpt>
      <trkpt lat="45.2773" lon="6.90832">
        <time>1970-01-01T00:00:00+00:00</time>
        <ele>1816.0</ele>
      </trkpt>
      <trkpt lat="45.2773" lon="6.90832">
        <time>1970-01-01T00:00:00+00:00</time>
        <ele>1816.0</ele>
      </trkpt>
      <trkpt lat="45.27725" lon="6.90831">
        <time>1970-01-01T00:00:00+00:00</time>
        <ele>1817.0</ele>
      </trkpt>
      <trkpt lat="45.27725" lon="6.90831">
        <time>1970-01-01T00:00:00+00:00</time>
        <ele>1817.0</ele>
      </trkpt>
      <trkpt lat="45.2772" lon="6.90831">
        <time>1970-01-01T00:00:00+00:00</time>
        <ele>1818.0</ele>
      </trkpt>
      <trkpt lat="45.2772" lon="6.90831">
        <time>1970-01-01T00:00:00+00:00</time>
        <ele>1818.0</ele>
      </trkpt>
      <trkpt lat="45.27715" lon="6.9083">
        <time>1970-01-01T00:00:00+00:00</time>
        <ele>1820.0</ele>
      </trkpt>
      <trkpt lat="45.27715" lon="6.9083">
        <time>1970-01-01T00:00:00+00:00</time>
        <ele>1820.0</ele>
      </trkpt>
      <trkpt lat="45.2771" lon="6.90831">
        <time>1970-01-01T00:00:00+00:00</time>
        <ele>1821.0</ele>
      </trkpt>
      <trkpt lat="45.2771" lon="6.90831">
        <time>1970-01-01T00:00:00+00:00</time>
        <ele>1821.0</ele>
      </trkpt>
      <trkpt lat="45.27705" lon="6.90829">
        <time>1970-01-01T00:00:00+00:00</time>
        <ele>1822.0</ele>
      </trkpt>
      <trkpt lat="45.27705" lon="6.90829">
        <time>1970-01-01T00:00:00+00:00</time>
        <ele>1822.0</ele>
      </trkpt>
      <trkpt lat="45.27701" lon="6.90826">
        <time>1970-01-01T00:00:00+00:00</time>
        <ele>1823.0</ele>
      </trkpt>
      <trkpt lat="45.27701" lon="6.90826">
        <time>1970-01-01T00:00:00+00:00</time>
        <ele>1823.0</ele>
      </trkpt>
      <trkpt lat="45.27697" lon="6.90823">
        <time>1970-01-01T00:00:00+00:00</time>
        <ele>1823.0</ele>
      </trkpt>
      <trkpt lat="45.27697" lon="6.90823">
        <time>1970-01-01T00:00:00+00:00</time>
        <ele>1823.0</ele>
      </trkpt>
      <trkpt lat="45.27692" lon="6.90821">
        <time>1970-01-01T00:00:00+00:00</time>
        <ele>1824.0</ele>
      </trkpt>
      <trkpt lat="45.27692" lon="6.90821">
        <time>1970-01-01T00:00:00+00:00</time>
        <ele>1824.0</ele>
      </trkpt>
      <trkpt lat="45.27688" lon="6.90818">
        <time>1970-01-01T00:00:00+00:00</time>
        <ele>1825.0</ele>
      </trkpt>
      <trkpt lat="45.27688" lon="6.90818">
        <time>1970-01-01T00:00:00+00:00</time>
        <ele>1825.0</ele>
      </trkpt>
      <trkpt lat="45.27683" lon="6.90816">
        <time>1970-01-01T00:00:00+00:00</time>
        <ele>1826.0</ele>
      </trkpt>
      <trkpt lat="45.27683" lon="6.90816">
        <time>1970-01-01T00:00:00+00:00</time>
        <ele>1826.0</ele>
      </trkpt>
      <trkpt lat="45.27678" lon="6.90814">
        <time>1970-01-01T00:00:00+00:00</time>
        <ele>1827.0</ele>
      </trkpt>
      <trkpt lat="45.27678" lon="6.90814">
        <time>1970-01-01T00:00:00+00:00</time>
        <ele>1827.0</ele>
      </trkpt>
      <trkpt lat="45.27673" lon="6.90812">
        <time>1970-01-01T00:00:00+00:00</time>
        <ele>1829.0</ele>
      </trkpt>
      <trkpt lat="45.27673" lon="6.90812">
        <time>1970-01-01T00:00:00+00:00</time>
        <ele>1829.0</ele>
      </trkpt>
      <trkpt lat="45.27669" lon="6.90809">
        <time>1970-01-01T00:00:00+00:00</time>
        <ele>1830.0</ele>
      </trkpt>
      <trkpt lat="45.27669" lon="6.90809">
        <time>1970-01-01T00:00:00+00:00</time>
        <ele>1830.0</ele>
      </trkpt>
      <trkpt lat="45.27665" lon="6.90805">
        <time>1970-01-01T00:00:00+00:00</time>
        <ele>1831.0</ele>
      </trkpt>
      <trkpt lat="45.27665" lon="6.90805">
        <time>1970-01-01T00:00:00+00:00</time>
        <ele>1831.0</ele>
      </trkpt>
      <trkpt lat="45.2766" lon="6.90804">
        <time>1970-01-01T00:00:00+00:00</time>
        <ele>1833.0</ele>
      </trkpt>
      <trkpt lat="45.2766" lon="6.90804">
        <time>1970-01-01T00:00:00+00:00</time>
        <ele>1833.0</ele>
      </trkpt>
      <trkpt lat="45.27655" lon="6.90801">
        <time>1970-01-01T00:00:00+00:00</time>
        <ele>1834.0</ele>
      </trkpt>
      <trkpt lat="45.27655" lon="6.90801">
        <time>1970-01-01T00:00:00+00:00</time>
        <ele>1834.0</ele>
      </trkpt>
      <trkpt lat="45.2765" lon="6.90798">
        <time>1970-01-01T00:00:00+00:00</time>
        <ele>1835.0</ele>
      </trkpt>
      <trkpt lat="45.2765" lon="6.90798">
        <time>1970-01-01T00:00:00+00:00</time>
        <ele>1835.0</ele>
      </trkpt>
      <trkpt lat="45.27646" lon="6.90795">
        <time>1970-01-01T00:00:00+00:00</time>
        <ele>1836.0</ele>
      </trkpt>
      <trkpt lat="45.27646" lon="6.90795">
        <time>1970-01-01T00:00:00+00:00</time>
        <ele>1836.0</ele>
      </trkpt>
      <trkpt lat="45.27642" lon="6.9079">
        <time>1970-01-01T00:00:00+00:00</time>
        <ele>1837.0</ele>
      </trkpt>
      <trkpt lat="45.27642" lon="6.9079">
        <time>1970-01-01T00:00:00+00:00</time>
        <ele>1837.0</ele>
      </trkpt>
      <trkpt lat="45.27638" lon="6.90787">
        <time>1970-01-01T00:00:00+00:00</time>
        <ele>1837.0</ele>
      </trkpt>
      <trkpt lat="45.27638" lon="6.90787">
        <time>1970-01-01T00:00:00+00:00</time>
        <ele>1837.0</ele>
      </trkpt>
      <trkpt lat="45.27634" lon="6.90782">
        <time>1970-01-01T00:00:00+00:00</time>
        <ele>1837.0</ele>
      </trkpt>
      <trkpt lat="45.27634" lon="6.90782">
        <time>1970-01-01T00:00:00+00:00</time>
        <ele>1837.0</ele>
      </trkpt>
      <trkpt lat="45.27629" lon="6.90777">
        <time>1970-01-01T00:00:00+00:00</time>
        <ele>1838.0</ele>
      </trkpt>
      <trkpt lat="45.27629" lon="6.90777">
        <time>1970-01-01T00:00:00+00:00</time>
        <ele>1838.0</ele>
      </trkpt>
      <trkpt lat="45.27624" lon="6.90776">
        <time>1970-01-01T00:00:00+00:00</time>
        <ele>1839.0</ele>
      </trkpt>
      <trkpt lat="45.27624" lon="6.90776">
        <time>1970-01-01T00:00:00+00:00</time>
        <ele>1839.0</ele>
      </trkpt>
      <trkpt lat="45.27619" lon="6.90777">
        <time>1970-01-01T00:00:00+00:00</time>
        <ele>1842.0</ele>
      </trkpt>
      <trkpt lat="45.27619" lon="6.90777">
        <time>1970-01-01T00:00:00+00:00</time>
        <ele>1842.0</ele>
      </trkpt>
      <trkpt lat="45.27615" lon="6.90782">
        <time>1970-01-01T00:00:00+00:00</time>
        <ele>1845.0</ele>
      </trkpt>
      <trkpt lat="45.27615" lon="6.90782">
        <time>1970-01-01T00:00:00+00:00</time>
        <ele>1845.0</ele>
      </trkpt>
      <trkpt lat="45.27614" lon="6.90789">
        <time>1970-01-01T00:00:00+00:00</time>
        <ele>1847.0</ele>
      </trkpt>
      <trkpt lat="45.27614" lon="6.90789">
        <time>1970-01-01T00:00:00+00:00</time>
        <ele>1847.0</ele>
      </trkpt>
      <trkpt lat="45.27614" lon="6.90796">
        <time>1970-01-01T00:00:00+00:00</time>
        <ele>1848.0</ele>
      </trkpt>
      <trkpt lat="45.27614" lon="6.90796">
        <time>1970-01-01T00:00:00+00:00</time>
        <ele>1848.0</ele>
      </trkpt>
      <trkpt lat="45.27616" lon="6.90802">
        <time>1970-01-01T00:00:00+00:00</time>
        <ele>1848.0</ele>
      </trkpt>
      <trkpt lat="45.27616" lon="6.90802">
        <time>1970-01-01T00:00:00+00:00</time>
        <ele>1848.0</ele>
      </trkpt>
      <trkpt lat="45.27616" lon="6.90809">
        <time>1970-01-01T00:00:00+00:00</time>
        <ele>1850.0</ele>
      </trkpt>
      <trkpt lat="45.27616" lon="6.90809">
        <time>1970-01-01T00:00:00+00:00</time>
        <ele>1850.0</ele>
      </trkpt>
      <trkpt lat="45.27617" lon="6.90817">
        <time>1970-01-01T00:00:00+00:00</time>
        <ele>1851.0</ele>
      </trkpt>
      <trkpt lat="45.27617" lon="6.90817">
        <time>1970-01-01T00:00:00+00:00</time>
        <ele>1851.0</ele>
      </trkpt>
      <trkpt lat="45.27621" lon="6.90821">
        <time>1970-01-01T00:00:00+00:00</time>
        <ele>1850.0</ele>
      </trkpt>
      <trkpt lat="45.27621" lon="6.90821">
        <time>1970-01-01T00:00:00+00:00</time>
        <ele>1850.0</ele>
      </trkpt>
      <trkpt lat="45.27625" lon="6.90826">
        <time>1970-01-01T00:00:00+00:00</time>
        <ele>1849.0</ele>
      </trkpt>
      <trkpt lat="45.27625" lon="6.90826">
        <time>1970-01-01T00:00:00+00:00</time>
        <ele>1849.0</ele>
      </trkpt>
      <trkpt lat="45.27629" lon="6.90831">
        <time>1970-01-01T00:00:00+00:00</time>
        <ele>1849.0</ele>
      </trkpt>
      <trkpt lat="45.27629" lon="6.90831">
        <time>1970-01-01T00:00:00+00:00</time>
        <ele>1849.0</ele>
      </trkpt>
      <trkpt lat="45.27633" lon="6.90834">
        <time>1970-01-01T00:00:00+00:00</time>
        <ele>1848.0</ele>
      </trkpt>
      <trkpt lat="45.27633" lon="6.90834">
        <time>1970-01-01T00:00:00+00:00</time>
        <ele>1848.0</ele>
      </trkpt>
      <trkpt lat="45.27637" lon="6.90839">
        <time>1970-01-01T00:00:00+00:00</time>
        <ele>1847.0</ele>
      </trkpt>
      <trkpt lat="45.27637" lon="6.90839">
        <time>1970-01-01T00:00:00+00:00</time>
        <ele>1847.0</ele>
      </trkpt>
      <trkpt lat="45.27639" lon="6.90845">
        <time>1970-01-01T00:00:00+00:00</time>
        <ele>1846.0</ele>
      </trkpt>
      <trkpt lat="45.27639" lon="6.90845">
        <time>1970-01-01T00:00:00+00:00</time>
        <ele>1846.0</ele>
      </trkpt>
      <trkpt lat="45.27639" lon="6.90852">
        <time>1970-01-01T00:00:00+00:00</time>
        <ele>1847.0</ele>
      </trkpt>
      <trkpt lat="45.27639" lon="6.90852">
        <time>1970-01-01T00:00:00+00:00</time>
        <ele>1847.0</ele>
      </trkpt>
      <trkpt lat="45.2764" lon="6.90859">
        <time>1970-01-01T00:00:00+00:00</time>
        <ele>1848.0</ele>
      </trkpt>
      <trkpt lat="45.2764" lon="6.90859">
        <time>1970-01-01T00:00:00+00:00</time>
        <ele>1848.0</ele>
      </trkpt>
      <trkpt lat="45.27644" lon="6.90865">
        <time>1970-01-01T00:00:00+00:00</time>
        <ele>1849.0</ele>
      </trkpt>
      <trkpt lat="45.27644" lon="6.90865">
        <time>1970-01-01T00:00:00+00:00</time>
        <ele>1849.0</ele>
      </trkpt>
      <trkpt lat="45.27646" lon="6.90871">
        <time>1970-01-01T00:00:00+00:00</time>
        <ele>1849.0</ele>
      </trkpt>
      <trkpt lat="45.27646" lon="6.90871">
        <time>1970-01-01T00:00:00+00:00</time>
        <ele>1849.0</ele>
      </trkpt>
      <trkpt lat="45.27648" lon="6.90877">
        <time>1970-01-01T00:00:00+00:00</time>
        <ele>1850.0</ele>
      </trkpt>
      <trkpt lat="45.27648" lon="6.90877">
        <time>1970-01-01T00:00:00+00:00</time>
        <ele>1850.0</ele>
      </trkpt>
      <trkpt lat="45.2765" lon="6.90883">
        <time>1970-01-01T00:00:00+00:00</time>
        <ele>1851.0</ele>
      </trkpt>
      <trkpt lat="45.2765" lon="6.90883">
        <time>1970-01-01T00:00:00+00:00</time>
        <ele>1851.0</ele>
      </trkpt>
      <trkpt lat="45.2765" lon="6.90892">
        <time>1970-01-01T00:00:00+00:00</time>
        <ele>1852.0</ele>
      </trkpt>
      <trkpt lat="45.2765" lon="6.90892">
        <time>1970-01-01T00:00:00+00:00</time>
        <ele>1852.0</ele>
      </trkpt>
      <trkpt lat="45.27652" lon="6.90898">
        <time>1970-01-01T00:00:00+00:00</time>
        <ele>1853.0</ele>
      </trkpt>
      <trkpt lat="45.27652" lon="6.90898">
        <time>1970-01-01T00:00:00+00:00</time>
        <ele>1853.0</ele>
      </trkpt>
      <trkpt lat="45.27652" lon="6.90905">
        <time>1970-01-01T00:00:00+00:00</time>
        <ele>1854.0</ele>
      </trkpt>
      <trkpt lat="45.27652" lon="6.90905">
        <time>1970-01-01T00:00:00+00:00</time>
        <ele>1854.0</ele>
      </trkpt>
      <trkpt lat="45.27653" lon="6.90912">
        <time>1970-01-01T00:00:00+00:00</time>
        <ele>1853.0</ele>
      </trkpt>
      <trkpt lat="45.27653" lon="6.90912">
        <time>1970-01-01T00:00:00+00:00</time>
        <ele>1853.0</ele>
      </trkpt>
      <trkpt lat="45.27653" lon="6.90919">
        <time>1970-01-01T00:00:00+00:00</time>
        <ele>1853.0</ele>
      </trkpt>
      <trkpt lat="45.27653" lon="6.90919">
        <time>1970-01-01T00:00:00+00:00</time>
        <ele>1853.0</ele>
      </trkpt>
      <trkpt lat="45.27653" lon="6.90926">
        <time>1970-01-01T00:00:00+00:00</time>
        <ele>1853.0</ele>
      </trkpt>
      <trkpt lat="45.27653" lon="6.90926">
        <time>1970-01-01T00:00:00+00:00</time>
        <ele>1853.0</ele>
      </trkpt>
      <trkpt lat="45.27652" lon="6.90933">
        <time>1970-01-01T00:00:00+00:00</time>
        <ele>1853.0</ele>
      </trkpt>
      <trkpt lat="45.27652" lon="6.90933">
        <time>1970-01-01T00:00:00+00:00</time>
        <ele>1853.0</ele>
      </trkpt>
      <trkpt lat="45.27653" lon="6.90941">
        <time>1970-01-01T00:00:00+00:00</time>
        <ele>1853.0</ele>
      </trkpt>
      <trkpt lat="45.27653" lon="6.90941">
        <time>1970-01-01T00:00:00+00:00</time>
        <ele>1853.0</ele>
      </trkpt>
      <trkpt lat="45.27658" lon="6.90943">
        <time>1970-01-01T00:00:00+00:00</time>
        <ele>1851.0</ele>
      </trkpt>
      <trkpt lat="45.27658" lon="6.90943">
        <time>1970-01-01T00:00:00+00:00</time>
        <ele>1851.0</ele>
      </trkpt>
      <trkpt lat="45.27659" lon="6.90951">
        <time>1970-01-01T00:00:00+00:00</time>
        <ele>1851.0</ele>
      </trkpt>
      <trkpt lat="45.27659" lon="6.90951">
        <time>1970-01-01T00:00:00+00:00</time>
        <ele>1851.0</ele>
      </trkpt>
      <trkpt lat="45.27657" lon="6.90957">
        <time>1970-01-01T00:00:00+00:00</time>
        <ele>1852.0</ele>
      </trkpt>
      <trkpt lat="45.27657" lon="6.90957">
        <time>1970-01-01T00:00:00+00:00</time>
        <ele>1852.0</ele>
      </trkpt>
      <trkpt lat="45.27656" lon="6.90964">
        <time>1970-01-01T00:00:00+00:00</time>
        <ele>1853.0</ele>
      </trkpt>
      <trkpt lat="45.27656" lon="6.90964">
        <time>1970-01-01T00:00:00+00:00</time>
        <ele>1853.0</ele>
      </trkpt>
      <trkpt lat="45.27658" lon="6.90972">
        <time>1970-01-01T00:00:00+00:00</time>
        <ele>1854.0</ele>
      </trkpt>
      <trkpt lat="45.27658" lon="6.90972">
        <time>1970-01-01T00:00:00+00:00</time>
        <ele>1854.0</ele>
      </trkpt>
      <trkpt lat="45.27659" lon="6.90979">
        <time>1970-01-01T00:00:00+00:00</time>
        <ele>1855.0</ele>
      </trkpt>
      <trkpt lat="45.27659" lon="6.90979">
        <time>1970-01-01T00:00:00+00:00</time>
        <ele>1855.0</ele>
      </trkpt>
      <trkpt lat="45.27658" lon="6.90987">
        <time>1970-01-01T00:00:00+00:00</time>
        <ele>1857.0</ele>
      </trkpt>
      <trkpt lat="45.27658" lon="6.90987">
        <time>1970-01-01T00:00:00+00:00</time>
        <ele>1857.0</ele>
      </trkpt>
      <trkpt lat="45.27655" lon="6.90993">
        <time>1970-01-01T00:00:00+00:00</time>
        <ele>1860.0</ele>
      </trkpt>
      <trkpt lat="45.27655" lon="6.90993">
        <time>1970-01-01T00:00:00+00:00</time>
        <ele>1860.0</ele>
      </trkpt>
      <trkpt lat="45.27655" lon="6.91001">
        <time>1970-01-01T00:00:00+00:00</time>
        <ele>1863.0</ele>
      </trkpt>
      <trkpt lat="45.27655" lon="6.91001">
        <time>1970-01-01T00:00:00+00:00</time>
        <ele>1863.0</ele>
      </trkpt>
      <trkpt lat="45.27657" lon="6.91008">
        <time>1970-01-01T00:00:00+00:00</time>
        <ele>1865.0</ele>
      </trkpt>
      <trkpt lat="45.27657" lon="6.91008">
        <time>1970-01-01T00:00:00+00:00</time>
        <ele>1865.0</ele>
      </trkpt>
      <trkpt lat="45.27659" lon="6.91014">
        <time>1970-01-01T00:00:00+00:00</time>
        <ele>1866.0</ele>
      </trkpt>
      <trkpt lat="45.27659" lon="6.91014">
        <time>1970-01-01T00:00:00+00:00</time>
        <ele>1866.0</ele>
      </trkpt>
      <trkpt lat="45.27661" lon="6.9102">
        <time>1970-01-01T00:00:00+00:00</time>
        <ele>1867.0</ele>
      </trkpt>
      <trkpt lat="45.27661" lon="6.9102">
        <time>1970-01-01T00:00:00+00:00</time>
        <ele>1867.0</ele>
      </trkpt>
      <trkpt lat="45.27663" lon="6.91027">
        <time>1970-01-01T00:00:00+00:00</time>
        <ele>1869.0</ele>
      </trkpt>
      <trkpt lat="45.27663" lon="6.91027">
        <time>1970-01-01T00:00:00+00:00</time>
        <ele>1869.0</ele>
      </trkpt>
      <trkpt lat="45.27667" lon="6.91031">
        <time>1970-01-01T00:00:00+00:00</time>
        <ele>1868.0</ele>
      </trkpt>
      <trkpt lat="45.27667" lon="6.91031">
        <time>1970-01-01T00:00:00+00:00</time>
        <ele>1868.0</ele>
      </trkpt>
      <trkpt lat="45.2767" lon="6.91036">
        <time>1970-01-01T00:00:00+00:00</time>
        <ele>1869.0</ele>
      </trkpt>
      <trkpt lat="45.2767" lon="6.91036">
        <time>1970-01-01T00:00:00+00:00</time>
        <ele>1869.0</ele>
      </trkpt>
      <trkpt lat="45.27672" lon="6.91042">
        <time>1970-01-01T00:00:00+00:00</time>
        <ele>1870.0</ele>
      </trkpt>
      <trkpt lat="45.27672" lon="6.91042">
        <time>1970-01-01T00:00:00+00:00</time>
        <ele>1870.0</ele>
      </trkpt>
      <trkpt lat="45.27675" lon="6.91047">
        <time>1970-01-01T00:00:00+00:00</time>
        <ele>1871.0</ele>
      </trkpt>
      <trkpt lat="45.27675" lon="6.91047">
        <time>1970-01-01T00:00:00+00:00</time>
        <ele>1871.0</ele>
      </trkpt>
      <trkpt lat="45.27679" lon="6.91052">
        <time>1970-01-01T00:00:00+00:00</time>
        <ele>1871.0</ele>
      </trkpt>
      <trkpt lat="45.27679" lon="6.91052">
        <time>1970-01-01T00:00:00+00:00</time>
        <ele>1871.0</ele>
      </trkpt>
      <trkpt lat="45.27683" lon="6.91057">
        <time>1970-01-01T00:00:00+00:00</time>
        <ele>1871.0</ele>
      </trkpt>
      <trkpt lat="45.27683" lon="6.91057">
        <time>1970-01-01T00:00:00+00:00</time>
        <ele>1871.0</ele>
      </trkpt>
      <trkpt lat="45.27685" lon="6.91064">
        <time>1970-01-01T00:00:00+00:00</time>
        <ele>1873.0</ele>
      </trkpt>
      <trkpt lat="45.27685" lon="6.91064">
        <time>1970-01-01T00:00:00+00:00</time>
        <ele>1873.0</ele>
      </trkpt>
      <trkpt lat="45.27688" lon="6.9107">
        <time>1970-01-01T00:00:00+00:00</time>
        <ele>1873.0</ele>
      </trkpt>
      <trkpt lat="45.27688" lon="6.9107">
        <time>1970-01-01T00:00:00+00:00</time>
        <ele>1873.0</ele>
      </trkpt>
      <trkpt lat="45.27693" lon="6.91074">
        <time>1970-01-01T00:00:00+00:00</time>
        <ele>1872.0</ele>
      </trkpt>
      <trkpt lat="45.27693" lon="6.91074">
        <time>1970-01-01T00:00:00+00:00</time>
        <ele>1872.0</ele>
      </trkpt>
      <trkpt lat="45.27697" lon="6.91077">
        <time>1970-01-01T00:00:00+00:00</time>
        <ele>1871.0</ele>
      </trkpt>
      <trkpt lat="45.27697" lon="6.91077">
        <time>1970-01-01T00:00:00+00:00</time>
        <ele>1871.0</ele>
      </trkpt>
      <trkpt lat="45.27701" lon="6.91081">
        <time>1970-01-01T00:00:00+00:00</time>
        <ele>1870.0</ele>
      </trkpt>
      <trkpt lat="45.27701" lon="6.91081">
        <time>1970-01-01T00:00:00+00:00</time>
        <ele>1870.0</ele>
      </trkpt>
      <trkpt lat="45.27704" lon="6.91087">
        <time>1970-01-01T00:00:00+00:00</time>
        <ele>1870.0</ele>
      </trkpt>
      <trkpt lat="45.27704" lon="6.91087">
        <time>1970-01-01T00:00:00+00:00</time>
        <ele>1870.0</ele>
      </trkpt>
      <trkpt lat="45.27708" lon="6.91091">
        <time>1970-01-01T00:00:00+00:00</time>
        <ele>1869.0</ele>
      </trkpt>
      <trkpt lat="45.27708" lon="6.91091">
        <time>1970-01-01T00:00:00+00:00</time>
        <ele>1869.0</ele>
      </trkpt>
      <trkpt lat="45.27713" lon="6.91093">
        <time>1970-01-01T00:00:00+00:00</time>
        <ele>1867.0</ele>
      </trkpt>
      <trkpt lat="45.27713" lon="6.91093">
        <time>1970-01-01T00:00:00+00:00</time>
        <ele>1867.0</ele>
      </trkpt>
      <trkpt lat="45.27716" lon="6.91098">
        <time>1970-01-01T00:00:00+00:00</time>
        <ele>1866.0</ele>
      </trkpt>
      <trkpt lat="45.27716" lon="6.91098">
        <time>1970-01-01T00:00:00+00:00</time>
        <ele>1866.0</ele>
      </trkpt>
      <trkpt lat="45.27715" lon="6.91106">
        <time>1970-01-01T00:00:00+00:00</time>
        <ele>1867.0</ele>
      </trkpt>
      <trkpt lat="45.27715" lon="6.91106">
        <time>1970-01-01T00:00:00+00:00</time>
        <ele>1867.0</ele>
      </trkpt>
      <trkpt lat="45.27713" lon="6.91113">
        <time>1970-01-01T00:00:00+00:00</time>
        <ele>1869.0</ele>
      </trkpt>
      <trkpt lat="45.27713" lon="6.91113">
        <time>1970-01-01T00:00:00+00:00</time>
        <ele>1869.0</ele>
      </trkpt>
      <trkpt lat="45.27712" lon="6.91121">
        <time>1970-01-01T00:00:00+00:00</time>
        <ele>1870.0</ele>
      </trkpt>
      <trkpt lat="45.27712" lon="6.91121">
        <time>1970-01-01T00:00:00+00:00</time>
        <ele>1870.0</ele>
      </trkpt>
      <trkpt lat="45.2771" lon="6.91128">
        <time>1970-01-01T00:00:00+00:00</time>
        <ele>1872.0</ele>
      </trkpt>
      <trkpt lat="45.2771" lon="6.91128">
        <time>1970-01-01T00:00:00+00:00</time>
        <ele>1872.0</ele>
      </trkpt>
      <trkpt lat="45.27713" lon="6.91135">
        <time>1970-01-01T00:00:00+00:00</time>
        <ele>1870.0</ele>
      </trkpt>
      <trkpt lat="45.27713" lon="6.91135">
        <time>1970-01-01T00:00:00+00:00</time>
        <ele>1870.0</ele>
      </trkpt>
      <trkpt lat="45.27718" lon="6.91137">
        <time>1970-01-01T00:00:00+00:00</time>
        <ele>1868.0</ele>
      </trkpt>
      <trkpt lat="45.27718" lon="6.91137">
        <time>1970-01-01T00:00:00+00:00</time>
        <ele>1868.0</ele>
      </trkpt>
      <trkpt lat="45.27721" lon="6.91143">
        <time>1970-01-01T00:00:00+00:00</time>
        <ele>1867.0</ele>
      </trkpt>
      <trkpt lat="45.27721" lon="6.91143">
        <time>1970-01-01T00:00:00+00:00</time>
        <ele>1867.0</ele>
      </trkpt>
      <trkpt lat="45.27721" lon="6.9115">
        <time>1970-01-01T00:00:00+00:00</time>
        <ele>1868.0</ele>
      </trkpt>
      <trkpt lat="45.27721" lon="6.9115">
        <time>1970-01-01T00:00:00+00:00</time>
        <ele>1868.0</ele>
      </trkpt>
      <trkpt lat="45.27724" lon="6.91157">
        <time>1970-01-01T00:00:00+00:00</time>
        <ele>1867.0</ele>
      </trkpt>
      <trkpt lat="45.27724" lon="6.91157">
        <time>1970-01-01T00:00:00+00:00</time>
        <ele>1867.0</ele>
      </trkpt>
      <trkpt lat="45.27724" lon="6.91165">
        <time>1970-01-01T00:00:00+00:00</time>
        <ele>1867.0</ele>
      </trkpt>
      <trkpt lat="45.27724" lon="6.91165">
        <time>1970-01-01T00:00:00+00:00</time>
        <ele>1867.0</ele>
      </trkpt>
      <trkpt lat="45.2772" lon="6.91171">
        <time>1970-01-01T00:00:00+00:00</time>
        <ele>1870.0</ele>
      </trkpt>
      <trkpt lat="45.2772" lon="6.91171">
        <time>1970-01-01T00:00:00+00:00</time>
        <ele>1870.0</ele>
      </trkpt>
      <trkpt lat="45.27717" lon="6.91176">
        <time>1970-01-01T00:00:00+00:00</time>
        <ele>1871.0</ele>
      </trkpt>
      <trkpt lat="45.27717" lon="6.91176">
        <time>1970-01-01T00:00:00+00:00</time>
        <ele>1871.0</ele>
      </trkpt>
      <trkpt lat="45.27717" lon="6.91184">
        <time>1970-01-01T00:00:00+00:00</time>
        <ele>1872.0</ele>
      </trkpt>
      <trkpt lat="45.27717" lon="6.91184">
        <time>1970-01-01T00:00:00+00:00</time>
        <ele>1872.0</ele>
      </trkpt>
      <trkpt lat="45.27719" lon="6.91191">
        <time>1970-01-01T00:00:00+00:00</time>
        <ele>1871.0</ele>
      </trkpt>
      <trkpt lat="45.27719" lon="6.91191">
        <time>1970-01-01T00:00:00+00:00</time>
        <ele>1871.0</ele>
      </trkpt>
      <trkpt lat="45.27717" lon="6.91199">
        <time>1970-01-01T00:00:00+00:00</time>
        <ele>1872.0</ele>
      </trkpt>
      <trkpt lat="45.27717" lon="6.91199">
        <time>1970-01-01T00:00:00+00:00</time>
        <ele>1872.0</ele>
      </trkpt>
      <trkpt lat="45.27716" lon="6.91207">
        <time>1970-01-01T00:00:00+00:00</time>
        <ele>1873.0</ele>
      </trkpt>
      <trkpt lat="45.27716" lon="6.91207">
        <time>1970-01-01T00:00:00+00:00</time>
        <ele>1873.0</ele>
      </trkpt>
      <trkpt lat="45.27714" lon="6.91213">
        <time>1970-01-01T00:00:00+00:00</time>
        <ele>1874.0</ele>
      </trkpt>
      <trkpt lat="45.27714" lon="6.91213">
        <time>1970-01-01T00:00:00+00:00</time>
        <ele>1874.0</ele>
      </trkpt>
      <trkpt lat="45.27713" lon="6.9122">
        <time>1970-01-01T00:00:00+00:00</time>
        <ele>1874.0</ele>
      </trkpt>
      <trkpt lat="45.27713" lon="6.9122">
        <time>1970-01-01T00:00:00+00:00</time>
        <ele>1874.0</ele>
      </trkpt>
      <trkpt lat="45.27713" lon="6.91227">
        <time>1970-01-01T00:00:00+00:00</time>
        <ele>1874.0</ele>
      </trkpt>
      <trkpt lat="45.27713" lon="6.91227">
        <time>1970-01-01T00:00:00+00:00</time>
        <ele>1874.0</ele>
      </trkpt>
      <trkpt lat="45.27714" lon="6.91234">
        <time>1970-01-01T00:00:00+00:00</time>
        <ele>1874.0</ele>
      </trkpt>
      <trkpt lat="45.27714" lon="6.91234">
        <time>1970-01-01T00:00:00+00:00</time>
        <ele>1874.0</ele>
      </trkpt>
      <trkpt lat="45.27713" lon="6.91241">
        <time>1970-01-01T00:00:00+00:00</time>
        <ele>1874.0</ele>
      </trkpt>
      <trkpt lat="45.27713" lon="6.91241">
        <time>1970-01-01T00:00:00+00:00</time>
        <ele>1874.0</ele>
      </trkpt>
      <trkpt lat="45.27712" lon="6.91249">
        <time>1970-01-01T00:00:00+00:00</time>
        <ele>1874.0</ele>
      </trkpt>
      <trkpt lat="45.27712" lon="6.91249">
        <time>1970-01-01T00:00:00+00:00</time>
        <ele>1874.0</ele>
      </trkpt>
      <trkpt lat="45.2771" lon="6.91256">
        <time>1970-01-01T00:00:00+00:00</time>
        <ele>1875.0</ele>
      </trkpt>
      <trkpt lat="45.2771" lon="6.91256">
        <time>1970-01-01T00:00:00+00:00</time>
        <ele>1875.0</ele>
      </trkpt>
      <trkpt lat="45.2771" lon="6.91264">
        <time>1970-01-01T00:00:00+00:00</time>
        <ele>1874.0</ele>
      </trkpt>
      <trkpt lat="45.2771" lon="6.91264">
        <time>1970-01-01T00:00:00+00:00</time>
        <ele>1874.0</ele>
      </trkpt>
      <trkpt lat="45.2771" lon="6.91271">
        <time>1970-01-01T00:00:00+00:00</time>
        <ele>1874.0</ele>
      </trkpt>
      <trkpt lat="45.2771" lon="6.91271">
        <time>1970-01-01T00:00:00+00:00</time>
        <ele>1874.0</ele>
      </trkpt>
      <trkpt lat="45.27709" lon="6.91278">
        <time>1970-01-01T00:00:00+00:00</time>
        <ele>1874.0</ele>
      </trkpt>
      <trkpt lat="45.27709" lon="6.91278">
        <time>1970-01-01T00:00:00+00:00</time>
        <ele>1874.0</ele>
      </trkpt>
      <trkpt lat="45.27708" lon="6.91285">
        <time>1970-01-01T00:00:00+00:00</time>
        <ele>1873.0</ele>
      </trkpt>
      <trkpt lat="45.27708" lon="6.91285">
        <time>1970-01-01T00:00:00+00:00</time>
        <ele>1873.0</ele>
      </trkpt>
      <trkpt lat="45.27705" lon="6.91291">
        <time>1970-01-01T00:00:00+00:00</time>
        <ele>1872.0</ele>
      </trkpt>
      <trkpt lat="45.27705" lon="6.91291">
        <time>1970-01-01T00:00:00+00:00</time>
        <ele>1872.0</ele>
      </trkpt>
      <trkpt lat="45.27699" lon="6.91293">
        <time>1970-01-01T00:00:00+00:00</time>
        <ele>1872.0</ele>
      </trkpt>
      <trkpt lat="45.27699" lon="6.91293">
        <time>1970-01-01T00:00:00+00:00</time>
        <ele>1872.0</ele>
      </trkpt>
      <trkpt lat="45.27694" lon="6.91293">
        <time>1970-01-01T00:00:00+00:00</time>
        <ele>1873.0</ele>
      </trkpt>
      <trkpt lat="45.27694" lon="6.91293">
        <time>1970-01-01T00:00:00+00:00</time>
        <ele>1873.0</ele>
      </trkpt>
      <trkpt lat="45.27689" lon="6.91294">
        <time>1970-01-01T00:00:00+00:00</time>
        <ele>1873.0</ele>
      </trkpt>
      <trkpt lat="45.27689" lon="6.91294">
        <time>1970-01-01T00:00:00+00:00</time>
        <ele>1873.0</ele>
      </trkpt>
      <trkpt lat="45.27684" lon="6.91295">
        <time>1970-01-01T00:00:00+00:00</time>
        <ele>1873.0</ele>
      </trkpt>
      <trkpt lat="45.27684" lon="6.91295">
        <time>1970-01-01T00:00:00+00:00</time>
        <ele>1873.0</ele>
      </trkpt>
      <trkpt lat="45.27679" lon="6.91298">
        <time>1970-01-01T00:00:00+00:00</time>
        <ele>1873.0</ele>
      </trkpt>
      <trkpt lat="45.27679" lon="6.91298">
        <time>1970-01-01T00:00:00+00:00</time>
        <ele>1873.0</ele>
      </trkpt>
      <trkpt lat="45.27675" lon="6.91301">
        <time>1970-01-01T00:00:00+00:00</time>
        <ele>1874.0</ele>
      </trkpt>
      <trkpt lat="45.27675" lon="6.91301">
        <time>1970-01-01T00:00:00+00:00</time>
        <ele>1874.0</ele>
      </trkpt>
      <trkpt lat="45.2767" lon="6.91303">
        <time>1970-01-01T00:00:00+00:00</time>
        <ele>1875.0</ele>
      </trkpt>
      <trkpt lat="45.2767" lon="6.91303">
        <time>1970-01-01T00:00:00+00:00</time>
        <ele>1875.0</ele>
      </trkpt>
      <trkpt lat="45.27665" lon="6.91303">
        <time>1970-01-01T00:00:00+00:00</time>
        <ele>1877.0</ele>
      </trkpt>
      <trkpt lat="45.27665" lon="6.91303">
        <time>1970-01-01T00:00:00+00:00</time>
        <ele>1877.0</ele>
      </trkpt>
      <trkpt lat="45.27661" lon="6.91306">
        <time>1970-01-01T00:00:00+00:00</time>
        <ele>1879.0</ele>
      </trkpt>
      <trkpt lat="45.27661" lon="6.91306">
        <time>1970-01-01T00:00:00+00:00</time>
        <ele>1879.0</ele>
      </trkpt>
      <trkpt lat="45.27658" lon="6.91311">
        <time>1970-01-01T00:00:00+00:00</time>
        <ele>1880.0</ele>
      </trkpt>
      <trkpt lat="45.27658" lon="6.91311">
        <time>1970-01-01T00:00:00+00:00</time>
        <ele>1880.0</ele>
      </trkpt>
      <trkpt lat="45.27655" lon="6.91317">
        <time>1970-01-01T00:00:00+00:00</time>
        <ele>1881.0</ele>
      </trkpt>
      <trkpt lat="45.27655" lon="6.91317">
        <time>1970-01-01T00:00:00+00:00</time>
        <ele>1881.0</ele>
      </trkpt>
      <trkpt lat="45.27652" lon="6.91322">
        <time>1970-01-01T00:00:00+00:00</time>
        <ele>1883.0</ele>
      </trkpt>
      <trkpt lat="45.27652" lon="6.91322">
        <time>1970-01-01T00:00:00+00:00</time>
        <ele>1883.0</ele>
      </trkpt>
      <trkpt lat="45.27649" lon="6.91327">
        <time>1970-01-01T00:00:00+00:00</time>
        <ele>1885.0</ele>
      </trkpt>
      <trkpt lat="45.27649" lon="6.91327">
        <time>1970-01-01T00:00:00+00:00</time>
        <ele>1885.0</ele>
      </trkpt>
      <trkpt lat="45.27649" lon="6.91334">
        <time>1970-01-01T00:00:00+00:00</time>
        <ele>1885.0</ele>
      </trkpt>
      <trkpt lat="45.27649" lon="6.91334">
        <time>1970-01-01T00:00:00+00:00</time>
        <ele>1885.0</ele>
      </trkpt>
      <trkpt lat="45.27648" lon="6.91341">
        <time>1970-01-01T00:00:00+00:00</time>
        <ele>1885.0</ele>
      </trkpt>
      <trkpt lat="45.27648" lon="6.91341">
        <time>1970-01-01T00:00:00+00:00</time>
        <ele>1885.0</ele>
      </trkpt>
      <trkpt lat="45.27647" lon="6.91348">
        <time>1970-01-01T00:00:00+00:00</time>
        <ele>1886.0</ele>
      </trkpt>
      <trkpt lat="45.27647" lon="6.91348">
        <time>1970-01-01T00:00:00+00:00</time>
        <ele>1886.0</ele>
      </trkpt>
      <trkpt lat="45.27646" lon="6.91355">
        <time>1970-01-01T00:00:00+00:00</time>
        <ele>1887.0</ele>
      </trkpt>
      <trkpt lat="45.27646" lon="6.91355">
        <time>1970-01-01T00:00:00+00:00</time>
        <ele>1887.0</ele>
      </trkpt>
      <trkpt lat="45.27648" lon="6.91361">
        <time>1970-01-01T00:00:00+00:00</time>
        <ele>1885.0</ele>
      </trkpt>
      <trkpt lat="45.27648" lon="6.91361">
        <time>1970-01-01T00:00:00+00:00</time>
        <ele>1885.0</ele>
      </trkpt>
      <trkpt lat="45.27647" lon="6.91369">
        <time>1970-01-01T00:00:00+00:00</time>
        <ele>1886.0</ele>
      </trkpt>
      <trkpt lat="45.27647" lon="6.91369">
        <time>1970-01-01T00:00:00+00:00</time>
        <ele>1886.0</ele>
      </trkpt>
      <trkpt lat="45.27644" lon="6.91374">
        <time>1970-01-01T00:00:00+00:00</time>
        <ele>1888.0</ele>
      </trkpt>
      <trkpt lat="45.27644" lon="6.91374">
        <time>1970-01-01T00:00:00+00:00</time>
        <ele>1888.0</ele>
      </trkpt>
      <trkpt lat="45.2764" lon="6.91379">
        <time>1970-01-01T00:00:00+00:00</time>
        <ele>1890.0</ele>
      </trkpt>
      <trkpt lat="45.2764" lon="6.91379">
        <time>1970-01-01T00:00:00+00:00</time>
        <ele>1890.0</ele>
      </trkpt>
      <trkpt lat="45.2764" lon="6.91387">
        <time>1970-01-01T00:00:00+00:00</time>
        <ele>1890.0</ele>
      </trkpt>
      <trkpt lat="45.2764" lon="6.91387">
        <time>1970-01-01T00:00:00+00:00</time>
        <ele>1890.0</ele>
      </trkpt>
      <trkpt lat="45.27642" lon="6.91393">
        <time>1970-01-01T00:00:00+00:00</time>
        <ele>1889.0</ele>
      </trkpt>
      <trkpt lat="45.27642" lon="6.91393">
        <time>1970-01-01T00:00:00+00:00</time>
        <ele>1889.0</ele>
      </trkpt>
      <trkpt lat="45.2764" lon="6.91399">
        <time>1970-01-01T00:00:00+00:00</time>
        <ele>1891.0</ele>
      </trkpt>
      <trkpt lat="45.2764" lon="6.91399">
        <time>1970-01-01T00:00:00+00:00</time>
        <ele>1891.0</ele>
      </trkpt>
      <trkpt lat="45.27639" lon="6.91406">
        <time>1970-01-01T00:00:00+00:00</time>
        <ele>1892.0</ele>
      </trkpt>
      <trkpt lat="45.27639" lon="6.91406">
        <time>1970-01-01T00:00:00+00:00</time>
        <ele>1892.0</ele>
      </trkpt>
      <trkpt lat="45.27638" lon="6.91413">
        <time>1970-01-01T00:00:00+00:00</time>
        <ele>1894.0</ele>
      </trkpt>
      <trkpt lat="45.27638" lon="6.91413">
        <time>1970-01-01T00:00:00+00:00</time>
        <ele>1894.0</ele>
      </trkpt>
      <trkpt lat="45.27636" lon="6.91419">
        <time>1970-01-01T00:00:00+00:00</time>
        <ele>1896.0</ele>
      </trkpt>
      <trkpt lat="45.27636" lon="6.91419">
        <time>1970-01-01T00:00:00+00:00</time>
        <ele>1896.0</ele>
      </trkpt>
      <trkpt lat="45.27633" lon="6.91425">
        <time>1970-01-01T00:00:00+00:00</time>
        <ele>1898.0</ele>
      </trkpt>
      <trkpt lat="45.27633" lon="6.91425">
        <time>1970-01-01T00:00:00+00:00</time>
        <ele>1898.0</ele>
      </trkpt>
      <trkpt lat="45.27633" lon="6.91432">
        <time>1970-01-01T00:00:00+00:00</time>
        <ele>1899.0</ele>
      </trkpt>
      <trkpt lat="45.27633" lon="6.91432">
        <time>1970-01-01T00:00:00+00:00</time>
        <ele>1899.0</ele>
      </trkpt>
      <trkpt lat="45.27634" lon="6.9144">
        <time>1970-01-01T00:00:00+00:00</time>
        <ele>1900.0</ele>
      </trkpt>
      <trkpt lat="45.27634" lon="6.9144">
        <time>1970-01-01T00:00:00+00:00</time>
        <ele>1900.0</ele>
      </trkpt>
      <trkpt lat="45.2763" lon="6.91447">
        <time>1970-01-01T00:00:00+00:00</time>
        <ele>1903.0</ele>
      </trkpt>
      <trkpt lat="45.2763" lon="6.91447">
        <time>1970-01-01T00:00:00+00:00</time>
        <ele>1903.0</ele>
      </trkpt>
      <trkpt lat="45.27629" lon="6.91454">
        <time>1970-01-01T00:00:00+00:00</time>
        <ele>1904.0</ele>
      </trkpt>
      <trkpt lat="45.27629" lon="6.91454">
        <time>1970-01-01T00:00:00+00:00</time>
        <ele>1904.0</ele>
      </trkpt>
      <trkpt lat="45.27629" lon="6.91461">
        <time>1970-01-01T00:00:00+00:00</time>
        <ele>1905.0</ele>
      </trkpt>
      <trkpt lat="45.27629" lon="6.91461">
        <time>1970-01-01T00:00:00+00:00</time>
        <ele>1905.0</ele>
      </trkpt>
      <trkpt lat="45.2763" lon="6.91468">
        <time>1970-01-01T00:00:00+00:00</time>
        <ele>1905.0</ele>
      </trkpt>
      <trkpt lat="45.2763" lon="6.91468">
        <time>1970-01-01T00:00:00+00:00</time>
        <ele>1905.0</ele>
      </trkpt>
      <trkpt lat="45.27633" lon="6.91474">
        <time>1970-01-01T00:00:00+00:00</time>
        <ele>1903.0</ele>
      </trkpt>
      <trkpt lat="45.27633" lon="6.91474">
        <time>1970-01-01T00:00:00+00:00</time>
        <ele>1903.0</ele>
      </trkpt>
      <trkpt lat="45.27634" lon="6.91481">
        <time>1970-01-01T00:00:00+00:00</time>
        <ele>1901.0</ele>
      </trkpt>
      <trkpt lat="45.27634" lon="6.91481">
        <time>1970-01-01T00:00:00+00:00</time>
        <ele>1901.0</ele>
      </trkpt>
      <trkpt lat="45.27634" lon="6.91489">
        <time>1970-01-01T00:00:00+00:00</time>
        <ele>1901.0</ele>
      </trkpt>
      <trkpt lat="45.27634" lon="6.91489">
        <time>1970-01-01T00:00:00+00:00</time>
        <ele>1901.0</ele>
      </trkpt>
      <trkpt lat="45.2763" lon="6.91493">
        <time>1970-01-01T00:00:00+00:00</time>
        <ele>1903.0</ele>
      </trkpt>
      <trkpt lat="45.2763" lon="6.91493">
        <time>1970-01-01T00:00:00+00:00</time>
        <ele>1903.0</ele>
      </trkpt>
      <trkpt lat="45.27632" lon="6.91499">
        <time>1970-01-01T00:00:00+00:00</time>
        <ele>1901.0</ele>
      </trkpt>
      <trkpt lat="45.27632" lon="6.91499">
        <time>1970-01-01T00:00:00+00:00</time>
        <ele>1901.0</ele>
      </trkpt>
      <trkpt lat="45.27633" lon="6.91506">
        <time>1970-01-01T00:00:00+00:00</time>
        <ele>1899.0</ele>
      </trkpt>
      <trkpt lat="45.27633" lon="6.91506">
        <time>1970-01-01T00:00:00+00:00</time>
        <ele>1899.0</ele>
      </trkpt>
      <trkpt lat="45.27635" lon="6.91512">
        <time>1970-01-01T00:00:00+00:00</time>
        <ele>1897.0</ele>
      </trkpt>
      <trkpt lat="45.27635" lon="6.91512">
        <time>1970-01-01T00:00:00+00:00</time>
        <ele>1897.0</ele>
      </trkpt>
      <trkpt lat="45.27632" lon="6.91518">
        <time>1970-01-01T00:00:00+00:00</time>
        <ele>1899.0</ele>
      </trkpt>
      <trkpt lat="45.27632" lon="6.91518">
        <time>1970-01-01T00:00:00+00:00</time>
        <ele>1899.0</ele>
      </trkpt>
      <trkpt lat="45.2763" lon="6.91524">
        <time>1970-01-01T00:00:00+00:00</time>
        <ele>1899.0</ele>
      </trkpt>
      <trkpt lat="45.2763" lon="6.91524">
        <time>1970-01-01T00:00:00+00:00</time>
        <ele>1899.0</ele>
      </trkpt>
      <trkpt lat="45.27627" lon="6.9153">
        <time>1970-01-01T00:00:00+00:00</time>
        <ele>1901.0</ele>
      </trkpt>
      <trkpt lat="45.27627" lon="6.9153">
        <time>1970-01-01T00:00:00+00:00</time>
        <ele>1901.0</ele>
      </trkpt>
      <trkpt lat="45.27624" lon="6.91536">
        <time>1970-01-01T00:00:00+00:00</time>
        <ele>1904.0</ele>
      </trkpt>
      <trkpt lat="45.27624" lon="6.91536">
        <time>1970-01-01T00:00:00+00:00</time>
        <ele>1904.0</ele>
      </trkpt>
      <trkpt lat="45.27621" lon="6.91542">
        <time>1970-01-01T00:00:00+00:00</time>
        <ele>1906.0</ele>
      </trkpt>
      <trkpt lat="45.27621" lon="6.91542">
        <time>1970-01-01T00:00:00+00:00</time>
        <ele>1906.0</ele>
      </trkpt>
      <trkpt lat="45.27619" lon="6.91549">
        <time>1970-01-01T00:00:00+00:00</time>
        <ele>1907.0</ele>
      </trkpt>
      <trkpt lat="45.27619" lon="6.91549">
        <time>1970-01-01T00:00:00+00:00</time>
        <ele>1907.0</ele>
      </trkpt>
      <trkpt lat="45.27617" lon="6.91556">
        <time>1970-01-01T00:00:00+00:00</time>
        <ele>1909.0</ele>
      </trkpt>
      <trkpt lat="45.27617" lon="6.91556">
        <time>1970-01-01T00:00:00+00:00</time>
        <ele>1909.0</ele>
      </trkpt>
      <trkpt lat="45.27618" lon="6.91563">
        <time>1970-01-01T00:00:00+00:00</time>
        <ele>1910.0</ele>
      </trkpt>
      <trkpt lat="45.27618" lon="6.91563">
        <time>1970-01-01T00:00:00+00:00</time>
        <ele>1910.0</ele>
      </trkpt>
      <trkpt lat="45.27618" lon="6.9157">
        <time>1970-01-01T00:00:00+00:00</time>
        <ele>1912.0</ele>
      </trkpt>
      <trkpt lat="45.27618" lon="6.9157">
        <time>1970-01-01T00:00:00+00:00</time>
        <ele>1912.0</ele>
      </trkpt>
      <trkpt lat="45.27617" lon="6.91578">
        <time>1970-01-01T00:00:00+00:00</time>
        <ele>1914.0</ele>
      </trkpt>
      <trkpt lat="45.27617" lon="6.91578">
        <time>1970-01-01T00:00:00+00:00</time>
        <ele>1914.0</ele>
      </trkpt>
      <trkpt lat="45.27616" lon="6.91585">
        <time>1970-01-01T00:00:00+00:00</time>
        <ele>1917.0</ele>
      </trkpt>
      <trkpt lat="45.27616" lon="6.91585">
        <time>1970-01-01T00:00:00+00:00</time>
        <ele>1917.0</ele>
      </trkpt>
      <trkpt lat="45.27613" lon="6.91593">
        <time>1970-01-01T00:00:00+00:00</time>
        <ele>1921.0</ele>
      </trkpt>
      <trkpt lat="45.27613" lon="6.91593">
        <time>1970-01-01T00:00:00+00:00</time>
        <ele>1921.0</ele>
      </trkpt>
      <trkpt lat="45.27616" lon="6.91599">
        <time>1970-01-01T00:00:00+00:00</time>
        <ele>1923.0</ele>
      </trkpt>
      <trkpt lat="45.27616" lon="6.91599">
        <time>1970-01-01T00:00:00+00:00</time>
        <ele>1923.0</ele>
      </trkpt>
      <trkpt lat="45.27619" lon="6.91604">
        <time>1970-01-01T00:00:00+00:00</time>
        <ele>1924.0</ele>
      </trkpt>
      <trkpt lat="45.27619" lon="6.91604">
        <time>1970-01-01T00:00:00+00:00</time>
        <ele>1924.0</ele>
      </trkpt>
      <trkpt lat="45.27623" lon="6.91607">
        <time>1970-01-01T00:00:00+00:00</time>
        <ele>1924.0</ele>
      </trkpt>
      <trkpt lat="45.27623" lon="6.91607">
        <time>1970-01-01T00:00:00+00:00</time>
        <ele>1924.0</ele>
      </trkpt>
      <trkpt lat="45.27627" lon="6.9161">
        <time>1970-01-01T00:00:00+00:00</time>
        <ele>1923.0</ele>
      </trkpt>
      <trkpt lat="45.27627" lon="6.9161">
        <time>1970-01-01T00:00:00+00:00</time>
        <ele>1923.0</ele>
      </trkpt>
      <trkpt lat="45.27629" lon="6.91617">
        <time>1970-01-01T00:00:00+00:00</time>
        <ele>1924.0</ele>
      </trkpt>
      <trkpt lat="45.27629" lon="6.91617">
        <time>1970-01-01T00:00:00+00:00</time>
        <ele>1924.0</ele>
      </trkpt>
      <trkpt lat="45.27629" lon="6.91625">
        <time>1970-01-01T00:00:00+00:00</time>
        <ele>1925.0</ele>
      </trkpt>
      <trkpt lat="45.27629" lon="6.91625">
        <time>1970-01-01T00:00:00+00:00</time>
        <ele>1925.0</ele>
      </trkpt>
      <trkpt lat="45.27632" lon="6.9163">
        <time>1970-01-01T00:00:00+00:00</time>
        <ele>1925.0</ele>
      </trkpt>
      <trkpt lat="45.27632" lon="6.9163">
        <time>1970-01-01T00:00:00+00:00</time>
        <ele>1925.0</ele>
      </trkpt>
      <trkpt lat="45.27635" lon="6.91635">
        <time>1970-01-01T00:00:00+00:00</time>
        <ele>1924.0</ele>
      </trkpt>
      <trkpt lat="45.27635" lon="6.91635">
        <time>1970-01-01T00:00:00+00:00</time>
        <ele>1924.0</ele>
      </trkpt>
      <trkpt lat="45.27639" lon="6.91639">
        <time>1970-01-01T00:00:00+00:00</time>
        <ele>1922.0</ele>
      </trkpt>
      <trkpt lat="45.27639" lon="6.91639">
        <time>1970-01-01T00:00:00+00:00</time>
        <ele>1922.0</ele>
      </trkpt>
      <trkpt lat="45.2764" lon="6.91646">
        <time>1970-01-01T00:00:00+00:00</time>
        <ele>1921.0</ele>
      </trkpt>
      <trkpt lat="45.2764" lon="6.91646">
        <time>1970-01-01T00:00:00+00:00</time>
        <ele>1921.0</ele>
      </trkpt>
      <trkpt lat="45.2764" lon="6.91653">
        <time>1970-01-01T00:00:00+00:00</time>
        <ele>1921.0</ele>
      </trkpt>
      <trkpt lat="45.2764" lon="6.91653">
        <time>1970-01-01T00:00:00+00:00</time>
        <ele>1921.0</ele>
      </trkpt>
      <trkpt lat="45.2764" lon="6.9166">
        <time>1970-01-01T00:00:00+00:00</time>
        <ele>1921.0</ele>
      </trkpt>
      <trkpt lat="45.2764" lon="6.9166">
        <time>1970-01-01T00:00:00+00:00</time>
        <ele>1921.0</ele>
      </trkpt>
      <trkpt lat="45.27641" lon="6.91667">
        <time>1970-01-01T00:00:00+00:00</time>
        <ele>1921.0</ele>
      </trkpt>
      <trkpt lat="45.27641" lon="6.91667">
        <time>1970-01-01T00:00:00+00:00</time>
        <ele>1921.0</ele>
      </trkpt>
      <trkpt lat="45.27641" lon="6.91675">
        <time>1970-01-01T00:00:00+00:00</time>
        <ele>1923.0</ele>
      </trkpt>
      <trkpt lat="45.27641" lon="6.91675">
        <time>1970-01-01T00:00:00+00:00</time>
        <ele>1923.0</ele>
      </trkpt>
      <trkpt lat="45.27641" lon="6.91683">
        <time>1970-01-01T00:00:00+00:00</time>
        <ele>1924.0</ele>
      </trkpt>
      <trkpt lat="45.27641" lon="6.91683">
        <time>1970-01-01T00:00:00+00:00</time>
        <ele>1924.0</ele>
      </trkpt>
      <trkpt lat="45.27642" lon="6.9169">
        <time>1970-01-01T00:00:00+00:00</time>
        <ele>1925.0</ele>
      </trkpt>
      <trkpt lat="45.27642" lon="6.9169">
        <time>1970-01-01T00:00:00+00:00</time>
        <ele>1925.0</ele>
      </trkpt>
      <trkpt lat="45.27643" lon="6.91697">
        <time>1970-01-01T00:00:00+00:00</time>
        <ele>1928.0</ele>
      </trkpt>
      <trkpt lat="45.27643" lon="6.91697">
        <time>1970-01-01T00:00:00+00:00</time>
        <ele>1928.0</ele>
      </trkpt>
      <trkpt lat="45.27646" lon="6.91703">
        <time>1970-01-01T00:00:00+00:00</time>
        <ele>1929.0</ele>
      </trkpt>
      <trkpt lat="45.27646" lon="6.91703">
        <time>1970-01-01T00:00:00+00:00</time>
        <ele>1929.0</ele>
      </trkpt>
      <trkpt lat="45.27649" lon="6.91709">
        <time>1970-01-01T00:00:00+00:00</time>
        <ele>1931.0</ele>
      </trkpt>
      <trkpt lat="45.27649" lon="6.91709">
        <time>1970-01-01T00:00:00+00:00</time>
        <ele>1931.0</ele>
      </trkpt>
      <trkpt lat="45.27653" lon="6.91713">
        <time>1970-01-01T00:00:00+00:00</time>
        <ele>1932.0</ele>
      </trkpt>
      <trkpt lat="45.27653" lon="6.91713">
        <time>1970-01-01T00:00:00+00:00</time>
        <ele>1932.0</ele>
      </trkpt>
      <trkpt lat="45.27657" lon="6.91719">
        <time>1970-01-01T00:00:00+00:00</time>
        <ele>1933.0</ele>
      </trkpt>
      <trkpt lat="45.27657" lon="6.91719">
        <time>1970-01-01T00:00:00+00:00</time>
        <ele>1933.0</ele>
      </trkpt>
      <trkpt lat="45.2766" lon="6.91726">
        <time>1970-01-01T00:00:00+00:00</time>
        <ele>1935.0</ele>
      </trkpt>
      <trkpt lat="45.2766" lon="6.91726">
        <time>1970-01-01T00:00:00+00:00</time>
        <ele>1935.0</ele>
      </trkpt>
      <trkpt lat="45.27663" lon="6.91731">
        <time>1970-01-01T00:00:00+00:00</time>
        <ele>1935.0</ele>
      </trkpt>
      <trkpt lat="45.27663" lon="6.91731">
        <time>1970-01-01T00:00:00+00:00</time>
        <ele>1935.0</ele>
      </trkpt>
      <trkpt lat="45.27665" lon="6.91737">
        <time>1970-01-01T00:00:00+00:00</time>
        <ele>1936.0</ele>
      </trkpt>
      <trkpt lat="45.27665" lon="6.91737">
        <time>1970-01-01T00:00:00+00:00</time>
        <ele>1936.0</ele>
      </trkpt>
      <trkpt lat="45.27669" lon="6.9174">
        <time>1970-01-01T00:00:00+00:00</time>
        <ele>1935.0</ele>
      </trkpt>
      <trkpt lat="45.27669" lon="6.9174">
        <time>1970-01-01T00:00:00+00:00</time>
        <ele>1935.0</ele>
      </trkpt>
      <trkpt lat="45.27673" lon="6.91744">
        <time>1970-01-01T00:00:00+00:00</time>
        <ele>1934.0</ele>
      </trkpt>
      <trkpt lat="45.27673" lon="6.91744">
        <time>1970-01-01T00:00:00+00:00</time>
        <ele>1934.0</ele>
      </trkpt>
      <trkpt lat="45.27678" lon="6.91747">
        <time>1970-01-01T00:00:00+00:00</time>
        <ele>1932.0</ele>
      </trkpt>
      <trkpt lat="45.27678" lon="6.91747">
        <time>1970-01-01T00:00:00+00:00</time>
        <ele>1932.0</ele>
      </trkpt>
      <trkpt lat="45.27682" lon="6.91752">
        <time>1970-01-01T00:00:00+00:00</time>
        <ele>1932.0</ele>
      </trkpt>
      <trkpt lat="45.27682" lon="6.91752">
        <time>1970-01-01T00:00:00+00:00</time>
        <ele>1932.0</ele>
      </trkpt>
      <trkpt lat="45.27682" lon="6.91759">
        <time>1970-01-01T00:00:00+00:00</time>
        <ele>1933.0</ele>
      </trkpt>
      <trkpt lat="45.27682" lon="6.91759">
        <time>1970-01-01T00:00:00+00:00</time>
        <ele>1933.0</ele>
      </trkpt>
      <trkpt lat="45.27682" lon="6.91767">
        <time>1970-01-01T00:00:00+00:00</time>
        <ele>1935.0</ele>
      </trkpt>
      <trkpt lat="45.27682" lon="6.91767">
        <time>1970-01-01T00:00:00+00:00</time>
        <ele>1935.0</ele>
      </trkpt>
      <trkpt lat="45.27683" lon="6.91774">
        <time>1970-01-01T00:00:00+00:00</time>
        <ele>1936.0</ele>
      </trkpt>
      <trkpt lat="45.27683" lon="6.91774">
        <time>1970-01-01T00:00:00+00:00</time>
        <ele>1936.0</ele>
      </trkpt>
      <trkpt lat="45.27682" lon="6.91781">
        <time>1970-01-01T00:00:00+00:00</time>
        <ele>1938.0</ele>
      </trkpt>
      <trkpt lat="45.27682" lon="6.91781">
        <time>1970-01-01T00:00:00+00:00</time>
        <ele>1938.0</ele>
      </trkpt>
      <trkpt lat="45.27682" lon="6.91789">
        <time>1970-01-01T00:00:00+00:00</time>
        <ele>1940.0</ele>
      </trkpt>
      <trkpt lat="45.27682" lon="6.91789">
        <time>1970-01-01T00:00:00+00:00</time>
        <ele>1940.0</ele>
      </trkpt>
      <trkpt lat="45.27682" lon="6.91796">
        <time>1970-01-01T00:00:00+00:00</time>
        <ele>1942.0</ele>
      </trkpt>
      <trkpt lat="45.27682" lon="6.91796">
        <time>1970-01-01T00:00:00+00:00</time>
        <ele>1942.0</ele>
      </trkpt>
      <trkpt lat="45.27684" lon="6.91802">
        <time>1970-01-01T00:00:00+00:00</time>
        <ele>1942.0</ele>
      </trkpt>
      <trkpt lat="45.27684" lon="6.91802">
        <time>1970-01-01T00:00:00+00:00</time>
        <ele>1942.0</ele>
      </trkpt>
      <trkpt lat="45.27685" lon="6.91809">
        <time>1970-01-01T00:00:00+00:00</time>
        <ele>1943.0</ele>
      </trkpt>
      <trkpt lat="45.27685" lon="6.91809">
        <time>1970-01-01T00:00:00+00:00</time>
        <ele>1943.0</ele>
      </trkpt>
      <trkpt lat="45.27685" lon="6.91817">
        <time>1970-01-01T00:00:00+00:00</time>
        <ele>1944.0</ele>
      </trkpt>
      <trkpt lat="45.27685" lon="6.91817">
        <time>1970-01-01T00:00:00+00:00</time>
        <ele>1944.0</ele>
      </trkpt>
      <trkpt lat="45.27687" lon="6.91823">
        <time>1970-01-01T00:00:00+00:00</time>
        <ele>1944.0</ele>
      </trkpt>
      <trkpt lat="45.27687" lon="6.91823">
        <time>1970-01-01T00:00:00+00:00</time>
        <ele>1944.0</ele>
      </trkpt>
      <trkpt lat="45.2769" lon="6.91829">
        <time>1970-01-01T00:00:00+00:00</time>
        <ele>1943.0</ele>
      </trkpt>
      <trkpt lat="45.2769" lon="6.91829">
        <time>1970-01-01T00:00:00+00:00</time>
        <ele>1943.0</ele>
      </trkpt>
      <trkpt lat="45.27693" lon="6.91834">
        <time>1970-01-01T00:00:00+00:00</time>
        <ele>1942.0</ele>
      </trkpt>
      <trkpt lat="45.27693" lon="6.91834">
        <time>1970-01-01T00:00:00+00:00</time>
        <ele>1942.0</ele>
      </trkpt>
      <trkpt lat="45.27697" lon="6.91838">
        <time>1970-01-01T00:00:00+00:00</time>
        <ele>1940.0</ele>
      </trkpt>
      <trkpt lat="45.27697" lon="6.91838">
        <time>1970-01-01T00:00:00+00:00</time>
        <ele>1940.0</ele>
      </trkpt>
      <trkpt lat="45.27698" lon="6.91845">
        <time>1970-01-01T00:00:00+00:00</time>
        <ele>1940.0</ele>
      </trkpt>
      <trkpt lat="45.27698" lon="6.91845">
        <time>1970-01-01T00:00:00+00:00</time>
        <ele>1940.0</ele>
      </trkpt>
      <trkpt lat="45.27697" lon="6.91852">
        <time>1970-01-01T00:00:00+00:00</time>
        <ele>1942.0</ele>
      </trkpt>
      <trkpt lat="45.27697" lon="6.91852">
        <time>1970-01-01T00:00:00+00:00</time>
        <ele>1942.0</ele>
      </trkpt>
      <trkpt lat="45.27696" lon="6.9186">
        <time>1970-01-01T00:00:00+00:00</time>
        <ele>1945.0</ele>
      </trkpt>
      <trkpt lat="45.27696" lon="6.9186">
        <time>1970-01-01T00:00:00+00:00</time>
        <ele>1945.0</ele>
      </trkpt>
      <trkpt lat="45.27699" lon="6.91866">
        <time>1970-01-01T00:00:00+00:00</time>
        <ele>1946.0</ele>
      </trkpt>
      <trkpt lat="45.27699" lon="6.91866">
        <time>1970-01-01T00:00:00+00:00</time>
        <ele>1946.0</ele>
      </trkpt>
      <trkpt lat="45.27702" lon="6.91873">
        <time>1970-01-01T00:00:00+00:00</time>
        <ele>1948.0</ele>
      </trkpt>
      <trkpt lat="45.27702" lon="6.91873">
        <time>1970-01-01T00:00:00+00:00</time>
        <ele>1948.0</ele>
      </trkpt>
      <trkpt lat="45.27706" lon="6.91878">
        <time>1970-01-01T00:00:00+00:00</time>
        <ele>1948.0</ele>
      </trkpt>
      <trkpt lat="45.27706" lon="6.91878">
        <time>1970-01-01T00:00:00+00:00</time>
        <ele>1948.0</ele>
      </trkpt>
      <trkpt lat="45.27709" lon="6.91883">
        <time>1970-01-01T00:00:00+00:00</time>
        <ele>1949.0</ele>
      </trkpt>
      <trkpt lat="45.27709" lon="6.91883">
        <time>1970-01-01T00:00:00+00:00</time>
        <ele>1949.0</ele>
      </trkpt>
      <trkpt lat="45.27712" lon="6.91888">
        <time>1970-01-01T00:00:00+00:00</time>
        <ele>1950.0</ele>
      </trkpt>
      <trkpt lat="45.27712" lon="6.91888">
        <time>1970-01-01T00:00:00+00:00</time>
        <ele>1950.0</ele>
      </trkpt>
      <trkpt lat="45.27716" lon="6.91893">
        <time>1970-01-01T00:00:00+00:00</time>
        <ele>1951.0</ele>
      </trkpt>
      <trkpt lat="45.27716" lon="6.91893">
        <time>1970-01-01T00:00:00+00:00</time>
        <ele>1951.0</ele>
      </trkpt>
      <trkpt lat="45.27719" lon="6.91898">
        <time>1970-01-01T00:00:00+00:00</time>
        <ele>1952.0</ele>
      </trkpt>
      <trkpt lat="45.27719" lon="6.91898">
        <time>1970-01-01T00:00:00+00:00</time>
        <ele>1952.0</ele>
      </trkpt>
      <trkpt lat="45.27722" lon="6.91903">
        <time>1970-01-01T00:00:00+00:00</time>
        <ele>1952.0</ele>
      </trkpt>
      <trkpt lat="45.27722" lon="6.91903">
        <time>1970-01-01T00:00:00+00:00</time>
        <ele>1952.0</ele>
      </trkpt>
      <trkpt lat="45.27725" lon="6.91908">
        <time>1970-01-01T00:00:00+00:00</time>
        <ele>1953.0</ele>
      </trkpt>
      <trkpt lat="45.27725" lon="6.91908">
        <time>1970-01-01T00:00:00+00:00</time>
        <ele>1953.0</ele>
      </trkpt>
      <trkpt lat="45.27727" lon="6.91914">
        <time>1970-01-01T00:00:00+00:00</time>
        <ele>1954.0</ele>
      </trkpt>
      <trkpt lat="45.27727" lon="6.91914">
        <time>1970-01-01T00:00:00+00:00</time>
        <ele>1954.0</ele>
      </trkpt>
      <trkpt lat="45.27729" lon="6.9192">
        <time>1970-01-01T00:00:00+00:00</time>
        <ele>1956.0</ele>
      </trkpt>
      <trkpt lat="45.27729" lon="6.9192">
        <time>1970-01-01T00:00:00+00:00</time>
        <ele>1956.0</ele>
      </trkpt>
      <trkpt lat="45.27732" lon="6.91926">
        <time>1970-01-01T00:00:00+00:00</time>
        <ele>1956.0</ele>
      </trkpt>
      <trkpt lat="45.27732" lon="6.91926">
        <time>1970-01-01T00:00:00+00:00</time>
        <ele>1956.0</ele>
      </trkpt>
      <trkpt lat="45.27735" lon="6.91932">
        <time>1970-01-01T00:00:00+00:00</time>
        <ele>1957.0</ele>
      </trkpt>
      <trkpt lat="45.27735" lon="6.91932">
        <time>1970-01-01T00:00:00+00:00</time>
        <ele>1957.0</ele>
      </trkpt>
      <trkpt lat="45.27737" lon="6.91938">
        <time>1970-01-01T00:00:00+00:00</time>
        <ele>1958.0</ele>
      </trkpt>
      <trkpt lat="45.27737" lon="6.91938">
        <time>1970-01-01T00:00:00+00:00</time>
        <ele>1958.0</ele>
      </trkpt>
      <trkpt lat="45.2774" lon="6.91943">
        <time>1970-01-01T00:00:00+00:00</time>
        <ele>1957.0</ele>
      </trkpt>
      <trkpt lat="45.2774" lon="6.91943">
        <time>1970-01-01T00:00:00+00:00</time>
        <ele>1957.0</ele>
      </trkpt>
      <trkpt lat="45.2774" lon="6.91951">
        <time>1970-01-01T00:00:00+00:00</time>
        <ele>1959.0</ele>
      </trkpt>
      <trkpt lat="45.2774" lon="6.91951">
        <time>1970-01-01T00:00:00+00:00</time>
        <ele>1959.0</ele>
      </trkpt>
      <trkpt lat="45.27741" lon="6.91958">
        <time>1970-01-01T00:00:00+00:00</time>
        <ele>1960.0</ele>
      </trkpt>
      <trkpt lat="45.27741" lon="6.91958">
        <time>1970-01-01T00:00:00+00:00</time>
        <ele>1960.0</ele>
      </trkpt>
      <trkpt lat="45.27742" lon="6.91965">
        <time>1970-01-01T00:00:00+00:00</time>
        <ele>1960.0</ele>
      </trkpt>
      <trkpt lat="45.27742" lon="6.91965">
        <time>1970-01-01T00:00:00+00:00</time>
        <ele>1960.0</ele>
      </trkpt>
      <trkpt lat="45.27744" lon="6.91971">
        <time>1970-01-01T00:00:00+00:00</time>
        <ele>1960.0</ele>
      </trkpt>
      <trkpt lat="45.27744" lon="6.91971">
        <time>1970-01-01T00:00:00+00:00</time>
        <ele>1960.0</ele>
      </trkpt>
      <trkpt lat="45.27746" lon="6.91977">
        <time>1970-01-01T00:00:00+00:00</time>
        <ele>1960.0</ele>
      </trkpt>
      <trkpt lat="45.27746" lon="6.91977">
        <time>1970-01-01T00:00:00+00:00</time>
        <ele>1960.0</ele>
      </trkpt>
      <trkpt lat="45.27749" lon="6.91982">
        <time>1970-01-01T00:00:00+00:00</time>
        <ele>1959.0</ele>
      </trkpt>
      <trkpt lat="45.27749" lon="6.91982">
        <time>1970-01-01T00:00:00+00:00</time>
        <ele>1959.0</ele>
      </trkpt>
      <trkpt lat="45.27752" lon="6.91987">
        <time>1970-01-01T00:00:00+00:00</time>
        <ele>1958.0</ele>
      </trkpt>
      <trkpt lat="45.27752" lon="6.91987">
        <time>1970-01-01T00:00:00+00:00</time>
        <ele>1958.0</ele>
      </trkpt>
      <trkpt lat="45.27753" lon="6.91994">
        <time>1970-01-01T00:00:00+00:00</time>
        <ele>1959.0</ele>
      </trkpt>
      <trkpt lat="45.27753" lon="6.91994">
        <time>1970-01-01T00:00:00+00:00</time>
        <ele>1959.0</ele>
      </trkpt>
      <trkpt lat="45.27753" lon="6.92001">
        <time>1970-01-01T00:00:00+00:00</time>
        <ele>1960.0</ele>
      </trkpt>
      <trkpt lat="45.27753" lon="6.92001">
        <time>1970-01-01T00:00:00+00:00</time>
        <ele>1960.0</ele>
      </trkpt>
      <trkpt lat="45.27757" lon="6.92006">
        <time>1970-01-01T00:00:00+00:00</time>
        <ele>1959.0</ele>
      </trkpt>
      <trkpt lat="45.27757" lon="6.92006">
        <time>1970-01-01T00:00:00+00:00</time>
        <ele>1959.0</ele>
      </trkpt>
      <trkpt lat="45.2776" lon="6.92012">
        <time>1970-01-01T00:00:00+00:00</time>
        <ele>1959.0</ele>
      </trkpt>
      <trkpt lat="45.2776" lon="6.92012">
        <time>1970-01-01T00:00:00+00:00</time>
        <ele>1959.0</ele>
      </trkpt>
      <trkpt lat="45.27757" lon="6.92018">
        <time>1970-01-01T00:00:00+00:00</time>
        <ele>1961.0</ele>
      </trkpt>
      <trkpt lat="45.27757" lon="6.92018">
        <time>1970-01-01T00:00:00+00:00</time>
        <ele>1961.0</ele>
      </trkpt>
      <trkpt lat="45.27753" lon="6.92023">
        <time>1970-01-01T00:00:00+00:00</time>
        <ele>1964.0</ele>
      </trkpt>
      <trkpt lat="45.27753" lon="6.92023">
        <time>1970-01-01T00:00:00+00:00</time>
        <ele>1964.0</ele>
      </trkpt>
      <trkpt lat="45.27751" lon="6.9203">
        <time>1970-01-01T00:00:00+00:00</time>
        <ele>1966.0</ele>
      </trkpt>
      <trkpt lat="45.27751" lon="6.9203">
        <time>1970-01-01T00:00:00+00:00</time>
        <ele>1966.0</ele>
      </trkpt>
      <trkpt lat="45.27749" lon="6.92037">
        <time>1970-01-01T00:00:00+00:00</time>
        <ele>1969.0</ele>
      </trkpt>
      <trkpt lat="45.27749" lon="6.92037">
        <time>1970-01-01T00:00:00+00:00</time>
        <ele>1969.0</ele>
      </trkpt>
      <trkpt lat="45.27751" lon="6.92043">
        <time>1970-01-01T00:00:00+00:00</time>
        <ele>1969.0</ele>
      </trkpt>
      <trkpt lat="45.27751" lon="6.92043">
        <time>1970-01-01T00:00:00+00:00</time>
        <ele>1969.0</ele>
      </trkpt>
      <trkpt lat="45.27752" lon="6.92051">
        <time>1970-01-01T00:00:00+00:00</time>
        <ele>1969.0</ele>
      </trkpt>
      <trkpt lat="45.27752" lon="6.92051">
        <time>1970-01-01T00:00:00+00:00</time>
        <ele>1969.0</ele>
      </trkpt>
      <trkpt lat="45.27754" lon="6.92057">
        <time>1970-01-01T00:00:00+00:00</time>
        <ele>1969.0</ele>
      </trkpt>
      <trkpt lat="45.27754" lon="6.92057">
        <time>1970-01-01T00:00:00+00:00</time>
        <ele>1969.0</ele>
      </trkpt>
      <trkpt lat="45.27756" lon="6.92063">
        <time>1970-01-01T00:00:00+00:00</time>
        <ele>1970.0</ele>
      </trkpt>
      <trkpt lat="45.27756" lon="6.92063">
        <time>1970-01-01T00:00:00+00:00</time>
        <ele>1970.0</ele>
      </trkpt>
      <trkpt lat="45.27757" lon="6.9207">
        <time>1970-01-01T00:00:00+00:00</time>
        <ele>1971.0</ele>
      </trkpt>
      <trkpt lat="45.27757" lon="6.9207">
        <time>1970-01-01T00:00:00+00:00</time>
        <ele>1971.0</ele>
      </trkpt>
      <trkpt lat="45.27757" lon="6.92077">
        <time>1970-01-01T00:00:00+00:00</time>
        <ele>1972.0</ele>
      </trkpt>
      <trkpt lat="45.27757" lon="6.92077">
        <time>1970-01-01T00:00:00+00:00</time>
        <ele>1972.0</ele>
      </trkpt>
      <trkpt lat="45.27758" lon="6.92084">
        <time>1970-01-01T00:00:00+00:00</time>
        <ele>1973.0</ele>
      </trkpt>
      <trkpt lat="45.27758" lon="6.92084">
        <time>1970-01-01T00:00:00+00:00</time>
        <ele>1973.0</ele>
      </trkpt>
      <trkpt lat="45.27759" lon="6.92091">
        <time>1970-01-01T00:00:00+00:00</time>
        <ele>1974.0</ele>
      </trkpt>
      <trkpt lat="45.27759" lon="6.92091">
        <time>1970-01-01T00:00:00+00:00</time>
        <ele>1974.0</ele>
      </trkpt>
      <trkpt lat="45.27758" lon="6.92098">
        <time>1970-01-01T00:00:00+00:00</time>
        <ele>1976.0</ele>
      </trkpt>
      <trkpt lat="45.27758" lon="6.92098">
        <time>1970-01-01T00:00:00+00:00</time>
        <ele>1976.0</ele>
      </trkpt>
      <trkpt lat="45.27761" lon="6.92106">
        <time>1970-01-01T00:00:00+00:00</time>
        <ele>1977.0</ele>
      </trkpt>
      <trkpt lat="45.27761" lon="6.92106">
        <time>1970-01-01T00:00:00+00:00</time>
        <ele>1977.0</ele>
      </trkpt>
      <trkpt lat="45.27764" lon="6.92112">
        <time>1970-01-01T00:00:00+00:00</time>
        <ele>1976.0</ele>
      </trkpt>
      <trkpt lat="45.27764" lon="6.92112">
        <time>1970-01-01T00:00:00+00:00</time>
        <ele>1976.0</ele>
      </trkpt>
      <trkpt lat="45.27764" lon="6.92119">
        <time>1970-01-01T00:00:00+00:00</time>
        <ele>1978.0</ele>
      </trkpt>
      <trkpt lat="45.27764" lon="6.92119">
        <time>1970-01-01T00:00:00+00:00</time>
        <ele>1978.0</ele>
      </trkpt>
      <trkpt lat="45.27764" lon="6.92126">
        <time>1970-01-01T00:00:00+00:00</time>
        <ele>1979.0</ele>
      </trkpt>
      <trkpt lat="45.27764" lon="6.92126">
        <time>1970-01-01T00:00:00+00:00</time>
        <ele>1979.0</ele>
      </trkpt>
      <trkpt lat="45.27767" lon="6.92131">
        <time>1970-01-01T00:00:00+00:00</time>
        <ele>1978.0</ele>
      </trkpt>
      <trkpt lat="45.27767" lon="6.92131">
        <time>1970-01-01T00:00:00+00:00</time>
        <ele>1978.0</ele>
      </trkpt>
      <trkpt lat="45.27769" lon="6.92137">
        <time>1970-01-01T00:00:00+00:00</time>
        <ele>1977.0</ele>
      </trkpt>
      <trkpt lat="45.27769" lon="6.92137">
        <time>1970-01-01T00:00:00+00:00</time>
        <ele>1977.0</ele>
      </trkpt>
      <trkpt lat="45.27768" lon="6.92144">
        <time>1970-01-01T00:00:00+00:00</time>
        <ele>1979.0</ele>
      </trkpt>
      <trkpt lat="45.27768" lon="6.92144">
        <time>1970-01-01T00:00:00+00:00</time>
        <ele>1979.0</ele>
      </trkpt>
      <trkpt lat="45.27768" lon="6.92151">
        <time>1970-01-01T00:00:00+00:00</time>
        <ele>1980.0</ele>
      </trkpt>
      <trkpt lat="45.27768" lon="6.92151">
        <time>1970-01-01T00:00:00+00:00</time>
        <ele>1980.0</ele>
      </trkpt>
      <trkpt lat="45.27767" lon="6.92159">
        <time>1970-01-01T00:00:00+00:00</time>
        <ele>1981.0</ele>
      </trkpt>
      <trkpt lat="45.27767" lon="6.92159">
        <time>1970-01-01T00:00:00+00:00</time>
        <ele>1981.0</ele>
      </trkpt>
      <trkpt lat="45.27765" lon="6.92165">
        <time>1970-01-01T00:00:00+00:00</time>
        <ele>1982.0</ele>
      </trkpt>
      <trkpt lat="45.27765" lon="6.92165">
        <time>1970-01-01T00:00:00+00:00</time>
        <ele>1982.0</ele>
      </trkpt>
      <trkpt lat="45.27768" lon="6.92171">
        <time>1970-01-01T00:00:00+00:00</time>
        <ele>1981.0</ele>
      </trkpt>
      <trkpt lat="45.27768" lon="6.92171">
        <time>1970-01-01T00:00:00+00:00</time>
        <ele>1981.0</ele>
      </trkpt>
      <trkpt lat="45.2777" lon="6.92177">
        <time>1970-01-01T00:00:00+00:00</time>
        <ele>1981.0</ele>
      </trkpt>
      <trkpt lat="45.2777" lon="6.92177">
        <time>1970-01-01T00:00:00+00:00</time>
        <ele>1981.0</ele>
      </trkpt>
      <trkpt lat="45.27769" lon="6.92184">
        <time>1970-01-01T00:00:00+00:00</time>
        <ele>1981.0</ele>
      </trkpt>
      <trkpt lat="45.27769" lon="6.92184">
        <time>1970-01-01T00:00:00+00:00</time>
        <ele>1981.0</ele>
      </trkpt>
      <trkpt lat="45.27766" lon="6.92189">
        <time>1970-01-01T00:00:00+00:00</time>
        <ele>1983.0</ele>
      </trkpt>
      <trkpt lat="45.27766" lon="6.92189">
        <time>1970-01-01T00:00:00+00:00</time>
        <ele>1983.0</ele>
      </trkpt>
      <trkpt lat="45.27765" lon="6.92196">
        <time>1970-01-01T00:00:00+00:00</time>
        <ele>1984.0</ele>
      </trkpt>
      <trkpt lat="45.27765" lon="6.92196">
        <time>1970-01-01T00:00:00+00:00</time>
        <ele>1984.0</ele>
      </trkpt>
      <trkpt lat="45.27764" lon="6.92204">
        <time>1970-01-01T00:00:00+00:00</time>
        <ele>1984.0</ele>
      </trkpt>
      <trkpt lat="45.27764" lon="6.92204">
        <time>1970-01-01T00:00:00+00:00</time>
        <ele>1984.0</ele>
      </trkpt>
      <trkpt lat="45.27763" lon="6.92211">
        <time>1970-01-01T00:00:00+00:00</time>
        <ele>1985.0</ele>
      </trkpt>
      <trkpt lat="45.27763" lon="6.92211">
        <time>1970-01-01T00:00:00+00:00</time>
        <ele>1985.0</ele>
      </trkpt>
      <trkpt lat="45.2776" lon="6.92206">
        <time>1970-01-01T00:00:00+00:00</time>
        <ele>1986.0</ele>
      </trkpt>
      <trkpt lat="45.2776" lon="6.92206">
        <time>1970-01-01T00:00:00+00:00</time>
        <ele>1986.0</ele>
      </trkpt>
      <trkpt lat="45.27761" lon="6.92198">
        <time>1970-01-01T00:00:00+00:00</time>
        <ele>1985.0</ele>
      </trkpt>
      <trkpt lat="45.27761" lon="6.92198">
        <time>1970-01-01T00:00:00+00:00</time>
        <ele>1985.0</ele>
      </trkpt>
      <trkpt lat="45.27763" lon="6.92192">
        <time>1970-01-01T00:00:00+00:00</time>
        <ele>1984.0</ele>
      </trkpt>
      <trkpt lat="45.27763" lon="6.92192">
        <time>1970-01-01T00:00:00+00:00</time>
        <ele>1984.0</ele>
      </trkpt>
      <trkpt lat="45.27763" lon="6.92185">
        <time>1970-01-01T00:00:00+00:00</time>
        <ele>1984.0</ele>
      </trkpt>
      <trkpt lat="45.27763" lon="6.92185">
        <time>1970-01-01T00:00:00+00:00</time>
        <ele>1984.0</ele>
      </trkpt>
      <trkpt lat="45.2776" lon="6.9218">
        <time>1970-01-01T00:00:00+00:00</time>
        <ele>1985.0</ele>
      </trkpt>
      <trkpt lat="45.2776" lon="6.9218">
        <time>1970-01-01T00:00:00+00:00</time>
        <ele>1985.0</ele>
      </trkpt>
      <trkpt lat="45.27756" lon="6.92174">
        <time>1970-01-01T00:00:00+00:00</time>
        <ele>1987.0</ele>
      </trkpt>
      <trkpt lat="45.27756" lon="6.92174">
        <time>1970-01-01T00:00:00+00:00</time>
        <ele>1987.0</ele>
      </trkpt>
      <trkpt lat="45.27755" lon="6.92167">
        <time>1970-01-01T00:00:00+00:00</time>
        <ele>1987.0</ele>
      </trkpt>
      <trkpt lat="45.27755" lon="6.92167">
        <time>1970-01-01T00:00:00+00:00</time>
        <ele>1987.0</ele>
      </trkpt>
      <trkpt lat="45.27754" lon="6.92158">
        <time>1970-01-01T00:00:00+00:00</time>
        <ele>1987.0</ele>
      </trkpt>
      <trkpt lat="45.27754" lon="6.92158">
        <time>1970-01-01T00:00:00+00:00</time>
        <ele>1987.0</ele>
      </trkpt>
      <trkpt lat="45.2775" lon="6.92154">
        <time>1970-01-01T00:00:00+00:00</time>
        <ele>1988.0</ele>
      </trkpt>
      <trkpt lat="45.2775" lon="6.92154">
        <time>1970-01-01T00:00:00+00:00</time>
        <ele>1988.0</ele>
      </trkpt>
      <trkpt lat="45.27747" lon="6.92149">
        <time>1970-01-01T00:00:00+00:00</time>
        <ele>1989.0</ele>
      </trkpt>
      <trkpt lat="45.27747" lon="6.92149">
        <time>1970-01-01T00:00:00+00:00</time>
        <ele>1989.0</ele>
      </trkpt>
      <trkpt lat="45.27743" lon="6.92144">
        <time>1970-01-01T00:00:00+00:00</time>
        <ele>1990.0</ele>
      </trkpt>
      <trkpt lat="45.27743" lon="6.92144">
        <time>1970-01-01T00:00:00+00:00</time>
        <ele>1990.0</ele>
      </trkpt>
      <trkpt lat="45.27739" lon="6.9214">
        <time>1970-01-01T00:00:00+00:00</time>
        <ele>1992.0</ele>
      </trkpt>
      <trkpt lat="45.27739" lon="6.9214">
        <time>1970-01-01T00:00:00+00:00</time>
        <ele>1992.0</ele>
      </trkpt>
      <trkpt lat="45.27735" lon="6.92137">
        <time>1970-01-01T00:00:00+00:00</time>
        <ele>1993.0</ele>
      </trkpt>
      <trkpt lat="45.27735" lon="6.92137">
        <time>1970-01-01T00:00:00+00:00</time>
        <ele>1993.0</ele>
      </trkpt>
      <trkpt lat="45.27731" lon="6.92134">
        <time>1970-01-01T00:00:00+00:00</time>
        <ele>1995.0</ele>
      </trkpt>
      <trkpt lat="45.27731" lon="6.92134">
        <time>1970-01-01T00:00:00+00:00</time>
        <ele>1995.0</ele>
      </trkpt>
      <trkpt lat="45.27727" lon="6.92131">
        <time>1970-01-01T00:00:00+00:00</time>
        <ele>1996.0</ele>
      </trkpt>
      <trkpt lat="45.27727" lon="6.92131">
        <time>1970-01-01T00:00:00+00:00</time>
        <ele>1996.0</ele>
      </trkpt>
      <trkpt lat="45.27723" lon="6.92126">
        <time>1970-01-01T00:00:00+00:00</time>
        <ele>1998.0</ele>
      </trkpt>
      <trkpt lat="45.27723" lon="6.92126">
        <time>1970-01-01T00:00:00+00:00</time>
        <ele>1998.0</ele>
      </trkpt>
      <trkpt lat="45.27719" lon="6.92123">
        <time>1970-01-01T00:00:00+00:00</time>
        <ele>1999.0</ele>
      </trkpt>
      <trkpt lat="45.27719" lon="6.92123">
        <time>1970-01-01T00:00:00+00:00</time>
        <ele>1999.0</ele>
      </trkpt>
      <trkpt lat="45.27714" lon="6.9212">
        <time>1970-01-01T00:00:00+00:00</time>
        <ele>2000.0</ele>
      </trkpt>
      <trkpt lat="45.27714" lon="6.9212">
        <time>1970-01-01T00:00:00+00:00</time>
        <ele>2000.0</ele>
      </trkpt>
      <trkpt lat="45.2771" lon="6.92116">
        <time>1970-01-01T00:00:00+00:00</time>
        <ele>2001.0</ele>
      </trkpt>
      <trkpt lat="45.2771" lon="6.92116">
        <time>1970-01-01T00:00:00+00:00</time>
        <ele>2001.0</ele>
      </trkpt>
      <trkpt lat="45.27705" lon="6.92113">
        <time>1970-01-01T00:00:00+00:00</time>
        <ele>2003.0</ele>
      </trkpt>
      <trkpt lat="45.27705" lon="6.92113">
        <time>1970-01-01T00:00:00+00:00</time>
        <ele>2003.0</ele>
      </trkpt>
      <trkpt lat="45.277" lon="6.92111">
        <time>1970-01-01T00:00:00+00:00</time>
        <ele>2004.0</ele>
      </trkpt>
      <trkpt lat="45.277" lon="6.92111">
        <time>1970-01-01T00:00:00+00:00</time>
        <ele>2004.0</ele>
      </trkpt>
      <trkpt lat="45.27695" lon="6.92111">
        <time>1970-01-01T00:00:00+00:00</time>
        <ele>2006.0</ele>
      </trkpt>
      <trkpt lat="45.27695" lon="6.92111">
        <time>1970-01-01T00:00:00+00:00</time>
        <ele>2006.0</ele>
      </trkpt>
      <trkpt lat="45.2769" lon="6.9211">
        <time>1970-01-01T00:00:00+00:00</time>
        <ele>2007.0</ele>
      </trkpt>
      <trkpt lat="45.2769" lon="6.9211">
        <time>1970-01-01T00:00:00+00:00</time>
        <ele>2007.0</ele>
      </trkpt>
      <trkpt lat="45.27685" lon="6.92113">
        <time>1970-01-01T00:00:00+00:00</time>
        <ele>2009.0</ele>
      </trkpt>
      <trkpt lat="45.27685" lon="6.92113">
        <time>1970-01-01T00:00:00+00:00</time>
        <ele>2009.0</ele>
      </trkpt>
      <trkpt lat="45.27681" lon="6.92117">
        <time>1970-01-01T00:00:00+00:00</time>
        <ele>2010.0</ele>
      </trkpt>
      <trkpt lat="45.27681" lon="6.92117">
        <time>1970-01-01T00:00:00+00:00</time>
        <ele>2010.0</ele>
      </trkpt>
      <trkpt lat="45.27679" lon="6.92123">
        <time>1970-01-01T00:00:00+00:00</time>
        <ele>2011.0</ele>
      </trkpt>
      <trkpt lat="45.27679" lon="6.92123">
        <time>1970-01-01T00:00:00+00:00</time>
        <ele>2011.0</ele>
      </trkpt>
      <trkpt lat="45.27677" lon="6.9213">
        <time>1970-01-01T00:00:00+00:00</time>
        <ele>2012.0</ele>
      </trkpt>
      <trkpt lat="45.27677" lon="6.9213">
        <time>1970-01-01T00:00:00+00:00</time>
        <ele>2012.0</ele>
      </trkpt>
      <trkpt lat="45.27676" lon="6.92137">
        <time>1970-01-01T00:00:00+00:00</time>
        <ele>2014.0</ele>
      </trkpt>
      <trkpt lat="45.27676" lon="6.92137">
        <time>1970-01-01T00:00:00+00:00</time>
        <ele>2014.0</ele>
      </trkpt>
      <trkpt lat="45.27675" lon="6.92144">
        <time>1970-01-01T00:00:00+00:00</time>
        <ele>2015.0</ele>
      </trkpt>
      <trkpt lat="45.27675" lon="6.92144">
        <time>1970-01-01T00:00:00+00:00</time>
        <ele>2015.0</ele>
      </trkpt>
      <trkpt lat="45.27675" lon="6.92151">
        <time>1970-01-01T00:00:00+00:00</time>
        <ele>2016.0</ele>
      </trkpt>
      <trkpt lat="45.27675" lon="6.92151">
        <time>1970-01-01T00:00:00+00:00</time>
        <ele>2016.0</ele>
      </trkpt>
      <trkpt lat="45.27676" lon="6.92158">
        <time>1970-01-01T00:00:00+00:00</time>
        <ele>2016.0</ele>
      </trkpt>
      <trkpt lat="45.27676" lon="6.92158">
        <time>1970-01-01T00:00:00+00:00</time>
        <ele>2016.0</ele>
      </trkpt>
      <trkpt lat="45.27676" lon="6.92166">
        <time>1970-01-01T00:00:00+00:00</time>
        <ele>2017.0</ele>
      </trkpt>
      <trkpt lat="45.27676" lon="6.92166">
        <time>1970-01-01T00:00:00+00:00</time>
        <ele>2017.0</ele>
      </trkpt>
      <trkpt lat="45.27677" lon="6.92174">
        <time>1970-01-01T00:00:00+00:00</time>
        <ele>2018.0</ele>
      </trkpt>
      <trkpt lat="45.27677" lon="6.92174">
        <time>1970-01-01T00:00:00+00:00</time>
        <ele>2018.0</ele>
      </trkpt>
      <trkpt lat="45.27678" lon="6.92181">
        <time>1970-01-01T00:00:00+00:00</time>
        <ele>2019.0</ele>
      </trkpt>
      <trkpt lat="45.27678" lon="6.92181">
        <time>1970-01-01T00:00:00+00:00</time>
        <ele>2019.0</ele>
      </trkpt>
      <trkpt lat="45.27678" lon="6.92188">
        <time>1970-01-01T00:00:00+00:00</time>
        <ele>2020.0</ele>
      </trkpt>
      <trkpt lat="45.27678" lon="6.92188">
        <time>1970-01-01T00:00:00+00:00</time>
        <ele>2020.0</ele>
      </trkpt>
      <trkpt lat="45.27679" lon="6.92195">
        <time>1970-01-01T00:00:00+00:00</time>
        <ele>2021.0</ele>
      </trkpt>
      <trkpt lat="45.27679" lon="6.92195">
        <time>1970-01-01T00:00:00+00:00</time>
        <ele>2021.0</ele>
      </trkpt>
      <trkpt lat="45.27679" lon="6.92202">
        <time>1970-01-01T00:00:00+00:00</time>
        <ele>2022.0</ele>
      </trkpt>
      <trkpt lat="45.27679" lon="6.92202">
        <time>1970-01-01T00:00:00+00:00</time>
        <ele>2022.0</ele>
      </trkpt>
      <trkpt lat="45.27677" lon="6.92208">
        <time>1970-01-01T00:00:00+00:00</time>
        <ele>2023.0</ele>
      </trkpt>
      <trkpt lat="45.27677" lon="6.92208">
        <time>1970-01-01T00:00:00+00:00</time>
        <ele>2023.0</ele>
      </trkpt>
      <trkpt lat="45.27675" lon="6.92214">
        <time>1970-01-01T00:00:00+00:00</time>
        <ele>2024.0</ele>
      </trkpt>
      <trkpt lat="45.27675" lon="6.92214">
        <time>1970-01-01T00:00:00+00:00</time>
        <ele>2024.0</ele>
      </trkpt>
      <trkpt lat="45.27675" lon="6.92221">
        <time>1970-01-01T00:00:00+00:00</time>
        <ele>2024.0</ele>
      </trkpt>
      <trkpt lat="45.27675" lon="6.92221">
        <time>1970-01-01T00:00:00+00:00</time>
        <ele>2024.0</ele>
      </trkpt>
      <trkpt lat="45.27675" lon="6.92228">
        <time>1970-01-01T00:00:00+00:00</time>
        <ele>2025.0</ele>
      </trkpt>
      <trkpt lat="45.27675" lon="6.92228">
        <time>1970-01-01T00:00:00+00:00</time>
        <ele>2025.0</ele>
      </trkpt>
      <trkpt lat="45.27673" lon="6.92234">
        <time>1970-01-01T00:00:00+00:00</time>
        <ele>2026.0</ele>
      </trkpt>
      <trkpt lat="45.27673" lon="6.92234">
        <time>1970-01-01T00:00:00+00:00</time>
        <ele>2026.0</ele>
      </trkpt>
      <trkpt lat="45.27672" lon="6.92241">
        <time>1970-01-01T00:00:00+00:00</time>
        <ele>2027.0</ele>
      </trkpt>
      <trkpt lat="45.27672" lon="6.92241">
        <time>1970-01-01T00:00:00+00:00</time>
        <ele>2027.0</ele>
      </trkpt>
      <trkpt lat="45.2767" lon="6.92249">
        <time>1970-01-01T00:00:00+00:00</time>
        <ele>2029.0</ele>
      </trkpt>
      <trkpt lat="45.2767" lon="6.92249">
        <time>1970-01-01T00:00:00+00:00</time>
        <ele>2029.0</ele>
      </trkpt>
      <trkpt lat="45.27667" lon="6.92254">
        <time>1970-01-01T00:00:00+00:00</time>
        <ele>2030.0</ele>
      </trkpt>
      <trkpt lat="45.27667" lon="6.92254">
        <time>1970-01-01T00:00:00+00:00</time>
        <ele>2030.0</ele>
      </trkpt>
      <trkpt lat="45.27665" lon="6.92261">
        <time>1970-01-01T00:00:00+00:00</time>
        <ele>2032.0</ele>
      </trkpt>
      <trkpt lat="45.27665" lon="6.92261">
        <time>1970-01-01T00:00:00+00:00</time>
        <ele>2032.0</ele>
      </trkpt>
      <trkpt lat="45.27664" lon="6.92268">
        <time>1970-01-01T00:00:00+00:00</time>
        <ele>2033.0</ele>
      </trkpt>
      <trkpt lat="45.27664" lon="6.92268">
        <time>1970-01-01T00:00:00+00:00</time>
        <ele>2033.0</ele>
      </trkpt>
      <trkpt lat="45.27663" lon="6.92275">
        <time>1970-01-01T00:00:00+00:00</time>
        <ele>2034.0</ele>
      </trkpt>
      <trkpt lat="45.27663" lon="6.92275">
        <time>1970-01-01T00:00:00+00:00</time>
        <ele>2034.0</ele>
      </trkpt>
      <trkpt lat="45.27663" lon="6.92282">
        <time>1970-01-01T00:00:00+00:00</time>
        <ele>2034.0</ele>
      </trkpt>
      <trkpt lat="45.27663" lon="6.92282">
        <time>1970-01-01T00:00:00+00:00</time>
        <ele>2034.0</ele>
      </trkpt>
      <trkpt lat="45.27659" lon="6.92287">
        <time>1970-01-01T00:00:00+00:00</time>
        <ele>2036.0</ele>
      </trkpt>
      <trkpt lat="45.27659" lon="6.92287">
        <time>1970-01-01T00:00:00+00:00</time>
        <ele>2036.0</ele>
      </trkpt>
      <trkpt lat="45.27656" lon="6.92292">
        <time>1970-01-01T00:00:00+00:00</time>
        <ele>2038.0</ele>
      </trkpt>
      <trkpt lat="45.27656" lon="6.92292">
        <time>1970-01-01T00:00:00+00:00</time>
        <ele>2038.0</ele>
      </trkpt>
      <trkpt lat="45.27652" lon="6.92296">
        <time>1970-01-01T00:00:00+00:00</time>
        <ele>2039.0</ele>
      </trkpt>
      <trkpt lat="45.27652" lon="6.92296">
        <time>1970-01-01T00:00:00+00:00</time>
        <ele>2039.0</ele>
      </trkpt>
      <trkpt lat="45.27647" lon="6.92299">
        <time>1970-01-01T00:00:00+00:00</time>
        <ele>2041.0</ele>
      </trkpt>
      <trkpt lat="45.27647" lon="6.92299">
        <time>1970-01-01T00:00:00+00:00</time>
        <ele>2041.0</ele>
      </trkpt>
      <trkpt lat="45.27643" lon="6.92302">
        <time>1970-01-01T00:00:00+00:00</time>
        <ele>2043.0</ele>
      </trkpt>
      <trkpt lat="45.27643" lon="6.92302">
        <time>1970-01-01T00:00:00+00:00</time>
        <ele>2043.0</ele>
      </trkpt>
      <trkpt lat="45.27639" lon="6.92299">
        <time>1970-01-01T00:00:00+00:00</time>
        <ele>2044.0</ele>
      </trkpt>
      <trkpt lat="45.27639" lon="6.92299">
        <time>1970-01-01T00:00:00+00:00</time>
        <ele>2044.0</ele>
      </trkpt>
      <trkpt lat="45.27636" lon="6.92294">
        <time>1970-01-01T00:00:00+00:00</time>
        <ele>2044.0</ele>
      </trkpt>
      <trkpt lat="45.27636" lon="6.92294">
        <time>1970-01-01T00:00:00+00:00</time>
        <ele>2044.0</ele>
      </trkpt>
      <trkpt lat="45.27634" lon="6.92288">
        <time>1970-01-01T00:00:00+00:00</time>
        <ele>2044.0</ele>
      </trkpt>
      <trkpt lat="45.27634" lon="6.92288">
        <time>1970-01-01T00:00:00+00:00</time>
        <ele>2044.0</ele>
      </trkpt>
      <trkpt lat="45.2763" lon="6.92283">
        <time>1970-01-01T00:00:00+00:00</time>
        <ele>2045.0</ele>
      </trkpt>
      <trkpt lat="45.2763" lon="6.92283">
        <time>1970-01-01T00:00:00+00:00</time>
        <ele>2045.0</ele>
      </trkpt>
      <trkpt lat="45.27629" lon="6.92276">
        <time>1970-01-01T00:00:00+00:00</time>
        <ele>2045.0</ele>
      </trkpt>
      <trkpt lat="45.27629" lon="6.92276">
        <time>1970-01-01T00:00:00+00:00</time>
        <ele>2045.0</ele>
      </trkpt>
      <trkpt lat="45.27628" lon="6.92269">
        <time>1970-01-01T00:00:00+00:00</time>
        <ele>2045.0</ele>
      </trkpt>
      <trkpt lat="45.27628" lon="6.92269">
        <time>1970-01-01T00:00:00+00:00</time>
        <ele>2045.0</ele>
      </trkpt>
      <trkpt lat="45.27625" lon="6.92263">
        <time>1970-01-01T00:00:00+00:00</time>
        <ele>2046.0</ele>
      </trkpt>
      <trkpt lat="45.27625" lon="6.92263">
        <time>1970-01-01T00:00:00+00:00</time>
        <ele>2046.0</ele>
      </trkpt>
      <trkpt lat="45.27621" lon="6.9226">
        <time>1970-01-01T00:00:00+00:00</time>
        <ele>2047.0</ele>
      </trkpt>
      <trkpt lat="45.27621" lon="6.9226">
        <time>1970-01-01T00:00:00+00:00</time>
        <ele>2047.0</ele>
      </trkpt>
      <trkpt lat="45.27618" lon="6.92255">
        <time>1970-01-01T00:00:00+00:00</time>
        <ele>2048.0</ele>
      </trkpt>
      <trkpt lat="45.27618" lon="6.92255">
        <time>1970-01-01T00:00:00+00:00</time>
        <ele>2048.0</ele>
      </trkpt>
      <trkpt lat="45.27613" lon="6.92251">
        <time>1970-01-01T00:00:00+00:00</time>
        <ele>2050.0</ele>
      </trkpt>
      <trkpt lat="45.27613" lon="6.92251">
        <time>1970-01-01T00:00:00+00:00</time>
        <ele>2050.0</ele>
      </trkpt>
      <trkpt lat="45.27607" lon="6.92248">
        <time>1970-01-01T00:00:00+00:00</time>
        <ele>2052.0</ele>
      </trkpt>
      <trkpt lat="45.27607" lon="6.92248">
        <time>1970-01-01T00:00:00+00:00</time>
        <ele>2052.0</ele>
      </trkpt>
      <trkpt lat="45.27603" lon="6.92245">
        <time>1970-01-01T00:00:00+00:00</time>
        <ele>2053.0</ele>
      </trkpt>
      <trkpt lat="45.27603" lon="6.92245">
        <time>1970-01-01T00:00:00+00:00</time>
        <ele>2053.0</ele>
      </trkpt>
      <trkpt lat="45.27599" lon="6.92242">
        <time>1970-01-01T00:00:00+00:00</time>
        <ele>2054.0</ele>
      </trkpt>
      <trkpt lat="45.27599" lon="6.92242">
        <time>1970-01-01T00:00:00+00:00</time>
        <ele>2054.0</ele>
      </trkpt>
      <trkpt lat="45.27595" lon="6.92239">
        <time>1970-01-01T00:00:00+00:00</time>
        <ele>2055.0</ele>
      </trkpt>
      <trkpt lat="45.27595" lon="6.92239">
        <time>1970-01-01T00:00:00+00:00</time>
        <ele>2055.0</ele>
      </trkpt>
      <trkpt lat="45.27591" lon="6.92235">
        <time>1970-01-01T00:00:00+00:00</time>
        <ele>2055.0</ele>
      </trkpt>
      <trkpt lat="45.27591" lon="6.92235">
        <time>1970-01-01T00:00:00+00:00</time>
        <ele>2055.0</ele>
      </trkpt>
      <trkpt lat="45.27587" lon="6.92232">
        <time>1970-01-01T00:00:00+00:00</time>
        <ele>2056.0</ele>
      </trkpt>
      <trkpt lat="45.27587" lon="6.92232">
        <time>1970-01-01T00:00:00+00:00</time>
        <ele>2056.0</ele>
      </trkpt>
      <trkpt lat="45.27587" lon="6.92225">
        <time>1970-01-01T00:00:00+00:00</time>
        <ele>2056.0</ele>
      </trkpt>
      <trkpt lat="45.27587" lon="6.92225">
        <time>1970-01-01T00:00:00+00:00</time>
        <ele>2056.0</ele>
      </trkpt>
      <trkpt lat="45.27587" lon="6.92217">
        <time>1970-01-01T00:00:00+00:00</time>
        <ele>2055.0</ele>
      </trkpt>
      <trkpt lat="45.27587" lon="6.92217">
        <time>1970-01-01T00:00:00+00:00</time>
        <ele>2055.0</ele>
      </trkpt>
      <trkpt lat="45.27583" lon="6.92213">
        <time>1970-01-01T00:00:00+00:00</time>
        <ele>2056.0</ele>
      </trkpt>
      <trkpt lat="45.27583" lon="6.92213">
        <time>1970-01-01T00:00:00+00:00</time>
        <ele>2056.0</ele>
      </trkpt>
      <trkpt lat="45.2758" lon="6.92207">
        <time>1970-01-01T00:00:00+00:00</time>
        <ele>2056.0</ele>
      </trkpt>
      <trkpt lat="45.2758" lon="6.92207">
        <time>1970-01-01T00:00:00+00:00</time>
        <ele>2056.0</ele>
      </trkpt>
      <trkpt lat="45.27577" lon="6.92201">
        <time>1970-01-01T00:00:00+00:00</time>
        <ele>2057.0</ele>
      </trkpt>
      <trkpt lat="45.27577" lon="6.92201">
        <time>1970-01-01T00:00:00+00:00</time>
        <ele>2057.0</ele>
      </trkpt>
      <trkpt lat="45.27573" lon="6.92198">
        <time>1970-01-01T00:00:00+00:00</time>
        <ele>2058.0</ele>
      </trkpt>
      <trkpt lat="45.27573" lon="6.92198">
        <time>1970-01-01T00:00:00+00:00</time>
        <ele>2058.0</ele>
      </trkpt>
      <trkpt lat="45.2757" lon="6.92193">
        <time>1970-01-01T00:00:00+00:00</time>
        <ele>2058.0</ele>
      </trkpt>
      <trkpt lat="45.2757" lon="6.92193">
        <time>1970-01-01T00:00:00+00:00</time>
        <ele>2058.0</ele>
      </trkpt>
      <trkpt lat="45.27567" lon="6.92186">
        <time>1970-01-01T00:00:00+00:00</time>
        <ele>2059.0</ele>
      </trkpt>
      <trkpt lat="45.27567" lon="6.92186">
        <time>1970-01-01T00:00:00+00:00</time>
        <ele>2059.0</ele>
      </trkpt>
      <trkpt lat="45.27562" lon="6.92184">
        <time>1970-01-01T00:00:00+00:00</time>
        <ele>2060.0</ele>
      </trkpt>
      <trkpt lat="45.27562" lon="6.92184">
        <time>1970-01-01T00:00:00+00:00</time>
        <ele>2060.0</ele>
      </trkpt>
      <trkpt lat="45.27557" lon="6.92184">
        <time>1970-01-01T00:00:00+00:00</time>
        <ele>2062.0</ele>
      </trkpt>
      <trkpt lat="45.27557" lon="6.92184">
        <time>1970-01-01T00:00:00+00:00</time>
        <ele>2062.0</ele>
      </trkpt>
      <trkpt lat="45.27553" lon="6.92181">
        <time>1970-01-01T00:00:00+00:00</time>
        <ele>2063.0</ele>
      </trkpt>
      <trkpt lat="45.27553" lon="6.92181">
        <time>1970-01-01T00:00:00+00:00</time>
        <ele>2063.0</ele>
      </trkpt>
      <trkpt lat="45.27549" lon="6.92176">
        <time>1970-01-01T00:00:00+00:00</time>
        <ele>2064.0</ele>
      </trkpt>
      <trkpt lat="45.27549" lon="6.92176">
        <time>1970-01-01T00:00:00+00:00</time>
        <ele>2064.0</ele>
      </trkpt>
      <trkpt lat="45.27543" lon="6.92172">
        <time>1970-01-01T00:00:00+00:00</time>
        <ele>2065.0</ele>
      </trkpt>
      <trkpt lat="45.27543" lon="6.92172">
        <time>1970-01-01T00:00:00+00:00</time>
        <ele>2065.0</ele>
      </trkpt>
      <trkpt lat="45.27537" lon="6.9217">
        <time>1970-01-01T00:00:00+00:00</time>
        <ele>2067.0</ele>
      </trkpt>
      <trkpt lat="45.27537" lon="6.9217">
        <time>1970-01-01T00:00:00+00:00</time>
        <ele>2067.0</ele>
      </trkpt>
      <trkpt lat="45.27532" lon="6.92167">
        <time>1970-01-01T00:00:00+00:00</time>
        <ele>2068.0</ele>
      </trkpt>
      <trkpt lat="45.27532" lon="6.92167">
        <time>1970-01-01T00:00:00+00:00</time>
        <ele>2068.0</ele>
      </trkpt>
      <trkpt lat="45.27526" lon="6.92164">
        <time>1970-01-01T00:00:00+00:00</time>
        <ele>2070.0</ele>
      </trkpt>
      <trkpt lat="45.27526" lon="6.92164">
        <time>1970-01-01T00:00:00+00:00</time>
        <ele>2070.0</ele>
      </trkpt>
      <trkpt lat="45.27522" lon="6.92161">
        <time>1970-01-01T00:00:00+00:00</time>
        <ele>2071.0</ele>
      </trkpt>
      <trkpt lat="45.27522" lon="6.92161">
        <time>1970-01-01T00:00:00+00:00</time>
        <ele>2071.0</ele>
      </trkpt>
      <trkpt lat="45.27517" lon="6.92158">
        <time>1970-01-01T00:00:00+00:00</time>
        <ele>2072.0</ele>
      </trkpt>
      <trkpt lat="45.27517" lon="6.92158">
        <time>1970-01-01T00:00:00+00:00</time>
        <ele>2072.0</ele>
      </trkpt>
      <trkpt lat="45.27512" lon="6.92157">
        <time>1970-01-01T00:00:00+00:00</time>
        <ele>2074.0</ele>
      </trkpt>
      <trkpt lat="45.27512" lon="6.92157">
        <time>1970-01-01T00:00:00+00:00</time>
        <ele>2074.0</ele>
      </trkpt>
      <trkpt lat="45.27507" lon="6.92157">
        <time>1970-01-01T00:00:00+00:00</time>
        <ele>2075.0</ele>
      </trkpt>
      <trkpt lat="45.27507" lon="6.92157">
        <time>1970-01-01T00:00:00+00:00</time>
        <ele>2075.0</ele>
      </trkpt>
      <trkpt lat="45.27502" lon="6.92156">
        <time>1970-01-01T00:00:00+00:00</time>
        <ele>2076.0</ele>
      </trkpt>
      <trkpt lat="45.27502" lon="6.92156">
        <time>1970-01-01T00:00:00+00:00</time>
        <ele>2076.0</ele>
      </trkpt>
      <trkpt lat="45.27497" lon="6.92156">
        <time>1970-01-01T00:00:00+00:00</time>
        <ele>2078.0</ele>
      </trkpt>
      <trkpt lat="45.27497" lon="6.92156">
        <time>1970-01-01T00:00:00+00:00</time>
        <ele>2078.0</ele>
      </trkpt>
      <trkpt lat="45.27491" lon="6.92156">
        <time>1970-01-01T00:00:00+00:00</time>
        <ele>2079.0</ele>
      </trkpt>
      <trkpt lat="45.27491" lon="6.92156">
        <time>1970-01-01T00:00:00+00:00</time>
        <ele>2079.0</ele>
      </trkpt>
      <trkpt lat="45.27486" lon="6.92158">
        <time>1970-01-01T00:00:00+00:00</time>
        <ele>2080.0</ele>
      </trkpt>
      <trkpt lat="45.27486" lon="6.92158">
        <time>1970-01-01T00:00:00+00:00</time>
        <ele>2080.0</ele>
      </trkpt>
      <trkpt lat="45.2748" lon="6.9216">
        <time>1970-01-01T00:00:00+00:00</time>
        <ele>2082.0</ele>
      </trkpt>
      <trkpt lat="45.2748" lon="6.9216">
        <time>1970-01-01T00:00:00+00:00</time>
        <ele>2082.0</ele>
      </trkpt>
      <trkpt lat="45.27476" lon="6.92163">
        <time>1970-01-01T00:00:00+00:00</time>
        <ele>2083.0</ele>
      </trkpt>
      <trkpt lat="45.27476" lon="6.92163">
        <time>1970-01-01T00:00:00+00:00</time>
        <ele>2083.0</ele>
      </trkpt>
      <trkpt lat="45.27471" lon="6.92166">
        <time>1970-01-01T00:00:00+00:00</time>
        <ele>2084.0</ele>
      </trkpt>
      <trkpt lat="45.27471" lon="6.92166">
        <time>1970-01-01T00:00:00+00:00</time>
        <ele>2084.0</ele>
      </trkpt>
      <trkpt lat="45.27467" lon="6.92169">
        <time>1970-01-01T00:00:00+00:00</time>
        <ele>2086.0</ele>
      </trkpt>
      <trkpt lat="45.27467" lon="6.92169">
        <time>1970-01-01T00:00:00+00:00</time>
        <ele>2086.0</ele>
      </trkpt>
      <trkpt lat="45.27462" lon="6.9217">
        <time>1970-01-01T00:00:00+00:00</time>
        <ele>2087.0</ele>
      </trkpt>
      <trkpt lat="45.27462" lon="6.9217">
        <time>1970-01-01T00:00:00+00:00</time>
        <ele>2087.0</ele>
      </trkpt>
      <trkpt lat="45.27457" lon="6.92171">
        <time>1970-01-01T00:00:00+00:00</time>
        <ele>2088.0</ele>
      </trkpt>
      <trkpt lat="45.27457" lon="6.92171">
        <time>1970-01-01T00:00:00+00:00</time>
        <ele>2088.0</ele>
      </trkpt>
      <trkpt lat="45.27452" lon="6.92169">
        <time>1970-01-01T00:00:00+00:00</time>
        <ele>2089.0</ele>
      </trkpt>
      <trkpt lat="45.27452" lon="6.92169">
        <time>1970-01-01T00:00:00+00:00</time>
        <ele>2089.0</ele>
      </trkpt>
      <trkpt lat="45.27447" lon="6.92166">
        <time>1970-01-01T00:00:00+00:00</time>
        <ele>2090.0</ele>
      </trkpt>
      <trkpt lat="45.27447" lon="6.92166">
        <time>1970-01-01T00:00:00+00:00</time>
        <ele>2090.0</ele>
      </trkpt>
      <trkpt lat="45.27442" lon="6.92164">
        <time>1970-01-01T00:00:00+00:00</time>
        <ele>2091.0</ele>
      </trkpt>
      <trkpt lat="45.27442" lon="6.92164">
        <time>1970-01-01T00:00:00+00:00</time>
        <ele>2091.0</ele>
      </trkpt>
      <trkpt lat="45.27438" lon="6.92161">
        <time>1970-01-01T00:00:00+00:00</time>
        <ele>2092.0</ele>
      </trkpt>
      <trkpt lat="45.27438" lon="6.92161">
        <time>1970-01-01T00:00:00+00:00</time>
        <ele>2092.0</ele>
      </trkpt>
      <trkpt lat="45.27435" lon="6.92156">
        <time>1970-01-01T00:00:00+00:00</time>
        <ele>2092.0</ele>
      </trkpt>
      <trkpt lat="45.27435" lon="6.92156">
        <time>1970-01-01T00:00:00+00:00</time>
        <ele>2092.0</ele>
      </trkpt>
      <trkpt lat="45.2743" lon="6.92154">
        <time>1970-01-01T00:00:00+00:00</time>
        <ele>2094.0</ele>
      </trkpt>
      <trkpt lat="45.2743" lon="6.92154">
        <time>1970-01-01T00:00:00+00:00</time>
        <ele>2094.0</ele>
      </trkpt>
      <trkpt lat="45.27425" lon="6.92153">
        <time>1970-01-01T00:00:00+00:00</time>
        <ele>2095.0</ele>
      </trkpt>
      <trkpt lat="45.27425" lon="6.92153">
        <time>1970-01-01T00:00:00+00:00</time>
        <ele>2095.0</ele>
      </trkpt>
      <trkpt lat="45.2742" lon="6.92151">
        <time>1970-01-01T00:00:00+00:00</time>
        <ele>2096.0</ele>
      </trkpt>
      <trkpt lat="45.2742" lon="6.92151">
        <time>1970-01-01T00:00:00+00:00</time>
        <ele>2096.0</ele>
      </trkpt>
      <trkpt lat="45.27416" lon="6.92147">
        <time>1970-01-01T00:00:00+00:00</time>
        <ele>2097.0</ele>
      </trkpt>
      <trkpt lat="45.27416" lon="6.92147">
        <time>1970-01-01T00:00:00+00:00</time>
        <ele>2097.0</ele>
      </trkpt>
      <trkpt lat="45.27417" lon="6.9214">
        <time>1970-01-01T00:00:00+00:00</time>
        <ele>2097.0</ele>
      </trkpt>
      <trkpt lat="45.27417" lon="6.9214">
        <time>1970-01-01T00:00:00+00:00</time>
        <ele>2097.0</ele>
      </trkpt>
      <trkpt lat="45.27417" lon="6.92132">
        <time>1970-01-01T00:00:00+00:00</time>
        <ele>2097.0</ele>
      </trkpt>
      <trkpt lat="45.27417" lon="6.92132">
        <time>1970-01-01T00:00:00+00:00</time>
        <ele>2097.0</ele>
      </trkpt>
      <trkpt lat="45.27413" lon="6.92129">
        <time>1970-01-01T00:00:00+00:00</time>
        <ele>2098.0</ele>
      </trkpt>
      <trkpt lat="45.27413" lon="6.92129">
        <time>1970-01-01T00:00:00+00:00</time>
        <ele>2098.0</ele>
      </trkpt>
      <trkpt lat="45.27411" lon="6.92122">
        <time>1970-01-01T00:00:00+00:00</time>
        <ele>2099.0</ele>
      </trkpt>
      <trkpt lat="45.27411" lon="6.92122">
        <time>1970-01-01T00:00:00+00:00</time>
        <ele>2099.0</ele>
      </trkpt>
      <trkpt lat="45.27407" lon="6.92118">
        <time>1970-01-01T00:00:00+00:00</time>
        <ele>2100.0</ele>
      </trkpt>
      <trkpt lat="45.27407" lon="6.92118">
        <time>1970-01-01T00:00:00+00:00</time>
        <ele>2100.0</ele>
      </trkpt>
      <trkpt lat="45.27403" lon="6.92115">
        <time>1970-01-01T00:00:00+00:00</time>
        <ele>2101.0</ele>
      </trkpt>
      <trkpt lat="45.27403" lon="6.92115">
        <time>1970-01-01T00:00:00+00:00</time>
        <ele>2101.0</ele>
      </trkpt>
      <trkpt lat="45.27398" lon="6.92111">
        <time>1970-01-01T00:00:00+00:00</time>
        <ele>2103.0</ele>
      </trkpt>
      <trkpt lat="45.27398" lon="6.92111">
        <time>1970-01-01T00:00:00+00:00</time>
        <ele>2103.0</ele>
      </trkpt>
      <trkpt lat="45.27392" lon="6.92108">
        <time>1970-01-01T00:00:00+00:00</time>
        <ele>2105.0</ele>
      </trkpt>
      <trkpt lat="45.27392" lon="6.92108">
        <time>1970-01-01T00:00:00+00:00</time>
        <ele>2105.0</ele>
      </trkpt>
      <trkpt lat="45.27387" lon="6.92107">
        <time>1970-01-01T00:00:00+00:00</time>
        <ele>2106.0</ele>
      </trkpt>
      <trkpt lat="45.27387" lon="6.92107">
        <time>1970-01-01T00:00:00+00:00</time>
        <ele>2106.0</ele>
      </trkpt>
      <trkpt lat="45.27382" lon="6.92107">
        <time>1970-01-01T00:00:00+00:00</time>
        <ele>2107.0</ele>
      </trkpt>
      <trkpt lat="45.27382" lon="6.92107">
        <time>1970-01-01T00:00:00+00:00</time>
        <ele>2107.0</ele>
      </trkpt>
      <trkpt lat="45.27377" lon="6.92108">
        <time>1970-01-01T00:00:00+00:00</time>
        <ele>2108.0</ele>
      </trkpt>
      <trkpt lat="45.27377" lon="6.92108">
        <time>1970-01-01T00:00:00+00:00</time>
        <ele>2108.0</ele>
      </trkpt>
      <trkpt lat="45.27372" lon="6.92109">
        <time>1970-01-01T00:00:00+00:00</time>
        <ele>2109.0</ele>
      </trkpt>
      <trkpt lat="45.27372" lon="6.92109">
        <time>1970-01-01T00:00:00+00:00</time>
        <ele>2109.0</ele>
      </trkpt>
      <trkpt lat="45.27367" lon="6.92109">
        <time>1970-01-01T00:00:00+00:00</time>
        <ele>2111.0</ele>
      </trkpt>
      <trkpt lat="45.27367" lon="6.92109">
        <time>1970-01-01T00:00:00+00:00</time>
        <ele>2111.0</ele>
      </trkpt>
      <trkpt lat="45.27362" lon="6.92109">
        <time>1970-01-01T00:00:00+00:00</time>
        <ele>2112.0</ele>
      </trkpt>
      <trkpt lat="45.27362" lon="6.92109">
        <time>1970-01-01T00:00:00+00:00</time>
        <ele>2112.0</ele>
      </trkpt>
      <trkpt lat="45.27357" lon="6.92107">
        <time>1970-01-01T00:00:00+00:00</time>
        <ele>2113.0</ele>
      </trkpt>
      <trkpt lat="45.27357" lon="6.92107">
        <time>1970-01-01T00:00:00+00:00</time>
        <ele>2113.0</ele>
      </trkpt>
      <trkpt lat="45.27352" lon="6.92104">
        <time>1970-01-01T00:00:00+00:00</time>
        <ele>2115.0</ele>
      </trkpt>
      <trkpt lat="45.27352" lon="6.92104">
        <time>1970-01-01T00:00:00+00:00</time>
        <ele>2115.0</ele>
      </trkpt>
      <trkpt lat="45.27347" lon="6.92103">
        <time>1970-01-01T00:00:00+00:00</time>
        <ele>2117.0</ele>
      </trkpt>
      <trkpt lat="45.27347" lon="6.92103">
        <time>1970-01-01T00:00:00+00:00</time>
        <ele>2117.0</ele>
      </trkpt>
      <trkpt lat="45.27342" lon="6.92101">
        <time>1970-01-01T00:00:00+00:00</time>
        <ele>2119.0</ele>
      </trkpt>
      <trkpt lat="45.27342" lon="6.92101">
        <time>1970-01-01T00:00:00+00:00</time>
        <ele>2119.0</ele>
      </trkpt>
      <trkpt lat="45.27337" lon="6.92098">
        <time>1970-01-01T00:00:00+00:00</time>
        <ele>2121.0</ele>
      </trkpt>
      <trkpt lat="45.27337" lon="6.92098">
        <time>1970-01-01T00:00:00+00:00</time>
        <ele>2121.0</ele>
      </trkpt>
      <trkpt lat="45.27332" lon="6.92096">
        <time>1970-01-01T00:00:00+00:00</time>
        <ele>2124.0</ele>
      </trkpt>
      <trkpt lat="45.27332" lon="6.92096">
        <time>1970-01-01T00:00:00+00:00</time>
        <ele>2124.0</ele>
      </trkpt>
      <trkpt lat="45.27327" lon="6.92094">
        <time>1970-01-01T00:00:00+00:00</time>
        <ele>2126.0</ele>
      </trkpt>
      <trkpt lat="45.27327" lon="6.92094">
        <time>1970-01-01T00:00:00+00:00</time>
        <ele>2126.0</ele>
      </trkpt>
      <trkpt lat="45.27322" lon="6.92091">
        <time>1970-01-01T00:00:00+00:00</time>
        <ele>2129.0</ele>
      </trkpt>
      <trkpt lat="45.27322" lon="6.92091">
        <time>1970-01-01T00:00:00+00:00</time>
        <ele>2129.0</ele>
      </trkpt>
      <trkpt lat="45.27317" lon="6.92089">
        <time>1970-01-01T00:00:00+00:00</time>
        <ele>2131.0</ele>
      </trkpt>
      <trkpt lat="45.27317" lon="6.92089">
        <time>1970-01-01T00:00:00+00:00</time>
        <ele>2131.0</ele>
      </trkpt>
      <trkpt lat="45.27313" lon="6.92085">
        <time>1970-01-01T00:00:00+00:00</time>
        <ele>2132.0</ele>
      </trkpt>
      <trkpt lat="45.27313" lon="6.92085">
        <time>1970-01-01T00:00:00+00:00</time>
        <ele>2132.0</ele>
      </trkpt>
      <trkpt lat="45.2731" lon="6.9208">
        <time>1970-01-01T00:00:00+00:00</time>
        <ele>2133.0</ele>
      </trkpt>
      <trkpt lat="45.2731" lon="6.9208">
        <time>1970-01-01T00:00:00+00:00</time>
        <ele>2133.0</ele>
      </trkpt>
      <trkpt lat="45.27305" lon="6.9208">
        <time>1970-01-01T00:00:00+00:00</time>
        <ele>2135.0</ele>
      </trkpt>
      <trkpt lat="45.27305" lon="6.9208">
        <time>1970-01-01T00:00:00+00:00</time>
        <ele>2135.0</ele>
      </trkpt>
      <trkpt lat="45.27302" lon="6.92075">
        <time>1970-01-01T00:00:00+00:00</time>
        <ele>2135.0</ele>
      </trkpt>
      <trkpt lat="45.27302" lon="6.92075">
        <time>1970-01-01T00:00:00+00:00</time>
        <ele>2135.0</ele>
      </trkpt>
      <trkpt lat="45.27302" lon="6.92068">
        <time>1970-01-01T00:00:00+00:00</time>
        <ele>2134.0</ele>
      </trkpt>
      <trkpt lat="45.27302" lon="6.92068">
        <time>1970-01-01T00:00:00+00:00</time>
        <ele>2134.0</ele>
      </trkpt>
      <trkpt lat="45.27298" lon="6.92063">
        <time>1970-01-01T00:00:00+00:00</time>
        <ele>2135.0</ele>
      </trkpt>
      <trkpt lat="45.27298" lon="6.92063">
        <time>1970-01-01T00:00:00+00:00</time>
        <ele>2135.0</ele>
      </trkpt>
      <trkpt lat="45.27297" lon="6.92056">
        <time>1970-01-01T00:00:00+00:00</time>
        <ele>2135.0</ele>
      </trkpt>
      <trkpt lat="45.27297" lon="6.92056">
        <time>1970-01-01T00:00:00+00:00</time>
        <ele>2135.0</ele>
      </trkpt>
      <trkpt lat="45.27294" lon="6.9205">
        <time>1970-01-01T00:00:00+00:00</time>
        <ele>2137.0</ele>
      </trkpt>
      <trkpt lat="45.27294" lon="6.9205">
        <time>1970-01-01T00:00:00+00:00</time>
        <ele>2137.0</ele>
      </trkpt>
      <trkpt lat="45.27289" lon="6.9205">
        <time>1970-01-01T00:00:00+00:00</time>
        <ele>2139.0</ele>
      </trkpt>
      <trkpt lat="45.27289" lon="6.9205">
        <time>1970-01-01T00:00:00+00:00</time>
        <ele>2139.0</ele>
      </trkpt>
      <trkpt lat="45.27283" lon="6.92049">
        <time>1970-01-01T00:00:00+00:00</time>
        <ele>2143.0</ele>
      </trkpt>
      <trkpt lat="45.27283" lon="6.92049">
        <time>1970-01-01T00:00:00+00:00</time>
        <ele>2143.0</ele>
      </trkpt>
      <trkpt lat="45.27278" lon="6.92048">
        <time>1970-01-01T00:00:00+00:00</time>
        <ele>2146.0</ele>
      </trkpt>
      <trkpt lat="45.27278" lon="6.92048">
        <time>1970-01-01T00:00:00+00:00</time>
        <ele>2146.0</ele>
      </trkpt>
      <trkpt lat="45.27274" lon="6.92044">
        <time>1970-01-01T00:00:00+00:00</time>
        <ele>2148.0</ele>
      </trkpt>
      <trkpt lat="45.27274" lon="6.92044">
        <time>1970-01-01T00:00:00+00:00</time>
        <ele>2148.0</ele>
      </trkpt>
      <trkpt lat="45.2727" lon="6.9204">
        <time>1970-01-01T00:00:00+00:00</time>
        <ele>2150.0</ele>
      </trkpt>
      <trkpt lat="45.2727" lon="6.9204">
        <time>1970-01-01T00:00:00+00:00</time>
        <ele>2150.0</ele>
      </trkpt>
      <trkpt lat="45.27265" lon="6.92038">
        <time>1970-01-01T00:00:00+00:00</time>
        <ele>2153.0</ele>
      </trkpt>
      <trkpt lat="45.27265" lon="6.92038">
        <time>1970-01-01T00:00:00+00:00</time>
        <ele>2153.0</ele>
      </trkpt>
      <trkpt lat="45.27261" lon="6.92035">
        <time>1970-01-01T00:00:00+00:00</time>
        <ele>2155.0</ele>
      </trkpt>
      <trkpt lat="45.27261" lon="6.92035">
        <time>1970-01-01T00:00:00+00:00</time>
        <ele>2155.0</ele>
      </trkpt>
      <trkpt lat="45.27262" lon="6.92027">
        <time>1970-01-01T00:00:00+00:00</time>
        <ele>2154.0</ele>
      </trkpt>
      <trkpt lat="45.27262" lon="6.92027">
        <time>1970-01-01T00:00:00+00:00</time>
        <ele>2154.0</ele>
      </trkpt>
      <trkpt lat="45.27264" lon="6.92019">
        <time>1970-01-01T00:00:00+00:00</time>
        <ele>2151.0</ele>
      </trkpt>
      <trkpt lat="45.27264" lon="6.92019">
        <time>1970-01-01T00:00:00+00:00</time>
        <ele>2151.0</ele>
      </trkpt>
      <trkpt lat="45.27264" lon="6.92012">
        <time>1970-01-01T00:00:00+00:00</time>
        <ele>2150.0</ele>
      </trkpt>
      <trkpt lat="45.27264" lon="6.92012">
        <time>1970-01-01T00:00:00+00:00</time>
        <ele>2150.0</ele>
      </trkpt>
      <trkpt lat="45.27265" lon="6.92005">
        <time>1970-01-01T00:00:00+00:00</time>
        <ele>2149.0</ele>
      </trkpt>
      <trkpt lat="45.27265" lon="6.92005">
        <time>1970-01-01T00:00:00+00:00</time>
        <ele>2149.0</ele>
      </trkpt>
      <trkpt lat="45.2726" lon="6.92004">
        <time>1970-01-01T00:00:00+00:00</time>
        <ele>2152.0</ele>
      </trkpt>
      <trkpt lat="45.2726" lon="6.92004">
        <time>1970-01-01T00:00:00+00:00</time>
        <ele>2152.0</ele>
      </trkpt>
      <trkpt lat="45.27255" lon="6.92003">
        <time>1970-01-01T00:00:00+00:00</time>
        <ele>2155.0</ele>
      </trkpt>
      <trkpt lat="45.27255" lon="6.92003">
        <time>1970-01-01T00:00:00+00:00</time>
        <ele>2155.0</ele>
      </trkpt>
      <trkpt lat="45.2725" lon="6.92">
        <time>1970-01-01T00:00:00+00:00</time>
        <ele>2157.0</ele>
      </trkpt>
      <trkpt lat="45.2725" lon="6.92">
        <time>1970-01-01T00:00:00+00:00</time>
        <ele>2157.0</ele>
      </trkpt>
      <trkpt lat="45.27245" lon="6.91997">
        <time>1970-01-01T00:00:00+00:00</time>
        <ele>2159.0</ele>
      </trkpt>
      <trkpt lat="45.27245" lon="6.91997">
        <time>1970-01-01T00:00:00+00:00</time>
        <ele>2159.0</ele>
      </trkpt>
      <trkpt lat="45.2724" lon="6.91995">
        <time>1970-01-01T00:00:00+00:00</time>
        <ele>2162.0</ele>
      </trkpt>
      <trkpt lat="45.2724" lon="6.91995">
        <time>1970-01-01T00:00:00+00:00</time>
        <ele>2162.0</ele>
      </trkpt>
      <trkpt lat="45.27237" lon="6.9199">
        <time>1970-01-01T00:00:00+00:00</time>
        <ele>2163.0</ele>
      </trkpt>
      <trkpt lat="45.27237" lon="6.9199">
        <time>1970-01-01T00:00:00+00:00</time>
        <ele>2163.0</ele>
      </trkpt>
      <trkpt lat="45.27233" lon="6.91987">
        <time>1970-01-01T00:00:00+00:00</time>
        <ele>2165.0</ele>
      </trkpt>
      <trkpt lat="45.27233" lon="6.91987">
        <time>1970-01-01T00:00:00+00:00</time>
        <ele>2165.0</ele>
      </trkpt>
      <trkpt lat="45.27229" lon="6.91984">
        <time>1970-01-01T00:00:00+00:00</time>
        <ele>2167.0</ele>
      </trkpt>
      <trkpt lat="45.27229" lon="6.91984">
        <time>1970-01-01T00:00:00+00:00</time>
        <ele>2167.0</ele>
      </trkpt>
      <trkpt lat="45.27224" lon="6.91982">
        <time>1970-01-01T00:00:00+00:00</time>
        <ele>2169.0</ele>
      </trkpt>
      <trkpt lat="45.27224" lon="6.91982">
        <time>1970-01-01T00:00:00+00:00</time>
        <ele>2169.0</ele>
      </trkpt>
      <trkpt lat="45.27219" lon="6.91981">
        <time>1970-01-01T00:00:00+00:00</time>
        <ele>2171.0</ele>
      </trkpt>
      <trkpt lat="45.27219" lon="6.91981">
        <time>1970-01-01T00:00:00+00:00</time>
        <ele>2171.0</ele>
      </trkpt>
      <trkpt lat="45.27214" lon="6.91979">
        <time>1970-01-01T00:00:00+00:00</time>
        <ele>2173.0</ele>
      </trkpt>
      <trkpt lat="45.27214" lon="6.91979">
        <time>1970-01-01T00:00:00+00:00</time>
        <ele>2173.0</ele>
      </trkpt>
      <trkpt lat="45.27209" lon="6.91977">
        <time>1970-01-01T00:00:00+00:00</time>
        <ele>2175.0</ele>
      </trkpt>
      <trkpt lat="45.27209" lon="6.91977">
        <time>1970-01-01T00:00:00+00:00</time>
        <ele>2175.0</ele>
      </trkpt>
      <trkpt lat="45.27204" lon="6.91976">
        <time>1970-01-01T00:00:00+00:00</time>
        <ele>2176.0</ele>
      </trkpt>
      <trkpt lat="45.27204" lon="6.91976">
        <time>1970-01-01T00:00:00+00:00</time>
        <ele>2176.0</ele>
      </trkpt>
      <trkpt lat="45.272" lon="6.91979">
        <time>1970-01-01T00:00:00+00:00</time>
        <ele>2178.0</ele>
      </trkpt>
      <trkpt lat="45.272" lon="6.91979">
        <time>1970-01-01T00:00:00+00:00</time>
        <ele>2178.0</ele>
      </trkpt>
      <trkpt lat="45.27195" lon="6.91978">
        <time>1970-01-01T00:00:00+00:00</time>
        <ele>2180.0</ele>
      </trkpt>
      <trkpt lat="45.27195" lon="6.91978">
        <time>1970-01-01T00:00:00+00:00</time>
        <ele>2180.0</ele>
      </trkpt>
      <trkpt lat="45.27191" lon="6.91975">
        <time>1970-01-01T00:00:00+00:00</time>
        <ele>2181.0</ele>
      </trkpt>
      <trkpt lat="45.27191" lon="6.91975">
        <time>1970-01-01T00:00:00+00:00</time>
        <ele>2181.0</ele>
      </trkpt>
      <trkpt lat="45.27187" lon="6.91972">
        <time>1970-01-01T00:00:00+00:00</time>
        <ele>2182.0</ele>
      </trkpt>
      <trkpt lat="45.27187" lon="6.91972">
        <time>1970-01-01T00:00:00+00:00</time>
        <ele>2182.0</ele>
      </trkpt>
      <trkpt lat="45.27183" lon="6.91969">
        <time>1970-01-01T00:00:00+00:00</time>
        <ele>2183.0</ele>
      </trkpt>
      <trkpt lat="45.27183" lon="6.91969">
        <time>1970-01-01T00:00:00+00:00</time>
        <ele>2183.0</ele>
      </trkpt>
      <trkpt lat="45.27178" lon="6.9197">
        <time>1970-01-01T00:00:00+00:00</time>
        <ele>2186.0</ele>
      </trkpt>
      <trkpt lat="45.27178" lon="6.9197">
        <time>1970-01-01T00:00:00+00:00</time>
        <ele>2186.0</ele>
      </trkpt>
      <trkpt lat="45.27177" lon="6.91977">
        <time>1970-01-01T00:00:00+00:00</time>
        <ele>2187.0</ele>
      </trkpt>
      <trkpt lat="45.27177" lon="6.91977">
        <time>1970-01-01T00:00:00+00:00</time>
        <ele>2187.0</ele>
      </trkpt>
      <trkpt lat="45.27179" lon="6.91983">
        <time>1970-01-01T00:00:00+00:00</time>
        <ele>2186.0</ele>
      </trkpt>
      <trkpt lat="45.27179" lon="6.91983">
        <time>1970-01-01T00:00:00+00:00</time>
        <ele>2186.0</ele>
      </trkpt>
      <trkpt lat="45.2718" lon="6.9199">
        <time>1970-01-01T00:00:00+00:00</time>
        <ele>2186.0</ele>
      </trkpt>
      <trkpt lat="45.2718" lon="6.9199">
        <time>1970-01-01T00:00:00+00:00</time>
        <ele>2186.0</ele>
      </trkpt>
      <trkpt lat="45.27179" lon="6.91997">
        <time>1970-01-01T00:00:00+00:00</time>
        <ele>2187.0</ele>
      </trkpt>
      <trkpt lat="45.27179" lon="6.91997">
        <time>1970-01-01T00:00:00+00:00</time>
        <ele>2187.0</ele>
      </trkpt>
      <trkpt lat="45.27179" lon="6.92005">
        <time>1970-01-01T00:00:00+00:00</time>
        <ele>2188.0</ele>
      </trkpt>
      <trkpt lat="45.27179" lon="6.92005">
        <time>1970-01-01T00:00:00+00:00</time>
        <ele>2188.0</ele>
      </trkpt>
      <trkpt lat="45.2718" lon="6.92013">
        <time>1970-01-01T00:00:00+00:00</time>
        <ele>2188.0</ele>
      </trkpt>
      <trkpt lat="45.2718" lon="6.92013">
        <time>1970-01-01T00:00:00+00:00</time>
        <ele>2188.0</ele>
      </trkpt>
      <trkpt lat="45.27181" lon="6.9202">
        <time>1970-01-01T00:00:00+00:00</time>
        <ele>2189.0</ele>
      </trkpt>
      <trkpt lat="45.27181" lon="6.9202">
        <time>1970-01-01T00:00:00+00:00</time>
        <ele>2189.0</ele>
      </trkpt>
      <trkpt lat="45.27183" lon="6.92026">
        <time>1970-01-01T00:00:00+00:00</time>
        <ele>2188.0</ele>
      </trkpt>
      <trkpt lat="45.27183" lon="6.92026">
        <time>1970-01-01T00:00:00+00:00</time>
        <ele>2188.0</ele>
      </trkpt>
      <trkpt lat="45.27184" lon="6.92034">
        <time>1970-01-01T00:00:00+00:00</time>
        <ele>2189.0</ele>
      </trkpt>
      <trkpt lat="45.27184" lon="6.92034">
        <time>1970-01-01T00:00:00+00:00</time>
        <ele>2189.0</ele>
      </trkpt>
      <trkpt lat="45.27186" lon="6.92041">
        <time>1970-01-01T00:00:00+00:00</time>
        <ele>2189.0</ele>
      </trkpt>
      <trkpt lat="45.27186" lon="6.92041">
        <time>1970-01-01T00:00:00+00:00</time>
        <ele>2189.0</ele>
      </trkpt>
      <trkpt lat="45.27187" lon="6.92048">
        <time>1970-01-01T00:00:00+00:00</time>
        <ele>2188.0</ele>
      </trkpt>
      <trkpt lat="45.27187" lon="6.92048">
        <time>1970-01-01T00:00:00+00:00</time>
        <ele>2188.0</ele>
      </trkpt>
      <trkpt lat="45.27188" lon="6.92055">
        <time>1970-01-01T00:00:00+00:00</time>
        <ele>2188.0</ele>
      </trkpt>
      <trkpt lat="45.27188" lon="6.92055">
        <time>1970-01-01T00:00:00+00:00</time>
        <ele>2188.0</ele>
      </trkpt>
      <trkpt lat="45.27187" lon="6.92062">
        <time>1970-01-01T00:00:00+00:00</time>
        <ele>2189.0</ele>
      </trkpt>
      <trkpt lat="45.27187" lon="6.92062">
        <time>1970-01-01T00:00:00+00:00</time>
        <ele>2189.0</ele>
      </trkpt>
      <trkpt lat="45.27185" lon="6.92068">
        <time>1970-01-01T00:00:00+00:00</time>
        <ele>2190.0</ele>
      </trkpt>
      <trkpt lat="45.27185" lon="6.92068">
        <time>1970-01-01T00:00:00+00:00</time>
        <ele>2190.0</ele>
      </trkpt>
      <trkpt lat="45.27185" lon="6.92075">
        <time>1970-01-01T00:00:00+00:00</time>
        <ele>2191.0</ele>
      </trkpt>
      <trkpt lat="45.27185" lon="6.92075">
        <time>1970-01-01T00:00:00+00:00</time>
        <ele>2191.0</ele>
      </trkpt>
      <trkpt lat="45.27182" lon="6.9208">
        <time>1970-01-01T00:00:00+00:00</time>
        <ele>2192.0</ele>
      </trkpt>
      <trkpt lat="45.27182" lon="6.9208">
        <time>1970-01-01T00:00:00+00:00</time>
        <ele>2192.0</ele>
      </trkpt>
      <trkpt lat="45.27179" lon="6.92085">
        <time>1970-01-01T00:00:00+00:00</time>
        <ele>2194.0</ele>
      </trkpt>
      <trkpt lat="45.27179" lon="6.92085">
        <time>1970-01-01T00:00:00+00:00</time>
        <ele>2194.0</ele>
      </trkpt>
      <trkpt lat="45.27177" lon="6.92092">
        <time>1970-01-01T00:00:00+00:00</time>
        <ele>2195.0</ele>
      </trkpt>
      <trkpt lat="45.27177" lon="6.92092">
        <time>1970-01-01T00:00:00+00:00</time>
        <ele>2195.0</ele>
      </trkpt>
      <trkpt lat="45.27175" lon="6.92098">
        <time>1970-01-01T00:00:00+00:00</time>
        <ele>2196.0</ele>
      </trkpt>
      <trkpt lat="45.27175" lon="6.92098">
        <time>1970-01-01T00:00:00+00:00</time>
        <ele>2196.0</ele>
      </trkpt>
      <trkpt lat="45.27172" lon="6.92104">
        <time>1970-01-01T00:00:00+00:00</time>
        <ele>2197.0</ele>
      </trkpt>
      <trkpt lat="45.27172" lon="6.92104">
        <time>1970-01-01T00:00:00+00:00</time>
        <ele>2197.0</ele>
      </trkpt>
      <trkpt lat="45.27169" lon="6.92109">
        <time>1970-01-01T00:00:00+00:00</time>
        <ele>2198.0</ele>
      </trkpt>
      <trkpt lat="45.27169" lon="6.92109">
        <time>1970-01-01T00:00:00+00:00</time>
        <ele>2198.0</ele>
      </trkpt>
      <trkpt lat="45.27167" lon="6.92115">
        <time>1970-01-01T00:00:00+00:00</time>
        <ele>2199.0</ele>
      </trkpt>
      <trkpt lat="45.27167" lon="6.92115">
        <time>1970-01-01T00:00:00+00:00</time>
        <ele>2199.0</ele>
      </trkpt>
      <trkpt lat="45.27165" lon="6.92121">
        <time>1970-01-01T00:00:00+00:00</time>
        <ele>2200.0</ele>
      </trkpt>
      <trkpt lat="45.27165" lon="6.92121">
        <time>1970-01-01T00:00:00+00:00</time>
        <ele>2200.0</ele>
      </trkpt>
      <trkpt lat="45.27164" lon="6.92128">
        <time>1970-01-01T00:00:00+00:00</time>
        <ele>2201.0</ele>
      </trkpt>
      <trkpt lat="45.27164" lon="6.92128">
        <time>1970-01-01T00:00:00+00:00</time>
        <ele>2201.0</ele>
      </trkpt>
      <trkpt lat="45.27163" lon="6.92135">
        <time>1970-01-01T00:00:00+00:00</time>
        <ele>2202.0</ele>
      </trkpt>
      <trkpt lat="45.27163" lon="6.92135">
        <time>1970-01-01T00:00:00+00:00</time>
        <ele>2202.0</ele>
      </trkpt>
      <trkpt lat="45.27161" lon="6.92142">
        <time>1970-01-01T00:00:00+00:00</time>
        <ele>2203.0</ele>
      </trkpt>
      <trkpt lat="45.27161" lon="6.92142">
        <time>1970-01-01T00:00:00+00:00</time>
        <ele>2203.0</ele>
      </trkpt>
      <trkpt lat="45.2716" lon="6.92149">
        <time>1970-01-01T00:00:00+00:00</time>
        <ele>2204.0</ele>
      </trkpt>
      <trkpt lat="45.2716" lon="6.92149">
        <time>1970-01-01T00:00:00+00:00</time>
        <ele>2204.0</ele>
      </trkpt>
      <trkpt lat="45.27159" lon="6.92156">
        <time>1970-01-01T00:00:00+00:00</time>
        <ele>2206.0</ele>
      </trkpt>
      <trkpt lat="45.27159" lon="6.92156">
        <time>1970-01-01T00:00:00+00:00</time>
        <ele>2206.0</ele>
      </trkpt>
      <trkpt lat="45.27157" lon="6.92162">
        <time>1970-01-01T00:00:00+00:00</time>
        <ele>2207.0</ele>
      </trkpt>
      <trkpt lat="45.27157" lon="6.92162">
        <time>1970-01-01T00:00:00+00:00</time>
        <ele>2207.0</ele>
      </trkpt>
      <trkpt lat="45.27155" lon="6.92168">
        <time>1970-01-01T00:00:00+00:00</time>
        <ele>2208.0</ele>
      </trkpt>
      <trkpt lat="45.27155" lon="6.92168">
        <time>1970-01-01T00:00:00+00:00</time>
        <ele>2208.0</ele>
      </trkpt>
      <trkpt lat="45.27156" lon="6.92175">
        <time>1970-01-01T00:00:00+00:00</time>
        <ele>2209.0</ele>
      </trkpt>
      <trkpt lat="45.27156" lon="6.92175">
        <time>1970-01-01T00:00:00+00:00</time>
        <ele>2209.0</ele>
      </trkpt>
      <trkpt lat="45.27154" lon="6.92181">
        <time>1970-01-01T00:00:00+00:00</time>
        <ele>2210.0</ele>
      </trkpt>
      <trkpt lat="45.27154" lon="6.92181">
        <time>1970-01-01T00:00:00+00:00</time>
        <ele>2210.0</ele>
      </trkpt>
      <trkpt lat="45.27152" lon="6.92187">
        <time>1970-01-01T00:00:00+00:00</time>
        <ele>2211.0</ele>
      </trkpt>
      <trkpt lat="45.27152" lon="6.92187">
        <time>1970-01-01T00:00:00+00:00</time>
        <ele>2211.0</ele>
      </trkpt>
      <trkpt lat="45.27147" lon="6.92184">
        <time>1970-01-01T00:00:00+00:00</time>
        <ele>2213.0</ele>
      </trkpt>
      <trkpt lat="45.27147" lon="6.92184">
        <time>1970-01-01T00:00:00+00:00</time>
        <ele>2213.0</ele>
      </trkpt>
      <trkpt lat="45.27142" lon="6.92183">
        <time>1970-01-01T00:00:00+00:00</time>
        <ele>2215.0</ele>
      </trkpt>
      <trkpt lat="45.27142" lon="6.92183">
        <time>1970-01-01T00:00:00+00:00</time>
        <ele>2215.0</ele>
      </trkpt>
      <trkpt lat="45.27137" lon="6.92183">
        <time>1970-01-01T00:00:00+00:00</time>
        <ele>2216.0</ele>
      </trkpt>
      <trkpt lat="45.27137" lon="6.92183">
        <time>1970-01-01T00:00:00+00:00</time>
        <ele>2216.0</ele>
      </trkpt>
      <trkpt lat="45.27132" lon="6.92178">
        <time>1970-01-01T00:00:00+00:00</time>
        <ele>2218.0</ele>
      </trkpt>
      <trkpt lat="45.27132" lon="6.92178">
        <time>1970-01-01T00:00:00+00:00</time>
        <ele>2218.0</ele>
      </trkpt>
      <trkpt lat="45.27127" lon="6.92178">
        <time>1970-01-01T00:00:00+00:00</time>
        <ele>2220.0</ele>
      </trkpt>
      <trkpt lat="45.27127" lon="6.92178">
        <time>1970-01-01T00:00:00+00:00</time>
        <ele>2220.0</ele>
      </trkpt>
      <trkpt lat="45.27122" lon="6.92178">
        <time>1970-01-01T00:00:00+00:00</time>
        <ele>2222.0</ele>
      </trkpt>
      <trkpt lat="45.27122" lon="6.92178">
        <time>1970-01-01T00:00:00+00:00</time>
        <ele>2222.0</ele>
      </trkpt>
      <trkpt lat="45.27117" lon="6.92179">
        <time>1970-01-01T00:00:00+00:00</time>
        <ele>2224.0</ele>
      </trkpt>
      <trkpt lat="45.27117" lon="6.92179">
        <time>1970-01-01T00:00:00+00:00</time>
        <ele>2224.0</ele>
      </trkpt>
      <trkpt lat="45.27112" lon="6.92177">
        <time>1970-01-01T00:00:00+00:00</time>
        <ele>2226.0</ele>
      </trkpt>
      <trkpt lat="45.27112" lon="6.92177">
        <time>1970-01-01T00:00:00+00:00</time>
        <ele>2226.0</ele>
      </trkpt>
      <trkpt lat="45.27116" lon="6.9218">
        <time>1970-01-01T00:00:00+00:00</time>
        <ele>2224.0</ele>
      </trkpt>
      <trkpt lat="45.27116" lon="6.9218">
        <time>1970-01-01T00:00:00+00:00</time>
        <ele>2224.0</ele>
      </trkpt>
      <trkpt lat="45.27121" lon="6.92179">
        <time>1970-01-01T00:00:00+00:00</time>
        <ele>2222.0</ele>
      </trkpt>
      <trkpt lat="45.27121" lon="6.92179">
        <time>1970-01-01T00:00:00+00:00</time>
        <ele>2222.0</ele>
      </trkpt>
      <trkpt lat="45.27118" lon="6.92184">
        <time>1970-01-01T00:00:00+00:00</time>
        <ele>2224.0</ele>
      </trkpt>
      <trkpt lat="45.27118" lon="6.92184">
        <time>1970-01-01T00:00:00+00:00</time>
        <ele>2224.0</ele>
      </trkpt>
      <trkpt lat="45.27116" lon="6.92191">
        <time>1970-01-01T00:00:00+00:00</time>
        <ele>2225.0</ele>
      </trkpt>
      <trkpt lat="45.27116" lon="6.92191">
        <time>1970-01-01T00:00:00+00:00</time>
        <ele>2225.0</ele>
      </trkpt>
      <trkpt lat="45.27115" lon="6.92198">
        <time>1970-01-01T00:00:00+00:00</time>
        <ele>2226.0</ele>
      </trkpt>
      <trkpt lat="45.27115" lon="6.92198">
        <time>1970-01-01T00:00:00+00:00</time>
        <ele>2226.0</ele>
      </trkpt>
      <trkpt lat="45.27113" lon="6.92204">
        <time>1970-01-01T00:00:00+00:00</time>
        <ele>2227.0</ele>
      </trkpt>
      <trkpt lat="45.27113" lon="6.92204">
        <time>1970-01-01T00:00:00+00:00</time>
        <ele>2227.0</ele>
      </trkpt>
      <trkpt lat="45.27111" lon="6.9221">
        <time>1970-01-01T00:00:00+00:00</time>
        <ele>2228.0</ele>
      </trkpt>
      <trkpt lat="45.27111" lon="6.9221">
        <time>1970-01-01T00:00:00+00:00</time>
        <ele>2228.0</ele>
      </trkpt>
      <trkpt lat="45.27108" lon="6.92215">
        <time>1970-01-01T00:00:00+00:00</time>
        <ele>2229.0</ele>
      </trkpt>
      <trkpt lat="45.27108" lon="6.92215">
        <time>1970-01-01T00:00:00+00:00</time>
        <ele>2229.0</ele>
      </trkpt>
      <trkpt lat="45.27105" lon="6.9222">
        <time>1970-01-01T00:00:00+00:00</time>
        <ele>2230.0</ele>
      </trkpt>
      <trkpt lat="45.27105" lon="6.9222">
        <time>1970-01-01T00:00:00+00:00</time>
        <ele>2230.0</ele>
      </trkpt>
      <trkpt lat="45.27103" lon="6.92226">
        <time>1970-01-01T00:00:00+00:00</time>
        <ele>2231.0</ele>
      </trkpt>
      <trkpt lat="45.27103" lon="6.92226">
        <time>1970-01-01T00:00:00+00:00</time>
        <ele>2231.0</ele>
      </trkpt>
      <trkpt lat="45.27103" lon="6.92233">
        <time>1970-01-01T00:00:00+00:00</time>
        <ele>2231.0</ele>
      </trkpt>
      <trkpt lat="45.27103" lon="6.92233">
        <time>1970-01-01T00:00:00+00:00</time>
        <ele>2231.0</ele>
      </trkpt>
      <trkpt lat="45.27102" lon="6.9224">
        <time>1970-01-01T00:00:00+00:00</time>
        <ele>2232.0</ele>
      </trkpt>
      <trkpt lat="45.27102" lon="6.9224">
        <time>1970-01-01T00:00:00+00:00</time>
        <ele>2232.0</ele>
      </trkpt>
      <trkpt lat="45.271" lon="6.92246">
        <time>1970-01-01T00:00:00+00:00</time>
        <ele>2234.0</ele>
      </trkpt>
      <trkpt lat="45.271" lon="6.92246">
        <time>1970-01-01T00:00:00+00:00</time>
        <ele>2234.0</ele>
      </trkpt>
      <trkpt lat="45.27099" lon="6.92254">
        <time>1970-01-01T00:00:00+00:00</time>
        <ele>2235.0</ele>
      </trkpt>
      <trkpt lat="45.27099" lon="6.92254">
        <time>1970-01-01T00:00:00+00:00</time>
        <ele>2235.0</ele>
      </trkpt>
      <trkpt lat="45.27098" lon="6.92261">
        <time>1970-01-01T00:00:00+00:00</time>
        <ele>2236.0</ele>
      </trkpt>
      <trkpt lat="45.27098" lon="6.92261">
        <time>1970-01-01T00:00:00+00:00</time>
        <ele>2236.0</ele>
      </trkpt>
      <trkpt lat="45.27098" lon="6.92268">
        <time>1970-01-01T00:00:00+00:00</time>
        <ele>2237.0</ele>
      </trkpt>
      <trkpt lat="45.27098" lon="6.92268">
        <time>1970-01-01T00:00:00+00:00</time>
        <ele>2237.0</ele>
      </trkpt>
      <trkpt lat="45.27097" lon="6.92275">
        <time>1970-01-01T00:00:00+00:00</time>
        <ele>2238.0</ele>
      </trkpt>
      <trkpt lat="45.27097" lon="6.92275">
        <time>1970-01-01T00:00:00+00:00</time>
        <ele>2238.0</ele>
      </trkpt>
      <trkpt lat="45.27096" lon="6.92282">
        <time>1970-01-01T00:00:00+00:00</time>
        <ele>2239.0</ele>
      </trkpt>
      <trkpt lat="45.27096" lon="6.92282">
        <time>1970-01-01T00:00:00+00:00</time>
        <ele>2239.0</ele>
      </trkpt>
      <trkpt lat="45.27094" lon="6.92288">
        <time>1970-01-01T00:00:00+00:00</time>
        <ele>2240.0</ele>
      </trkpt>
      <trkpt lat="45.27094" lon="6.92288">
        <time>1970-01-01T00:00:00+00:00</time>
        <ele>2240.0</ele>
      </trkpt>
      <trkpt lat="45.27091" lon="6.92294">
        <time>1970-01-01T00:00:00+00:00</time>
        <ele>2241.0</ele>
      </trkpt>
      <trkpt lat="45.27091" lon="6.92294">
        <time>1970-01-01T00:00:00+00:00</time>
        <ele>2241.0</ele>
      </trkpt>
      <trkpt lat="45.27091" lon="6.92301">
        <time>1970-01-01T00:00:00+00:00</time>
        <ele>2241.0</ele>
      </trkpt>
      <trkpt lat="45.27091" lon="6.92301">
        <time>1970-01-01T00:00:00+00:00</time>
        <ele>2241.0</ele>
      </trkpt>
      <trkpt lat="45.27089" lon="6.92307">
        <time>1970-01-01T00:00:00+00:00</time>
        <ele>2243.0</ele>
      </trkpt>
      <trkpt lat="45.27089" lon="6.92307">
        <time>1970-01-01T00:00:00+00:00</time>
        <ele>2243.0</ele>
      </trkpt>
      <trkpt lat="45.27084" lon="6.92307">
        <time>1970-01-01T00:00:00+00:00</time>
        <ele>2246.0</ele>
      </trkpt>
      <trkpt lat="45.27084" lon="6.92307">
        <time>1970-01-01T00:00:00+00:00</time>
        <ele>2246.0</ele>
      </trkpt>
      <trkpt lat="45.27082" lon="6.92301">
        <time>1970-01-01T00:00:00+00:00</time>
        <ele>2246.0</ele>
      </trkpt>
      <trkpt lat="45.27082" lon="6.92301">
        <time>1970-01-01T00:00:00+00:00</time>
        <ele>2246.0</ele>
      </trkpt>
      <trkpt lat="45.2708" lon="6.92295">
        <time>1970-01-01T00:00:00+00:00</time>
        <ele>2247.0</ele>
      </trkpt>
      <trkpt lat="45.2708" lon="6.92295">
        <time>1970-01-01T00:00:00+00:00</time>
        <ele>2247.0</ele>
      </trkpt>
      <trkpt lat="45.27076" lon="6.9229">
        <time>1970-01-01T00:00:00+00:00</time>
        <ele>2249.0</ele>
      </trkpt>
      <trkpt lat="45.27076" lon="6.9229">
        <time>1970-01-01T00:00:00+00:00</time>
        <ele>2249.0</ele>
      </trkpt>
      <trkpt lat="45.27072" lon="6.92284">
        <time>1970-01-01T00:00:00+00:00</time>
        <ele>2251.0</ele>
      </trkpt>
      <trkpt lat="45.27072" lon="6.92284">
        <time>1970-01-01T00:00:00+00:00</time>
        <ele>2251.0</ele>
      </trkpt>
      <trkpt lat="45.27069" lon="6.92278">
        <time>1970-01-01T00:00:00+00:00</time>
        <ele>2252.0</ele>
      </trkpt>
      <trkpt lat="45.27069" lon="6.92278">
        <time>1970-01-01T00:00:00+00:00</time>
        <ele>2252.0</ele>
      </trkpt>
      <trkpt lat="45.27066" lon="6.92273">
        <time>1970-01-01T00:00:00+00:00</time>
        <ele>2253.0</ele>
      </trkpt>
      <trkpt lat="45.27066" lon="6.92273">
        <time>1970-01-01T00:00:00+00:00</time>
        <ele>2253.0</ele>
      </trkpt>
      <trkpt lat="45.2706" lon="6.92272">
        <time>1970-01-01T00:00:00+00:00</time>
        <ele>2256.0</ele>
      </trkpt>
      <trkpt lat="45.2706" lon="6.92272">
        <time>1970-01-01T00:00:00+00:00</time>
        <ele>2256.0</ele>
      </trkpt>
      <trkpt lat="45.27057" lon="6.92266">
        <time>1970-01-01T00:00:00+00:00</time>
        <ele>2257.0</ele>
      </trkpt>
      <trkpt lat="45.27057" lon="6.92266">
        <time>1970-01-01T00:00:00+00:00</time>
        <ele>2257.0</ele>
      </trkpt>
      <trkpt lat="45.27054" lon="6.92261">
        <time>1970-01-01T00:00:00+00:00</time>
        <ele>2258.0</ele>
      </trkpt>
      <trkpt lat="45.27054" lon="6.92261">
        <time>1970-01-01T00:00:00+00:00</time>
        <ele>2258.0</ele>
      </trkpt>
      <trkpt lat="45.27051" lon="6.92256">
        <time>1970-01-01T00:00:00+00:00</time>
        <ele>2260.0</ele>
      </trkpt>
      <trkpt lat="45.27051" lon="6.92256">
        <time>1970-01-01T00:00:00+00:00</time>
        <ele>2260.0</ele>
      </trkpt>
      <trkpt lat="45.27048" lon="6.92251">
        <time>1970-01-01T00:00:00+00:00</time>
        <ele>2261.0</ele>
      </trkpt>
      <trkpt lat="45.27048" lon="6.92251">
        <time>1970-01-01T00:00:00+00:00</time>
        <ele>2261.0</ele>
      </trkpt>
      <trkpt lat="45.27046" lon="6.92244">
        <time>1970-01-01T00:00:00+00:00</time>
        <ele>2262.0</ele>
      </trkpt>
      <trkpt lat="45.27046" lon="6.92244">
        <time>1970-01-01T00:00:00+00:00</time>
        <ele>2262.0</ele>
      </trkpt>
      <trkpt lat="45.27043" lon="6.92239">
        <time>1970-01-01T00:00:00+00:00</time>
        <ele>2263.0</ele>
      </trkpt>
      <trkpt lat="45.27043" lon="6.92239">
        <time>1970-01-01T00:00:00+00:00</time>
        <ele>2263.0</ele>
      </trkpt>
      <trkpt lat="45.27038" lon="6.92236">
        <time>1970-01-01T00:00:00+00:00</time>
        <ele>2266.0</ele>
      </trkpt>
      <trkpt lat="45.27038" lon="6.92236">
        <time>1970-01-01T00:00:00+00:00</time>
        <ele>2266.0</ele>
      </trkpt>
      <trkpt lat="45.27034" lon="6.92232">
        <time>1970-01-01T00:00:00+00:00</time>
        <ele>2268.0</ele>
      </trkpt>
      <trkpt lat="45.27034" lon="6.92232">
        <time>1970-01-01T00:00:00+00:00</time>
        <ele>2268.0</ele>
      </trkpt>
      <trkpt lat="45.2703" lon="6.92228">
        <time>1970-01-01T00:00:00+00:00</time>
        <ele>2269.0</ele>
      </trkpt>
      <trkpt lat="45.2703" lon="6.92228">
        <time>1970-01-01T00:00:00+00:00</time>
        <ele>2269.0</ele>
      </trkpt>
      <trkpt lat="45.27027" lon="6.92222">
        <time>1970-01-01T00:00:00+00:00</time>
        <ele>2270.0</ele>
      </trkpt>
      <trkpt lat="45.27027" lon="6.92222">
        <time>1970-01-01T00:00:00+00:00</time>
        <ele>2270.0</ele>
      </trkpt>
      <trkpt lat="45.27025" lon="6.92216">
        <time>1970-01-01T00:00:00+00:00</time>
        <ele>2270.0</ele>
      </trkpt>
      <trkpt lat="45.27025" lon="6.92216">
        <time>1970-01-01T00:00:00+00:00</time>
        <ele>2270.0</ele>
      </trkpt>
      <trkpt lat="45.27022" lon="6.92211">
        <time>1970-01-01T00:00:00+00:00</time>
        <ele>2271.0</ele>
      </trkpt>
      <trkpt lat="45.27022" lon="6.92211">
        <time>1970-01-01T00:00:00+00:00</time>
        <ele>2271.0</ele>
      </trkpt>
      <trkpt lat="45.27018" lon="6.92214">
        <time>1970-01-01T00:00:00+00:00</time>
        <ele>2273.0</ele>
      </trkpt>
      <trkpt lat="45.27018" lon="6.92214">
        <time>1970-01-01T00:00:00+00:00</time>
        <ele>2273.0</ele>
      </trkpt>
      <trkpt lat="45.27019" lon="6.92222">
        <time>1970-01-01T00:00:00+00:00</time>
        <ele>2273.0</ele>
      </trkpt>
      <trkpt lat="45.27019" lon="6.92222">
        <time>1970-01-01T00:00:00+00:00</time>
        <ele>2273.0</ele>
      </trkpt>
      <trkpt lat="45.27019" lon="6.92229">
        <time>1970-01-01T00:00:00+00:00</time>
        <ele>2274.0</ele>
      </trkpt>
      <trkpt lat="45.27019" lon="6.92229">
        <time>1970-01-01T00:00:00+00:00</time>
        <ele>2274.0</ele>
      </trkpt>
      <trkpt lat="45.27017" lon="6.92235">
        <time>1970-01-01T00:00:00+00:00</time>
        <ele>2276.0</ele>
      </trkpt>
      <trkpt lat="45.27017" lon="6.92235">
        <time>1970-01-01T00:00:00+00:00</time>
        <ele>2276.0</ele>
      </trkpt>
      <trkpt lat="45.27015" lon="6.92242">
        <time>1970-01-01T00:00:00+00:00</time>
        <ele>2277.0</ele>
      </trkpt>
      <trkpt lat="45.27015" lon="6.92242">
        <time>1970-01-01T00:00:00+00:00</time>
        <ele>2277.0</ele>
      </trkpt>
      <trkpt lat="45.27013" lon="6.92248">
        <time>1970-01-01T00:00:00+00:00</time>
        <ele>2279.0</ele>
      </trkpt>
      <trkpt lat="45.27013" lon="6.92248">
        <time>1970-01-01T00:00:00+00:00</time>
        <ele>2279.0</ele>
      </trkpt>
      <trkpt lat="45.27012" lon="6.92255">
        <time>1970-01-01T00:00:00+00:00</time>
        <ele>2280.0</ele>
      </trkpt>
      <trkpt lat="45.27012" lon="6.92255">
        <time>1970-01-01T00:00:00+00:00</time>
        <ele>2280.0</ele>
      </trkpt>
      <trkpt lat="45.27012" lon="6.92262">
        <time>1970-01-01T00:00:00+00:00</time>
        <ele>2280.0</ele>
      </trkpt>
      <trkpt lat="45.27012" lon="6.92262">
        <time>1970-01-01T00:00:00+00:00</time>
        <ele>2280.0</ele>
      </trkpt>
      <trkpt lat="45.27012" lon="6.92269">
        <time>1970-01-01T00:00:00+00:00</time>
        <ele>2280.0</ele>
      </trkpt>
      <trkpt lat="45.27012" lon="6.92269">
        <time>1970-01-01T00:00:00+00:00</time>
        <ele>2280.0</ele>
      </trkpt>
      <trkpt lat="45.27011" lon="6.92277">
        <time>1970-01-01T00:00:00+00:00</time>
        <ele>2281.0</ele>
      </trkpt>
      <trkpt lat="45.27011" lon="6.92277">
        <time>1970-01-01T00:00:00+00:00</time>
        <ele>2281.0</ele>
      </trkpt>
      <trkpt lat="45.27009" lon="6.92284">
        <time>1970-01-01T00:00:00+00:00</time>
        <ele>2282.0</ele>
      </trkpt>
      <trkpt lat="45.27009" lon="6.92284">
        <time>1970-01-01T00:00:00+00:00</time>
        <ele>2282.0</ele>
      </trkpt>
      <trkpt lat="45.27007" lon="6.9229">
        <time>1970-01-01T00:00:00+00:00</time>
        <ele>2283.0</ele>
      </trkpt>
      <trkpt lat="45.27007" lon="6.9229">
        <time>1970-01-01T00:00:00+00:00</time>
        <ele>2283.0</ele>
      </trkpt>
      <trkpt lat="45.27004" lon="6.92295">
        <time>1970-01-01T00:00:00+00:00</time>
        <ele>2284.0</ele>
      </trkpt>
      <trkpt lat="45.27004" lon="6.92295">
        <time>1970-01-01T00:00:00+00:00</time>
        <ele>2284.0</ele>
      </trkpt>
      <trkpt lat="45.27003" lon="6.92302">
        <time>1970-01-01T00:00:00+00:00</time>
        <ele>2285.0</ele>
      </trkpt>
      <trkpt lat="45.27003" lon="6.92302">
        <time>1970-01-01T00:00:00+00:00</time>
        <ele>2285.0</ele>
      </trkpt>
      <trkpt lat="45.27001" lon="6.92308">
        <time>1970-01-01T00:00:00+00:00</time>
        <ele>2285.0</ele>
      </trkpt>
      <trkpt lat="45.27001" lon="6.92308">
        <time>1970-01-01T00:00:00+00:00</time>
        <ele>2285.0</ele>
      </trkpt>
      <trkpt lat="45.26997" lon="6.92311">
        <time>1970-01-01T00:00:00+00:00</time>
        <ele>2287.0</ele>
      </trkpt>
      <trkpt lat="45.26997" lon="6.92311">
        <time>1970-01-01T00:00:00+00:00</time>
        <ele>2287.0</ele>
      </trkpt>
      <trkpt lat="45.26996" lon="6.92304">
        <time>1970-01-01T00:00:00+00:00</time>
        <ele>2288.0</ele>
      </trkpt>
      <trkpt lat="45.26996" lon="6.92304">
        <time>1970-01-01T00:00:00+00:00</time>
        <ele>2288.0</ele>
      </trkpt>
      <trkpt lat="45.26995" lon="6.92297">
        <time>1970-01-01T00:00:00+00:00</time>
        <ele>2288.0</ele>
      </trkpt>
      <trkpt lat="45.26995" lon="6.92297">
        <time>1970-01-01T00:00:00+00:00</time>
        <ele>2288.0</ele>
      </trkpt>
      <trkpt lat="45.26991" lon="6.92292">
        <time>1970-01-01T00:00:00+00:00</time>
        <ele>2290.0</ele>
      </trkpt>
      <trkpt lat="45.26991" lon="6.92292">
        <time>1970-01-01T00:00:00+00:00</time>
        <ele>2290.0</ele>
      </trkpt>
      <trkpt lat="45.26987" lon="6.92288">
        <time>1970-01-01T00:00:00+00:00</time>
        <ele>2291.0</ele>
      </trkpt>
      <trkpt lat="45.26987" lon="6.92288">
        <time>1970-01-01T00:00:00+00:00</time>
        <ele>2291.0</ele>
      </trkpt>
      <trkpt lat="45.26983" lon="6.92284">
        <time>1970-01-01T00:00:00+00:00</time>
        <ele>2293.0</ele>
      </trkpt>
      <trkpt lat="45.26983" lon="6.92284">
        <time>1970-01-01T00:00:00+00:00</time>
        <ele>2293.0</ele>
      </trkpt>
      <trkpt lat="45.2698" lon="6.92279">
        <time>1970-01-01T00:00:00+00:00</time>
        <ele>2294.0</ele>
      </trkpt>
      <trkpt lat="45.2698" lon="6.92279">
        <time>1970-01-01T00:00:00+00:00</time>
        <ele>2294.0</ele>
      </trkpt>
      <trkpt lat="45.26977" lon="6.92274">
        <time>1970-01-01T00:00:00+00:00</time>
        <ele>2295.0</ele>
      </trkpt>
      <trkpt lat="45.26977" lon="6.92274">
        <time>1970-01-01T00:00:00+00:00</time>
        <ele>2295.0</ele>
      </trkpt>
      <trkpt lat="45.26972" lon="6.92272">
        <time>1970-01-01T00:00:00+00:00</time>
        <ele>2298.0</ele>
      </trkpt>
      <trkpt lat="45.26972" lon="6.92272">
        <time>1970-01-01T00:00:00+00:00</time>
        <ele>2298.0</ele>
      </trkpt>
      <trkpt lat="45.2697" lon="6.92278">
        <time>1970-01-01T00:00:00+00:00</time>
        <ele>2299.0</ele>
      </trkpt>
      <trkpt lat="45.2697" lon="6.92278">
        <time>1970-01-01T00:00:00+00:00</time>
        <ele>2299.0</ele>
      </trkpt>
      <trkpt lat="45.26968" lon="6.92284">
        <time>1970-01-01T00:00:00+00:00</time>
        <ele>2300.0</ele>
      </trkpt>
      <trkpt lat="45.26968" lon="6.92284">
        <time>1970-01-01T00:00:00+00:00</time>
        <ele>2300.0</ele>
      </trkpt>
      <trkpt lat="45.26966" lon="6.9229">
        <time>1970-01-01T00:00:00+00:00</time>
        <ele>2301.0</ele>
      </trkpt>
      <trkpt lat="45.26966" lon="6.9229">
        <time>1970-01-01T00:00:00+00:00</time>
        <ele>2301.0</ele>
      </trkpt>
      <trkpt lat="45.26963" lon="6.92295">
        <time>1970-01-01T00:00:00+00:00</time>
        <ele>2303.0</ele>
      </trkpt>
      <trkpt lat="45.26963" lon="6.92295">
        <time>1970-01-01T00:00:00+00:00</time>
        <ele>2303.0</ele>
      </trkpt>
      <trkpt lat="45.26959" lon="6.923">
        <time>1970-01-01T00:00:00+00:00</time>
        <ele>2305.0</ele>
      </trkpt>
      <trkpt lat="45.26959" lon="6.923">
        <time>1970-01-01T00:00:00+00:00</time>
        <ele>2305.0</ele>
      </trkpt>
      <trkpt lat="45.26955" lon="6.92304">
        <time>1970-01-01T00:00:00+00:00</time>
        <ele>2307.0</ele>
      </trkpt>
      <trkpt lat="45.26955" lon="6.92304">
        <time>1970-01-01T00:00:00+00:00</time>
        <ele>2307.0</ele>
      </trkpt>
      <trkpt lat="45.26952" lon="6.92309">
        <time>1970-01-01T00:00:00+00:00</time>
        <ele>2308.0</ele>
      </trkpt>
      <trkpt lat="45.26952" lon="6.92309">
        <time>1970-01-01T00:00:00+00:00</time>
        <ele>2308.0</ele>
      </trkpt>
      <trkpt lat="45.26949" lon="6.92314">
        <time>1970-01-01T00:00:00+00:00</time>
        <ele>2309.0</ele>
      </trkpt>
      <trkpt lat="45.26949" lon="6.92314">
        <time>1970-01-01T00:00:00+00:00</time>
        <ele>2309.0</ele>
      </trkpt>
      <trkpt lat="45.26944" lon="6.92314">
        <time>1970-01-01T00:00:00+00:00</time>
        <ele>2312.0</ele>
      </trkpt>
      <trkpt lat="45.26944" lon="6.92314">
        <time>1970-01-01T00:00:00+00:00</time>
        <ele>2312.0</ele>
      </trkpt>
      <trkpt lat="45.2694" lon="6.9231">
        <time>1970-01-01T00:00:00+00:00</time>
        <ele>2314.0</ele>
      </trkpt>
      <trkpt lat="45.2694" lon="6.9231">
        <time>1970-01-01T00:00:00+00:00</time>
        <ele>2314.0</ele>
      </trkpt>
      <trkpt lat="45.26936" lon="6.92306">
        <time>1970-01-01T00:00:00+00:00</time>
        <ele>2315.0</ele>
      </trkpt>
      <trkpt lat="45.26936" lon="6.92306">
        <time>1970-01-01T00:00:00+00:00</time>
        <ele>2315.0</ele>
      </trkpt>
      <trkpt lat="45.26932" lon="6.92303">
        <time>1970-01-01T00:00:00+00:00</time>
        <ele>2316.0</ele>
      </trkpt>
      <trkpt lat="45.26932" lon="6.92303">
        <time>1970-01-01T00:00:00+00:00</time>
        <ele>2316.0</ele>
      </trkpt>
      <trkpt lat="45.26926" lon="6.92303">
        <time>1970-01-01T00:00:00+00:00</time>
        <ele>2318.0</ele>
      </trkpt>
      <trkpt lat="45.26926" lon="6.92303">
        <time>1970-01-01T00:00:00+00:00</time>
        <ele>2318.0</ele>
      </trkpt>
      <trkpt lat="45.2692" lon="6.92305">
        <time>1970-01-01T00:00:00+00:00</time>
        <ele>2320.0</ele>
      </trkpt>
      <trkpt lat="45.2692" lon="6.92305">
        <time>1970-01-01T00:00:00+00:00</time>
        <ele>2320.0</ele>
      </trkpt>
      <trkpt lat="45.26915" lon="6.92307">
        <time>1970-01-01T00:00:00+00:00</time>
        <ele>2322.0</ele>
      </trkpt>
      <trkpt lat="45.26915" lon="6.92307">
        <time>1970-01-01T00:00:00+00:00</time>
        <ele>2322.0</ele>
      </trkpt>
      <trkpt lat="45.2691" lon="6.9231">
        <time>1970-01-01T00:00:00+00:00</time>
        <ele>2324.0</ele>
      </trkpt>
      <trkpt lat="45.2691" lon="6.9231">
        <time>1970-01-01T00:00:00+00:00</time>
        <ele>2324.0</ele>
      </trkpt>
      <trkpt lat="45.26905" lon="6.92311">
        <time>1970-01-01T00:00:00+00:00</time>
        <ele>2325.0</ele>
      </trkpt>
      <trkpt lat="45.26905" lon="6.92311">
        <time>1970-01-01T00:00:00+00:00</time>
        <ele>2325.0</ele>
      </trkpt>
      <trkpt lat="45.269" lon="6.92314">
        <time>1970-01-01T00:00:00+00:00</time>
        <ele>2327.0</ele>
      </trkpt>
      <trkpt lat="45.269" lon="6.92314">
        <time>1970-01-01T00:00:00+00:00</time>
        <ele>2327.0</ele>
      </trkpt>
      <trkpt lat="45.26894" lon="6.92316">
        <time>1970-01-01T00:00:00+00:00</time>
        <ele>2329.0</ele>
      </trkpt>
      <trkpt lat="45.26894" lon="6.92316">
        <time>1970-01-01T00:00:00+00:00</time>
        <ele>2329.0</ele>
      </trkpt>
      <trkpt lat="45.2689" lon="6.92319">
        <time>1970-01-01T00:00:00+00:00</time>
        <ele>2330.0</ele>
      </trkpt>
      <trkpt lat="45.2689" lon="6.92319">
        <time>1970-01-01T00:00:00+00:00</time>
        <ele>2330.0</ele>
      </trkpt>
      <trkpt lat="45.26888" lon="6.92327">
        <time>1970-01-01T00:00:00+00:00</time>
        <ele>2331.0</ele>
      </trkpt>
      <trkpt lat="45.26888" lon="6.92327">
        <time>1970-01-01T00:00:00+00:00</time>
        <ele>2331.0</ele>
      </trkpt>
      <trkpt lat="45.26882" lon="6.9233">
        <time>1970-01-01T00:00:00+00:00</time>
        <ele>2333.0</ele>
      </trkpt>
      <trkpt lat="45.26882" lon="6.9233">
        <time>1970-01-01T00:00:00+00:00</time>
        <ele>2333.0</ele>
      </trkpt>
      <trkpt lat="45.26877" lon="6.92333">
        <time>1970-01-01T00:00:00+00:00</time>
        <ele>2335.0</ele>
      </trkpt>
      <trkpt lat="45.26877" lon="6.92333">
        <time>1970-01-01T00:00:00+00:00</time>
        <ele>2335.0</ele>
      </trkpt>
      <trkpt lat="45.26872" lon="6.92335">
        <time>1970-01-01T00:00:00+00:00</time>
        <ele>2337.0</ele>
      </trkpt>
      <trkpt lat="45.26872" lon="6.92335">
        <time>1970-01-01T00:00:00+00:00</time>
        <ele>2337.0</ele>
      </trkpt>
      <trkpt lat="45.26868" lon="6.92338">
        <time>1970-01-01T00:00:00+00:00</time>
        <ele>2338.0</ele>
      </trkpt>
      <trkpt lat="45.26868" lon="6.92338">
        <time>1970-01-01T00:00:00+00:00</time>
        <ele>2338.0</ele>
      </trkpt>
      <trkpt lat="45.26866" lon="6.92345">
        <time>1970-01-01T00:00:00+00:00</time>
        <ele>2339.0</ele>
      </trkpt>
      <trkpt lat="45.26866" lon="6.92345">
        <time>1970-01-01T00:00:00+00:00</time>
        <ele>2339.0</ele>
      </trkpt>
      <trkpt lat="45.26863" lon="6.9235">
        <time>1970-01-01T00:00:00+00:00</time>
        <ele>2340.0</ele>
      </trkpt>
      <trkpt lat="45.26863" lon="6.9235">
        <time>1970-01-01T00:00:00+00:00</time>
        <ele>2340.0</ele>
      </trkpt>
      <trkpt lat="45.26858" lon="6.92353">
        <time>1970-01-01T00:00:00+00:00</time>
        <ele>2341.0</ele>
      </trkpt>
      <trkpt lat="45.26858" lon="6.92353">
        <time>1970-01-01T00:00:00+00:00</time>
        <ele>2341.0</ele>
      </trkpt>
      <trkpt lat="45.26854" lon="6.92356">
        <time>1970-01-01T00:00:00+00:00</time>
        <ele>2343.0</ele>
      </trkpt>
      <trkpt lat="45.26854" lon="6.92356">
        <time>1970-01-01T00:00:00+00:00</time>
        <ele>2343.0</ele>
      </trkpt>
      <trkpt lat="45.2685" lon="6.92359">
        <time>1970-01-01T00:00:00+00:00</time>
        <ele>2344.0</ele>
      </trkpt>
      <trkpt lat="45.2685" lon="6.92359">
        <time>1970-01-01T00:00:00+00:00</time>
        <ele>2344.0</ele>
      </trkpt>
      <trkpt lat="45.26846" lon="6.92362">
        <time>1970-01-01T00:00:00+00:00</time>
        <ele>2345.0</ele>
      </trkpt>
      <trkpt lat="45.26846" lon="6.92362">
        <time>1970-01-01T00:00:00+00:00</time>
        <ele>2345.0</ele>
      </trkpt>
      <trkpt lat="45.26842" lon="6.92366">
        <time>1970-01-01T00:00:00+00:00</time>
        <ele>2346.0</ele>
      </trkpt>
      <trkpt lat="45.26842" lon="6.92366">
        <time>1970-01-01T00:00:00+00:00</time>
        <ele>2346.0</ele>
      </trkpt>
      <trkpt lat="45.26838" lon="6.92369">
        <time>1970-01-01T00:00:00+00:00</time>
        <ele>2347.0</ele>
      </trkpt>
      <trkpt lat="45.26838" lon="6.92369">
        <time>1970-01-01T00:00:00+00:00</time>
        <ele>2347.0</ele>
      </trkpt>
      <trkpt lat="45.26834" lon="6.92373">
        <time>1970-01-01T00:00:00+00:00</time>
        <ele>2348.0</ele>
      </trkpt>
      <trkpt lat="45.26834" lon="6.92373">
        <time>1970-01-01T00:00:00+00:00</time>
        <ele>2348.0</ele>
      </trkpt>
      <trkpt lat="45.26831" lon="6.92378">
        <time>1970-01-01T00:00:00+00:00</time>
        <ele>2349.0</ele>
      </trkpt>
      <trkpt lat="45.26831" lon="6.92378">
        <time>1970-01-01T00:00:00+00:00</time>
        <ele>2349.0</ele>
      </trkpt>
      <trkpt lat="45.26827" lon="6.92382">
        <time>1970-01-01T00:00:00+00:00</time>
        <ele>2351.0</ele>
      </trkpt>
      <trkpt lat="45.26827" lon="6.92382">
        <time>1970-01-01T00:00:00+00:00</time>
        <ele>2351.0</ele>
      </trkpt>
      <trkpt lat="45.26822" lon="6.92385">
        <time>1970-01-01T00:00:00+00:00</time>
        <ele>2352.0</ele>
      </trkpt>
      <trkpt lat="45.26822" lon="6.92385">
        <time>1970-01-01T00:00:00+00:00</time>
        <ele>2352.0</ele>
      </trkpt>
      <trkpt lat="45.26818" lon="6.9239">
        <time>1970-01-01T00:00:00+00:00</time>
        <ele>2353.0</ele>
      </trkpt>
      <trkpt lat="45.26818" lon="6.9239">
        <time>1970-01-01T00:00:00+00:00</time>
        <ele>2353.0</ele>
      </trkpt>
      <trkpt lat="45.26812" lon="6.92392">
        <time>1970-01-01T00:00:00+00:00</time>
        <ele>2355.0</ele>
      </trkpt>
      <trkpt lat="45.26812" lon="6.92392">
        <time>1970-01-01T00:00:00+00:00</time>
        <ele>2355.0</ele>
      </trkpt>
      <trkpt lat="45.26808" lon="6.92396">
        <time>1970-01-01T00:00:00+00:00</time>
        <ele>2356.0</ele>
      </trkpt>
      <trkpt lat="45.26808" lon="6.92396">
        <time>1970-01-01T00:00:00+00:00</time>
        <ele>2356.0</ele>
      </trkpt>
      <trkpt lat="45.26805" lon="6.92401">
        <time>1970-01-01T00:00:00+00:00</time>
        <ele>2357.0</ele>
      </trkpt>
      <trkpt lat="45.26805" lon="6.92401">
        <time>1970-01-01T00:00:00+00:00</time>
        <ele>2357.0</ele>
      </trkpt>
      <trkpt lat="45.268" lon="6.92404">
        <time>1970-01-01T00:00:00+00:00</time>
        <ele>2358.0</ele>
      </trkpt>
      <trkpt lat="45.268" lon="6.92404">
        <time>1970-01-01T00:00:00+00:00</time>
        <ele>2358.0</ele>
      </trkpt>
      <trkpt lat="45.26795" lon="6.92406">
        <time>1970-01-01T00:00:00+00:00</time>
        <ele>2360.0</ele>
      </trkpt>
      <trkpt lat="45.26795" lon="6.92406">
        <time>1970-01-01T00:00:00+00:00</time>
        <ele>2360.0</ele>
      </trkpt>
      <trkpt lat="45.2679" lon="6.92408">
        <time>1970-01-01T00:00:00+00:00</time>
        <ele>2361.0</ele>
      </trkpt>
      <trkpt lat="45.2679" lon="6.92408">
        <time>1970-01-01T00:00:00+00:00</time>
        <ele>2361.0</ele>
      </trkpt>
      <trkpt lat="45.26785" lon="6.92411">
        <time>1970-01-01T00:00:00+00:00</time>
        <ele>2363.0</ele>
      </trkpt>
      <trkpt lat="45.26785" lon="6.92411">
        <time>1970-01-01T00:00:00+00:00</time>
        <ele>2363.0</ele>
      </trkpt>
      <trkpt lat="45.2678" lon="6.92412">
        <time>1970-01-01T00:00:00+00:00</time>
        <ele>2364.0</ele>
      </trkpt>
      <trkpt lat="45.2678" lon="6.92412">
        <time>1970-01-01T00:00:00+00:00</time>
        <ele>2364.0</ele>
      </trkpt>
      <trkpt lat="45.26775" lon="6.92414">
        <time>1970-01-01T00:00:00+00:00</time>
        <ele>2365.0</ele>
      </trkpt>
      <trkpt lat="45.26775" lon="6.92414">
        <time>1970-01-01T00:00:00+00:00</time>
        <ele>2365.0</ele>
      </trkpt>
      <trkpt lat="45.26771" lon="6.92418">
        <time>1970-01-01T00:00:00+00:00</time>
        <ele>2366.0</ele>
      </trkpt>
      <trkpt lat="45.26771" lon="6.92418">
        <time>1970-01-01T00:00:00+00:00</time>
        <ele>2366.0</ele>
      </trkpt>
      <trkpt lat="45.26766" lon="6.92419">
        <time>1970-01-01T00:00:00+00:00</time>
        <ele>2367.0</ele>
      </trkpt>
      <trkpt lat="45.26766" lon="6.92419">
        <time>1970-01-01T00:00:00+00:00</time>
        <ele>2367.0</ele>
      </trkpt>
      <trkpt lat="45.26761" lon="6.92419">
        <time>1970-01-01T00:00:00+00:00</time>
        <ele>2369.0</ele>
      </trkpt>
      <trkpt lat="45.26761" lon="6.92419">
        <time>1970-01-01T00:00:00+00:00</time>
        <ele>2369.0</ele>
      </trkpt>
      <trkpt lat="45.26756" lon="6.92421">
        <time>1970-01-01T00:00:00+00:00</time>
        <ele>2370.0</ele>
      </trkpt>
      <trkpt lat="45.26756" lon="6.92421">
        <time>1970-01-01T00:00:00+00:00</time>
        <ele>2370.0</ele>
      </trkpt>
      <trkpt lat="45.26751" lon="6.92421">
        <time>1970-01-01T00:00:00+00:00</time>
        <ele>2371.0</ele>
      </trkpt>
      <trkpt lat="45.26751" lon="6.92421">
        <time>1970-01-01T00:00:00+00:00</time>
        <ele>2371.0</ele>
      </trkpt>
      <trkpt lat="45.26746" lon="6.92423">
        <time>1970-01-01T00:00:00+00:00</time>
        <ele>2373.0</ele>
      </trkpt>
      <trkpt lat="45.26746" lon="6.92423">
        <time>1970-01-01T00:00:00+00:00</time>
        <ele>2373.0</ele>
      </trkpt>
      <trkpt lat="45.26741" lon="6.92423">
        <time>1970-01-01T00:00:00+00:00</time>
        <ele>2375.0</ele>
      </trkpt>
      <trkpt lat="45.26741" lon="6.92423">
        <time>1970-01-01T00:00:00+00:00</time>
        <ele>2375.0</ele>
      </trkpt>
      <trkpt lat="45.26736" lon="6.92423">
        <time>1970-01-01T00:00:00+00:00</time>
        <ele>2377.0</ele>
      </trkpt>
      <trkpt lat="45.26736" lon="6.92423">
        <time>1970-01-01T00:00:00+00:00</time>
        <ele>2377.0</ele>
      </trkpt>
      <trkpt lat="45.26731" lon="6.92424">
        <time>1970-01-01T00:00:00+00:00</time>
        <ele>2379.0</ele>
      </trkpt>
      <trkpt lat="45.26731" lon="6.92424">
        <time>1970-01-01T00:00:00+00:00</time>
        <ele>2379.0</ele>
      </trkpt>
      <trkpt lat="45.26726" lon="6.92427">
        <time>1970-01-01T00:00:00+00:00</time>
        <ele>2381.0</ele>
      </trkpt>
      <trkpt lat="45.26726" lon="6.92427">
        <time>1970-01-01T00:00:00+00:00</time>
        <ele>2381.0</ele>
      </trkpt>
      <trkpt lat="45.26721" lon="6.92429">
        <time>1970-01-01T00:00:00+00:00</time>
        <ele>2383.0</ele>
      </trkpt>
      <trkpt lat="45.26721" lon="6.92429">
        <time>1970-01-01T00:00:00+00:00</time>
        <ele>2383.0</ele>
      </trkpt>
      <trkpt lat="45.26716" lon="6.92431">
        <time>1970-01-01T00:00:00+00:00</time>
        <ele>2385.0</ele>
      </trkpt>
      <trkpt lat="45.26716" lon="6.92431">
        <time>1970-01-01T00:00:00+00:00</time>
        <ele>2385.0</ele>
      </trkpt>
      <trkpt lat="45.26711" lon="6.92431">
        <time>1970-01-01T00:00:00+00:00</time>
        <ele>2386.0</ele>
      </trkpt>
      <trkpt lat="45.26711" lon="6.92431">
        <time>1970-01-01T00:00:00+00:00</time>
        <ele>2386.0</ele>
      </trkpt>
      <trkpt lat="45.26706" lon="6.92432">
        <time>1970-01-01T00:00:00+00:00</time>
        <ele>2388.0</ele>
      </trkpt>
      <trkpt lat="45.26706" lon="6.92432">
        <time>1970-01-01T00:00:00+00:00</time>
        <ele>2388.0</ele>
      </trkpt>
      <trkpt lat="45.26701" lon="6.92434">
        <time>1970-01-01T00:00:00+00:00</time>
        <ele>2390.0</ele>
      </trkpt>
      <trkpt lat="45.26701" lon="6.92434">
        <time>1970-01-01T00:00:00+00:00</time>
        <ele>2390.0</ele>
      </trkpt>
      <trkpt lat="45.26696" lon="6.92435">
        <time>1970-01-01T00:00:00+00:00</time>
        <ele>2392.0</ele>
      </trkpt>
      <trkpt lat="45.26696" lon="6.92435">
        <time>1970-01-01T00:00:00+00:00</time>
        <ele>2392.0</ele>
      </trkpt>
      <trkpt lat="45.26691" lon="6.92435">
        <time>1970-01-01T00:00:00+00:00</time>
        <ele>2394.0</ele>
      </trkpt>
      <trkpt lat="45.26691" lon="6.92435">
        <time>1970-01-01T00:00:00+00:00</time>
        <ele>2394.0</ele>
      </trkpt>
      <trkpt lat="45.26686" lon="6.92436">
        <time>1970-01-01T00:00:00+00:00</time>
        <ele>2396.0</ele>
      </trkpt>
      <trkpt lat="45.26686" lon="6.92436">
        <time>1970-01-01T00:00:00+00:00</time>
        <ele>2396.0</ele>
      </trkpt>
      <trkpt lat="45.26681" lon="6.92437">
        <time>1970-01-01T00:00:00+00:00</time>
        <ele>2399.0</ele>
      </trkpt>
      <trkpt lat="45.26681" lon="6.92437">
        <time>1970-01-01T00:00:00+00:00</time>
        <ele>2399.0</ele>
      </trkpt>
      <trkpt lat="45.26678" lon="6.92442">
        <time>1970-01-01T00:00:00+00:00</time>
        <ele>2401.0</ele>
      </trkpt>
      <trkpt lat="45.26678" lon="6.92442">
        <time>1970-01-01T00:00:00+00:00</time>
        <ele>2401.0</ele>
      </trkpt>
      <trkpt lat="45.26673" lon="6.92444">
        <time>1970-01-01T00:00:00+00:00</time>
        <ele>2403.0</ele>
      </trkpt>
      <trkpt lat="45.26673" lon="6.92444">
        <time>1970-01-01T00:00:00+00:00</time>
        <ele>2403.0</ele>
      </trkpt>
      <trkpt lat="45.26668" lon="6.92443">
        <time>1970-01-01T00:00:00+00:00</time>
        <ele>2404.0</ele>
      </trkpt>
      <trkpt lat="45.26668" lon="6.92443">
        <time>1970-01-01T00:00:00+00:00</time>
        <ele>2404.0</ele>
      </trkpt>
      <trkpt lat="45.26662" lon="6.92444">
        <time>1970-01-01T00:00:00+00:00</time>
        <ele>2406.0</ele>
      </trkpt>
      <trkpt lat="45.26662" lon="6.92444">
        <time>1970-01-01T00:00:00+00:00</time>
        <ele>2406.0</ele>
      </trkpt>
      <trkpt lat="45.26657" lon="6.92444">
        <time>1970-01-01T00:00:00+00:00</time>
        <ele>2407.0</ele>
      </trkpt>
      <trkpt lat="45.26657" lon="6.92444">
        <time>1970-01-01T00:00:00+00:00</time>
        <ele>2407.0</ele>
      </trkpt>
      <trkpt lat="45.26652" lon="6.92445">
        <time>1970-01-01T00:00:00+00:00</time>
        <ele>2408.0</ele>
      </trkpt>
      <trkpt lat="45.26652" lon="6.92445">
        <time>1970-01-01T00:00:00+00:00</time>
        <ele>2408.0</ele>
      </trkpt>
      <trkpt lat="45.26647" lon="6.92447">
        <time>1970-01-01T00:00:00+00:00</time>
        <ele>2409.0</ele>
      </trkpt>
      <trkpt lat="45.26647" lon="6.92447">
        <time>1970-01-01T00:00:00+00:00</time>
        <ele>2409.0</ele>
      </trkpt>
      <trkpt lat="45.26642" lon="6.92448">
        <time>1970-01-01T00:00:00+00:00</time>
        <ele>2410.0</ele>
      </trkpt>
      <trkpt lat="45.26642" lon="6.92448">
        <time>1970-01-01T00:00:00+00:00</time>
        <ele>2410.0</ele>
      </trkpt>
      <trkpt lat="45.26637" lon="6.9245">
        <time>1970-01-01T00:00:00+00:00</time>
        <ele>2411.0</ele>
      </trkpt>
      <trkpt lat="45.26637" lon="6.9245">
        <time>1970-01-01T00:00:00+00:00</time>
        <ele>2411.0</ele>
      </trkpt>
      <trkpt lat="45.26632" lon="6.92451">
        <time>1970-01-01T00:00:00+00:00</time>
        <ele>2413.0</ele>
      </trkpt>
      <trkpt lat="45.26632" lon="6.92451">
        <time>1970-01-01T00:00:00+00:00</time>
        <ele>2413.0</ele>
      </trkpt>
      <trkpt lat="45.26627" lon="6.92451">
        <time>1970-01-01T00:00:00+00:00</time>
        <ele>2414.0</ele>
      </trkpt>
      <trkpt lat="45.26627" lon="6.92451">
        <time>1970-01-01T00:00:00+00:00</time>
        <ele>2414.0</ele>
      </trkpt>
      <trkpt lat="45.26621" lon="6.92453">
        <time>1970-01-01T00:00:00+00:00</time>
        <ele>2415.0</ele>
      </trkpt>
      <trkpt lat="45.26621" lon="6.92453">
        <time>1970-01-01T00:00:00+00:00</time>
        <ele>2415.0</ele>
      </trkpt>
      <trkpt lat="45.26616" lon="6.92455">
        <time>1970-01-01T00:00:00+00:00</time>
        <ele>2417.0</ele>
      </trkpt>
      <trkpt lat="45.26616" lon="6.92455">
        <time>1970-01-01T00:00:00+00:00</time>
        <ele>2417.0</ele>
      </trkpt>
      <trkpt lat="45.26612" lon="6.92458">
        <time>1970-01-01T00:00:00+00:00</time>
        <ele>2419.0</ele>
      </trkpt>
      <trkpt lat="45.26612" lon="6.92458">
        <time>1970-01-01T00:00:00+00:00</time>
        <ele>2419.0</ele>
      </trkpt>
      <trkpt lat="45.26607" lon="6.92461">
        <time>1970-01-01T00:00:00+00:00</time>
        <ele>2421.0</ele>
      </trkpt>
      <trkpt lat="45.26607" lon="6.92461">
        <time>1970-01-01T00:00:00+00:00</time>
        <ele>2421.0</ele>
      </trkpt>
      <trkpt lat="45.26604" lon="6.92466">
        <time>1970-01-01T00:00:00+00:00</time>
        <ele>2422.0</ele>
      </trkpt>
      <trkpt lat="45.26604" lon="6.92466">
        <time>1970-01-01T00:00:00+00:00</time>
        <ele>2422.0</ele>
      </trkpt>
      <trkpt lat="45.266" lon="6.92469">
        <time>1970-01-01T00:00:00+00:00</time>
        <ele>2424.0</ele>
      </trkpt>
      <trkpt lat="45.266" lon="6.92469">
        <time>1970-01-01T00:00:00+00:00</time>
        <ele>2424.0</ele>
      </trkpt>
      <trkpt lat="45.26595" lon="6.92471">
        <time>1970-01-01T00:00:00+00:00</time>
        <ele>2425.0</ele>
      </trkpt>
      <trkpt lat="45.26595" lon="6.92471">
        <time>1970-01-01T00:00:00+00:00</time>
        <ele>2425.0</ele>
      </trkpt>
      <trkpt lat="45.2659" lon="6.92474">
        <time>1970-01-01T00:00:00+00:00</time>
        <ele>2427.0</ele>
      </trkpt>
      <trkpt lat="45.2659" lon="6.92474">
        <time>1970-01-01T00:00:00+00:00</time>
        <ele>2427.0</ele>
      </trkpt>
      <trkpt lat="45.26587" lon="6.92479">
        <time>1970-01-01T00:00:00+00:00</time>
        <ele>2428.0</ele>
      </trkpt>
      <trkpt lat="45.26587" lon="6.92479">
        <time>1970-01-01T00:00:00+00:00</time>
        <ele>2428.0</ele>
      </trkpt>
      <trkpt lat="45.26583" lon="6.92482">
        <time>1970-01-01T00:00:00+00:00</time>
        <ele>2430.0</ele>
      </trkpt>
      <trkpt lat="45.26583" lon="6.92482">
        <time>1970-01-01T00:00:00+00:00</time>
        <ele>2430.0</ele>
      </trkpt>
      <trkpt lat="45.2658" lon="6.92487">
        <time>1970-01-01T00:00:00+00:00</time>
        <ele>2431.0</ele>
      </trkpt>
      <trkpt lat="45.2658" lon="6.92487">
        <time>1970-01-01T00:00:00+00:00</time>
        <ele>2431.0</ele>
      </trkpt>
      <trkpt lat="45.26576" lon="6.9249">
        <time>1970-01-01T00:00:00+00:00</time>
        <ele>2433.0</ele>
      </trkpt>
      <trkpt lat="45.26576" lon="6.9249">
        <time>1970-01-01T00:00:00+00:00</time>
        <ele>2433.0</ele>
      </trkpt>
      <trkpt lat="45.26572" lon="6.92493">
        <time>1970-01-01T00:00:00+00:00</time>
        <ele>2434.0</ele>
      </trkpt>
      <trkpt lat="45.26572" lon="6.92493">
        <time>1970-01-01T00:00:00+00:00</time>
        <ele>2434.0</ele>
      </trkpt>
      <trkpt lat="45.26568" lon="6.92497">
        <time>1970-01-01T00:00:00+00:00</time>
        <ele>2435.0</ele>
      </trkpt>
      <trkpt lat="45.26568" lon="6.92497">
        <time>1970-01-01T00:00:00+00:00</time>
        <ele>2435.0</ele>
      </trkpt>
      <trkpt lat="45.26566" lon="6.92503">
        <time>1970-01-01T00:00:00+00:00</time>
        <ele>2437.0</ele>
      </trkpt>
      <trkpt lat="45.26566" lon="6.92503">
        <time>1970-01-01T00:00:00+00:00</time>
        <ele>2437.0</ele>
      </trkpt>
      <trkpt lat="45.26568" lon="6.92509">
        <time>1970-01-01T00:00:00+00:00</time>
        <ele>2437.0</ele>
      </trkpt>
      <trkpt lat="45.26568" lon="6.92509">
        <time>1970-01-01T00:00:00+00:00</time>
        <ele>2437.0</ele>
      </trkpt>
      <trkpt lat="45.26563" lon="6.92513">
        <time>1970-01-01T00:00:00+00:00</time>
        <ele>2438.0</ele>
      </trkpt>
      <trkpt lat="45.26563" lon="6.92513">
        <time>1970-01-01T00:00:00+00:00</time>
        <ele>2438.0</ele>
      </trkpt>
      <trkpt lat="45.26558" lon="6.92514">
        <time>1970-01-01T00:00:00+00:00</time>
        <ele>2440.0</ele>
      </trkpt>
      <trkpt lat="45.26558" lon="6.92514">
        <time>1970-01-01T00:00:00+00:00</time>
        <ele>2440.0</ele>
      </trkpt>
      <trkpt lat="45.26555" lon="6.92519">
        <time>1970-01-01T00:00:00+00:00</time>
        <ele>2441.0</ele>
      </trkpt>
      <trkpt lat="45.26555" lon="6.92519">
        <time>1970-01-01T00:00:00+00:00</time>
        <ele>2441.0</ele>
      </trkpt>
      <trkpt lat="45.26552" lon="6.92524">
        <time>1970-01-01T00:00:00+00:00</time>
        <ele>2442.0</ele>
      </trkpt>
      <trkpt lat="45.26552" lon="6.92524">
        <time>1970-01-01T00:00:00+00:00</time>
        <ele>2442.0</ele>
      </trkpt>
      <trkpt lat="45.26548" lon="6.92529">
        <time>1970-01-01T00:00:00+00:00</time>
        <ele>2444.0</ele>
      </trkpt>
      <trkpt lat="45.26548" lon="6.92529">
        <time>1970-01-01T00:00:00+00:00</time>
        <ele>2444.0</ele>
      </trkpt>
      <trkpt lat="45.26545" lon="6.92536">
        <time>1970-01-01T00:00:00+00:00</time>
        <ele>2446.0</ele>
      </trkpt>
      <trkpt lat="45.26545" lon="6.92536">
        <time>1970-01-01T00:00:00+00:00</time>
        <ele>2446.0</ele>
      </trkpt>
      <trkpt lat="45.26543" lon="6.92542">
        <time>1970-01-01T00:00:00+00:00</time>
        <ele>2447.0</ele>
      </trkpt>
      <trkpt lat="45.26543" lon="6.92542">
        <time>1970-01-01T00:00:00+00:00</time>
        <ele>2447.0</ele>
      </trkpt>
      <trkpt lat="45.2654" lon="6.92547">
        <time>1970-01-01T00:00:00+00:00</time>
        <ele>2449.0</ele>
      </trkpt>
      <trkpt lat="45.2654" lon="6.92547">
        <time>1970-01-01T00:00:00+00:00</time>
        <ele>2449.0</ele>
      </trkpt>
      <trkpt lat="45.26538" lon="6.92553">
        <time>1970-01-01T00:00:00+00:00</time>
        <ele>2452.0</ele>
      </trkpt>
      <trkpt lat="45.26538" lon="6.92553">
        <time>1970-01-01T00:00:00+00:00</time>
        <ele>2452.0</ele>
      </trkpt>
      <trkpt lat="45.26536" lon="6.92559">
        <time>1970-01-01T00:00:00+00:00</time>
        <ele>2454.0</ele>
      </trkpt>
      <trkpt lat="45.26536" lon="6.92559">
        <time>1970-01-01T00:00:00+00:00</time>
        <ele>2454.0</ele>
      </trkpt>
      <trkpt lat="45.26531" lon="6.92559">
        <time>1970-01-01T00:00:00+00:00</time>
        <ele>2456.0</ele>
      </trkpt>
      <trkpt lat="45.26531" lon="6.92559">
        <time>1970-01-01T00:00:00+00:00</time>
        <ele>2456.0</ele>
      </trkpt>
      <trkpt lat="45.26525" lon="6.92556">
        <time>1970-01-01T00:00:00+00:00</time>
        <ele>2458.0</ele>
      </trkpt>
      <trkpt lat="45.26525" lon="6.92556">
        <time>1970-01-01T00:00:00+00:00</time>
        <ele>2458.0</ele>
      </trkpt>
      <trkpt lat="45.2652" lon="6.92553">
        <time>1970-01-01T00:00:00+00:00</time>
        <ele>2459.0</ele>
      </trkpt>
      <trkpt lat="45.2652" lon="6.92553">
        <time>1970-01-01T00:00:00+00:00</time>
        <ele>2459.0</ele>
      </trkpt>
      <trkpt lat="45.26515" lon="6.92551">
        <time>1970-01-01T00:00:00+00:00</time>
        <ele>2461.0</ele>
      </trkpt>
      <trkpt lat="45.26515" lon="6.92551">
        <time>1970-01-01T00:00:00+00:00</time>
        <ele>2461.0</ele>
      </trkpt>
      <trkpt lat="45.2651" lon="6.9255">
        <time>1970-01-01T00:00:00+00:00</time>
        <ele>2462.0</ele>
      </trkpt>
      <trkpt lat="45.2651" lon="6.9255">
        <time>1970-01-01T00:00:00+00:00</time>
        <ele>2462.0</ele>
      </trkpt>
      <trkpt lat="45.26506" lon="6.92547">
        <time>1970-01-01T00:00:00+00:00</time>
        <ele>2464.0</ele>
      </trkpt>
      <trkpt lat="45.26506" lon="6.92547">
        <time>1970-01-01T00:00:00+00:00</time>
        <ele>2464.0</ele>
      </trkpt>
      <trkpt lat="45.26502" lon="6.92543">
        <time>1970-01-01T00:00:00+00:00</time>
        <ele>2465.0</ele>
      </trkpt>
      <trkpt lat="45.26502" lon="6.92543">
        <time>1970-01-01T00:00:00+00:00</time>
        <ele>2465.0</ele>
      </trkpt>
      <trkpt lat="45.26497" lon="6.92541">
        <time>1970-01-01T00:00:00+00:00</time>
        <ele>2468.0</ele>
      </trkpt>
      <trkpt lat="45.26497" lon="6.92541">
        <time>1970-01-01T00:00:00+00:00</time>
        <ele>2468.0</ele>
      </trkpt>
      <trkpt lat="45.26494" lon="6.92546">
        <time>1970-01-01T00:00:00+00:00</time>
        <ele>2470.0</ele>
      </trkpt>
      <trkpt lat="45.26494" lon="6.92546">
        <time>1970-01-01T00:00:00+00:00</time>
        <ele>2470.0</ele>
      </trkpt>
      <trkpt lat="45.26495" lon="6.92553">
        <time>1970-01-01T00:00:00+00:00</time>
        <ele>2470.0</ele>
      </trkpt>
      <trkpt lat="45.26495" lon="6.92553">
        <time>1970-01-01T00:00:00+00:00</time>
        <ele>2470.0</ele>
      </trkpt>
      <trkpt lat="45.26496" lon="6.9256">
        <time>1970-01-01T00:00:00+00:00</time>
        <ele>2472.0</ele>
      </trkpt>
      <trkpt lat="45.26496" lon="6.9256">
        <time>1970-01-01T00:00:00+00:00</time>
        <ele>2472.0</ele>
      </trkpt>
      <trkpt lat="45.26497" lon="6.92567">
        <time>1970-01-01T00:00:00+00:00</time>
        <ele>2473.0</ele>
      </trkpt>
      <trkpt lat="45.26497" lon="6.92567">
        <time>1970-01-01T00:00:00+00:00</time>
        <ele>2473.0</ele>
      </trkpt>
      <trkpt lat="45.26498" lon="6.92575">
        <time>1970-01-01T00:00:00+00:00</time>
        <ele>2474.0</ele>
      </trkpt>
      <trkpt lat="45.26498" lon="6.92575">
        <time>1970-01-01T00:00:00+00:00</time>
        <ele>2474.0</ele>
      </trkpt>
      <trkpt lat="45.26494" lon="6.92579">
        <time>1970-01-01T00:00:00+00:00</time>
        <ele>2477.0</ele>
      </trkpt>
      <trkpt lat="45.26494" lon="6.92579">
        <time>1970-01-01T00:00:00+00:00</time>
        <ele>2477.0</ele>
      </trkpt>
      <trkpt lat="45.26489" lon="6.92577">
        <time>1970-01-01T00:00:00+00:00</time>
        <ele>2479.0</ele>
      </trkpt>
      <trkpt lat="45.26489" lon="6.92577">
        <time>1970-01-01T00:00:00+00:00</time>
        <ele>2479.0</ele>
      </trkpt>
      <trkpt lat="45.26485" lon="6.92574">
        <time>1970-01-01T00:00:00+00:00</time>
        <ele>2480.0</ele>
      </trkpt>
      <trkpt lat="45.26485" lon="6.92574">
        <time>1970-01-01T00:00:00+00:00</time>
        <ele>2480.0</ele>
      </trkpt>
      <trkpt lat="45.26481" lon="6.92568">
        <time>1970-01-01T00:00:00+00:00</time>
        <ele>2481.0</ele>
      </trkpt>
      <trkpt lat="45.26481" lon="6.92568">
        <time>1970-01-01T00:00:00+00:00</time>
        <ele>2481.0</ele>
      </trkpt>
      <trkpt lat="45.26477" lon="6.92563">
        <time>1970-01-01T00:00:00+00:00</time>
        <ele>2483.0</ele>
      </trkpt>
      <trkpt lat="45.26477" lon="6.92563">
        <time>1970-01-01T00:00:00+00:00</time>
        <ele>2483.0</ele>
      </trkpt>
      <trkpt lat="45.26474" lon="6.92558">
        <time>1970-01-01T00:00:00+00:00</time>
        <ele>2484.0</ele>
      </trkpt>
      <trkpt lat="45.26474" lon="6.92558">
        <time>1970-01-01T00:00:00+00:00</time>
        <ele>2484.0</ele>
      </trkpt>
      <trkpt lat="45.2647" lon="6.92554">
        <time>1970-01-01T00:00:00+00:00</time>
        <ele>2486.0</ele>
      </trkpt>
      <trkpt lat="45.2647" lon="6.92554">
        <time>1970-01-01T00:00:00+00:00</time>
        <ele>2486.0</ele>
      </trkpt>
      <trkpt lat="45.26466" lon="6.9255">
        <time>1970-01-01T00:00:00+00:00</time>
        <ele>2489.0</ele>
      </trkpt>
      <trkpt lat="45.26466" lon="6.9255">
        <time>1970-01-01T00:00:00+00:00</time>
        <ele>2489.0</ele>
      </trkpt>
      <trkpt lat="45.26462" lon="6.92553">
        <time>1970-01-01T00:00:00+00:00</time>
        <ele>2492.0</ele>
      </trkpt>
      <trkpt lat="45.26462" lon="6.92553">
        <time>1970-01-01T00:00:00+00:00</time>
        <ele>2492.0</ele>
      </trkpt>
      <trkpt lat="45.2646" lon="6.92559">
        <time>1970-01-01T00:00:00+00:00</time>
        <ele>2495.0</ele>
      </trkpt>
      <trkpt lat="45.2646" lon="6.92559">
        <time>1970-01-01T00:00:00+00:00</time>
        <ele>2495.0</ele>
      </trkpt>
      <trkpt lat="45.26459" lon="6.92566">
        <time>1970-01-01T00:00:00+00:00</time>
        <ele>2497.0</ele>
      </trkpt>
      <trkpt lat="45.26459" lon="6.92566">
        <time>1970-01-01T00:00:00+00:00</time>
        <ele>2497.0</ele>
      </trkpt>
      <trkpt lat="45.26458" lon="6.92573">
        <time>1970-01-01T00:00:00+00:00</time>
        <ele>2498.0</ele>
      </trkpt>
      <trkpt lat="45.26458" lon="6.92573">
        <time>1970-01-01T00:00:00+00:00</time>
        <ele>2498.0</ele>
      </trkpt>
      <trkpt lat="45.26457" lon="6.9258">
        <time>1970-01-01T00:00:00+00:00</time>
        <ele>2500.0</ele>
      </trkpt>
      <trkpt lat="45.26457" lon="6.9258">
        <time>1970-01-01T00:00:00+00:00</time>
        <ele>2500.0</ele>
      </trkpt>
      <trkpt lat="45.26458" lon="6.92587">
        <time>1970-01-01T00:00:00+00:00</time>
        <ele>2501.0</ele>
      </trkpt>
      <trkpt lat="45.26458" lon="6.92587">
        <time>1970-01-01T00:00:00+00:00</time>
        <ele>2501.0</ele>
      </trkpt>
      <trkpt lat="45.26459" lon="6.92595">
        <time>1970-01-01T00:00:00+00:00</time>
        <ele>2502.0</ele>
      </trkpt>
      <trkpt lat="45.26459" lon="6.92595">
        <time>1970-01-01T00:00:00+00:00</time>
        <ele>2502.0</ele>
      </trkpt>
      <trkpt lat="45.26461" lon="6.92601">
        <time>1970-01-01T00:00:00+00:00</time>
        <ele>2501.0</ele>
      </trkpt>
      <trkpt lat="45.26461" lon="6.92601">
        <time>1970-01-01T00:00:00+00:00</time>
        <ele>2501.0</ele>
      </trkpt>
      <trkpt lat="45.26462" lon="6.92608">
        <time>1970-01-01T00:00:00+00:00</time>
        <ele>2502.0</ele>
      </trkpt>
      <trkpt lat="45.26462" lon="6.92608">
        <time>1970-01-01T00:00:00+00:00</time>
        <ele>2502.0</ele>
      </trkpt>
      <trkpt lat="45.26462" lon="6.92615">
        <time>1970-01-01T00:00:00+00:00</time>
        <ele>2503.0</ele>
      </trkpt>
      <trkpt lat="45.26462" lon="6.92615">
        <time>1970-01-01T00:00:00+00:00</time>
        <ele>2503.0</ele>
      </trkpt>
      <trkpt lat="45.26464" lon="6.92622">
        <time>1970-01-01T00:00:00+00:00</time>
        <ele>2503.0</ele>
      </trkpt>
      <trkpt lat="45.26464" lon="6.92622">
        <time>1970-01-01T00:00:00+00:00</time>
        <ele>2503.0</ele>
      </trkpt>
      <trkpt lat="45.26466" lon="6.92628">
        <time>1970-01-01T00:00:00+00:00</time>
        <ele>2503.0</ele>
      </trkpt>
      <trkpt lat="45.26466" lon="6.92628">
        <time>1970-01-01T00:00:00+00:00</time>
        <ele>2503.0</ele>
      </trkpt>
      <trkpt lat="45.26468" lon="6.92634">
        <time>1970-01-01T00:00:00+00:00</time>
        <ele>2503.0</ele>
      </trkpt>
      <trkpt lat="45.26468" lon="6.92634">
        <time>1970-01-01T00:00:00+00:00</time>
        <ele>2503.0</ele>
      </trkpt>
      <trkpt lat="45.26469" lon="6.92641">
        <time>1970-01-01T00:00:00+00:00</time>
        <ele>2504.0</ele>
      </trkpt>
      <trkpt lat="45.26469" lon="6.92641">
        <time>1970-01-01T00:00:00+00:00</time>
        <ele>2504.0</ele>
      </trkpt>
      <trkpt lat="45.2647" lon="6.92648">
        <time>1970-01-01T00:00:00+00:00</time>
        <ele>2505.0</ele>
      </trkpt>
      <trkpt lat="45.2647" lon="6.92648">
        <time>1970-01-01T00:00:00+00:00</time>
        <ele>2505.0</ele>
      </trkpt>
      <trkpt lat="45.26471" lon="6.92655">
        <time>1970-01-01T00:00:00+00:00</time>
        <ele>2506.0</ele>
      </trkpt>
      <trkpt lat="45.26471" lon="6.92655">
        <time>1970-01-01T00:00:00+00:00</time>
        <ele>2506.0</ele>
      </trkpt>
      <trkpt lat="45.26473" lon="6.92663">
        <time>1970-01-01T00:00:00+00:00</time>
        <ele>2506.0</ele>
      </trkpt>
      <trkpt lat="45.26473" lon="6.92663">
        <time>1970-01-01T00:00:00+00:00</time>
        <ele>2506.0</ele>
      </trkpt>
      <trkpt lat="45.26473" lon="6.9267">
        <time>1970-01-01T00:00:00+00:00</time>
        <ele>2507.0</ele>
      </trkpt>
      <trkpt lat="45.26473" lon="6.9267">
        <time>1970-01-01T00:00:00+00:00</time>
        <ele>2507.0</ele>
      </trkpt>
      <trkpt lat="45.26472" lon="6.92678">
        <time>1970-01-01T00:00:00+00:00</time>
        <ele>2508.0</ele>
      </trkpt>
      <trkpt lat="45.26472" lon="6.92678">
        <time>1970-01-01T00:00:00+00:00</time>
        <ele>2508.0</ele>
      </trkpt>
      <trkpt lat="45.26473" lon="6.92685">
        <time>1970-01-01T00:00:00+00:00</time>
        <ele>2508.0</ele>
      </trkpt>
      <trkpt lat="45.26473" lon="6.92685">
        <time>1970-01-01T00:00:00+00:00</time>
        <ele>2508.0</ele>
      </trkpt>
      <trkpt lat="45.26474" lon="6.92692">
        <time>1970-01-01T00:00:00+00:00</time>
        <ele>2509.0</ele>
      </trkpt>
      <trkpt lat="45.26474" lon="6.92692">
        <time>1970-01-01T00:00:00+00:00</time>
        <ele>2509.0</ele>
      </trkpt>
      <trkpt lat="45.26474" lon="6.92699">
        <time>1970-01-01T00:00:00+00:00</time>
        <ele>2511.0</ele>
      </trkpt>
      <trkpt lat="45.26474" lon="6.92699">
        <time>1970-01-01T00:00:00+00:00</time>
        <ele>2511.0</ele>
      </trkpt>
      <trkpt lat="45.26473" lon="6.92707">
        <time>1970-01-01T00:00:00+00:00</time>
        <ele>2513.0</ele>
      </trkpt>
      <trkpt lat="45.26473" lon="6.92707">
        <time>1970-01-01T00:00:00+00:00</time>
        <ele>2513.0</ele>
      </trkpt>
      <trkpt lat="45.26471" lon="6.92713">
        <time>1970-01-01T00:00:00+00:00</time>
        <ele>2515.0</ele>
      </trkpt>
      <trkpt lat="45.26471" lon="6.92713">
        <time>1970-01-01T00:00:00+00:00</time>
        <ele>2515.0</ele>
      </trkpt>
      <trkpt lat="45.26468" lon="6.92718">
        <time>1970-01-01T00:00:00+00:00</time>
        <ele>2517.0</ele>
      </trkpt>
      <trkpt lat="45.26468" lon="6.92718">
        <time>1970-01-01T00:00:00+00:00</time>
        <ele>2517.0</ele>
      </trkpt>
      <trkpt lat="45.26468" lon="6.92725">
        <time>1970-01-01T00:00:00+00:00</time>
        <ele>2519.0</ele>
      </trkpt>
      <trkpt lat="45.26468" lon="6.92725">
        <time>1970-01-01T00:00:00+00:00</time>
        <ele>2519.0</ele>
      </trkpt>
      <trkpt lat="45.2647" lon="6.92732">
        <time>1970-01-01T00:00:00+00:00</time>
        <ele>2519.0</ele>
      </trkpt>
      <trkpt lat="45.2647" lon="6.92732">
        <time>1970-01-01T00:00:00+00:00</time>
        <ele>2519.0</ele>
      </trkpt>
      <trkpt lat="45.2647" lon="6.92739">
        <time>1970-01-01T00:00:00+00:00</time>
        <ele>2520.0</ele>
      </trkpt>
      <trkpt lat="45.2647" lon="6.92739">
        <time>1970-01-01T00:00:00+00:00</time>
        <ele>2520.0</ele>
      </trkpt>
      <trkpt lat="45.26471" lon="6.92746">
        <time>1970-01-01T00:00:00+00:00</time>
        <ele>2521.0</ele>
      </trkpt>
      <trkpt lat="45.26471" lon="6.92746">
        <time>1970-01-01T00:00:00+00:00</time>
        <ele>2521.0</ele>
      </trkpt>
      <trkpt lat="45.26471" lon="6.92753">
        <time>1970-01-01T00:00:00+00:00</time>
        <ele>2521.0</ele>
      </trkpt>
      <trkpt lat="45.26471" lon="6.92753">
        <time>1970-01-01T00:00:00+00:00</time>
        <ele>2521.0</ele>
      </trkpt>
      <trkpt lat="45.2647" lon="6.9276">
        <time>1970-01-01T00:00:00+00:00</time>
        <ele>2523.0</ele>
      </trkpt>
      <trkpt lat="45.2647" lon="6.9276">
        <time>1970-01-01T00:00:00+00:00</time>
        <ele>2523.0</ele>
      </trkpt>
      <trkpt lat="45.2647" lon="6.92767">
        <time>1970-01-01T00:00:00+00:00</time>
        <ele>2524.0</ele>
      </trkpt>
      <trkpt lat="45.2647" lon="6.92767">
        <time>1970-01-01T00:00:00+00:00</time>
        <ele>2524.0</ele>
      </trkpt>
      <trkpt lat="45.26469" lon="6.92774">
        <time>1970-01-01T00:00:00+00:00</time>
        <ele>2525.0</ele>
      </trkpt>
      <trkpt lat="45.26469" lon="6.92774">
        <time>1970-01-01T00:00:00+00:00</time>
        <ele>2525.0</ele>
      </trkpt>
      <trkpt lat="45.26468" lon="6.92782">
        <time>1970-01-01T00:00:00+00:00</time>
        <ele>2526.0</ele>
      </trkpt>
      <trkpt lat="45.26468" lon="6.92782">
        <time>1970-01-01T00:00:00+00:00</time>
        <ele>2526.0</ele>
      </trkpt>
      <trkpt lat="45.26467" lon="6.92789">
        <time>1970-01-01T00:00:00+00:00</time>
        <ele>2527.0</ele>
      </trkpt>
      <trkpt lat="45.26467" lon="6.92789">
        <time>1970-01-01T00:00:00+00:00</time>
        <ele>2527.0</ele>
      </trkpt>
      <trkpt lat="45.26466" lon="6.92797">
        <time>1970-01-01T00:00:00+00:00</time>
        <ele>2528.0</ele>
      </trkpt>
      <trkpt lat="45.26466" lon="6.92797">
        <time>1970-01-01T00:00:00+00:00</time>
        <ele>2528.0</ele>
      </trkpt>
      <trkpt lat="45.26465" lon="6.92804">
        <time>1970-01-01T00:00:00+00:00</time>
        <ele>2529.0</ele>
      </trkpt>
      <trkpt lat="45.26465" lon="6.92804">
        <time>1970-01-01T00:00:00+00:00</time>
        <ele>2529.0</ele>
      </trkpt>
      <trkpt lat="45.26463" lon="6.9281">
        <time>1970-01-01T00:00:00+00:00</time>
        <ele>2531.0</ele>
      </trkpt>
      <trkpt lat="45.26463" lon="6.9281">
        <time>1970-01-01T00:00:00+00:00</time>
        <ele>2531.0</ele>
      </trkpt>
      <trkpt lat="45.26461" lon="6.92816">
        <time>1970-01-01T00:00:00+00:00</time>
        <ele>2533.0</ele>
      </trkpt>
      <trkpt lat="45.26461" lon="6.92816">
        <time>1970-01-01T00:00:00+00:00</time>
        <ele>2533.0</ele>
      </trkpt>
      <trkpt lat="45.26459" lon="6.92822">
        <time>1970-01-01T00:00:00+00:00</time>
        <ele>2535.0</ele>
      </trkpt>
      <trkpt lat="45.26459" lon="6.92822">
        <time>1970-01-01T00:00:00+00:00</time>
        <ele>2535.0</ele>
      </trkpt>
      <trkpt lat="45.26456" lon="6.92828">
        <time>1970-01-01T00:00:00+00:00</time>
        <ele>2537.0</ele>
      </trkpt>
      <trkpt lat="45.26456" lon="6.92828">
        <time>1970-01-01T00:00:00+00:00</time>
        <ele>2537.0</ele>
      </trkpt>
      <trkpt lat="45.26454" lon="6.92834">
        <time>1970-01-01T00:00:00+00:00</time>
        <ele>2538.0</ele>
      </trkpt>
      <trkpt lat="45.26454" lon="6.92834">
        <time>1970-01-01T00:00:00+00:00</time>
        <ele>2538.0</ele>
      </trkpt>
      <trkpt lat="45.26451" lon="6.92839">
        <time>1970-01-01T00:00:00+00:00</time>
        <ele>2540.0</ele>
      </trkpt>
      <trkpt lat="45.26451" lon="6.92839">
        <time>1970-01-01T00:00:00+00:00</time>
        <ele>2540.0</ele>
      </trkpt>
      <trkpt lat="45.26449" lon="6.92845">
        <time>1970-01-01T00:00:00+00:00</time>
        <ele>2542.0</ele>
      </trkpt>
      <trkpt lat="45.26449" lon="6.92845">
        <time>1970-01-01T00:00:00+00:00</time>
        <ele>2542.0</ele>
      </trkpt>
      <trkpt lat="45.26446" lon="6.9285">
        <time>1970-01-01T00:00:00+00:00</time>
        <ele>2544.0</ele>
      </trkpt>
      <trkpt lat="45.26446" lon="6.9285">
        <time>1970-01-01T00:00:00+00:00</time>
        <ele>2544.0</ele>
      </trkpt>
      <trkpt lat="45.26445" lon="6.92857">
        <time>1970-01-01T00:00:00+00:00</time>
        <ele>2544.0</ele>
      </trkpt>
      <trkpt lat="45.26445" lon="6.92857">
        <time>1970-01-01T00:00:00+00:00</time>
        <ele>2544.0</ele>
      </trkpt>
      <trkpt lat="45.26443" lon="6.92863">
        <time>1970-01-01T00:00:00+00:00</time>
        <ele>2545.0</ele>
      </trkpt>
      <trkpt lat="45.26443" lon="6.92863">
        <time>1970-01-01T00:00:00+00:00</time>
        <ele>2545.0</ele>
      </trkpt>
      <trkpt lat="45.26441" lon="6.92869">
        <time>1970-01-01T00:00:00+00:00</time>
        <ele>2546.0</ele>
      </trkpt>
      <trkpt lat="45.26441" lon="6.92869">
        <time>1970-01-01T00:00:00+00:00</time>
        <ele>2546.0</ele>
      </trkpt>
      <trkpt lat="45.26438" lon="6.92874">
        <time>1970-01-01T00:00:00+00:00</time>
        <ele>2547.0</ele>
      </trkpt>
      <trkpt lat="45.26438" lon="6.92874">
        <time>1970-01-01T00:00:00+00:00</time>
        <ele>2547.0</ele>
      </trkpt>
      <trkpt lat="45.26436" lon="6.9288">
        <time>1970-01-01T00:00:00+00:00</time>
        <ele>2547.0</ele>
      </trkpt>
      <trkpt lat="45.26436" lon="6.9288">
        <time>1970-01-01T00:00:00+00:00</time>
        <ele>2547.0</ele>
      </trkpt>
      <trkpt lat="45.26434" lon="6.92886">
        <time>1970-01-01T00:00:00+00:00</time>
        <ele>2547.0</ele>
      </trkpt>
      <trkpt lat="45.26434" lon="6.92886">
        <time>1970-01-01T00:00:00+00:00</time>
        <ele>2547.0</ele>
      </trkpt>
      <trkpt lat="45.2643" lon="6.9289">
        <time>1970-01-01T00:00:00+00:00</time>
        <ele>2548.0</ele>
      </trkpt>
      <trkpt lat="45.2643" lon="6.9289">
        <time>1970-01-01T00:00:00+00:00</time>
        <ele>2548.0</ele>
      </trkpt>
      <trkpt lat="45.26427" lon="6.92896">
        <time>1970-01-01T00:00:00+00:00</time>
        <ele>2548.0</ele>
      </trkpt>
      <trkpt lat="45.26427" lon="6.92896">
        <time>1970-01-01T00:00:00+00:00</time>
        <ele>2548.0</ele>
      </trkpt>
      <trkpt lat="45.26424" lon="6.92901">
        <time>1970-01-01T00:00:00+00:00</time>
        <ele>2549.0</ele>
      </trkpt>
      <trkpt lat="45.26424" lon="6.92901">
        <time>1970-01-01T00:00:00+00:00</time>
        <ele>2549.0</ele>
      </trkpt>
      <trkpt lat="45.26421" lon="6.92906">
        <time>1970-01-01T00:00:00+00:00</time>
        <ele>2550.0</ele>
      </trkpt>
      <trkpt lat="45.26421" lon="6.92906">
        <time>1970-01-01T00:00:00+00:00</time>
        <ele>2550.0</ele>
      </trkpt>
      <trkpt lat="45.26419" lon="6.92912">
        <time>1970-01-01T00:00:00+00:00</time>
        <ele>2550.0</ele>
      </trkpt>
      <trkpt lat="45.26419" lon="6.92912">
        <time>1970-01-01T00:00:00+00:00</time>
        <ele>2550.0</ele>
      </trkpt>
      <trkpt lat="45.26414" lon="6.92915">
        <time>1970-01-01T00:00:00+00:00</time>
        <ele>2552.0</ele>
      </trkpt>
      <trkpt lat="45.26414" lon="6.92915">
        <time>1970-01-01T00:00:00+00:00</time>
        <ele>2552.0</ele>
      </trkpt>
      <trkpt lat="45.26413" lon="6.92908">
        <time>1970-01-01T00:00:00+00:00</time>
        <ele>2553.0</ele>
      </trkpt>
      <trkpt lat="45.26413" lon="6.92908">
        <time>1970-01-01T00:00:00+00:00</time>
        <ele>2553.0</ele>
      </trkpt>
      <trkpt lat="45.26413" lon="6.92901">
        <time>1970-01-01T00:00:00+00:00</time>
        <ele>2553.0</ele>
      </trkpt>
      <trkpt lat="45.26413" lon="6.92901">
        <time>1970-01-01T00:00:00+00:00</time>
        <ele>2553.0</ele>
      </trkpt>
      <trkpt lat="45.26412" lon="6.92894">
        <time>1970-01-01T00:00:00+00:00</time>
        <ele>2554.0</ele>
      </trkpt>
      <trkpt lat="45.26412" lon="6.92894">
        <time>1970-01-01T00:00:00+00:00</time>
        <ele>2554.0</ele>
      </trkpt>
      <trkpt lat="45.2641" lon="6.92887">
        <time>1970-01-01T00:00:00+00:00</time>
        <ele>2556.0</ele>
      </trkpt>
      <trkpt lat="45.2641" lon="6.92887">
        <time>1970-01-01T00:00:00+00:00</time>
        <ele>2556.0</ele>
      </trkpt>
      <trkpt lat="45.26407" lon="6.9288">
        <time>1970-01-01T00:00:00+00:00</time>
        <ele>2558.0</ele>
      </trkpt>
      <trkpt lat="45.26407" lon="6.9288">
        <time>1970-01-01T00:00:00+00:00</time>
        <ele>2558.0</ele>
      </trkpt>
      <trkpt lat="45.26404" lon="6.92875">
        <time>1970-01-01T00:00:00+00:00</time>
        <ele>2560.0</ele>
      </trkpt>
      <trkpt lat="45.26404" lon="6.92875">
        <time>1970-01-01T00:00:00+00:00</time>
        <ele>2560.0</ele>
      </trkpt>
      <trkpt lat="45.26401" lon="6.9287">
        <time>1970-01-01T00:00:00+00:00</time>
        <ele>2563.0</ele>
      </trkpt>
      <trkpt lat="45.26401" lon="6.9287">
        <time>1970-01-01T00:00:00+00:00</time>
        <ele>2563.0</ele>
      </trkpt>
      <trkpt lat="45.26398" lon="6.92864">
        <time>1970-01-01T00:00:00+00:00</time>
        <ele>2566.0</ele>
      </trkpt>
      <trkpt lat="45.26398" lon="6.92864">
        <time>1970-01-01T00:00:00+00:00</time>
        <ele>2566.0</ele>
      </trkpt>
      <trkpt lat="45.26395" lon="6.92859">
        <time>1970-01-01T00:00:00+00:00</time>
        <ele>2568.0</ele>
      </trkpt>
      <trkpt lat="45.26395" lon="6.92859">
        <time>1970-01-01T00:00:00+00:00</time>
        <ele>2568.0</ele>
      </trkpt>
      <trkpt lat="45.26394" lon="6.92852">
        <time>1970-01-01T00:00:00+00:00</time>
        <ele>2569.0</ele>
      </trkpt>
      <trkpt lat="45.26394" lon="6.92852">
        <time>1970-01-01T00:00:00+00:00</time>
        <ele>2569.0</ele>
      </trkpt>
      <trkpt lat="45.26393" lon="6.92845">
        <time>1970-01-01T00:00:00+00:00</time>
        <ele>2570.0</ele>
      </trkpt>
      <trkpt lat="45.26393" lon="6.92845">
        <time>1970-01-01T00:00:00+00:00</time>
        <ele>2570.0</ele>
      </trkpt>
      <trkpt lat="45.26391" lon="6.92838">
        <time>1970-01-01T00:00:00+00:00</time>
        <ele>2572.0</ele>
      </trkpt>
      <trkpt lat="45.26391" lon="6.92838">
        <time>1970-01-01T00:00:00+00:00</time>
        <ele>2572.0</ele>
      </trkpt>
      <trkpt lat="45.2639" lon="6.92831">
        <time>1970-01-01T00:00:00+00:00</time>
        <ele>2573.0</ele>
      </trkpt>
      <trkpt lat="45.2639" lon="6.92831">
        <time>1970-01-01T00:00:00+00:00</time>
        <ele>2573.0</ele>
      </trkpt>
      <trkpt lat="45.26389" lon="6.92824">
        <time>1970-01-01T00:00:00+00:00</time>
        <ele>2574.0</ele>
      </trkpt>
      <trkpt lat="45.26389" lon="6.92824">
        <time>1970-01-01T00:00:00+00:00</time>
        <ele>2574.0</ele>
      </trkpt>
      <trkpt lat="45.26389" lon="6.92817">
        <time>1970-01-01T00:00:00+00:00</time>
        <ele>2575.0</ele>
      </trkpt>
      <trkpt lat="45.26389" lon="6.92817">
        <time>1970-01-01T00:00:00+00:00</time>
        <ele>2575.0</ele>
      </trkpt>
      <trkpt lat="45.2639" lon="6.9281">
        <time>1970-01-01T00:00:00+00:00</time>
        <ele>2575.0</ele>
      </trkpt>
      <trkpt lat="45.2639" lon="6.9281">
        <time>1970-01-01T00:00:00+00:00</time>
        <ele>2575.0</ele>
      </trkpt>
      <trkpt lat="45.2639" lon="6.92802">
        <time>1970-01-01T00:00:00+00:00</time>
        <ele>2577.0</ele>
      </trkpt>
      <trkpt lat="45.2639" lon="6.92802">
        <time>1970-01-01T00:00:00+00:00</time>
        <ele>2577.0</ele>
      </trkpt>
      <trkpt lat="45.26388" lon="6.92796">
        <time>1970-01-01T00:00:00+00:00</time>
        <ele>2579.0</ele>
      </trkpt>
      <trkpt lat="45.26388" lon="6.92796">
        <time>1970-01-01T00:00:00+00:00</time>
        <ele>2579.0</ele>
      </trkpt>
      <trkpt lat="45.26388" lon="6.92789">
        <time>1970-01-01T00:00:00+00:00</time>
        <ele>2580.0</ele>
      </trkpt>
      <trkpt lat="45.26388" lon="6.92789">
        <time>1970-01-01T00:00:00+00:00</time>
        <ele>2580.0</ele>
      </trkpt>
      <trkpt lat="45.26388" lon="6.92782">
        <time>1970-01-01T00:00:00+00:00</time>
        <ele>2580.0</ele>
      </trkpt>
      <trkpt lat="45.26388" lon="6.92782">
        <time>1970-01-01T00:00:00+00:00</time>
        <ele>2580.0</ele>
      </trkpt>
      <trkpt lat="45.26387" lon="6.92775">
        <time>1970-01-01T00:00:00+00:00</time>
        <ele>2582.0</ele>
      </trkpt>
      <trkpt lat="45.26387" lon="6.92775">
        <time>1970-01-01T00:00:00+00:00</time>
        <ele>2582.0</ele>
      </trkpt>
      <trkpt lat="45.26385" lon="6.92769">
        <time>1970-01-01T00:00:00+00:00</time>
        <ele>2584.0</ele>
      </trkpt>
      <trkpt lat="45.26385" lon="6.92769">
        <time>1970-01-01T00:00:00+00:00</time>
        <ele>2584.0</ele>
      </trkpt>
      <trkpt lat="45.26383" lon="6.92763">
        <time>1970-01-01T00:00:00+00:00</time>
        <ele>2586.0</ele>
      </trkpt>
      <trkpt lat="45.26383" lon="6.92763">
        <time>1970-01-01T00:00:00+00:00</time>
        <ele>2586.0</ele>
      </trkpt>
      <trkpt lat="45.26381" lon="6.92757">
        <time>1970-01-01T00:00:00+00:00</time>
        <ele>2587.0</ele>
      </trkpt>
      <trkpt lat="45.26381" lon="6.92757">
        <time>1970-01-01T00:00:00+00:00</time>
        <ele>2587.0</ele>
      </trkpt>
      <trkpt lat="45.26379" lon="6.9275">
        <time>1970-01-01T00:00:00+00:00</time>
        <ele>2588.0</ele>
      </trkpt>
      <trkpt lat="45.26379" lon="6.9275">
        <time>1970-01-01T00:00:00+00:00</time>
        <ele>2588.0</ele>
      </trkpt>
      <trkpt lat="45.26376" lon="6.92744">
        <time>1970-01-01T00:00:00+00:00</time>
        <ele>2589.0</ele>
      </trkpt>
      <trkpt lat="45.26376" lon="6.92744">
        <time>1970-01-01T00:00:00+00:00</time>
        <ele>2589.0</ele>
      </trkpt>
      <trkpt lat="45.26373" lon="6.92738">
        <time>1970-01-01T00:00:00+00:00</time>
        <ele>2591.0</ele>
      </trkpt>
      <trkpt lat="45.26373" lon="6.92738">
        <time>1970-01-01T00:00:00+00:00</time>
        <ele>2591.0</ele>
      </trkpt>
      <trkpt lat="45.2637" lon="6.92733">
        <time>1970-01-01T00:00:00+00:00</time>
        <ele>2592.0</ele>
      </trkpt>
      <trkpt lat="45.2637" lon="6.92733">
        <time>1970-01-01T00:00:00+00:00</time>
        <ele>2592.0</ele>
      </trkpt>
      <trkpt lat="45.26367" lon="6.92728">
        <time>1970-01-01T00:00:00+00:00</time>
        <ele>2592.0</ele>
      </trkpt>
      <trkpt lat="45.26367" lon="6.92728">
        <time>1970-01-01T00:00:00+00:00</time>
        <ele>2592.0</ele>
      </trkpt>
      <trkpt lat="45.26364" lon="6.92723">
        <time>1970-01-01T00:00:00+00:00</time>
        <ele>2593.0</ele>
      </trkpt>
      <trkpt lat="45.26364" lon="6.92723">
        <time>1970-01-01T00:00:00+00:00</time>
        <ele>2593.0</ele>
      </trkpt>
      <trkpt lat="45.26361" lon="6.92718">
        <time>1970-01-01T00:00:00+00:00</time>
        <ele>2593.0</ele>
      </trkpt>
      <trkpt lat="45.26361" lon="6.92718">
        <time>1970-01-01T00:00:00+00:00</time>
        <ele>2593.0</ele>
      </trkpt>
      <trkpt lat="45.26358" lon="6.92713">
        <time>1970-01-01T00:00:00+00:00</time>
        <ele>2594.0</ele>
      </trkpt>
      <trkpt lat="45.26358" lon="6.92713">
        <time>1970-01-01T00:00:00+00:00</time>
        <ele>2594.0</ele>
      </trkpt>
      <trkpt lat="45.26354" lon="6.92707">
        <time>1970-01-01T00:00:00+00:00</time>
        <ele>2594.0</ele>
      </trkpt>
      <trkpt lat="45.26354" lon="6.92707">
        <time>1970-01-01T00:00:00+00:00</time>
        <ele>2594.0</ele>
      </trkpt>
      <trkpt lat="45.2635" lon="6.92703">
        <time>1970-01-01T00:00:00+00:00</time>
        <ele>2595.0</ele>
      </trkpt>
      <trkpt lat="45.2635" lon="6.92703">
        <time>1970-01-01T00:00:00+00:00</time>
        <ele>2595.0</ele>
      </trkpt>
      <trkpt lat="45.26345" lon="6.92702">
        <time>1970-01-01T00:00:00+00:00</time>
        <ele>2597.0</ele>
      </trkpt>
      <trkpt lat="45.26345" lon="6.92702">
        <time>1970-01-01T00:00:00+00:00</time>
        <ele>2597.0</ele>
      </trkpt>
      <trkpt lat="45.26341" lon="6.92698">
        <time>1970-01-01T00:00:00+00:00</time>
        <ele>2597.0</ele>
      </trkpt>
      <trkpt lat="45.26341" lon="6.92698">
        <time>1970-01-01T00:00:00+00:00</time>
        <ele>2597.0</ele>
      </trkpt>
      <trkpt lat="45.26336" lon="6.92696">
        <time>1970-01-01T00:00:00+00:00</time>
        <ele>2598.0</ele>
      </trkpt>
      <trkpt lat="45.26336" lon="6.92696">
        <time>1970-01-01T00:00:00+00:00</time>
        <ele>2598.0</ele>
      </trkpt>
      <trkpt lat="45.26331" lon="6.92694">
        <time>1970-01-01T00:00:00+00:00</time>
        <ele>2599.0</ele>
      </trkpt>
      <trkpt lat="45.26331" lon="6.92694">
        <time>1970-01-01T00:00:00+00:00</time>
        <ele>2599.0</ele>
      </trkpt>
      <trkpt lat="45.26326" lon="6.92693">
        <time>1970-01-01T00:00:00+00:00</time>
        <ele>2600.0</ele>
      </trkpt>
      <trkpt lat="45.26326" lon="6.92693">
        <time>1970-01-01T00:00:00+00:00</time>
        <ele>2600.0</ele>
      </trkpt>
      <trkpt lat="45.26321" lon="6.92694">
        <time>1970-01-01T00:00:00+00:00</time>
        <ele>2602.0</ele>
      </trkpt>
      <trkpt lat="45.26321" lon="6.92694">
        <time>1970-01-01T00:00:00+00:00</time>
        <ele>2602.0</ele>
      </trkpt>
      <trkpt lat="45.26317" lon="6.92697">
        <time>1970-01-01T00:00:00+00:00</time>
        <ele>2603.0</ele>
      </trkpt>
      <trkpt lat="45.26317" lon="6.92697">
        <time>1970-01-01T00:00:00+00:00</time>
        <ele>2603.0</ele>
      </trkpt>
      <trkpt lat="45.26313" lon="6.927">
        <time>1970-01-01T00:00:00+00:00</time>
        <ele>2605.0</ele>
      </trkpt>
      <trkpt lat="45.26313" lon="6.927">
        <time>1970-01-01T00:00:00+00:00</time>
        <ele>2605.0</ele>
      </trkpt>
      <trkpt lat="45.26309" lon="6.92705">
        <time>1970-01-01T00:00:00+00:00</time>
        <ele>2607.0</ele>
      </trkpt>
      <trkpt lat="45.26309" lon="6.92705">
        <time>1970-01-01T00:00:00+00:00</time>
        <ele>2607.0</ele>
      </trkpt>
      <trkpt lat="45.26305" lon="6.92709">
        <time>1970-01-01T00:00:00+00:00</time>
        <ele>2609.0</ele>
      </trkpt>
      <trkpt lat="45.26305" lon="6.92709">
        <time>1970-01-01T00:00:00+00:00</time>
        <ele>2609.0</ele>
      </trkpt>
      <trkpt lat="45.26301" lon="6.92712">
        <time>1970-01-01T00:00:00+00:00</time>
        <ele>2611.0</ele>
      </trkpt>
      <trkpt lat="45.26301" lon="6.92712">
        <time>1970-01-01T00:00:00+00:00</time>
        <ele>2611.0</ele>
      </trkpt>
      <trkpt lat="45.26299" lon="6.92718">
        <time>1970-01-01T00:00:00+00:00</time>
        <ele>2613.0</ele>
      </trkpt>
      <trkpt lat="45.26299" lon="6.92718">
        <time>1970-01-01T00:00:00+00:00</time>
        <ele>2613.0</ele>
      </trkpt>
      <trkpt lat="45.26294" lon="6.9272">
        <time>1970-01-01T00:00:00+00:00</time>
        <ele>2615.0</ele>
      </trkpt>
      <trkpt lat="45.26294" lon="6.9272">
        <time>1970-01-01T00:00:00+00:00</time>
        <ele>2615.0</ele>
      </trkpt>
      <trkpt lat="45.26289" lon="6.92721">
        <time>1970-01-01T00:00:00+00:00</time>
        <ele>2616.0</ele>
      </trkpt>
      <trkpt lat="45.26289" lon="6.92721">
        <time>1970-01-01T00:00:00+00:00</time>
        <ele>2616.0</ele>
      </trkpt>
      <trkpt lat="45.26285" lon="6.92724">
        <time>1970-01-01T00:00:00+00:00</time>
        <ele>2618.0</ele>
      </trkpt>
      <trkpt lat="45.26285" lon="6.92724">
        <time>1970-01-01T00:00:00+00:00</time>
        <ele>2618.0</ele>
      </trkpt>
      <trkpt lat="45.2628" lon="6.92726">
        <time>1970-01-01T00:00:00+00:00</time>
        <ele>2620.0</ele>
      </trkpt>
      <trkpt lat="45.2628" lon="6.92726">
        <time>1970-01-01T00:00:00+00:00</time>
        <ele>2620.0</ele>
      </trkpt>
      <trkpt lat="45.26276" lon="6.92729">
        <time>1970-01-01T00:00:00+00:00</time>
        <ele>2622.0</ele>
      </trkpt>
      <trkpt lat="45.26276" lon="6.92729">
        <time>1970-01-01T00:00:00+00:00</time>
        <ele>2622.0</ele>
      </trkpt>
      <trkpt lat="45.26272" lon="6.92732">
        <time>1970-01-01T00:00:00+00:00</time>
        <ele>2624.0</ele>
      </trkpt>
      <trkpt lat="45.26272" lon="6.92732">
        <time>1970-01-01T00:00:00+00:00</time>
        <ele>2624.0</ele>
      </trkpt>
      <trkpt lat="45.26268" lon="6.92735">
        <time>1970-01-01T00:00:00+00:00</time>
        <ele>2625.0</ele>
      </trkpt>
      <trkpt lat="45.26268" lon="6.92735">
        <time>1970-01-01T00:00:00+00:00</time>
        <ele>2625.0</ele>
      </trkpt>
      <trkpt lat="45.26263" lon="6.92737">
        <time>1970-01-01T00:00:00+00:00</time>
        <ele>2627.0</ele>
      </trkpt>
      <trkpt lat="45.26263" lon="6.92737">
        <time>1970-01-01T00:00:00+00:00</time>
        <ele>2627.0</ele>
      </trkpt>
      <trkpt lat="45.26259" lon="6.92742">
        <time>1970-01-01T00:00:00+00:00</time>
        <ele>2630.0</ele>
      </trkpt>
      <trkpt lat="45.26259" lon="6.92742">
        <time>1970-01-01T00:00:00+00:00</time>
        <ele>2630.0</ele>
      </trkpt>
      <trkpt lat="45.26254" lon="6.92744">
        <time>1970-01-01T00:00:00+00:00</time>
        <ele>2632.0</ele>
      </trkpt>
      <trkpt lat="45.26254" lon="6.92744">
        <time>1970-01-01T00:00:00+00:00</time>
        <ele>2632.0</ele>
      </trkpt>
      <trkpt lat="45.26249" lon="6.92746">
        <time>1970-01-01T00:00:00+00:00</time>
        <ele>2634.0</ele>
      </trkpt>
      <trkpt lat="45.26249" lon="6.92746">
        <time>1970-01-01T00:00:00+00:00</time>
        <ele>2634.0</ele>
      </trkpt>
      <trkpt lat="45.26245" lon="6.92749">
        <time>1970-01-01T00:00:00+00:00</time>
        <ele>2635.0</ele>
      </trkpt>
      <trkpt lat="45.26245" lon="6.92749">
        <time>1970-01-01T00:00:00+00:00</time>
        <ele>2635.0</ele>
      </trkpt>
      <trkpt lat="45.2624" lon="6.92751">
        <time>1970-01-01T00:00:00+00:00</time>
        <ele>2637.0</ele>
      </trkpt>
      <trkpt lat="45.2624" lon="6.92751">
        <time>1970-01-01T00:00:00+00:00</time>
        <ele>2637.0</ele>
      </trkpt>
      <trkpt lat="45.26235" lon="6.92752">
        <time>1970-01-01T00:00:00+00:00</time>
        <ele>2639.0</ele>
      </trkpt>
      <trkpt lat="45.26235" lon="6.92752">
        <time>1970-01-01T00:00:00+00:00</time>
        <ele>2639.0</ele>
      </trkpt>
      <trkpt lat="45.26231" lon="6.92755">
        <time>1970-01-01T00:00:00+00:00</time>
        <ele>2640.0</ele>
      </trkpt>
      <trkpt lat="45.26231" lon="6.92755">
        <time>1970-01-01T00:00:00+00:00</time>
        <ele>2640.0</ele>
      </trkpt>
      <trkpt lat="45.26228" lon="6.9276">
        <time>1970-01-01T00:00:00+00:00</time>
        <ele>2641.0</ele>
      </trkpt>
      <trkpt lat="45.26228" lon="6.9276">
        <time>1970-01-01T00:00:00+00:00</time>
        <ele>2641.0</ele>
      </trkpt>
      <trkpt lat="45.26224" lon="6.92763">
        <time>1970-01-01T00:00:00+00:00</time>
        <ele>2642.0</ele>
      </trkpt>
      <trkpt lat="45.26224" lon="6.92763">
        <time>1970-01-01T00:00:00+00:00</time>
        <ele>2642.0</ele>
      </trkpt>
      <trkpt lat="45.26219" lon="6.92764">
        <time>1970-01-01T00:00:00+00:00</time>
        <ele>2643.0</ele>
      </trkpt>
      <trkpt lat="45.26219" lon="6.92764">
        <time>1970-01-01T00:00:00+00:00</time>
        <ele>2643.0</ele>
      </trkpt>
      <trkpt lat="45.26214" lon="6.92766">
        <time>1970-01-01T00:00:00+00:00</time>
        <ele>2644.0</ele>
      </trkpt>
      <trkpt lat="45.26214" lon="6.92766">
        <time>1970-01-01T00:00:00+00:00</time>
        <ele>2644.0</ele>
      </trkpt>
      <trkpt lat="45.26209" lon="6.92769">
        <time>1970-01-01T00:00:00+00:00</time>
        <ele>2646.0</ele>
      </trkpt>
      <trkpt lat="45.26209" lon="6.92769">
        <time>1970-01-01T00:00:00+00:00</time>
        <ele>2646.0</ele>
      </trkpt>
      <trkpt lat="45.26204" lon="6.92771">
        <time>1970-01-01T00:00:00+00:00</time>
        <ele>2647.0</ele>
      </trkpt>
      <trkpt lat="45.26204" lon="6.92771">
        <time>1970-01-01T00:00:00+00:00</time>
        <ele>2647.0</ele>
      </trkpt>
      <trkpt lat="45.26199" lon="6.92774">
        <time>1970-01-01T00:00:00+00:00</time>
        <ele>2649.0</ele>
      </trkpt>
      <trkpt lat="45.26199" lon="6.92774">
        <time>1970-01-01T00:00:00+00:00</time>
        <ele>2649.0</ele>
      </trkpt>
      <trkpt lat="45.26194" lon="6.92776">
        <time>1970-01-01T00:00:00+00:00</time>
        <ele>2651.0</ele>
      </trkpt>
      <trkpt lat="45.26194" lon="6.92776">
        <time>1970-01-01T00:00:00+00:00</time>
        <ele>2651.0</ele>
      </trkpt>
      <trkpt lat="45.26189" lon="6.92778">
        <time>1970-01-01T00:00:00+00:00</time>
        <ele>2652.0</ele>
      </trkpt>
      <trkpt lat="45.26189" lon="6.92778">
        <time>1970-01-01T00:00:00+00:00</time>
        <ele>2652.0</ele>
      </trkpt>
      <trkpt lat="45.26185" lon="6.92783">
        <time>1970-01-01T00:00:00+00:00</time>
        <ele>2654.0</ele>
      </trkpt>
      <trkpt lat="45.26185" lon="6.92783">
        <time>1970-01-01T00:00:00+00:00</time>
        <ele>2654.0</ele>
      </trkpt>
      <trkpt lat="45.26181" lon="6.92786">
        <time>1970-01-01T00:00:00+00:00</time>
        <ele>2655.0</ele>
      </trkpt>
      <trkpt lat="45.26181" lon="6.92786">
        <time>1970-01-01T00:00:00+00:00</time>
        <ele>2655.0</ele>
      </trkpt>
      <trkpt lat="45.26176" lon="6.92788">
        <time>1970-01-01T00:00:00+00:00</time>
        <ele>2656.0</ele>
      </trkpt>
      <trkpt lat="45.26176" lon="6.92788">
        <time>1970-01-01T00:00:00+00:00</time>
        <ele>2656.0</ele>
      </trkpt>
      <trkpt lat="45.26171" lon="6.9279">
        <time>1970-01-01T00:00:00+00:00</time>
        <ele>2656.0</ele>
      </trkpt>
      <trkpt lat="45.26171" lon="6.9279">
        <time>1970-01-01T00:00:00+00:00</time>
        <ele>2656.0</ele>
      </trkpt>
      <trkpt lat="45.26166" lon="6.9279">
        <time>1970-01-01T00:00:00+00:00</time>
        <ele>2657.0</ele>
      </trkpt>
      <trkpt lat="45.26166" lon="6.9279">
        <time>1970-01-01T00:00:00+00:00</time>
        <ele>2657.0</ele>
      </trkpt>
      <trkpt lat="45.26161" lon="6.92792">
        <time>1970-01-01T00:00:00+00:00</time>
        <ele>2657.0</ele>
      </trkpt>
      <trkpt lat="45.26161" lon="6.92792">
        <time>1970-01-01T00:00:00+00:00</time>
        <ele>2657.0</ele>
      </trkpt>
      <trkpt lat="45.26156" lon="6.92794">
        <time>1970-01-01T00:00:00+00:00</time>
        <ele>2658.0</ele>
      </trkpt>
      <trkpt lat="45.26156" lon="6.92794">
        <time>1970-01-01T00:00:00+00:00</time>
        <ele>2658.0</ele>
      </trkpt>
      <trkpt lat="45.26151" lon="6.92795">
        <time>1970-01-01T00:00:00+00:00</time>
        <ele>2658.0</ele>
      </trkpt>
      <trkpt lat="45.26151" lon="6.92795">
        <time>1970-01-01T00:00:00+00:00</time>
        <ele>2658.0</ele>
      </trkpt>
      <trkpt lat="45.26146" lon="6.92797">
        <time>1970-01-01T00:00:00+00:00</time>
        <ele>2658.0</ele>
      </trkpt>
      <trkpt lat="45.26146" lon="6.92797">
        <time>1970-01-01T00:00:00+00:00</time>
        <ele>2658.0</ele>
      </trkpt>
      <trkpt lat="45.26142" lon="6.928">
        <time>1970-01-01T00:00:00+00:00</time>
        <ele>2659.0</ele>
      </trkpt>
      <trkpt lat="45.26142" lon="6.928">
        <time>1970-01-01T00:00:00+00:00</time>
        <ele>2659.0</ele>
      </trkpt>
      <trkpt lat="45.26137" lon="6.92802">
        <time>1970-01-01T00:00:00+00:00</time>
        <ele>2659.0</ele>
      </trkpt>
      <trkpt lat="45.26137" lon="6.92802">
        <time>1970-01-01T00:00:00+00:00</time>
        <ele>2659.0</ele>
      </trkpt>
      <trkpt lat="45.26132" lon="6.92805">
        <time>1970-01-01T00:00:00+00:00</time>
        <ele>2660.0</ele>
      </trkpt>
      <trkpt lat="45.26132" lon="6.92805">
        <time>1970-01-01T00:00:00+00:00</time>
        <ele>2660.0</ele>
      </trkpt>
      <trkpt lat="45.26128" lon="6.92808">
        <time>1970-01-01T00:00:00+00:00</time>
        <ele>2660.0</ele>
      </trkpt>
      <trkpt lat="45.26128" lon="6.92808">
        <time>1970-01-01T00:00:00+00:00</time>
        <ele>2660.0</ele>
      </trkpt>
      <trkpt lat="45.26124" lon="6.92811">
        <time>1970-01-01T00:00:00+00:00</time>
        <ele>2661.0</ele>
      </trkpt>
      <trkpt lat="45.26124" lon="6.92811">
        <time>1970-01-01T00:00:00+00:00</time>
        <ele>2661.0</ele>
      </trkpt>
      <trkpt lat="45.2612" lon="6.92814">
        <time>1970-01-01T00:00:00+00:00</time>
        <ele>2661.0</ele>
      </trkpt>
      <trkpt lat="45.2612" lon="6.92814">
        <time>1970-01-01T00:00:00+00:00</time>
        <ele>2661.0</ele>
      </trkpt>
      <trkpt lat="45.26115" lon="6.92816">
        <time>1970-01-01T00:00:00+00:00</time>
        <ele>2661.0</ele>
      </trkpt>
      <trkpt lat="45.26115" lon="6.92816">
        <time>1970-01-01T00:00:00+00:00</time>
        <ele>2661.0</ele>
      </trkpt>
      <trkpt lat="45.26111" lon="6.9282">
        <time>1970-01-01T00:00:00+00:00</time>
        <ele>2661.0</ele>
      </trkpt>
      <trkpt lat="45.26111" lon="6.9282">
        <time>1970-01-01T00:00:00+00:00</time>
        <ele>2661.0</ele>
      </trkpt>
      <trkpt lat="45.26107" lon="6.92823">
        <time>1970-01-01T00:00:00+00:00</time>
        <ele>2661.0</ele>
      </trkpt>
      <trkpt lat="45.26107" lon="6.92823">
        <time>1970-01-01T00:00:00+00:00</time>
        <ele>2661.0</ele>
      </trkpt>
      <trkpt lat="45.26104" lon="6.92828">
        <time>1970-01-01T00:00:00+00:00</time>
        <ele>2662.0</ele>
      </trkpt>
      <trkpt lat="45.26104" lon="6.92828">
        <time>1970-01-01T00:00:00+00:00</time>
        <ele>2662.0</ele>
      </trkpt>
      <trkpt lat="45.26101" lon="6.92833">
        <time>1970-01-01T00:00:00+00:00</time>
        <ele>2662.0</ele>
      </trkpt>
      <trkpt lat="45.26101" lon="6.92833">
        <time>1970-01-01T00:00:00+00:00</time>
        <ele>2662.0</ele>
      </trkpt>
      <trkpt lat="45.26098" lon="6.92839">
        <time>1970-01-01T00:00:00+00:00</time>
        <ele>2663.0</ele>
      </trkpt>
      <trkpt lat="45.26098" lon="6.92839">
        <time>1970-01-01T00:00:00+00:00</time>
        <ele>2663.0</ele>
      </trkpt>
      <trkpt lat="45.26096" lon="6.92845">
        <time>1970-01-01T00:00:00+00:00</time>
        <ele>2663.0</ele>
      </trkpt>
      <trkpt lat="45.26096" lon="6.92845">
        <time>1970-01-01T00:00:00+00:00</time>
        <ele>2663.0</ele>
      </trkpt>
      <trkpt lat="45.26092" lon="6.92849">
        <time>1970-01-01T00:00:00+00:00</time>
        <ele>2663.0</ele>
      </trkpt>
      <trkpt lat="45.26092" lon="6.92849">
        <time>1970-01-01T00:00:00+00:00</time>
        <ele>2663.0</ele>
      </trkpt>
      <trkpt lat="45.2609" lon="6.92855">
        <time>1970-01-01T00:00:00+00:00</time>
        <ele>2665.0</ele>
      </trkpt>
      <trkpt lat="45.2609" lon="6.92855">
        <time>1970-01-01T00:00:00+00:00</time>
        <ele>2665.0</ele>
      </trkpt>
      <trkpt lat="45.26088" lon="6.92861">
        <time>1970-01-01T00:00:00+00:00</time>
        <ele>2666.0</ele>
      </trkpt>
      <trkpt lat="45.26088" lon="6.92861">
        <time>1970-01-01T00:00:00+00:00</time>
        <ele>2666.0</ele>
      </trkpt>
      <trkpt lat="45.26086" lon="6.92867">
        <time>1970-01-01T00:00:00+00:00</time>
        <ele>2668.0</ele>
      </trkpt>
      <trkpt lat="45.26086" lon="6.92867">
        <time>1970-01-01T00:00:00+00:00</time>
        <ele>2668.0</ele>
      </trkpt>
      <trkpt lat="45.26084" lon="6.92873">
        <time>1970-01-01T00:00:00+00:00</time>
        <ele>2669.0</ele>
      </trkpt>
      <trkpt lat="45.26084" lon="6.92873">
        <time>1970-01-01T00:00:00+00:00</time>
        <ele>2669.0</ele>
      </trkpt>
      <trkpt lat="45.26083" lon="6.9288">
        <time>1970-01-01T00:00:00+00:00</time>
        <ele>2670.0</ele>
      </trkpt>
      <trkpt lat="45.26083" lon="6.9288">
        <time>1970-01-01T00:00:00+00:00</time>
        <ele>2670.0</ele>
      </trkpt>
      <trkpt lat="45.26083" lon="6.92887">
        <time>1970-01-01T00:00:00+00:00</time>
        <ele>2672.0</ele>
      </trkpt>
      <trkpt lat="45.26083" lon="6.92887">
        <time>1970-01-01T00:00:00+00:00</time>
        <ele>2672.0</ele>
      </trkpt>
      <trkpt lat="45.26085" lon="6.92894">
        <time>1970-01-01T00:00:00+00:00</time>
        <ele>2674.0</ele>
      </trkpt>
      <trkpt lat="45.26085" lon="6.92894">
        <time>1970-01-01T00:00:00+00:00</time>
        <ele>2674.0</ele>
      </trkpt>
      <trkpt lat="45.26085" lon="6.92901">
        <time>1970-01-01T00:00:00+00:00</time>
        <ele>2675.0</ele>
      </trkpt>
      <trkpt lat="45.26085" lon="6.92901">
        <time>1970-01-01T00:00:00+00:00</time>
        <ele>2675.0</ele>
      </trkpt>
      <trkpt lat="45.26084" lon="6.92909">
        <time>1970-01-01T00:00:00+00:00</time>
        <ele>2677.0</ele>
      </trkpt>
      <trkpt lat="45.26084" lon="6.92909">
        <time>1970-01-01T00:00:00+00:00</time>
        <ele>2677.0</ele>
      </trkpt>
      <trkpt lat="45.26083" lon="6.92916">
        <time>1970-01-01T00:00:00+00:00</time>
        <ele>2678.0</ele>
      </trkpt>
      <trkpt lat="45.26083" lon="6.92916">
        <time>1970-01-01T00:00:00+00:00</time>
        <ele>2678.0</ele>
      </trkpt>
      <trkpt lat="45.26083" lon="6.92924">
        <time>1970-01-01T00:00:00+00:00</time>
        <ele>2680.0</ele>
      </trkpt>
      <trkpt lat="45.26083" lon="6.92924">
        <time>1970-01-01T00:00:00+00:00</time>
        <ele>2680.0</ele>
      </trkpt>
      <trkpt lat="45.26082" lon="6.92931">
        <time>1970-01-01T00:00:00+00:00</time>
        <ele>2681.0</ele>
      </trkpt>
      <trkpt lat="45.26082" lon="6.92931">
        <time>1970-01-01T00:00:00+00:00</time>
        <ele>2681.0</ele>
      </trkpt>
      <trkpt lat="45.26083" lon="6.92938">
        <time>1970-01-01T00:00:00+00:00</time>
        <ele>2682.0</ele>
      </trkpt>
      <trkpt lat="45.26083" lon="6.92938">
        <time>1970-01-01T00:00:00+00:00</time>
        <ele>2682.0</ele>
      </trkpt>
      <trkpt lat="45.26082" lon="6.92945">
        <time>1970-01-01T00:00:00+00:00</time>
        <ele>2683.0</ele>
      </trkpt>
      <trkpt lat="45.26082" lon="6.92945">
        <time>1970-01-01T00:00:00+00:00</time>
        <ele>2683.0</ele>
      </trkpt>
      <trkpt lat="45.26081" lon="6.92953">
        <time>1970-01-01T00:00:00+00:00</time>
        <ele>2684.0</ele>
      </trkpt>
      <trkpt lat="45.26081" lon="6.92953">
        <time>1970-01-01T00:00:00+00:00</time>
        <ele>2684.0</ele>
      </trkpt>
      <trkpt lat="45.26083" lon="6.9296">
        <time>1970-01-01T00:00:00+00:00</time>
        <ele>2686.0</ele>
      </trkpt>
      <trkpt lat="45.26083" lon="6.9296">
        <time>1970-01-01T00:00:00+00:00</time>
        <ele>2686.0</ele>
      </trkpt>
      <trkpt lat="45.26085" lon="6.92966">
        <time>1970-01-01T00:00:00+00:00</time>
        <ele>2687.0</ele>
      </trkpt>
      <trkpt lat="45.26085" lon="6.92966">
        <time>1970-01-01T00:00:00+00:00</time>
        <ele>2687.0</ele>
      </trkpt>
      <trkpt lat="45.26085" lon="6.92973">
        <time>1970-01-01T00:00:00+00:00</time>
        <ele>2688.0</ele>
      </trkpt>
      <trkpt lat="45.26085" lon="6.92973">
        <time>1970-01-01T00:00:00+00:00</time>
        <ele>2688.0</ele>
      </trkpt>
      <trkpt lat="45.26085" lon="6.9298">
        <time>1970-01-01T00:00:00+00:00</time>
        <ele>2689.0</ele>
      </trkpt>
      <trkpt lat="45.26085" lon="6.9298">
        <time>1970-01-01T00:00:00+00:00</time>
        <ele>2689.0</ele>
      </trkpt>
      <trkpt lat="45.26085" lon="6.92987">
        <time>1970-01-01T00:00:00+00:00</time>
        <ele>2690.0</ele>
      </trkpt>
      <trkpt lat="45.26085" lon="6.92987">
        <time>1970-01-01T00:00:00+00:00</time>
        <ele>2690.0</ele>
      </trkpt>
      <trkpt lat="45.26088" lon="6.92992">
        <time>1970-01-01T00:00:00+00:00</time>
        <ele>2691.0</ele>
      </trkpt>
      <trkpt lat="45.26088" lon="6.92992">
        <time>1970-01-01T00:00:00+00:00</time>
        <ele>2691.0</ele>
      </trkpt>
      <trkpt lat="45.26091" lon="6.92997">
        <time>1970-01-01T00:00:00+00:00</time>
        <ele>2693.0</ele>
      </trkpt>
      <trkpt lat="45.26091" lon="6.92997">
        <time>1970-01-01T00:00:00+00:00</time>
        <ele>2693.0</ele>
      </trkpt>
      <trkpt lat="45.26093" lon="6.93004">
        <time>1970-01-01T00:00:00+00:00</time>
        <ele>2695.0</ele>
      </trkpt>
      <trkpt lat="45.26093" lon="6.93004">
        <time>1970-01-01T00:00:00+00:00</time>
        <ele>2695.0</ele>
      </trkpt>
      <trkpt lat="45.26095" lon="6.93012">
        <time>1970-01-01T00:00:00+00:00</time>
        <ele>2697.0</ele>
      </trkpt>
      <trkpt lat="45.26095" lon="6.93012">
        <time>1970-01-01T00:00:00+00:00</time>
        <ele>2697.0</ele>
      </trkpt>
      <trkpt lat="45.26095" lon="6.93019">
        <time>1970-01-01T00:00:00+00:00</time>
        <ele>2699.0</ele>
      </trkpt>
      <trkpt lat="45.26095" lon="6.93019">
        <time>1970-01-01T00:00:00+00:00</time>
        <ele>2699.0</ele>
      </trkpt>
      <trkpt lat="45.26092" lon="6.93024">
        <time>1970-01-01T00:00:00+00:00</time>
        <ele>2699.0</ele>
      </trkpt>
      <trkpt lat="45.26092" lon="6.93024">
        <time>1970-01-01T00:00:00+00:00</time>
        <ele>2699.0</ele>
      </trkpt>
      <trkpt lat="45.2609" lon="6.9303">
        <time>1970-01-01T00:00:00+00:00</time>
        <ele>2699.0</ele>
      </trkpt>
      <trkpt lat="45.2609" lon="6.9303">
        <time>1970-01-01T00:00:00+00:00</time>
        <ele>2699.0</ele>
      </trkpt>
      <trkpt lat="45.26087" lon="6.93036">
        <time>1970-01-01T00:00:00+00:00</time>
        <ele>2698.0</ele>
      </trkpt>
      <trkpt lat="45.26087" lon="6.93036">
        <time>1970-01-01T00:00:00+00:00</time>
        <ele>2698.0</ele>
      </trkpt>
      <trkpt lat="45.26084" lon="6.93042">
        <time>1970-01-01T00:00:00+00:00</time>
        <ele>2698.0</ele>
      </trkpt>
      <trkpt lat="45.26084" lon="6.93042">
        <time>1970-01-01T00:00:00+00:00</time>
        <ele>2698.0</ele>
      </trkpt>
      <trkpt lat="45.2608" lon="6.93045">
        <time>1970-01-01T00:00:00+00:00</time>
        <ele>2698.0</ele>
      </trkpt>
      <trkpt lat="45.2608" lon="6.93045">
        <time>1970-01-01T00:00:00+00:00</time>
        <ele>2698.0</ele>
      </trkpt>
      <trkpt lat="45.26076" lon="6.9305">
        <time>1970-01-01T00:00:00+00:00</time>
        <ele>2699.0</ele>
      </trkpt>
      <trkpt lat="45.26076" lon="6.9305">
        <time>1970-01-01T00:00:00+00:00</time>
        <ele>2699.0</ele>
      </trkpt>
      <trkpt lat="45.26074" lon="6.93056">
        <time>1970-01-01T00:00:00+00:00</time>
        <ele>2700.0</ele>
      </trkpt>
      <trkpt lat="45.26074" lon="6.93056">
        <time>1970-01-01T00:00:00+00:00</time>
        <ele>2700.0</ele>
      </trkpt>
      <trkpt lat="45.26073" lon="6.93063">
        <time>1970-01-01T00:00:00+00:00</time>
        <ele>2702.0</ele>
      </trkpt>
      <trkpt lat="45.26073" lon="6.93063">
        <time>1970-01-01T00:00:00+00:00</time>
        <ele>2702.0</ele>
      </trkpt>
      <trkpt lat="45.26073" lon="6.9307">
        <time>1970-01-01T00:00:00+00:00</time>
        <ele>2703.0</ele>
      </trkpt>
      <trkpt lat="45.26073" lon="6.9307">
        <time>1970-01-01T00:00:00+00:00</time>
        <ele>2703.0</ele>
      </trkpt>
      <trkpt lat="45.26071" lon="6.93076">
        <time>1970-01-01T00:00:00+00:00</time>
        <ele>2704.0</ele>
      </trkpt>
      <trkpt lat="45.26071" lon="6.93076">
        <time>1970-01-01T00:00:00+00:00</time>
        <ele>2704.0</ele>
      </trkpt>
      <trkpt lat="45.2607" lon="6.93084">
        <time>1970-01-01T00:00:00+00:00</time>
        <ele>2706.0</ele>
      </trkpt>
      <trkpt lat="45.2607" lon="6.93084">
        <time>1970-01-01T00:00:00+00:00</time>
        <ele>2706.0</ele>
      </trkpt>
      <trkpt lat="45.26068" lon="6.9309">
        <time>1970-01-01T00:00:00+00:00</time>
        <ele>2707.0</ele>
      </trkpt>
      <trkpt lat="45.26068" lon="6.9309">
        <time>1970-01-01T00:00:00+00:00</time>
        <ele>2707.0</ele>
      </trkpt>
      <trkpt lat="45.26068" lon="6.93097">
        <time>1970-01-01T00:00:00+00:00</time>
        <ele>2708.0</ele>
      </trkpt>
      <trkpt lat="45.26068" lon="6.93097">
        <time>1970-01-01T00:00:00+00:00</time>
        <ele>2708.0</ele>
      </trkpt>
      <trkpt lat="45.26069" lon="6.93104">
        <time>1970-01-01T00:00:00+00:00</time>
        <ele>2709.0</ele>
      </trkpt>
      <trkpt lat="45.26069" lon="6.93104">
        <time>1970-01-01T00:00:00+00:00</time>
        <ele>2709.0</ele>
      </trkpt>
      <trkpt lat="45.2607" lon="6.93112">
        <time>1970-01-01T00:00:00+00:00</time>
        <ele>2710.0</ele>
      </trkpt>
      <trkpt lat="45.2607" lon="6.93112">
        <time>1970-01-01T00:00:00+00:00</time>
        <ele>2710.0</ele>
      </trkpt>
      <trkpt lat="45.26069" lon="6.9312">
        <time>1970-01-01T00:00:00+00:00</time>
        <ele>2711.0</ele>
      </trkpt>
      <trkpt lat="45.26069" lon="6.9312">
        <time>1970-01-01T00:00:00+00:00</time>
        <ele>2711.0</ele>
      </trkpt>
      <trkpt lat="45.26068" lon="6.93127">
        <time>1970-01-01T00:00:00+00:00</time>
        <ele>2711.0</ele>
      </trkpt>
      <trkpt lat="45.26068" lon="6.93127">
        <time>1970-01-01T00:00:00+00:00</time>
        <ele>2711.0</ele>
      </trkpt>
      <trkpt lat="45.2607" lon="6.93134">
        <time>1970-01-01T00:00:00+00:00</time>
        <ele>2711.0</ele>
      </trkpt>
      <trkpt lat="45.2607" lon="6.93134">
        <time>1970-01-01T00:00:00+00:00</time>
        <ele>2711.0</ele>
      </trkpt>
      <trkpt lat="45.26071" lon="6.93141">
        <time>1970-01-01T00:00:00+00:00</time>
        <ele>2711.0</ele>
      </trkpt>
      <trkpt lat="45.26071" lon="6.93141">
        <time>1970-01-01T00:00:00+00:00</time>
        <ele>2711.0</ele>
      </trkpt>
      <trkpt lat="45.26071" lon="6.93148">
        <time>1970-01-01T00:00:00+00:00</time>
        <ele>2712.0</ele>
      </trkpt>
      <trkpt lat="45.26071" lon="6.93148">
        <time>1970-01-01T00:00:00+00:00</time>
        <ele>2712.0</ele>
      </trkpt>
      <trkpt lat="45.2607" lon="6.93155">
        <time>1970-01-01T00:00:00+00:00</time>
        <ele>2713.0</ele>
      </trkpt>
      <trkpt lat="45.2607" lon="6.93155">
        <time>1970-01-01T00:00:00+00:00</time>
        <ele>2713.0</ele>
      </trkpt>
      <trkpt lat="45.26072" lon="6.93162">
        <time>1970-01-01T00:00:00+00:00</time>
        <ele>2714.0</ele>
      </trkpt>
      <trkpt lat="45.26072" lon="6.93162">
        <time>1970-01-01T00:00:00+00:00</time>
        <ele>2714.0</ele>
      </trkpt>
      <trkpt lat="45.26071" lon="6.93169">
        <time>1970-01-01T00:00:00+00:00</time>
        <ele>2715.0</ele>
      </trkpt>
      <trkpt lat="45.26071" lon="6.93169">
        <time>1970-01-01T00:00:00+00:00</time>
        <ele>2715.0</ele>
      </trkpt>
      <trkpt lat="45.26073" lon="6.93175">
        <time>1970-01-01T00:00:00+00:00</time>
        <ele>2715.0</ele>
      </trkpt>
      <trkpt lat="45.26073" lon="6.93175">
        <time>1970-01-01T00:00:00+00:00</time>
        <ele>2715.0</ele>
      </trkpt>
      <trkpt lat="45.26073" lon="6.93182">
        <time>1970-01-01T00:00:00+00:00</time>
        <ele>2715.0</ele>
      </trkpt>
      <trkpt lat="45.26073" lon="6.93182">
        <time>1970-01-01T00:00:00+00:00</time>
        <ele>2715.0</ele>
      </trkpt>
      <trkpt lat="45.26073" lon="6.93189">
        <time>1970-01-01T00:00:00+00:00</time>
        <ele>2715.0</ele>
      </trkpt>
      <trkpt lat="45.26073" lon="6.93189">
        <time>1970-01-01T00:00:00+00:00</time>
        <ele>2715.0</ele>
      </trkpt>
      <trkpt lat="45.26073" lon="6.93196">
        <time>1970-01-01T00:00:00+00:00</time>
        <ele>2716.0</ele>
      </trkpt>
      <trkpt lat="45.26073" lon="6.93196">
        <time>1970-01-01T00:00:00+00:00</time>
        <ele>2716.0</ele>
      </trkpt>
      <trkpt lat="45.26073" lon="6.93203">
        <time>1970-01-01T00:00:00+00:00</time>
        <ele>2716.0</ele>
      </trkpt>
      <trkpt lat="45.26073" lon="6.93203">
        <time>1970-01-01T00:00:00+00:00</time>
        <ele>2716.0</ele>
      </trkpt>
      <trkpt lat="45.26073" lon="6.9321">
        <time>1970-01-01T00:00:00+00:00</time>
        <ele>2717.0</ele>
      </trkpt>
      <trkpt lat="45.26073" lon="6.9321">
        <time>1970-01-01T00:00:00+00:00</time>
        <ele>2717.0</ele>
      </trkpt>
      <trkpt lat="45.26074" lon="6.93217">
        <time>1970-01-01T00:00:00+00:00</time>
        <ele>2717.0</ele>
      </trkpt>
      <trkpt lat="45.26074" lon="6.93217">
        <time>1970-01-01T00:00:00+00:00</time>
        <ele>2717.0</ele>
      </trkpt>
      <trkpt lat="45.26075" lon="6.93224">
        <time>1970-01-01T00:00:00+00:00</time>
        <ele>2718.0</ele>
      </trkpt>
      <trkpt lat="45.26075" lon="6.93224">
        <time>1970-01-01T00:00:00+00:00</time>
        <ele>2718.0</ele>
      </trkpt>
      <trkpt lat="45.26075" lon="6.93231">
        <time>1970-01-01T00:00:00+00:00</time>
        <ele>2719.0</ele>
      </trkpt>
      <trkpt lat="45.26075" lon="6.93231">
        <time>1970-01-01T00:00:00+00:00</time>
        <ele>2719.0</ele>
      </trkpt>
      <trkpt lat="45.26073" lon="6.93237">
        <time>1970-01-01T00:00:00+00:00</time>
        <ele>2721.0</ele>
      </trkpt>
      <trkpt lat="45.26073" lon="6.93237">
        <time>1970-01-01T00:00:00+00:00</time>
        <ele>2721.0</ele>
      </trkpt>
      <trkpt lat="45.26071" lon="6.93243">
        <time>1970-01-01T00:00:00+00:00</time>
        <ele>2722.0</ele>
      </trkpt>
      <trkpt lat="45.26071" lon="6.93243">
        <time>1970-01-01T00:00:00+00:00</time>
        <ele>2722.0</ele>
      </trkpt>
      <trkpt lat="45.26069" lon="6.93249">
        <time>1970-01-01T00:00:00+00:00</time>
        <ele>2724.0</ele>
      </trkpt>
      <trkpt lat="45.26069" lon="6.93249">
        <time>1970-01-01T00:00:00+00:00</time>
        <ele>2724.0</ele>
      </trkpt>
      <trkpt lat="45.26066" lon="6.93255">
        <time>1970-01-01T00:00:00+00:00</time>
        <ele>2726.0</ele>
      </trkpt>
      <trkpt lat="45.26066" lon="6.93255">
        <time>1970-01-01T00:00:00+00:00</time>
        <ele>2726.0</ele>
      </trkpt>
      <trkpt lat="45.26063" lon="6.9326">
        <time>1970-01-01T00:00:00+00:00</time>
        <ele>2728.0</ele>
      </trkpt>
      <trkpt lat="45.26063" lon="6.9326">
        <time>1970-01-01T00:00:00+00:00</time>
        <ele>2728.0</ele>
      </trkpt>
      <trkpt lat="45.2606" lon="6.93265">
        <time>1970-01-01T00:00:00+00:00</time>
        <ele>2729.0</ele>
      </trkpt>
      <trkpt lat="45.2606" lon="6.93265">
        <time>1970-01-01T00:00:00+00:00</time>
        <ele>2729.0</ele>
      </trkpt>
      <trkpt lat="45.26056" lon="6.93269">
        <time>1970-01-01T00:00:00+00:00</time>
        <ele>2731.0</ele>
      </trkpt>
      <trkpt lat="45.26056" lon="6.93269">
        <time>1970-01-01T00:00:00+00:00</time>
        <ele>2731.0</ele>
      </trkpt>
      <trkpt lat="45.26052" lon="6.93272">
        <time>1970-01-01T00:00:00+00:00</time>
        <ele>2732.0</ele>
      </trkpt>
      <trkpt lat="45.26052" lon="6.93272">
        <time>1970-01-01T00:00:00+00:00</time>
        <ele>2732.0</ele>
      </trkpt>
      <trkpt lat="45.26047" lon="6.93275">
        <time>1970-01-01T00:00:00+00:00</time>
        <ele>2733.0</ele>
      </trkpt>
      <trkpt lat="45.26047" lon="6.93275">
        <time>1970-01-01T00:00:00+00:00</time>
        <ele>2733.0</ele>
      </trkpt>
      <trkpt lat="45.26042" lon="6.93276">
        <time>1970-01-01T00:00:00+00:00</time>
        <ele>2733.0</ele>
      </trkpt>
      <trkpt lat="45.26042" lon="6.93276">
        <time>1970-01-01T00:00:00+00:00</time>
        <ele>2733.0</ele>
      </trkpt>
      <trkpt lat="45.26037" lon="6.93278">
        <time>1970-01-01T00:00:00+00:00</time>
        <ele>2734.0</ele>
      </trkpt>
      <trkpt lat="45.26037" lon="6.93278">
        <time>1970-01-01T00:00:00+00:00</time>
        <ele>2734.0</ele>
      </trkpt>
      <trkpt lat="45.26032" lon="6.9328">
        <time>1970-01-01T00:00:00+00:00</time>
        <ele>2735.0</ele>
      </trkpt>
      <trkpt lat="45.26032" lon="6.9328">
        <time>1970-01-01T00:00:00+00:00</time>
        <ele>2735.0</ele>
      </trkpt>
      <trkpt lat="45.26026" lon="6.93279">
        <time>1970-01-01T00:00:00+00:00</time>
        <ele>2733.0</ele>
      </trkpt>
      <trkpt lat="45.26026" lon="6.93279">
        <time>1970-01-01T00:00:00+00:00</time>
        <ele>2733.0</ele>
      </trkpt>
      <trkpt lat="45.26021" lon="6.93281">
        <time>1970-01-01T00:00:00+00:00</time>
        <ele>2731.0</ele>
      </trkpt>
      <trkpt lat="45.26021" lon="6.93281">
        <time>1970-01-01T00:00:00+00:00</time>
        <ele>2731.0</ele>
      </trkpt>
      <trkpt lat="45.26017" lon="6.93284">
        <time>1970-01-01T00:00:00+00:00</time>
        <ele>2729.0</ele>
      </trkpt>
      <trkpt lat="45.26017" lon="6.93284">
        <time>1970-01-01T00:00:00+00:00</time>
        <ele>2729.0</ele>
      </trkpt>
      <trkpt lat="45.26019" lon="6.93278">
        <time>1970-01-01T00:00:00+00:00</time>
        <ele>2729.0</ele>
      </trkpt>
      <trkpt lat="45.26019" lon="6.93278">
        <time>1970-01-01T00:00:00+00:00</time>
        <ele>2729.0</ele>
      </trkpt>
      <trkpt lat="45.26019" lon="6.93285">
        <time>1970-01-01T00:00:00+00:00</time>
        <ele>2730.0</ele>
      </trkpt>
      <trkpt lat="45.26019" lon="6.93285">
        <time>1970-01-01T00:00:00+00:00</time>
        <ele>2730.0</ele>
      </trkpt>
      <trkpt lat="45.26015" lon="6.93288">
        <time>1970-01-01T00:00:00+00:00</time>
        <ele>2729.0</ele>
      </trkpt>
      <trkpt lat="45.26015" lon="6.93288">
        <time>1970-01-01T00:00:00+00:00</time>
        <ele>2729.0</ele>
      </trkpt>
      <trkpt lat="45.2601" lon="6.9329">
        <time>1970-01-01T00:00:00+00:00</time>
        <ele>2726.0</ele>
      </trkpt>
      <trkpt lat="45.2601" lon="6.9329">
        <time>1970-01-01T00:00:00+00:00</time>
        <ele>2726.0</ele>
      </trkpt>
      <trkpt lat="45.26005" lon="6.93289">
        <time>1970-01-01T00:00:00+00:00</time>
        <ele>2722.0</ele>
      </trkpt>
      <trkpt lat="45.26005" lon="6.93289">
        <time>1970-01-01T00:00:00+00:00</time>
        <ele>2722.0</ele>
      </trkpt>
      <trkpt lat="45.26009" lon="6.93293">
        <time>1970-01-01T00:00:00+00:00</time>
        <ele>2726.0</ele>
      </trkpt>
      <trkpt lat="45.26009" lon="6.93293">
        <time>1970-01-01T00:00:00+00:00</time>
        <ele>2726.0</ele>
      </trkpt>
      <trkpt lat="45.26014" lon="6.93292">
        <time>1970-01-01T00:00:00+00:00</time>
        <ele>2729.0</ele>
      </trkpt>
      <trkpt lat="45.26014" lon="6.93292">
        <time>1970-01-01T00:00:00+00:00</time>
        <ele>2729.0</ele>
      </trkpt>
      <trkpt lat="45.26018" lon="6.93288">
        <time>1970-01-01T00:00:00+00:00</time>
        <ele>2730.0</ele>
      </trkpt>
      <trkpt lat="45.26018" lon="6.93288">
        <time>1970-01-01T00:00:00+00:00</time>
        <ele>2730.0</ele>
      </trkpt>
      <trkpt lat="45.26021" lon="6.93283">
        <time>1970-01-01T00:00:00+00:00</time>
        <ele>2731.0</ele>
      </trkpt>
      <trkpt lat="45.26021" lon="6.93283">
        <time>1970-01-01T00:00:00+00:00</time>
        <ele>2731.0</ele>
      </trkpt>
      <trkpt lat="45.26025" lon="6.93278">
        <time>1970-01-01T00:00:00+00:00</time>
        <ele>2732.0</ele>
      </trkpt>
      <trkpt lat="45.26025" lon="6.93278">
        <time>1970-01-01T00:00:00+00:00</time>
        <ele>2732.0</ele>
      </trkpt>
      <trkpt lat="45.2603" lon="6.93276">
        <time>1970-01-01T00:00:00+00:00</time>
        <ele>2734.0</ele>
      </trkpt>
      <trkpt lat="45.2603" lon="6.93276">
        <time>1970-01-01T00:00:00+00:00</time>
        <ele>2734.0</ele>
      </trkpt>
      <trkpt lat="45.26034" lon="6.93273">
        <time>1970-01-01T00:00:00+00:00</time>
        <ele>2733.0</ele>
      </trkpt>
      <trkpt lat="45.26034" lon="6.93273">
        <time>1970-01-01T00:00:00+00:00</time>
        <ele>2733.0</ele>
      </trkpt>
      <trkpt lat="45.26042" lon="6.93272">
        <time>1970-01-01T00:00:00+00:00</time>
        <ele>2733.0</ele>
      </trkpt>
      <trkpt lat="45.26042" lon="6.93272">
        <time>1970-01-01T00:00:00+00:00</time>
        <ele>2733.0</ele>
      </trkpt>
      <trkpt lat="45.2605" lon="6.93267">
        <time>1970-01-01T00:00:00+00:00</time>
        <ele>2731.0</ele>
      </trkpt>
      <trkpt lat="45.2605" lon="6.93267">
        <time>1970-01-01T00:00:00+00:00</time>
        <ele>2731.0</ele>
      </trkpt>
      <trkpt lat="45.26054" lon="6.93264">
        <time>1970-01-01T00:00:00+00:00</time>
        <ele>2730.0</ele>
      </trkpt>
      <trkpt lat="45.26054" lon="6.93264">
        <time>1970-01-01T00:00:00+00:00</time>
        <ele>2730.0</ele>
      </trkpt>
      <trkpt lat="45.26059" lon="6.93261">
        <time>1970-01-01T00:00:00+00:00</time>
        <ele>2729.0</ele>
      </trkpt>
      <trkpt lat="45.26059" lon="6.93261">
        <time>1970-01-01T00:00:00+00:00</time>
        <ele>2729.0</ele>
      </trkpt>
      <trkpt lat="45.26064" lon="6.93259">
        <time>1970-01-01T00:00:00+00:00</time>
        <ele>2727.0</ele>
      </trkpt>
      <trkpt lat="45.26064" lon="6.93259">
        <time>1970-01-01T00:00:00+00:00</time>
        <ele>2727.0</ele>
      </trkpt>
      <trkpt lat="45.26069" lon="6.93256">
        <time>1970-01-01T00:00:00+00:00</time>
        <ele>2726.0</ele>
      </trkpt>
      <trkpt lat="45.26069" lon="6.93256">
        <time>1970-01-01T00:00:00+00:00</time>
        <ele>2726.0</ele>
      </trkpt>
      <trkpt lat="45.26074" lon="6.93252">
        <time>1970-01-01T00:00:00+00:00</time>
        <ele>2724.0</ele>
      </trkpt>
      <trkpt lat="45.26074" lon="6.93252">
        <time>1970-01-01T00:00:00+00:00</time>
        <ele>2724.0</ele>
      </trkpt>
      <trkpt lat="45.26078" lon="6.93247">
        <time>1970-01-01T00:00:00+00:00</time>
        <ele>2723.0</ele>
      </trkpt>
      <trkpt lat="45.26078" lon="6.93247">
        <time>1970-01-01T00:00:00+00:00</time>
        <ele>2723.0</ele>
      </trkpt>
      <trkpt lat="45.26082" lon="6.93241">
        <time>1970-01-01T00:00:00+00:00</time>
        <ele>2721.0</ele>
      </trkpt>
      <trkpt lat="45.26082" lon="6.93241">
        <time>1970-01-01T00:00:00+00:00</time>
        <ele>2721.0</ele>
      </trkpt>
      <trkpt lat="45.26085" lon="6.93235">
        <time>1970-01-01T00:00:00+00:00</time>
        <ele>2720.0</ele>
      </trkpt>
      <trkpt lat="45.26085" lon="6.93235">
        <time>1970-01-01T00:00:00+00:00</time>
        <ele>2720.0</ele>
      </trkpt>
      <trkpt lat="45.26088" lon="6.93229">
        <time>1970-01-01T00:00:00+00:00</time>
        <ele>2719.0</ele>
      </trkpt>
      <trkpt lat="45.26088" lon="6.93229">
        <time>1970-01-01T00:00:00+00:00</time>
        <ele>2719.0</ele>
      </trkpt>
      <trkpt lat="45.2609" lon="6.93216">
        <time>1970-01-01T00:00:00+00:00</time>
        <ele>2717.0</ele>
      </trkpt>
      <trkpt lat="45.2609" lon="6.93216">
        <time>1970-01-01T00:00:00+00:00</time>
        <ele>2717.0</ele>
      </trkpt>
      <trkpt lat="45.2609" lon="6.93208">
        <time>1970-01-01T00:00:00+00:00</time>
        <ele>2717.0</ele>
      </trkpt>
      <trkpt lat="45.2609" lon="6.93208">
        <time>1970-01-01T00:00:00+00:00</time>
        <ele>2717.0</ele>
      </trkpt>
      <trkpt lat="45.2609" lon="6.93201">
        <time>1970-01-01T00:00:00+00:00</time>
        <ele>2716.0</ele>
      </trkpt>
      <trkpt lat="45.2609" lon="6.93201">
        <time>1970-01-01T00:00:00+00:00</time>
        <ele>2716.0</ele>
      </trkpt>
      <trkpt lat="45.26091" lon="6.93194">
        <time>1970-01-01T00:00:00+00:00</time>
        <ele>2716.0</ele>
      </trkpt>
      <trkpt lat="45.26091" lon="6.93194">
        <time>1970-01-01T00:00:00+00:00</time>
        <ele>2716.0</ele>
      </trkpt>
      <trkpt lat="45.2609" lon="6.93187">
        <time>1970-01-01T00:00:00+00:00</time>
        <ele>2715.0</ele>
      </trkpt>
      <trkpt lat="45.2609" lon="6.93187">
        <time>1970-01-01T00:00:00+00:00</time>
        <ele>2715.0</ele>
      </trkpt>
      <trkpt lat="45.2609" lon="6.93179">
        <time>1970-01-01T00:00:00+00:00</time>
        <ele>2714.0</ele>
      </trkpt>
      <trkpt lat="45.2609" lon="6.93179">
        <time>1970-01-01T00:00:00+00:00</time>
        <ele>2714.0</ele>
      </trkpt>
      <trkpt lat="45.2609" lon="6.93171">
        <time>1970-01-01T00:00:00+00:00</time>
        <ele>2714.0</ele>
      </trkpt>
      <trkpt lat="45.2609" lon="6.93171">
        <time>1970-01-01T00:00:00+00:00</time>
        <ele>2714.0</ele>
      </trkpt>
      <trkpt lat="45.2609" lon="6.93164">
        <time>1970-01-01T00:00:00+00:00</time>
        <ele>2713.0</ele>
      </trkpt>
      <trkpt lat="45.2609" lon="6.93164">
        <time>1970-01-01T00:00:00+00:00</time>
        <ele>2713.0</ele>
      </trkpt>
      <trkpt lat="45.26089" lon="6.93156">
        <time>1970-01-01T00:00:00+00:00</time>
        <ele>2713.0</ele>
      </trkpt>
      <trkpt lat="45.26089" lon="6.93156">
        <time>1970-01-01T00:00:00+00:00</time>
        <ele>2713.0</ele>
      </trkpt>
      <trkpt lat="45.26089" lon="6.93148">
        <time>1970-01-01T00:00:00+00:00</time>
        <ele>2712.0</ele>
      </trkpt>
      <trkpt lat="45.26089" lon="6.93148">
        <time>1970-01-01T00:00:00+00:00</time>
        <ele>2712.0</ele>
      </trkpt>
      <trkpt lat="45.26089" lon="6.9314">
        <time>1970-01-01T00:00:00+00:00</time>
        <ele>2712.0</ele>
      </trkpt>
      <trkpt lat="45.26089" lon="6.9314">
        <time>1970-01-01T00:00:00+00:00</time>
        <ele>2712.0</ele>
      </trkpt>
      <trkpt lat="45.26089" lon="6.93133">
        <time>1970-01-01T00:00:00+00:00</time>
        <ele>2711.0</ele>
      </trkpt>
      <trkpt lat="45.26089" lon="6.93133">
        <time>1970-01-01T00:00:00+00:00</time>
        <ele>2711.0</ele>
      </trkpt>
      <trkpt lat="45.26088" lon="6.93121">
        <time>1970-01-01T00:00:00+00:00</time>
        <ele>2710.0</ele>
      </trkpt>
      <trkpt lat="45.26088" lon="6.93121">
        <time>1970-01-01T00:00:00+00:00</time>
        <ele>2710.0</ele>
      </trkpt>
      <trkpt lat="45.26086" lon="6.93109">
        <time>1970-01-01T00:00:00+00:00</time>
        <ele>2709.0</ele>
      </trkpt>
      <trkpt lat="45.26086" lon="6.93109">
        <time>1970-01-01T00:00:00+00:00</time>
        <ele>2709.0</ele>
      </trkpt>
      <trkpt lat="45.26082" lon="6.93101">
        <time>1970-01-01T00:00:00+00:00</time>
        <ele>2708.0</ele>
      </trkpt>
      <trkpt lat="45.26082" lon="6.93101">
        <time>1970-01-01T00:00:00+00:00</time>
        <ele>2708.0</ele>
      </trkpt>
      <trkpt lat="45.2608" lon="6.93093">
        <time>1970-01-01T00:00:00+00:00</time>
        <ele>2707.0</ele>
      </trkpt>
      <trkpt lat="45.2608" lon="6.93093">
        <time>1970-01-01T00:00:00+00:00</time>
        <ele>2707.0</ele>
      </trkpt>
      <trkpt lat="45.26079" lon="6.93085">
        <time>1970-01-01T00:00:00+00:00</time>
        <ele>2706.0</ele>
      </trkpt>
      <trkpt lat="45.26079" lon="6.93085">
        <time>1970-01-01T00:00:00+00:00</time>
        <ele>2706.0</ele>
      </trkpt>
      <trkpt lat="45.26079" lon="6.93075">
        <time>1970-01-01T00:00:00+00:00</time>
        <ele>2704.0</ele>
      </trkpt>
      <trkpt lat="45.26079" lon="6.93075">
        <time>1970-01-01T00:00:00+00:00</time>
        <ele>2704.0</ele>
      </trkpt>
      <trkpt lat="45.2608" lon="6.93068">
        <time>1970-01-01T00:00:00+00:00</time>
        <ele>2703.0</ele>
      </trkpt>
      <trkpt lat="45.2608" lon="6.93068">
        <time>1970-01-01T00:00:00+00:00</time>
        <ele>2703.0</ele>
      </trkpt>
      <trkpt lat="45.26081" lon="6.93058">
        <time>1970-01-01T00:00:00+00:00</time>
        <ele>2701.0</ele>
      </trkpt>
      <trkpt lat="45.26081" lon="6.93058">
        <time>1970-01-01T00:00:00+00:00</time>
        <ele>2701.0</ele>
      </trkpt>
      <trkpt lat="45.26083" lon="6.93049">
        <time>1970-01-01T00:00:00+00:00</time>
        <ele>2699.0</ele>
      </trkpt>
      <trkpt lat="45.26083" lon="6.93049">
        <time>1970-01-01T00:00:00+00:00</time>
        <ele>2699.0</ele>
      </trkpt>
      <trkpt lat="45.26086" lon="6.93041">
        <time>1970-01-01T00:00:00+00:00</time>
        <ele>2698.0</ele>
      </trkpt>
      <trkpt lat="45.26086" lon="6.93041">
        <time>1970-01-01T00:00:00+00:00</time>
        <ele>2698.0</ele>
      </trkpt>
      <trkpt lat="45.26089" lon="6.93033">
        <time>1970-01-01T00:00:00+00:00</time>
        <ele>2699.0</ele>
      </trkpt>
      <trkpt lat="45.26089" lon="6.93033">
        <time>1970-01-01T00:00:00+00:00</time>
        <ele>2699.0</ele>
      </trkpt>
      <trkpt lat="45.26092" lon="6.93025">
        <time>1970-01-01T00:00:00+00:00</time>
        <ele>2699.0</ele>
      </trkpt>
      <trkpt lat="45.26092" lon="6.93025">
        <time>1970-01-01T00:00:00+00:00</time>
        <ele>2699.0</ele>
      </trkpt>
      <trkpt lat="45.26094" lon="6.93018">
        <time>1970-01-01T00:00:00+00:00</time>
        <ele>2698.0</ele>
      </trkpt>
      <trkpt lat="45.26094" lon="6.93018">
        <time>1970-01-01T00:00:00+00:00</time>
        <ele>2698.0</ele>
      </trkpt>
      <trkpt lat="45.26097" lon="6.93011">
        <time>1970-01-01T00:00:00+00:00</time>
        <ele>2697.0</ele>
      </trkpt>
      <trkpt lat="45.26097" lon="6.93011">
        <time>1970-01-01T00:00:00+00:00</time>
        <ele>2697.0</ele>
      </trkpt>
      <trkpt lat="45.26101" lon="6.93007">
        <time>1970-01-01T00:00:00+00:00</time>
        <ele>2697.0</ele>
      </trkpt>
      <trkpt lat="45.26101" lon="6.93007">
        <time>1970-01-01T00:00:00+00:00</time>
        <ele>2697.0</ele>
      </trkpt>
      <trkpt lat="45.26103" lon="6.92998">
        <time>1970-01-01T00:00:00+00:00</time>
        <ele>2695.0</ele>
      </trkpt>
      <trkpt lat="45.26103" lon="6.92998">
        <time>1970-01-01T00:00:00+00:00</time>
        <ele>2695.0</ele>
      </trkpt>
      <trkpt lat="45.26103" lon="6.92988">
        <time>1970-01-01T00:00:00+00:00</time>
        <ele>2693.0</ele>
      </trkpt>
      <trkpt lat="45.26103" lon="6.92988">
        <time>1970-01-01T00:00:00+00:00</time>
        <ele>2693.0</ele>
      </trkpt>
      <trkpt lat="45.26104" lon="6.92979">
        <time>1970-01-01T00:00:00+00:00</time>
        <ele>2691.0</ele>
      </trkpt>
      <trkpt lat="45.26104" lon="6.92979">
        <time>1970-01-01T00:00:00+00:00</time>
        <ele>2691.0</ele>
      </trkpt>
      <trkpt lat="45.26105" lon="6.92971">
        <time>1970-01-01T00:00:00+00:00</time>
        <ele>2690.0</ele>
      </trkpt>
      <trkpt lat="45.26105" lon="6.92971">
        <time>1970-01-01T00:00:00+00:00</time>
        <ele>2690.0</ele>
      </trkpt>
      <trkpt lat="45.26105" lon="6.92963">
        <time>1970-01-01T00:00:00+00:00</time>
        <ele>2688.0</ele>
      </trkpt>
      <trkpt lat="45.26105" lon="6.92963">
        <time>1970-01-01T00:00:00+00:00</time>
        <ele>2688.0</ele>
      </trkpt>
      <trkpt lat="45.26105" lon="6.92956">
        <time>1970-01-01T00:00:00+00:00</time>
        <ele>2687.0</ele>
      </trkpt>
      <trkpt lat="45.26105" lon="6.92956">
        <time>1970-01-01T00:00:00+00:00</time>
        <ele>2687.0</ele>
      </trkpt>
      <trkpt lat="45.26103" lon="6.9295">
        <time>1970-01-01T00:00:00+00:00</time>
        <ele>2685.0</ele>
      </trkpt>
      <trkpt lat="45.26103" lon="6.9295">
        <time>1970-01-01T00:00:00+00:00</time>
        <ele>2685.0</ele>
      </trkpt>
      <trkpt lat="45.261" lon="6.92944">
        <time>1970-01-01T00:00:00+00:00</time>
        <ele>2684.0</ele>
      </trkpt>
      <trkpt lat="45.261" lon="6.92944">
        <time>1970-01-01T00:00:00+00:00</time>
        <ele>2684.0</ele>
      </trkpt>
      <trkpt lat="45.26098" lon="6.92936">
        <time>1970-01-01T00:00:00+00:00</time>
        <ele>2683.0</ele>
      </trkpt>
      <trkpt lat="45.26098" lon="6.92936">
        <time>1970-01-01T00:00:00+00:00</time>
        <ele>2683.0</ele>
      </trkpt>
      <trkpt lat="45.26096" lon="6.9293">
        <time>1970-01-01T00:00:00+00:00</time>
        <ele>2681.0</ele>
      </trkpt>
      <trkpt lat="45.26096" lon="6.9293">
        <time>1970-01-01T00:00:00+00:00</time>
        <ele>2681.0</ele>
      </trkpt>
      <trkpt lat="45.26091" lon="6.92926">
        <time>1970-01-01T00:00:00+00:00</time>
        <ele>2681.0</ele>
      </trkpt>
      <trkpt lat="45.26091" lon="6.92926">
        <time>1970-01-01T00:00:00+00:00</time>
        <ele>2681.0</ele>
      </trkpt>
      <trkpt lat="45.26087" lon="6.92922">
        <time>1970-01-01T00:00:00+00:00</time>
        <ele>2680.0</ele>
      </trkpt>
      <trkpt lat="45.26087" lon="6.92922">
        <time>1970-01-01T00:00:00+00:00</time>
        <ele>2680.0</ele>
      </trkpt>
      <trkpt lat="45.26086" lon="6.92913">
        <time>1970-01-01T00:00:00+00:00</time>
        <ele>2678.0</ele>
      </trkpt>
      <trkpt lat="45.26086" lon="6.92913">
        <time>1970-01-01T00:00:00+00:00</time>
        <ele>2678.0</ele>
      </trkpt>
      <trkpt lat="45.26089" lon="6.92905">
        <time>1970-01-01T00:00:00+00:00</time>
        <ele>2676.0</ele>
      </trkpt>
      <trkpt lat="45.26089" lon="6.92905">
        <time>1970-01-01T00:00:00+00:00</time>
        <ele>2676.0</ele>
      </trkpt>
      <trkpt lat="45.26093" lon="6.92896">
        <time>1970-01-01T00:00:00+00:00</time>
        <ele>2675.0</ele>
      </trkpt>
      <trkpt lat="45.26093" lon="6.92896">
        <time>1970-01-01T00:00:00+00:00</time>
        <ele>2675.0</ele>
      </trkpt>
      <trkpt lat="45.26096" lon="6.92886">
        <time>1970-01-01T00:00:00+00:00</time>
        <ele>2673.0</ele>
      </trkpt>
      <trkpt lat="45.26096" lon="6.92886">
        <time>1970-01-01T00:00:00+00:00</time>
        <ele>2673.0</ele>
      </trkpt>
      <trkpt lat="45.26099" lon="6.92875">
        <time>1970-01-01T00:00:00+00:00</time>
        <ele>2670.0</ele>
      </trkpt>
      <trkpt lat="45.26099" lon="6.92875">
        <time>1970-01-01T00:00:00+00:00</time>
        <ele>2670.0</ele>
      </trkpt>
      <trkpt lat="45.261" lon="6.92868">
        <time>1970-01-01T00:00:00+00:00</time>
        <ele>2669.0</ele>
      </trkpt>
      <trkpt lat="45.261" lon="6.92868">
        <time>1970-01-01T00:00:00+00:00</time>
        <ele>2669.0</ele>
      </trkpt>
      <trkpt lat="45.26101" lon="6.9286">
        <time>1970-01-01T00:00:00+00:00</time>
        <ele>2667.0</ele>
      </trkpt>
      <trkpt lat="45.26101" lon="6.9286">
        <time>1970-01-01T00:00:00+00:00</time>
        <ele>2667.0</ele>
      </trkpt>
      <trkpt lat="45.26102" lon="6.92853">
        <time>1970-01-01T00:00:00+00:00</time>
        <ele>2666.0</ele>
      </trkpt>
      <trkpt lat="45.26102" lon="6.92853">
        <time>1970-01-01T00:00:00+00:00</time>
        <ele>2666.0</ele>
      </trkpt>
      <trkpt lat="45.26106" lon="6.92841">
        <time>1970-01-01T00:00:00+00:00</time>
        <ele>2665.0</ele>
      </trkpt>
      <trkpt lat="45.26106" lon="6.92841">
        <time>1970-01-01T00:00:00+00:00</time>
        <ele>2665.0</ele>
      </trkpt>
      <trkpt lat="45.26108" lon="6.92835">
        <time>1970-01-01T00:00:00+00:00</time>
        <ele>2664.0</ele>
      </trkpt>
      <trkpt lat="45.26108" lon="6.92835">
        <time>1970-01-01T00:00:00+00:00</time>
        <ele>2664.0</ele>
      </trkpt>
      <trkpt lat="45.26113" lon="6.92825">
        <time>1970-01-01T00:00:00+00:00</time>
        <ele>2663.0</ele>
      </trkpt>
      <trkpt lat="45.26113" lon="6.92825">
        <time>1970-01-01T00:00:00+00:00</time>
        <ele>2663.0</ele>
      </trkpt>
      <trkpt lat="45.26116" lon="6.92819">
        <time>1970-01-01T00:00:00+00:00</time>
        <ele>2662.0</ele>
      </trkpt>
      <trkpt lat="45.26116" lon="6.92819">
        <time>1970-01-01T00:00:00+00:00</time>
        <ele>2662.0</ele>
      </trkpt>
      <trkpt lat="45.26119" lon="6.92814">
        <time>1970-01-01T00:00:00+00:00</time>
        <ele>2661.0</ele>
      </trkpt>
      <trkpt lat="45.26119" lon="6.92814">
        <time>1970-01-01T00:00:00+00:00</time>
        <ele>2661.0</ele>
      </trkpt>
      <trkpt lat="45.26122" lon="6.92809">
        <time>1970-01-01T00:00:00+00:00</time>
        <ele>2660.0</ele>
      </trkpt>
      <trkpt lat="45.26122" lon="6.92809">
        <time>1970-01-01T00:00:00+00:00</time>
        <ele>2660.0</ele>
      </trkpt>
      <trkpt lat="45.26125" lon="6.92804">
        <time>1970-01-01T00:00:00+00:00</time>
        <ele>2660.0</ele>
      </trkpt>
      <trkpt lat="45.26125" lon="6.92804">
        <time>1970-01-01T00:00:00+00:00</time>
        <ele>2660.0</ele>
      </trkpt>
      <trkpt lat="45.26132" lon="6.92796">
        <time>1970-01-01T00:00:00+00:00</time>
        <ele>2658.0</ele>
      </trkpt>
      <trkpt lat="45.26132" lon="6.92796">
        <time>1970-01-01T00:00:00+00:00</time>
        <ele>2658.0</ele>
      </trkpt>
      <trkpt lat="45.26137" lon="6.92788">
        <time>1970-01-01T00:00:00+00:00</time>
        <ele>2657.0</ele>
      </trkpt>
      <trkpt lat="45.26137" lon="6.92788">
        <time>1970-01-01T00:00:00+00:00</time>
        <ele>2657.0</ele>
      </trkpt>
      <trkpt lat="45.2614" lon="6.9278">
        <time>1970-01-01T00:00:00+00:00</time>
        <ele>2656.0</ele>
      </trkpt>
      <trkpt lat="45.2614" lon="6.9278">
        <time>1970-01-01T00:00:00+00:00</time>
        <ele>2656.0</ele>
      </trkpt>
      <trkpt lat="45.26144" lon="6.92772">
        <time>1970-01-01T00:00:00+00:00</time>
        <ele>2655.0</ele>
      </trkpt>
      <trkpt lat="45.26144" lon="6.92772">
        <time>1970-01-01T00:00:00+00:00</time>
        <ele>2655.0</ele>
      </trkpt>
      <trkpt lat="45.26145" lon="6.92764">
        <time>1970-01-01T00:00:00+00:00</time>
        <ele>2654.0</ele>
      </trkpt>
      <trkpt lat="45.26145" lon="6.92764">
        <time>1970-01-01T00:00:00+00:00</time>
        <ele>2654.0</ele>
      </trkpt>
      <trkpt lat="45.26146" lon="6.92756">
        <time>1970-01-01T00:00:00+00:00</time>
        <ele>2653.0</ele>
      </trkpt>
      <trkpt lat="45.26146" lon="6.92756">
        <time>1970-01-01T00:00:00+00:00</time>
        <ele>2653.0</ele>
      </trkpt>
      <trkpt lat="45.26146" lon="6.92749">
        <time>1970-01-01T00:00:00+00:00</time>
        <ele>2651.0</ele>
      </trkpt>
      <trkpt lat="45.26146" lon="6.92749">
        <time>1970-01-01T00:00:00+00:00</time>
        <ele>2651.0</ele>
      </trkpt>
      <trkpt lat="45.26143" lon="6.92744">
        <time>1970-01-01T00:00:00+00:00</time>
        <ele>2650.0</ele>
      </trkpt>
      <trkpt lat="45.26143" lon="6.92744">
        <time>1970-01-01T00:00:00+00:00</time>
        <ele>2650.0</ele>
      </trkpt>
      <trkpt lat="45.26139" lon="6.92741">
        <time>1970-01-01T00:00:00+00:00</time>
        <ele>2649.0</ele>
      </trkpt>
      <trkpt lat="45.26139" lon="6.92741">
        <time>1970-01-01T00:00:00+00:00</time>
        <ele>2649.0</ele>
      </trkpt>
      <trkpt lat="45.26134" lon="6.92739">
        <time>1970-01-01T00:00:00+00:00</time>
        <ele>2648.0</ele>
      </trkpt>
      <trkpt lat="45.26134" lon="6.92739">
        <time>1970-01-01T00:00:00+00:00</time>
        <ele>2648.0</ele>
      </trkpt>
      <trkpt lat="45.26129" lon="6.92736">
        <time>1970-01-01T00:00:00+00:00</time>
        <ele>2646.0</ele>
      </trkpt>
      <trkpt lat="45.26129" lon="6.92736">
        <time>1970-01-01T00:00:00+00:00</time>
        <ele>2646.0</ele>
      </trkpt>
      <trkpt lat="45.26129" lon="6.92729">
        <time>1970-01-01T00:00:00+00:00</time>
        <ele>2645.0</ele>
      </trkpt>
      <trkpt lat="45.26129" lon="6.92729">
        <time>1970-01-01T00:00:00+00:00</time>
        <ele>2645.0</ele>
      </trkpt>
      <trkpt lat="45.2613" lon="6.92722">
        <time>1970-01-01T00:00:00+00:00</time>
        <ele>2643.0</ele>
      </trkpt>
      <trkpt lat="45.2613" lon="6.92722">
        <time>1970-01-01T00:00:00+00:00</time>
        <ele>2643.0</ele>
      </trkpt>
      <trkpt lat="45.2613" lon="6.92711">
        <time>1970-01-01T00:00:00+00:00</time>
        <ele>2641.0</ele>
      </trkpt>
      <trkpt lat="45.2613" lon="6.92711">
        <time>1970-01-01T00:00:00+00:00</time>
        <ele>2641.0</ele>
      </trkpt>
      <trkpt lat="45.26131" lon="6.92701">
        <time>1970-01-01T00:00:00+00:00</time>
        <ele>2639.0</ele>
      </trkpt>
      <trkpt lat="45.26131" lon="6.92701">
        <time>1970-01-01T00:00:00+00:00</time>
        <ele>2639.0</ele>
      </trkpt>
      <trkpt lat="45.26131" lon="6.92692">
        <time>1970-01-01T00:00:00+00:00</time>
        <ele>2637.0</ele>
      </trkpt>
      <trkpt lat="45.26131" lon="6.92692">
        <time>1970-01-01T00:00:00+00:00</time>
        <ele>2637.0</ele>
      </trkpt>
      <trkpt lat="45.26131" lon="6.92684">
        <time>1970-01-01T00:00:00+00:00</time>
        <ele>2636.0</ele>
      </trkpt>
      <trkpt lat="45.26131" lon="6.92684">
        <time>1970-01-01T00:00:00+00:00</time>
        <ele>2636.0</ele>
      </trkpt>
      <trkpt lat="45.26131" lon="6.92677">
        <time>1970-01-01T00:00:00+00:00</time>
        <ele>2635.0</ele>
      </trkpt>
      <trkpt lat="45.26131" lon="6.92677">
        <time>1970-01-01T00:00:00+00:00</time>
        <ele>2635.0</ele>
      </trkpt>
      <trkpt lat="45.26135" lon="6.92673">
        <time>1970-01-01T00:00:00+00:00</time>
        <ele>2636.0</ele>
      </trkpt>
      <trkpt lat="45.26135" lon="6.92673">
        <time>1970-01-01T00:00:00+00:00</time>
        <ele>2636.0</ele>
      </trkpt>
      <trkpt lat="45.26135" lon="6.92666">
        <time>1970-01-01T00:00:00+00:00</time>
        <ele>2635.0</ele>
      </trkpt>
      <trkpt lat="45.26135" lon="6.92666">
        <time>1970-01-01T00:00:00+00:00</time>
        <ele>2635.0</ele>
      </trkpt>
      <trkpt lat="45.26137" lon="6.9266">
        <time>1970-01-01T00:00:00+00:00</time>
        <ele>2635.0</ele>
      </trkpt>
      <trkpt lat="45.26137" lon="6.9266">
        <time>1970-01-01T00:00:00+00:00</time>
        <ele>2635.0</ele>
      </trkpt>
      <trkpt lat="45.26139" lon="6.92654">
        <time>1970-01-01T00:00:00+00:00</time>
        <ele>2635.0</ele>
      </trkpt>
      <trkpt lat="45.26139" lon="6.92654">
        <time>1970-01-01T00:00:00+00:00</time>
        <ele>2635.0</ele>
      </trkpt>
      <trkpt lat="45.26141" lon="6.92648">
        <time>1970-01-01T00:00:00+00:00</time>
        <ele>2636.0</ele>
      </trkpt>
      <trkpt lat="45.26141" lon="6.92648">
        <time>1970-01-01T00:00:00+00:00</time>
        <ele>2636.0</ele>
      </trkpt>
      <trkpt lat="45.26143" lon="6.92641">
        <time>1970-01-01T00:00:00+00:00</time>
        <ele>2635.0</ele>
      </trkpt>
      <trkpt lat="45.26143" lon="6.92641">
        <time>1970-01-01T00:00:00+00:00</time>
        <ele>2635.0</ele>
      </trkpt>
      <trkpt lat="45.26145" lon="6.92634">
        <time>1970-01-01T00:00:00+00:00</time>
        <ele>2634.0</ele>
      </trkpt>
      <trkpt lat="45.26145" lon="6.92634">
        <time>1970-01-01T00:00:00+00:00</time>
        <ele>2634.0</ele>
      </trkpt>
      <trkpt lat="45.26147" lon="6.92628">
        <time>1970-01-01T00:00:00+00:00</time>
        <ele>2634.0</ele>
      </trkpt>
      <trkpt lat="45.26147" lon="6.92628">
        <time>1970-01-01T00:00:00+00:00</time>
        <ele>2634.0</ele>
      </trkpt>
      <trkpt lat="45.26149" lon="6.92622">
        <time>1970-01-01T00:00:00+00:00</time>
        <ele>2633.0</ele>
      </trkpt>
      <trkpt lat="45.26149" lon="6.92622">
        <time>1970-01-01T00:00:00+00:00</time>
        <ele>2633.0</ele>
      </trkpt>
      <trkpt lat="45.26152" lon="6.92617">
        <time>1970-01-01T00:00:00+00:00</time>
        <ele>2633.0</ele>
      </trkpt>
      <trkpt lat="45.26152" lon="6.92617">
        <time>1970-01-01T00:00:00+00:00</time>
        <ele>2633.0</ele>
      </trkpt>
      <trkpt lat="45.26155" lon="6.92612">
        <time>1970-01-01T00:00:00+00:00</time>
        <ele>2633.0</ele>
      </trkpt>
      <trkpt lat="45.26155" lon="6.92612">
        <time>1970-01-01T00:00:00+00:00</time>
        <ele>2633.0</ele>
      </trkpt>
      <trkpt lat="45.26155" lon="6.92605">
        <time>1970-01-01T00:00:00+00:00</time>
        <ele>2633.0</ele>
      </trkpt>
      <trkpt lat="45.26155" lon="6.92605">
        <time>1970-01-01T00:00:00+00:00</time>
        <ele>2633.0</ele>
      </trkpt>
      <trkpt lat="45.26158" lon="6.92595">
        <time>1970-01-01T00:00:00+00:00</time>
        <ele>2634.0</ele>
      </trkpt>
      <trkpt lat="45.26158" lon="6.92595">
        <time>1970-01-01T00:00:00+00:00</time>
        <ele>2634.0</ele>
      </trkpt>
      <trkpt lat="45.26161" lon="6.92588">
        <time>1970-01-01T00:00:00+00:00</time>
        <ele>2634.0</ele>
      </trkpt>
      <trkpt lat="45.26161" lon="6.92588">
        <time>1970-01-01T00:00:00+00:00</time>
        <ele>2634.0</ele>
      </trkpt>
      <trkpt lat="45.26164" lon="6.92579">
        <time>1970-01-01T00:00:00+00:00</time>
        <ele>2634.0</ele>
      </trkpt>
      <trkpt lat="45.26164" lon="6.92579">
        <time>1970-01-01T00:00:00+00:00</time>
        <ele>2634.0</ele>
      </trkpt>
      <trkpt lat="45.26166" lon="6.92572">
        <time>1970-01-01T00:00:00+00:00</time>
        <ele>2634.0</ele>
      </trkpt>
      <trkpt lat="45.26166" lon="6.92572">
        <time>1970-01-01T00:00:00+00:00</time>
        <ele>2634.0</ele>
      </trkpt>
      <trkpt lat="45.26168" lon="6.92565">
        <time>1970-01-01T00:00:00+00:00</time>
        <ele>2634.0</ele>
      </trkpt>
      <trkpt lat="45.26168" lon="6.92565">
        <time>1970-01-01T00:00:00+00:00</time>
        <ele>2634.0</ele>
      </trkpt>
      <trkpt lat="45.2617" lon="6.92559">
        <time>1970-01-01T00:00:00+00:00</time>
        <ele>2634.0</ele>
      </trkpt>
      <trkpt lat="45.2617" lon="6.92559">
        <time>1970-01-01T00:00:00+00:00</time>
        <ele>2634.0</ele>
      </trkpt>
      <trkpt lat="45.26172" lon="6.92553">
        <time>1970-01-01T00:00:00+00:00</time>
        <ele>2634.0</ele>
      </trkpt>
      <trkpt lat="45.26172" lon="6.92553">
        <time>1970-01-01T00:00:00+00:00</time>
        <ele>2634.0</ele>
      </trkpt>
      <trkpt lat="45.26174" lon="6.92544">
        <time>1970-01-01T00:00:00+00:00</time>
        <ele>2635.0</ele>
      </trkpt>
      <trkpt lat="45.26174" lon="6.92544">
        <time>1970-01-01T00:00:00+00:00</time>
        <ele>2635.0</ele>
      </trkpt>
      <trkpt lat="45.26176" lon="6.92536">
        <time>1970-01-01T00:00:00+00:00</time>
        <ele>2635.0</ele>
      </trkpt>
      <trkpt lat="45.26176" lon="6.92536">
        <time>1970-01-01T00:00:00+00:00</time>
        <ele>2635.0</ele>
      </trkpt>
      <trkpt lat="45.26178" lon="6.92529">
        <time>1970-01-01T00:00:00+00:00</time>
        <ele>2635.0</ele>
      </trkpt>
      <trkpt lat="45.26178" lon="6.92529">
        <time>1970-01-01T00:00:00+00:00</time>
        <ele>2635.0</ele>
      </trkpt>
      <trkpt lat="45.26181" lon="6.92522">
        <time>1970-01-01T00:00:00+00:00</time>
        <ele>2636.0</ele>
      </trkpt>
      <trkpt lat="45.26181" lon="6.92522">
        <time>1970-01-01T00:00:00+00:00</time>
        <ele>2636.0</ele>
      </trkpt>
      <trkpt lat="45.26184" lon="6.92517">
        <time>1970-01-01T00:00:00+00:00</time>
        <ele>2636.0</ele>
      </trkpt>
      <trkpt lat="45.26184" lon="6.92517">
        <time>1970-01-01T00:00:00+00:00</time>
        <ele>2636.0</ele>
      </trkpt>
      <trkpt lat="45.26187" lon="6.92511">
        <time>1970-01-01T00:00:00+00:00</time>
        <ele>2636.0</ele>
      </trkpt>
      <trkpt lat="45.26187" lon="6.92511">
        <time>1970-01-01T00:00:00+00:00</time>
        <ele>2636.0</ele>
      </trkpt>
      <trkpt lat="45.2619" lon="6.92503">
        <time>1970-01-01T00:00:00+00:00</time>
        <ele>2636.0</ele>
      </trkpt>
      <trkpt lat="45.2619" lon="6.92503">
        <time>1970-01-01T00:00:00+00:00</time>
        <ele>2636.0</ele>
      </trkpt>
      <trkpt lat="45.26192" lon="6.92495">
        <time>1970-01-01T00:00:00+00:00</time>
        <ele>2636.0</ele>
      </trkpt>
      <trkpt lat="45.26192" lon="6.92495">
        <time>1970-01-01T00:00:00+00:00</time>
        <ele>2636.0</ele>
      </trkpt>
      <trkpt lat="45.26194" lon="6.92488">
        <time>1970-01-01T00:00:00+00:00</time>
        <ele>2635.0</ele>
      </trkpt>
      <trkpt lat="45.26194" lon="6.92488">
        <time>1970-01-01T00:00:00+00:00</time>
        <ele>2635.0</ele>
      </trkpt>
      <trkpt lat="45.26195" lon="6.92481">
        <time>1970-01-01T00:00:00+00:00</time>
        <ele>2634.0</ele>
      </trkpt>
      <trkpt lat="45.26195" lon="6.92481">
        <time>1970-01-01T00:00:00+00:00</time>
        <ele>2634.0</ele>
      </trkpt>
      <trkpt lat="45.26196" lon="6.92472">
        <time>1970-01-01T00:00:00+00:00</time>
        <ele>2633.0</ele>
      </trkpt>
      <trkpt lat="45.26196" lon="6.92472">
        <time>1970-01-01T00:00:00+00:00</time>
        <ele>2633.0</ele>
      </trkpt>
      <trkpt lat="45.26198" lon="6.92466">
        <time>1970-01-01T00:00:00+00:00</time>
        <ele>2631.0</ele>
      </trkpt>
      <trkpt lat="45.26198" lon="6.92466">
        <time>1970-01-01T00:00:00+00:00</time>
        <ele>2631.0</ele>
      </trkpt>
      <trkpt lat="45.26203" lon="6.92463">
        <time>1970-01-01T00:00:00+00:00</time>
        <ele>2630.0</ele>
      </trkpt>
      <trkpt lat="45.26203" lon="6.92463">
        <time>1970-01-01T00:00:00+00:00</time>
        <ele>2630.0</ele>
      </trkpt>
      <trkpt lat="45.26208" lon="6.9246">
        <time>1970-01-01T00:00:00+00:00</time>
        <ele>2629.0</ele>
      </trkpt>
      <trkpt lat="45.26208" lon="6.9246">
        <time>1970-01-01T00:00:00+00:00</time>
        <ele>2629.0</ele>
      </trkpt>
      <trkpt lat="45.26216" lon="6.92457">
        <time>1970-01-01T00:00:00+00:00</time>
        <ele>2627.0</ele>
      </trkpt>
      <trkpt lat="45.26216" lon="6.92457">
        <time>1970-01-01T00:00:00+00:00</time>
        <ele>2627.0</ele>
      </trkpt>
      <trkpt lat="45.26224" lon="6.92453">
        <time>1970-01-01T00:00:00+00:00</time>
        <ele>2625.0</ele>
      </trkpt>
      <trkpt lat="45.26224" lon="6.92453">
        <time>1970-01-01T00:00:00+00:00</time>
        <ele>2625.0</ele>
      </trkpt>
      <trkpt lat="45.26231" lon="6.92446">
        <time>1970-01-01T00:00:00+00:00</time>
        <ele>2622.0</ele>
      </trkpt>
      <trkpt lat="45.26231" lon="6.92446">
        <time>1970-01-01T00:00:00+00:00</time>
        <ele>2622.0</ele>
      </trkpt>
      <trkpt lat="45.26237" lon="6.92439">
        <time>1970-01-01T00:00:00+00:00</time>
        <ele>2619.0</ele>
      </trkpt>
      <trkpt lat="45.26237" lon="6.92439">
        <time>1970-01-01T00:00:00+00:00</time>
        <ele>2619.0</ele>
      </trkpt>
      <trkpt lat="45.26242" lon="6.92431">
        <time>1970-01-01T00:00:00+00:00</time>
        <ele>2617.0</ele>
      </trkpt>
      <trkpt lat="45.26242" lon="6.92431">
        <time>1970-01-01T00:00:00+00:00</time>
        <ele>2617.0</ele>
      </trkpt>
      <trkpt lat="45.26246" lon="6.92422">
        <time>1970-01-01T00:00:00+00:00</time>
        <ele>2614.0</ele>
      </trkpt>
      <trkpt lat="45.26246" lon="6.92422">
        <time>1970-01-01T00:00:00+00:00</time>
        <ele>2614.0</ele>
      </trkpt>
      <trkpt lat="45.26248" lon="6.92416">
        <time>1970-01-01T00:00:00+00:00</time>
        <ele>2612.0</ele>
      </trkpt>
      <trkpt lat="45.26248" lon="6.92416">
        <time>1970-01-01T00:00:00+00:00</time>
        <ele>2612.0</ele>
      </trkpt>
      <trkpt lat="45.2625" lon="6.9241">
        <time>1970-01-01T00:00:00+00:00</time>
        <ele>2611.0</ele>
      </trkpt>
      <trkpt lat="45.2625" lon="6.9241">
        <time>1970-01-01T00:00:00+00:00</time>
        <ele>2611.0</ele>
      </trkpt>
      <trkpt lat="45.26253" lon="6.92404">
        <time>1970-01-01T00:00:00+00:00</time>
        <ele>2610.0</ele>
      </trkpt>
      <trkpt lat="45.26253" lon="6.92404">
        <time>1970-01-01T00:00:00+00:00</time>
        <ele>2610.0</ele>
      </trkpt>
      <trkpt lat="45.26255" lon="6.92398">
        <time>1970-01-01T00:00:00+00:00</time>
        <ele>2609.0</ele>
      </trkpt>
      <trkpt lat="45.26255" lon="6.92398">
        <time>1970-01-01T00:00:00+00:00</time>
        <ele>2609.0</ele>
      </trkpt>
      <trkpt lat="45.26258" lon="6.92393">
        <time>1970-01-01T00:00:00+00:00</time>
        <ele>2607.0</ele>
      </trkpt>
      <trkpt lat="45.26258" lon="6.92393">
        <time>1970-01-01T00:00:00+00:00</time>
        <ele>2607.0</ele>
      </trkpt>
      <trkpt lat="45.26262" lon="6.92385">
        <time>1970-01-01T00:00:00+00:00</time>
        <ele>2605.0</ele>
      </trkpt>
      <trkpt lat="45.26262" lon="6.92385">
        <time>1970-01-01T00:00:00+00:00</time>
        <ele>2605.0</ele>
      </trkpt>
      <trkpt lat="45.26267" lon="6.92377">
        <time>1970-01-01T00:00:00+00:00</time>
        <ele>2604.0</ele>
      </trkpt>
      <trkpt lat="45.26267" lon="6.92377">
        <time>1970-01-01T00:00:00+00:00</time>
        <ele>2604.0</ele>
      </trkpt>
      <trkpt lat="45.2627" lon="6.92372">
        <time>1970-01-01T00:00:00+00:00</time>
        <ele>2603.0</ele>
      </trkpt>
      <trkpt lat="45.2627" lon="6.92372">
        <time>1970-01-01T00:00:00+00:00</time>
        <ele>2603.0</ele>
      </trkpt>
      <trkpt lat="45.26273" lon="6.92366">
        <time>1970-01-01T00:00:00+00:00</time>
        <ele>2601.0</ele>
      </trkpt>
      <trkpt lat="45.26273" lon="6.92366">
        <time>1970-01-01T00:00:00+00:00</time>
        <ele>2601.0</ele>
      </trkpt>
      <trkpt lat="45.26275" lon="6.9236">
        <time>1970-01-01T00:00:00+00:00</time>
        <ele>2601.0</ele>
      </trkpt>
      <trkpt lat="45.26275" lon="6.9236">
        <time>1970-01-01T00:00:00+00:00</time>
        <ele>2601.0</ele>
      </trkpt>
      <trkpt lat="45.26278" lon="6.92354">
        <time>1970-01-01T00:00:00+00:00</time>
        <ele>2600.0</ele>
      </trkpt>
      <trkpt lat="45.26278" lon="6.92354">
        <time>1970-01-01T00:00:00+00:00</time>
        <ele>2600.0</ele>
      </trkpt>
      <trkpt lat="45.2628" lon="6.92348">
        <time>1970-01-01T00:00:00+00:00</time>
        <ele>2600.0</ele>
      </trkpt>
      <trkpt lat="45.2628" lon="6.92348">
        <time>1970-01-01T00:00:00+00:00</time>
        <ele>2600.0</ele>
      </trkpt>
      <trkpt lat="45.26284" lon="6.9234">
        <time>1970-01-01T00:00:00+00:00</time>
        <ele>2598.0</ele>
      </trkpt>
      <trkpt lat="45.26284" lon="6.9234">
        <time>1970-01-01T00:00:00+00:00</time>
        <ele>2598.0</ele>
      </trkpt>
      <trkpt lat="45.26288" lon="6.92332">
        <time>1970-01-01T00:00:00+00:00</time>
        <ele>2597.0</ele>
      </trkpt>
      <trkpt lat="45.26288" lon="6.92332">
        <time>1970-01-01T00:00:00+00:00</time>
        <ele>2597.0</ele>
      </trkpt>
      <trkpt lat="45.26294" lon="6.92324">
        <time>1970-01-01T00:00:00+00:00</time>
        <ele>2594.0</ele>
      </trkpt>
      <trkpt lat="45.26294" lon="6.92324">
        <time>1970-01-01T00:00:00+00:00</time>
        <ele>2594.0</ele>
      </trkpt>
      <trkpt lat="45.26297" lon="6.92319">
        <time>1970-01-01T00:00:00+00:00</time>
        <ele>2594.0</ele>
      </trkpt>
      <trkpt lat="45.26297" lon="6.92319">
        <time>1970-01-01T00:00:00+00:00</time>
        <ele>2594.0</ele>
      </trkpt>
      <trkpt lat="45.26301" lon="6.92314">
        <time>1970-01-01T00:00:00+00:00</time>
        <ele>2592.0</ele>
      </trkpt>
      <trkpt lat="45.26301" lon="6.92314">
        <time>1970-01-01T00:00:00+00:00</time>
        <ele>2592.0</ele>
      </trkpt>
      <trkpt lat="45.26307" lon="6.92305">
        <time>1970-01-01T00:00:00+00:00</time>
        <ele>2590.0</ele>
      </trkpt>
      <trkpt lat="45.26307" lon="6.92305">
        <time>1970-01-01T00:00:00+00:00</time>
        <ele>2590.0</ele>
      </trkpt>
      <trkpt lat="45.2631" lon="6.923">
        <time>1970-01-01T00:00:00+00:00</time>
        <ele>2589.0</ele>
      </trkpt>
      <trkpt lat="45.2631" lon="6.923">
        <time>1970-01-01T00:00:00+00:00</time>
        <ele>2589.0</ele>
      </trkpt>
      <trkpt lat="45.26313" lon="6.92295">
        <time>1970-01-01T00:00:00+00:00</time>
        <ele>2587.0</ele>
      </trkpt>
      <trkpt lat="45.26313" lon="6.92295">
        <time>1970-01-01T00:00:00+00:00</time>
        <ele>2587.0</ele>
      </trkpt>
      <trkpt lat="45.26315" lon="6.92289">
        <time>1970-01-01T00:00:00+00:00</time>
        <ele>2586.0</ele>
      </trkpt>
      <trkpt lat="45.26315" lon="6.92289">
        <time>1970-01-01T00:00:00+00:00</time>
        <ele>2586.0</ele>
      </trkpt>
      <trkpt lat="45.26317" lon="6.92282">
        <time>1970-01-01T00:00:00+00:00</time>
        <ele>2586.0</ele>
      </trkpt>
      <trkpt lat="45.26317" lon="6.92282">
        <time>1970-01-01T00:00:00+00:00</time>
        <ele>2586.0</ele>
      </trkpt>
      <trkpt lat="45.26319" lon="6.92276">
        <time>1970-01-01T00:00:00+00:00</time>
        <ele>2585.0</ele>
      </trkpt>
      <trkpt lat="45.26319" lon="6.92276">
        <time>1970-01-01T00:00:00+00:00</time>
        <ele>2585.0</ele>
      </trkpt>
      <trkpt lat="45.26321" lon="6.92268">
        <time>1970-01-01T00:00:00+00:00</time>
        <ele>2584.0</ele>
      </trkpt>
      <trkpt lat="45.26321" lon="6.92268">
        <time>1970-01-01T00:00:00+00:00</time>
        <ele>2584.0</ele>
      </trkpt>
      <trkpt lat="45.26323" lon="6.9226">
        <time>1970-01-01T00:00:00+00:00</time>
        <ele>2583.0</ele>
      </trkpt>
      <trkpt lat="45.26323" lon="6.9226">
        <time>1970-01-01T00:00:00+00:00</time>
        <ele>2583.0</ele>
      </trkpt>
      <trkpt lat="45.26325" lon="6.92252">
        <time>1970-01-01T00:00:00+00:00</time>
        <ele>2582.0</ele>
      </trkpt>
      <trkpt lat="45.26325" lon="6.92252">
        <time>1970-01-01T00:00:00+00:00</time>
        <ele>2582.0</ele>
      </trkpt>
      <trkpt lat="45.26327" lon="6.92244">
        <time>1970-01-01T00:00:00+00:00</time>
        <ele>2581.0</ele>
      </trkpt>
      <trkpt lat="45.26327" lon="6.92244">
        <time>1970-01-01T00:00:00+00:00</time>
        <ele>2581.0</ele>
      </trkpt>
      <trkpt lat="45.26329" lon="6.92236">
        <time>1970-01-01T00:00:00+00:00</time>
        <ele>2581.0</ele>
      </trkpt>
      <trkpt lat="45.26329" lon="6.92236">
        <time>1970-01-01T00:00:00+00:00</time>
        <ele>2581.0</ele>
      </trkpt>
      <trkpt lat="45.26331" lon="6.92229">
        <time>1970-01-01T00:00:00+00:00</time>
        <ele>2580.0</ele>
      </trkpt>
      <trkpt lat="45.26331" lon="6.92229">
        <time>1970-01-01T00:00:00+00:00</time>
        <ele>2580.0</ele>
      </trkpt>
      <trkpt lat="45.26334" lon="6.92221">
        <time>1970-01-01T00:00:00+00:00</time>
        <ele>2579.0</ele>
      </trkpt>
      <trkpt lat="45.26334" lon="6.92221">
        <time>1970-01-01T00:00:00+00:00</time>
        <ele>2579.0</ele>
      </trkpt>
      <trkpt lat="45.26337" lon="6.92214">
        <time>1970-01-01T00:00:00+00:00</time>
        <ele>2579.0</ele>
      </trkpt>
      <trkpt lat="45.26337" lon="6.92214">
        <time>1970-01-01T00:00:00+00:00</time>
        <ele>2579.0</ele>
      </trkpt>
      <trkpt lat="45.2634" lon="6.92206">
        <time>1970-01-01T00:00:00+00:00</time>
        <ele>2578.0</ele>
      </trkpt>
      <trkpt lat="45.2634" lon="6.92206">
        <time>1970-01-01T00:00:00+00:00</time>
        <ele>2578.0</ele>
      </trkpt>
      <trkpt lat="45.26343" lon="6.92198">
        <time>1970-01-01T00:00:00+00:00</time>
        <ele>2578.0</ele>
      </trkpt>
      <trkpt lat="45.26343" lon="6.92198">
        <time>1970-01-01T00:00:00+00:00</time>
        <ele>2578.0</ele>
      </trkpt>
      <trkpt lat="45.26345" lon="6.9219">
        <time>1970-01-01T00:00:00+00:00</time>
        <ele>2577.0</ele>
      </trkpt>
      <trkpt lat="45.26345" lon="6.9219">
        <time>1970-01-01T00:00:00+00:00</time>
        <ele>2577.0</ele>
      </trkpt>
      <trkpt lat="45.26348" lon="6.92181">
        <time>1970-01-01T00:00:00+00:00</time>
        <ele>2576.0</ele>
      </trkpt>
      <trkpt lat="45.26348" lon="6.92181">
        <time>1970-01-01T00:00:00+00:00</time>
        <ele>2576.0</ele>
      </trkpt>
      <trkpt lat="45.26351" lon="6.92173">
        <time>1970-01-01T00:00:00+00:00</time>
        <ele>2575.0</ele>
      </trkpt>
      <trkpt lat="45.26351" lon="6.92173">
        <time>1970-01-01T00:00:00+00:00</time>
        <ele>2575.0</ele>
      </trkpt>
      <trkpt lat="45.26354" lon="6.92166">
        <time>1970-01-01T00:00:00+00:00</time>
        <ele>2574.0</ele>
      </trkpt>
      <trkpt lat="45.26354" lon="6.92166">
        <time>1970-01-01T00:00:00+00:00</time>
        <ele>2574.0</ele>
      </trkpt>
      <trkpt lat="45.26357" lon="6.92161">
        <time>1970-01-01T00:00:00+00:00</time>
        <ele>2573.0</ele>
      </trkpt>
      <trkpt lat="45.26357" lon="6.92161">
        <time>1970-01-01T00:00:00+00:00</time>
        <ele>2573.0</ele>
      </trkpt>
      <trkpt lat="45.2636" lon="6.92156">
        <time>1970-01-01T00:00:00+00:00</time>
        <ele>2573.0</ele>
      </trkpt>
      <trkpt lat="45.2636" lon="6.92156">
        <time>1970-01-01T00:00:00+00:00</time>
        <ele>2573.0</ele>
      </trkpt>
      <trkpt lat="45.26365" lon="6.92149">
        <time>1970-01-01T00:00:00+00:00</time>
        <ele>2571.0</ele>
      </trkpt>
      <trkpt lat="45.26365" lon="6.92149">
        <time>1970-01-01T00:00:00+00:00</time>
        <ele>2571.0</ele>
      </trkpt>
      <trkpt lat="45.2637" lon="6.92145">
        <time>1970-01-01T00:00:00+00:00</time>
        <ele>2570.0</ele>
      </trkpt>
      <trkpt lat="45.2637" lon="6.92145">
        <time>1970-01-01T00:00:00+00:00</time>
        <ele>2570.0</ele>
      </trkpt>
      <trkpt lat="45.26377" lon="6.9214">
        <time>1970-01-01T00:00:00+00:00</time>
        <ele>2568.0</ele>
      </trkpt>
      <trkpt lat="45.26377" lon="6.9214">
        <time>1970-01-01T00:00:00+00:00</time>
        <ele>2568.0</ele>
      </trkpt>
      <trkpt lat="45.26385" lon="6.92135">
        <time>1970-01-01T00:00:00+00:00</time>
        <ele>2567.0</ele>
      </trkpt>
      <trkpt lat="45.26385" lon="6.92135">
        <time>1970-01-01T00:00:00+00:00</time>
        <ele>2567.0</ele>
      </trkpt>
      <trkpt lat="45.26391" lon="6.92131">
        <time>1970-01-01T00:00:00+00:00</time>
        <ele>2565.0</ele>
      </trkpt>
      <trkpt lat="45.26391" lon="6.92131">
        <time>1970-01-01T00:00:00+00:00</time>
        <ele>2565.0</ele>
      </trkpt>
      <trkpt lat="45.26396" lon="6.92128">
        <time>1970-01-01T00:00:00+00:00</time>
        <ele>2564.0</ele>
      </trkpt>
      <trkpt lat="45.26396" lon="6.92128">
        <time>1970-01-01T00:00:00+00:00</time>
        <ele>2564.0</ele>
      </trkpt>
      <trkpt lat="45.26401" lon="6.92131">
        <time>1970-01-01T00:00:00+00:00</time>
        <ele>2562.0</ele>
      </trkpt>
      <trkpt lat="45.26401" lon="6.92131">
        <time>1970-01-01T00:00:00+00:00</time>
        <ele>2562.0</ele>
      </trkpt>
      <trkpt lat="45.26403" lon="6.92137">
        <time>1970-01-01T00:00:00+00:00</time>
        <ele>2560.0</ele>
      </trkpt>
      <trkpt lat="45.26403" lon="6.92137">
        <time>1970-01-01T00:00:00+00:00</time>
        <ele>2560.0</ele>
      </trkpt>
      <trkpt lat="45.26407" lon="6.92131">
        <time>1970-01-01T00:00:00+00:00</time>
        <ele>2560.0</ele>
      </trkpt>
      <trkpt lat="45.26407" lon="6.92131">
        <time>1970-01-01T00:00:00+00:00</time>
        <ele>2560.0</ele>
      </trkpt>
      <trkpt lat="45.26414" lon="6.92127">
        <time>1970-01-01T00:00:00+00:00</time>
        <ele>2558.0</ele>
      </trkpt>
      <trkpt lat="45.26414" lon="6.92127">
        <time>1970-01-01T00:00:00+00:00</time>
        <ele>2558.0</ele>
      </trkpt>
      <trkpt lat="45.26422" lon="6.92126">
        <time>1970-01-01T00:00:00+00:00</time>
        <ele>2554.0</ele>
      </trkpt>
      <trkpt lat="45.26422" lon="6.92126">
        <time>1970-01-01T00:00:00+00:00</time>
        <ele>2554.0</ele>
      </trkpt>
      <trkpt lat="45.26429" lon="6.92127">
        <time>1970-01-01T00:00:00+00:00</time>
        <ele>2551.0</ele>
      </trkpt>
      <trkpt lat="45.26429" lon="6.92127">
        <time>1970-01-01T00:00:00+00:00</time>
        <ele>2551.0</ele>
      </trkpt>
      <trkpt lat="45.26435" lon="6.9213">
        <time>1970-01-01T00:00:00+00:00</time>
        <ele>2549.0</ele>
      </trkpt>
      <trkpt lat="45.26435" lon="6.9213">
        <time>1970-01-01T00:00:00+00:00</time>
        <ele>2549.0</ele>
      </trkpt>
      <trkpt lat="45.26442" lon="6.92135">
        <time>1970-01-01T00:00:00+00:00</time>
        <ele>2545.0</ele>
      </trkpt>
      <trkpt lat="45.26442" lon="6.92135">
        <time>1970-01-01T00:00:00+00:00</time>
        <ele>2545.0</ele>
      </trkpt>
      <trkpt lat="45.26446" lon="6.92138">
        <time>1970-01-01T00:00:00+00:00</time>
        <ele>2543.0</ele>
      </trkpt>
      <trkpt lat="45.26446" lon="6.92138">
        <time>1970-01-01T00:00:00+00:00</time>
        <ele>2543.0</ele>
      </trkpt>
      <trkpt lat="45.26452" lon="6.92145">
        <time>1970-01-01T00:00:00+00:00</time>
        <ele>2538.0</ele>
      </trkpt>
      <trkpt lat="45.26452" lon="6.92145">
        <time>1970-01-01T00:00:00+00:00</time>
        <ele>2538.0</ele>
      </trkpt>
      <trkpt lat="45.26456" lon="6.92155">
        <time>1970-01-01T00:00:00+00:00</time>
        <ele>2535.0</ele>
      </trkpt>
      <trkpt lat="45.26456" lon="6.92155">
        <time>1970-01-01T00:00:00+00:00</time>
        <ele>2535.0</ele>
      </trkpt>
      <trkpt lat="45.26457" lon="6.92169">
        <time>1970-01-01T00:00:00+00:00</time>
        <ele>2533.0</ele>
      </trkpt>
      <trkpt lat="45.26457" lon="6.92169">
        <time>1970-01-01T00:00:00+00:00</time>
        <ele>2533.0</ele>
      </trkpt>
      <trkpt lat="45.26456" lon="6.92176">
        <time>1970-01-01T00:00:00+00:00</time>
        <ele>2533.0</ele>
      </trkpt>
      <trkpt lat="45.26456" lon="6.92176">
        <time>1970-01-01T00:00:00+00:00</time>
        <ele>2533.0</ele>
      </trkpt>
      <trkpt lat="45.26454" lon="6.92185">
        <time>1970-01-01T00:00:00+00:00</time>
        <ele>2533.0</ele>
      </trkpt>
      <trkpt lat="45.26454" lon="6.92185">
        <time>1970-01-01T00:00:00+00:00</time>
        <ele>2533.0</ele>
      </trkpt>
      <trkpt lat="45.26453" lon="6.92192">
        <time>1970-01-01T00:00:00+00:00</time>
        <ele>2533.0</ele>
      </trkpt>
      <trkpt lat="45.26453" lon="6.92192">
        <time>1970-01-01T00:00:00+00:00</time>
        <ele>2533.0</ele>
      </trkpt>
      <trkpt lat="45.26452" lon="6.92199">
        <time>1970-01-01T00:00:00+00:00</time>
        <ele>2533.0</ele>
      </trkpt>
      <trkpt lat="45.26452" lon="6.92199">
        <time>1970-01-01T00:00:00+00:00</time>
        <ele>2533.0</ele>
      </trkpt>
      <trkpt lat="45.26451" lon="6.92206">
        <time>1970-01-01T00:00:00+00:00</time>
        <ele>2532.0</ele>
      </trkpt>
      <trkpt lat="45.26451" lon="6.92206">
        <time>1970-01-01T00:00:00+00:00</time>
        <ele>2532.0</ele>
      </trkpt>
      <trkpt lat="45.26448" lon="6.92213">
        <time>1970-01-01T00:00:00+00:00</time>
        <ele>2532.0</ele>
      </trkpt>
      <trkpt lat="45.26448" lon="6.92213">
        <time>1970-01-01T00:00:00+00:00</time>
        <ele>2532.0</ele>
      </trkpt>
      <trkpt lat="45.26447" lon="6.9222">
        <time>1970-01-01T00:00:00+00:00</time>
        <ele>2531.0</ele>
      </trkpt>
      <trkpt lat="45.26447" lon="6.9222">
        <time>1970-01-01T00:00:00+00:00</time>
        <ele>2531.0</ele>
      </trkpt>
      <trkpt lat="45.26448" lon="6.92228">
        <time>1970-01-01T00:00:00+00:00</time>
        <ele>2528.0</ele>
      </trkpt>
      <trkpt lat="45.26448" lon="6.92228">
        <time>1970-01-01T00:00:00+00:00</time>
        <ele>2528.0</ele>
      </trkpt>
      <trkpt lat="45.26452" lon="6.92231">
        <time>1970-01-01T00:00:00+00:00</time>
        <ele>2525.0</ele>
      </trkpt>
      <trkpt lat="45.26452" lon="6.92231">
        <time>1970-01-01T00:00:00+00:00</time>
        <ele>2525.0</ele>
      </trkpt>
      <trkpt lat="45.26452" lon="6.92238">
        <time>1970-01-01T00:00:00+00:00</time>
        <ele>2523.0</ele>
      </trkpt>
      <trkpt lat="45.26452" lon="6.92238">
        <time>1970-01-01T00:00:00+00:00</time>
        <ele>2523.0</ele>
      </trkpt>
      <trkpt lat="45.26453" lon="6.92248">
        <time>1970-01-01T00:00:00+00:00</time>
        <ele>2520.0</ele>
      </trkpt>
      <trkpt lat="45.26453" lon="6.92248">
        <time>1970-01-01T00:00:00+00:00</time>
        <ele>2520.0</ele>
      </trkpt>
      <trkpt lat="45.26453" lon="6.92255">
        <time>1970-01-01T00:00:00+00:00</time>
        <ele>2518.0</ele>
      </trkpt>
      <trkpt lat="45.26453" lon="6.92255">
        <time>1970-01-01T00:00:00+00:00</time>
        <ele>2518.0</ele>
      </trkpt>
      <trkpt lat="45.26454" lon="6.92262">
        <time>1970-01-01T00:00:00+00:00</time>
        <ele>2515.0</ele>
      </trkpt>
      <trkpt lat="45.26454" lon="6.92262">
        <time>1970-01-01T00:00:00+00:00</time>
        <ele>2515.0</ele>
      </trkpt>
      <trkpt lat="45.26455" lon="6.92273">
        <time>1970-01-01T00:00:00+00:00</time>
        <ele>2512.0</ele>
      </trkpt>
      <trkpt lat="45.26455" lon="6.92273">
        <time>1970-01-01T00:00:00+00:00</time>
        <ele>2512.0</ele>
      </trkpt>
      <trkpt lat="45.26455" lon="6.92285">
        <time>1970-01-01T00:00:00+00:00</time>
        <ele>2508.0</ele>
      </trkpt>
      <trkpt lat="45.26455" lon="6.92285">
        <time>1970-01-01T00:00:00+00:00</time>
        <ele>2508.0</ele>
      </trkpt>
      <trkpt lat="45.26454" lon="6.92296">
        <time>1970-01-01T00:00:00+00:00</time>
        <ele>2506.0</ele>
      </trkpt>
      <trkpt lat="45.26454" lon="6.92296">
        <time>1970-01-01T00:00:00+00:00</time>
        <ele>2506.0</ele>
      </trkpt>
      <trkpt lat="45.26458" lon="6.923">
        <time>1970-01-01T00:00:00+00:00</time>
        <ele>2502.0</ele>
      </trkpt>
      <trkpt lat="45.26458" lon="6.923">
        <time>1970-01-01T00:00:00+00:00</time>
        <ele>2502.0</ele>
      </trkpt>
      <trkpt lat="45.26463" lon="6.92299">
        <time>1970-01-01T00:00:00+00:00</time>
        <ele>2499.0</ele>
      </trkpt>
      <trkpt lat="45.26463" lon="6.92299">
        <time>1970-01-01T00:00:00+00:00</time>
        <ele>2499.0</ele>
      </trkpt>
      <trkpt lat="45.2647" lon="6.92295">
        <time>1970-01-01T00:00:00+00:00</time>
        <ele>2496.0</ele>
      </trkpt>
      <trkpt lat="45.2647" lon="6.92295">
        <time>1970-01-01T00:00:00+00:00</time>
        <ele>2496.0</ele>
      </trkpt>
      <trkpt lat="45.26468" lon="6.92305">
        <time>1970-01-01T00:00:00+00:00</time>
        <ele>2495.0</ele>
      </trkpt>
      <trkpt lat="45.26468" lon="6.92305">
        <time>1970-01-01T00:00:00+00:00</time>
        <ele>2495.0</ele>
      </trkpt>
      <trkpt lat="45.26468" lon="6.92312">
        <time>1970-01-01T00:00:00+00:00</time>
        <ele>2493.0</ele>
      </trkpt>
      <trkpt lat="45.26468" lon="6.92312">
        <time>1970-01-01T00:00:00+00:00</time>
        <ele>2493.0</ele>
      </trkpt>
      <trkpt lat="45.26468" lon="6.92321">
        <time>1970-01-01T00:00:00+00:00</time>
        <ele>2492.0</ele>
      </trkpt>
      <trkpt lat="45.26468" lon="6.92321">
        <time>1970-01-01T00:00:00+00:00</time>
        <ele>2492.0</ele>
      </trkpt>
      <trkpt lat="45.26468" lon="6.92332">
        <time>1970-01-01T00:00:00+00:00</time>
        <ele>2491.0</ele>
      </trkpt>
      <trkpt lat="45.26468" lon="6.92332">
        <time>1970-01-01T00:00:00+00:00</time>
        <ele>2491.0</ele>
      </trkpt>
      <trkpt lat="45.26469" lon="6.9234">
        <time>1970-01-01T00:00:00+00:00</time>
        <ele>2489.0</ele>
      </trkpt>
      <trkpt lat="45.26469" lon="6.9234">
        <time>1970-01-01T00:00:00+00:00</time>
        <ele>2489.0</ele>
      </trkpt>
      <trkpt lat="45.2647" lon="6.9235">
        <time>1970-01-01T00:00:00+00:00</time>
        <ele>2487.0</ele>
      </trkpt>
      <trkpt lat="45.2647" lon="6.9235">
        <time>1970-01-01T00:00:00+00:00</time>
        <ele>2487.0</ele>
      </trkpt>
      <trkpt lat="45.26475" lon="6.92347">
        <time>1970-01-01T00:00:00+00:00</time>
        <ele>2484.0</ele>
      </trkpt>
      <trkpt lat="45.26475" lon="6.92347">
        <time>1970-01-01T00:00:00+00:00</time>
        <ele>2484.0</ele>
      </trkpt>
      <trkpt lat="45.26479" lon="6.92351">
        <time>1970-01-01T00:00:00+00:00</time>
        <ele>2481.0</ele>
      </trkpt>
      <trkpt lat="45.26479" lon="6.92351">
        <time>1970-01-01T00:00:00+00:00</time>
        <ele>2481.0</ele>
      </trkpt>
      <trkpt lat="45.26482" lon="6.92356">
        <time>1970-01-01T00:00:00+00:00</time>
        <ele>2479.0</ele>
      </trkpt>
      <trkpt lat="45.26482" lon="6.92356">
        <time>1970-01-01T00:00:00+00:00</time>
        <ele>2479.0</ele>
      </trkpt>
      <trkpt lat="45.26486" lon="6.92352">
        <time>1970-01-01T00:00:00+00:00</time>
        <ele>2477.0</ele>
      </trkpt>
      <trkpt lat="45.26486" lon="6.92352">
        <time>1970-01-01T00:00:00+00:00</time>
        <ele>2477.0</ele>
      </trkpt>
      <trkpt lat="45.26489" lon="6.92346">
        <time>1970-01-01T00:00:00+00:00</time>
        <ele>2476.0</ele>
      </trkpt>
      <trkpt lat="45.26489" lon="6.92346">
        <time>1970-01-01T00:00:00+00:00</time>
        <ele>2476.0</ele>
      </trkpt>
      <trkpt lat="45.26494" lon="6.92339">
        <time>1970-01-01T00:00:00+00:00</time>
        <ele>2474.0</ele>
      </trkpt>
      <trkpt lat="45.26494" lon="6.92339">
        <time>1970-01-01T00:00:00+00:00</time>
        <ele>2474.0</ele>
      </trkpt>
      <trkpt lat="45.26499" lon="6.92333">
        <time>1970-01-01T00:00:00+00:00</time>
        <ele>2472.0</ele>
      </trkpt>
      <trkpt lat="45.26499" lon="6.92333">
        <time>1970-01-01T00:00:00+00:00</time>
        <ele>2472.0</ele>
      </trkpt>
      <trkpt lat="45.26504" lon="6.9233">
        <time>1970-01-01T00:00:00+00:00</time>
        <ele>2470.0</ele>
      </trkpt>
      <trkpt lat="45.26504" lon="6.9233">
        <time>1970-01-01T00:00:00+00:00</time>
        <ele>2470.0</ele>
      </trkpt>
      <trkpt lat="45.26507" lon="6.92338">
        <time>1970-01-01T00:00:00+00:00</time>
        <ele>2467.0</ele>
      </trkpt>
      <trkpt lat="45.26507" lon="6.92338">
        <time>1970-01-01T00:00:00+00:00</time>
        <ele>2467.0</ele>
      </trkpt>
      <trkpt lat="45.26507" lon="6.92345">
        <time>1970-01-01T00:00:00+00:00</time>
        <ele>2466.0</ele>
      </trkpt>
      <trkpt lat="45.26507" lon="6.92345">
        <time>1970-01-01T00:00:00+00:00</time>
        <ele>2466.0</ele>
      </trkpt>
      <trkpt lat="45.26506" lon="6.92352">
        <time>1970-01-01T00:00:00+00:00</time>
        <ele>2466.0</ele>
      </trkpt>
      <trkpt lat="45.26506" lon="6.92352">
        <time>1970-01-01T00:00:00+00:00</time>
        <ele>2466.0</ele>
      </trkpt>
      <trkpt lat="45.26509" lon="6.92358">
        <time>1970-01-01T00:00:00+00:00</time>
        <ele>2464.0</ele>
      </trkpt>
      <trkpt lat="45.26509" lon="6.92358">
        <time>1970-01-01T00:00:00+00:00</time>
        <ele>2464.0</ele>
      </trkpt>
      <trkpt lat="45.26513" lon="6.92355">
        <time>1970-01-01T00:00:00+00:00</time>
        <ele>2462.0</ele>
      </trkpt>
      <trkpt lat="45.26513" lon="6.92355">
        <time>1970-01-01T00:00:00+00:00</time>
        <ele>2462.0</ele>
      </trkpt>
      <trkpt lat="45.26518" lon="6.9235">
        <time>1970-01-01T00:00:00+00:00</time>
        <ele>2460.0</ele>
      </trkpt>
      <trkpt lat="45.26518" lon="6.9235">
        <time>1970-01-01T00:00:00+00:00</time>
        <ele>2460.0</ele>
      </trkpt>
      <trkpt lat="45.26524" lon="6.92345">
        <time>1970-01-01T00:00:00+00:00</time>
        <ele>2457.0</ele>
      </trkpt>
      <trkpt lat="45.26524" lon="6.92345">
        <time>1970-01-01T00:00:00+00:00</time>
        <ele>2457.0</ele>
      </trkpt>
      <trkpt lat="45.26529" lon="6.92346">
        <time>1970-01-01T00:00:00+00:00</time>
        <ele>2455.0</ele>
      </trkpt>
      <trkpt lat="45.26529" lon="6.92346">
        <time>1970-01-01T00:00:00+00:00</time>
        <ele>2455.0</ele>
      </trkpt>
      <trkpt lat="45.26533" lon="6.92349">
        <time>1970-01-01T00:00:00+00:00</time>
        <ele>2452.0</ele>
      </trkpt>
      <trkpt lat="45.26533" lon="6.92349">
        <time>1970-01-01T00:00:00+00:00</time>
        <ele>2452.0</ele>
      </trkpt>
      <trkpt lat="45.26541" lon="6.92351">
        <time>1970-01-01T00:00:00+00:00</time>
        <ele>2447.0</ele>
      </trkpt>
      <trkpt lat="45.26541" lon="6.92351">
        <time>1970-01-01T00:00:00+00:00</time>
        <ele>2447.0</ele>
      </trkpt>
      <trkpt lat="45.26549" lon="6.92356">
        <time>1970-01-01T00:00:00+00:00</time>
        <ele>2444.0</ele>
      </trkpt>
      <trkpt lat="45.26549" lon="6.92356">
        <time>1970-01-01T00:00:00+00:00</time>
        <ele>2444.0</ele>
      </trkpt>
      <trkpt lat="45.26553" lon="6.92359">
        <time>1970-01-01T00:00:00+00:00</time>
        <ele>2442.0</ele>
      </trkpt>
      <trkpt lat="45.26553" lon="6.92359">
        <time>1970-01-01T00:00:00+00:00</time>
        <ele>2442.0</ele>
      </trkpt>
      <trkpt lat="45.26559" lon="6.92366">
        <time>1970-01-01T00:00:00+00:00</time>
        <ele>2439.0</ele>
      </trkpt>
      <trkpt lat="45.26559" lon="6.92366">
        <time>1970-01-01T00:00:00+00:00</time>
        <ele>2439.0</ele>
      </trkpt>
      <trkpt lat="45.26565" lon="6.92372">
        <time>1970-01-01T00:00:00+00:00</time>
        <ele>2436.0</ele>
      </trkpt>
      <trkpt lat="45.26565" lon="6.92372">
        <time>1970-01-01T00:00:00+00:00</time>
        <ele>2436.0</ele>
      </trkpt>
      <trkpt lat="45.26569" lon="6.92378">
        <time>1970-01-01T00:00:00+00:00</time>
        <ele>2433.0</ele>
      </trkpt>
      <trkpt lat="45.26569" lon="6.92378">
        <time>1970-01-01T00:00:00+00:00</time>
        <ele>2433.0</ele>
      </trkpt>
      <trkpt lat="45.26574" lon="6.92381">
        <time>1970-01-01T00:00:00+00:00</time>
        <ele>2431.0</ele>
      </trkpt>
      <trkpt lat="45.26574" lon="6.92381">
        <time>1970-01-01T00:00:00+00:00</time>
        <ele>2431.0</ele>
      </trkpt>
      <trkpt lat="45.26581" lon="6.92379">
        <time>1970-01-01T00:00:00+00:00</time>
        <ele>2428.0</ele>
      </trkpt>
      <trkpt lat="45.26581" lon="6.92379">
        <time>1970-01-01T00:00:00+00:00</time>
        <ele>2428.0</ele>
      </trkpt>
      <trkpt lat="45.26583" lon="6.92389">
        <time>1970-01-01T00:00:00+00:00</time>
        <ele>2426.0</ele>
      </trkpt>
      <trkpt lat="45.26583" lon="6.92389">
        <time>1970-01-01T00:00:00+00:00</time>
        <ele>2426.0</ele>
      </trkpt>
      <trkpt lat="45.26583" lon="6.92397">
        <time>1970-01-01T00:00:00+00:00</time>
        <ele>2425.0</ele>
      </trkpt>
      <trkpt lat="45.26583" lon="6.92397">
        <time>1970-01-01T00:00:00+00:00</time>
        <ele>2425.0</ele>
      </trkpt>
      <trkpt lat="45.26582" lon="6.9241">
        <time>1970-01-01T00:00:00+00:00</time>
        <ele>2425.0</ele>
      </trkpt>
      <trkpt lat="45.26582" lon="6.9241">
        <time>1970-01-01T00:00:00+00:00</time>
        <ele>2425.0</ele>
      </trkpt>
      <trkpt lat="45.26582" lon="6.92418">
        <time>1970-01-01T00:00:00+00:00</time>
        <ele>2425.0</ele>
      </trkpt>
      <trkpt lat="45.26582" lon="6.92418">
        <time>1970-01-01T00:00:00+00:00</time>
        <ele>2425.0</ele>
      </trkpt>
      <trkpt lat="45.26582" lon="6.92425">
        <time>1970-01-01T00:00:00+00:00</time>
        <ele>2425.0</ele>
      </trkpt>
      <trkpt lat="45.26582" lon="6.92425">
        <time>1970-01-01T00:00:00+00:00</time>
        <ele>2425.0</ele>
      </trkpt>
      <trkpt lat="45.26582" lon="6.92432">
        <time>1970-01-01T00:00:00+00:00</time>
        <ele>2425.0</ele>
      </trkpt>
      <trkpt lat="45.26582" lon="6.92432">
        <time>1970-01-01T00:00:00+00:00</time>
        <ele>2425.0</ele>
      </trkpt>
      <trkpt lat="45.26582" lon="6.92439">
        <time>1970-01-01T00:00:00+00:00</time>
        <ele>2425.0</ele>
      </trkpt>
      <trkpt lat="45.26582" lon="6.92439">
        <time>1970-01-01T00:00:00+00:00</time>
        <ele>2425.0</ele>
      </trkpt>
      <trkpt lat="45.26583" lon="6.92446">
        <time>1970-01-01T00:00:00+00:00</time>
        <ele>2425.0</ele>
      </trkpt>
      <trkpt lat="45.26583" lon="6.92446">
        <time>1970-01-01T00:00:00+00:00</time>
        <ele>2425.0</ele>
      </trkpt>
      <trkpt lat="45.26585" lon="6.92453">
        <time>1970-01-01T00:00:00+00:00</time>
        <ele>2425.0</ele>
      </trkpt>
      <trkpt lat="45.26585" lon="6.92453">
        <time>1970-01-01T00:00:00+00:00</time>
        <ele>2425.0</ele>
      </trkpt>
      <trkpt lat="45.26588" lon="6.92458">
        <time>1970-01-01T00:00:00+00:00</time>
        <ele>2425.0</ele>
      </trkpt>
      <trkpt lat="45.26588" lon="6.92458">
        <time>1970-01-01T00:00:00+00:00</time>
        <ele>2425.0</ele>
      </trkpt>
      <trkpt lat="45.26592" lon="6.92462">
        <time>1970-01-01T00:00:00+00:00</time>
        <ele>2425.0</ele>
      </trkpt>
      <trkpt lat="45.26592" lon="6.92462">
        <time>1970-01-01T00:00:00+00:00</time>
        <ele>2425.0</ele>
      </trkpt>
      <trkpt lat="45.26596" lon="6.92465">
        <time>1970-01-01T00:00:00+00:00</time>
        <ele>2424.0</ele>
      </trkpt>
      <trkpt lat="45.26596" lon="6.92465">
        <time>1970-01-01T00:00:00+00:00</time>
        <ele>2424.0</ele>
      </trkpt>
      <trkpt lat="45.26602" lon="6.9247">
        <time>1970-01-01T00:00:00+00:00</time>
        <ele>2423.0</ele>
      </trkpt>
      <trkpt lat="45.26602" lon="6.9247">
        <time>1970-01-01T00:00:00+00:00</time>
        <ele>2423.0</ele>
      </trkpt>
      <trkpt lat="45.26608" lon="6.92473">
        <time>1970-01-01T00:00:00+00:00</time>
        <ele>2422.0</ele>
      </trkpt>
      <trkpt lat="45.26608" lon="6.92473">
        <time>1970-01-01T00:00:00+00:00</time>
        <ele>2422.0</ele>
      </trkpt>
      <trkpt lat="45.26614" lon="6.92476">
        <time>1970-01-01T00:00:00+00:00</time>
        <ele>2421.0</ele>
      </trkpt>
      <trkpt lat="45.26614" lon="6.92476">
        <time>1970-01-01T00:00:00+00:00</time>
        <ele>2421.0</ele>
      </trkpt>
      <trkpt lat="45.26619" lon="6.92478">
        <time>1970-01-01T00:00:00+00:00</time>
        <ele>2420.0</ele>
      </trkpt>
      <trkpt lat="45.26619" lon="6.92478">
        <time>1970-01-01T00:00:00+00:00</time>
        <ele>2420.0</ele>
      </trkpt>
      <trkpt lat="45.26628" lon="6.92482">
        <time>1970-01-01T00:00:00+00:00</time>
        <ele>2418.0</ele>
      </trkpt>
      <trkpt lat="45.26628" lon="6.92482">
        <time>1970-01-01T00:00:00+00:00</time>
        <ele>2418.0</ele>
      </trkpt>
      <trkpt lat="45.26633" lon="6.92485">
        <time>1970-01-01T00:00:00+00:00</time>
        <ele>2417.0</ele>
      </trkpt>
      <trkpt lat="45.26633" lon="6.92485">
        <time>1970-01-01T00:00:00+00:00</time>
        <ele>2417.0</ele>
      </trkpt>
      <trkpt lat="45.26638" lon="6.92487">
        <time>1970-01-01T00:00:00+00:00</time>
        <ele>2415.0</ele>
      </trkpt>
      <trkpt lat="45.26638" lon="6.92487">
        <time>1970-01-01T00:00:00+00:00</time>
        <ele>2415.0</ele>
      </trkpt>
      <trkpt lat="45.26646" lon="6.92492">
        <time>1970-01-01T00:00:00+00:00</time>
        <ele>2413.0</ele>
      </trkpt>
      <trkpt lat="45.26646" lon="6.92492">
        <time>1970-01-01T00:00:00+00:00</time>
        <ele>2413.0</ele>
      </trkpt>
      <trkpt lat="45.2665" lon="6.92495">
        <time>1970-01-01T00:00:00+00:00</time>
        <ele>2412.0</ele>
      </trkpt>
      <trkpt lat="45.2665" lon="6.92495">
        <time>1970-01-01T00:00:00+00:00</time>
        <ele>2412.0</ele>
      </trkpt>
      <trkpt lat="45.26654" lon="6.92498">
        <time>1970-01-01T00:00:00+00:00</time>
        <ele>2411.0</ele>
      </trkpt>
      <trkpt lat="45.26654" lon="6.92498">
        <time>1970-01-01T00:00:00+00:00</time>
        <ele>2411.0</ele>
      </trkpt>
      <trkpt lat="45.2666" lon="6.92498">
        <time>1970-01-01T00:00:00+00:00</time>
        <ele>2410.0</ele>
      </trkpt>
      <trkpt lat="45.2666" lon="6.92498">
        <time>1970-01-01T00:00:00+00:00</time>
        <ele>2410.0</ele>
      </trkpt>
      <trkpt lat="45.26666" lon="6.92499">
        <time>1970-01-01T00:00:00+00:00</time>
        <ele>2409.0</ele>
      </trkpt>
      <trkpt lat="45.26666" lon="6.92499">
        <time>1970-01-01T00:00:00+00:00</time>
        <ele>2409.0</ele>
      </trkpt>
      <trkpt lat="45.26671" lon="6.92499">
        <time>1970-01-01T00:00:00+00:00</time>
        <ele>2408.0</ele>
      </trkpt>
      <trkpt lat="45.26671" lon="6.92499">
        <time>1970-01-01T00:00:00+00:00</time>
        <ele>2408.0</ele>
      </trkpt>
      <trkpt lat="45.26676" lon="6.92495">
        <time>1970-01-01T00:00:00+00:00</time>
        <ele>2407.0</ele>
      </trkpt>
      <trkpt lat="45.26676" lon="6.92495">
        <time>1970-01-01T00:00:00+00:00</time>
        <ele>2407.0</ele>
      </trkpt>
      <trkpt lat="45.26679" lon="6.92489">
        <time>1970-01-01T00:00:00+00:00</time>
        <ele>2406.0</ele>
      </trkpt>
      <trkpt lat="45.26679" lon="6.92489">
        <time>1970-01-01T00:00:00+00:00</time>
        <ele>2406.0</ele>
      </trkpt>
      <trkpt lat="45.2668" lon="6.9248">
        <time>1970-01-01T00:00:00+00:00</time>
        <ele>2404.0</ele>
      </trkpt>
      <trkpt lat="45.2668" lon="6.9248">
        <time>1970-01-01T00:00:00+00:00</time>
        <ele>2404.0</ele>
      </trkpt>
      <trkpt lat="45.26679" lon="6.9247">
        <time>1970-01-01T00:00:00+00:00</time>
        <ele>2404.0</ele>
      </trkpt>
      <trkpt lat="45.26679" lon="6.9247">
        <time>1970-01-01T00:00:00+00:00</time>
        <ele>2404.0</ele>
      </trkpt>
      <trkpt lat="45.26678" lon="6.92461">
        <time>1970-01-01T00:00:00+00:00</time>
        <ele>2403.0</ele>
      </trkpt>
      <trkpt lat="45.26678" lon="6.92461">
        <time>1970-01-01T00:00:00+00:00</time>
        <ele>2403.0</ele>
      </trkpt>
      <trkpt lat="45.26682" lon="6.92464">
        <time>1970-01-01T00:00:00+00:00</time>
        <ele>2402.0</ele>
      </trkpt>
      <trkpt lat="45.26682" lon="6.92464">
        <time>1970-01-01T00:00:00+00:00</time>
        <ele>2402.0</ele>
      </trkpt>
      <trkpt lat="45.26688" lon="6.92471">
        <time>1970-01-01T00:00:00+00:00</time>
        <ele>2400.0</ele>
      </trkpt>
      <trkpt lat="45.26688" lon="6.92471">
        <time>1970-01-01T00:00:00+00:00</time>
        <ele>2400.0</ele>
      </trkpt>
      <trkpt lat="45.26691" lon="6.92477">
        <time>1970-01-01T00:00:00+00:00</time>
        <ele>2400.0</ele>
      </trkpt>
      <trkpt lat="45.26691" lon="6.92477">
        <time>1970-01-01T00:00:00+00:00</time>
        <ele>2400.0</ele>
      </trkpt>
      <trkpt lat="45.26694" lon="6.92483">
        <time>1970-01-01T00:00:00+00:00</time>
        <ele>2400.0</ele>
      </trkpt>
      <trkpt lat="45.26694" lon="6.92483">
        <time>1970-01-01T00:00:00+00:00</time>
        <ele>2400.0</ele>
      </trkpt>
      <trkpt lat="45.26698" lon="6.92487">
        <time>1970-01-01T00:00:00+00:00</time>
        <ele>2399.0</ele>
      </trkpt>
      <trkpt lat="45.26698" lon="6.92487">
        <time>1970-01-01T00:00:00+00:00</time>
        <ele>2399.0</ele>
      </trkpt>
      <trkpt lat="45.26701" lon="6.92492">
        <time>1970-01-01T00:00:00+00:00</time>
        <ele>2399.0</ele>
      </trkpt>
      <trkpt lat="45.26701" lon="6.92492">
        <time>1970-01-01T00:00:00+00:00</time>
        <ele>2399.0</ele>
      </trkpt>
      <trkpt lat="45.26707" lon="6.92493">
        <time>1970-01-01T00:00:00+00:00</time>
        <ele>2396.0</ele>
      </trkpt>
      <trkpt lat="45.26707" lon="6.92493">
        <time>1970-01-01T00:00:00+00:00</time>
        <ele>2396.0</ele>
      </trkpt>
      <trkpt lat="45.26712" lon="6.92487">
        <time>1970-01-01T00:00:00+00:00</time>
        <ele>2393.0</ele>
      </trkpt>
      <trkpt lat="45.26712" lon="6.92487">
        <time>1970-01-01T00:00:00+00:00</time>
        <ele>2393.0</ele>
      </trkpt>
      <trkpt lat="45.26714" lon="6.92481">
        <time>1970-01-01T00:00:00+00:00</time>
        <ele>2391.0</ele>
      </trkpt>
      <trkpt lat="45.26714" lon="6.92481">
        <time>1970-01-01T00:00:00+00:00</time>
        <ele>2391.0</ele>
      </trkpt>
      <trkpt lat="45.26719" lon="6.92476">
        <time>1970-01-01T00:00:00+00:00</time>
        <ele>2387.0</ele>
      </trkpt>
      <trkpt lat="45.26719" lon="6.92476">
        <time>1970-01-01T00:00:00+00:00</time>
        <ele>2387.0</ele>
      </trkpt>
      <trkpt lat="45.26723" lon="6.92473">
        <time>1970-01-01T00:00:00+00:00</time>
        <ele>2385.0</ele>
      </trkpt>
      <trkpt lat="45.26723" lon="6.92473">
        <time>1970-01-01T00:00:00+00:00</time>
        <ele>2385.0</ele>
      </trkpt>
      <trkpt lat="45.26731" lon="6.92469">
        <time>1970-01-01T00:00:00+00:00</time>
        <ele>2380.0</ele>
      </trkpt>
      <trkpt lat="45.26731" lon="6.92469">
        <time>1970-01-01T00:00:00+00:00</time>
        <ele>2380.0</ele>
      </trkpt>
      <trkpt lat="45.26737" lon="6.92467">
        <time>1970-01-01T00:00:00+00:00</time>
        <ele>2378.0</ele>
      </trkpt>
      <trkpt lat="45.26737" lon="6.92467">
        <time>1970-01-01T00:00:00+00:00</time>
        <ele>2378.0</ele>
      </trkpt>
      <trkpt lat="45.26746" lon="6.92462">
        <time>1970-01-01T00:00:00+00:00</time>
        <ele>2375.0</ele>
      </trkpt>
      <trkpt lat="45.26746" lon="6.92462">
        <time>1970-01-01T00:00:00+00:00</time>
        <ele>2375.0</ele>
      </trkpt>
      <trkpt lat="45.2675" lon="6.92459">
        <time>1970-01-01T00:00:00+00:00</time>
        <ele>2374.0</ele>
      </trkpt>
      <trkpt lat="45.2675" lon="6.92459">
        <time>1970-01-01T00:00:00+00:00</time>
        <ele>2374.0</ele>
      </trkpt>
      <trkpt lat="45.26756" lon="6.92458">
        <time>1970-01-01T00:00:00+00:00</time>
        <ele>2372.0</ele>
      </trkpt>
      <trkpt lat="45.26756" lon="6.92458">
        <time>1970-01-01T00:00:00+00:00</time>
        <ele>2372.0</ele>
      </trkpt>
      <trkpt lat="45.26763" lon="6.92461">
        <time>1970-01-01T00:00:00+00:00</time>
        <ele>2371.0</ele>
      </trkpt>
      <trkpt lat="45.26763" lon="6.92461">
        <time>1970-01-01T00:00:00+00:00</time>
        <ele>2371.0</ele>
      </trkpt>
      <trkpt lat="45.26771" lon="6.92457">
        <time>1970-01-01T00:00:00+00:00</time>
        <ele>2368.0</ele>
      </trkpt>
      <trkpt lat="45.26771" lon="6.92457">
        <time>1970-01-01T00:00:00+00:00</time>
        <ele>2368.0</ele>
      </trkpt>
      <trkpt lat="45.26778" lon="6.92454">
        <time>1970-01-01T00:00:00+00:00</time>
        <ele>2366.0</ele>
      </trkpt>
      <trkpt lat="45.26778" lon="6.92454">
        <time>1970-01-01T00:00:00+00:00</time>
        <ele>2366.0</ele>
      </trkpt>
      <trkpt lat="45.26787" lon="6.92459">
        <time>1970-01-01T00:00:00+00:00</time>
        <ele>2363.0</ele>
      </trkpt>
      <trkpt lat="45.26787" lon="6.92459">
        <time>1970-01-01T00:00:00+00:00</time>
        <ele>2363.0</ele>
      </trkpt>
      <trkpt lat="45.26792" lon="6.92468">
        <time>1970-01-01T00:00:00+00:00</time>
        <ele>2363.0</ele>
      </trkpt>
      <trkpt lat="45.26792" lon="6.92468">
        <time>1970-01-01T00:00:00+00:00</time>
        <ele>2363.0</ele>
      </trkpt>
      <trkpt lat="45.26798" lon="6.92475">
        <time>1970-01-01T00:00:00+00:00</time>
        <ele>2362.0</ele>
      </trkpt>
      <trkpt lat="45.26798" lon="6.92475">
        <time>1970-01-01T00:00:00+00:00</time>
        <ele>2362.0</ele>
      </trkpt>
      <trkpt lat="45.26803" lon="6.92483">
        <time>1970-01-01T00:00:00+00:00</time>
        <ele>2361.0</ele>
      </trkpt>
      <trkpt lat="45.26803" lon="6.92483">
        <time>1970-01-01T00:00:00+00:00</time>
        <ele>2361.0</ele>
      </trkpt>
      <trkpt lat="45.26809" lon="6.9249">
        <time>1970-01-01T00:00:00+00:00</time>
        <ele>2360.0</ele>
      </trkpt>
      <trkpt lat="45.26809" lon="6.9249">
        <time>1970-01-01T00:00:00+00:00</time>
        <ele>2360.0</ele>
      </trkpt>
      <trkpt lat="45.26815" lon="6.92497">
        <time>1970-01-01T00:00:00+00:00</time>
        <ele>2359.0</ele>
      </trkpt>
      <trkpt lat="45.26815" lon="6.92497">
        <time>1970-01-01T00:00:00+00:00</time>
        <ele>2359.0</ele>
      </trkpt>
      <trkpt lat="45.26821" lon="6.92505">
        <time>1970-01-01T00:00:00+00:00</time>
        <ele>2358.0</ele>
      </trkpt>
      <trkpt lat="45.26821" lon="6.92505">
        <time>1970-01-01T00:00:00+00:00</time>
        <ele>2358.0</ele>
      </trkpt>
      <trkpt lat="45.26829" lon="6.92509">
        <time>1970-01-01T00:00:00+00:00</time>
        <ele>2356.0</ele>
      </trkpt>
      <trkpt lat="45.26829" lon="6.92509">
        <time>1970-01-01T00:00:00+00:00</time>
        <ele>2356.0</ele>
      </trkpt>
      <trkpt lat="45.26834" lon="6.92511">
        <time>1970-01-01T00:00:00+00:00</time>
        <ele>2354.0</ele>
      </trkpt>
      <trkpt lat="45.26834" lon="6.92511">
        <time>1970-01-01T00:00:00+00:00</time>
        <ele>2354.0</ele>
      </trkpt>
      <trkpt lat="45.26839" lon="6.92512">
        <time>1970-01-01T00:00:00+00:00</time>
        <ele>2353.0</ele>
      </trkpt>
      <trkpt lat="45.26839" lon="6.92512">
        <time>1970-01-01T00:00:00+00:00</time>
        <ele>2353.0</ele>
      </trkpt>
      <trkpt lat="45.26844" lon="6.92515">
        <time>1970-01-01T00:00:00+00:00</time>
        <ele>2351.0</ele>
      </trkpt>
      <trkpt lat="45.26844" lon="6.92515">
        <time>1970-01-01T00:00:00+00:00</time>
        <ele>2351.0</ele>
      </trkpt>
      <trkpt lat="45.2685" lon="6.92516">
        <time>1970-01-01T00:00:00+00:00</time>
        <ele>2349.0</ele>
      </trkpt>
      <trkpt lat="45.2685" lon="6.92516">
        <time>1970-01-01T00:00:00+00:00</time>
        <ele>2349.0</ele>
      </trkpt>
      <trkpt lat="45.26856" lon="6.92515">
        <time>1970-01-01T00:00:00+00:00</time>
        <ele>2347.0</ele>
      </trkpt>
      <trkpt lat="45.26856" lon="6.92515">
        <time>1970-01-01T00:00:00+00:00</time>
        <ele>2347.0</ele>
      </trkpt>
      <trkpt lat="45.26861" lon="6.92514">
        <time>1970-01-01T00:00:00+00:00</time>
        <ele>2345.0</ele>
      </trkpt>
      <trkpt lat="45.26861" lon="6.92514">
        <time>1970-01-01T00:00:00+00:00</time>
        <ele>2345.0</ele>
      </trkpt>
      <trkpt lat="45.26869" lon="6.9251">
        <time>1970-01-01T00:00:00+00:00</time>
        <ele>2343.0</ele>
      </trkpt>
      <trkpt lat="45.26869" lon="6.9251">
        <time>1970-01-01T00:00:00+00:00</time>
        <ele>2343.0</ele>
      </trkpt>
      <trkpt lat="45.26874" lon="6.92511">
        <time>1970-01-01T00:00:00+00:00</time>
        <ele>2343.0</ele>
      </trkpt>
      <trkpt lat="45.26874" lon="6.92511">
        <time>1970-01-01T00:00:00+00:00</time>
        <ele>2343.0</ele>
      </trkpt>
      <trkpt lat="45.26879" lon="6.92513">
        <time>1970-01-01T00:00:00+00:00</time>
        <ele>2342.0</ele>
      </trkpt>
      <trkpt lat="45.26879" lon="6.92513">
        <time>1970-01-01T00:00:00+00:00</time>
        <ele>2342.0</ele>
      </trkpt>
      <trkpt lat="45.26884" lon="6.92511">
        <time>1970-01-01T00:00:00+00:00</time>
        <ele>2341.0</ele>
      </trkpt>
      <trkpt lat="45.26884" lon="6.92511">
        <time>1970-01-01T00:00:00+00:00</time>
        <ele>2341.0</ele>
      </trkpt>
      <trkpt lat="45.26887" lon="6.92503">
        <time>1970-01-01T00:00:00+00:00</time>
        <ele>2340.0</ele>
      </trkpt>
      <trkpt lat="45.26887" lon="6.92503">
        <time>1970-01-01T00:00:00+00:00</time>
        <ele>2340.0</ele>
      </trkpt>
      <trkpt lat="45.2689" lon="6.92495">
        <time>1970-01-01T00:00:00+00:00</time>
        <ele>2339.0</ele>
      </trkpt>
      <trkpt lat="45.2689" lon="6.92495">
        <time>1970-01-01T00:00:00+00:00</time>
        <ele>2339.0</ele>
      </trkpt>
      <trkpt lat="45.26891" lon="6.92488">
        <time>1970-01-01T00:00:00+00:00</time>
        <ele>2338.0</ele>
      </trkpt>
      <trkpt lat="45.26891" lon="6.92488">
        <time>1970-01-01T00:00:00+00:00</time>
        <ele>2338.0</ele>
      </trkpt>
      <trkpt lat="45.26892" lon="6.9248">
        <time>1970-01-01T00:00:00+00:00</time>
        <ele>2337.0</ele>
      </trkpt>
      <trkpt lat="45.26892" lon="6.9248">
        <time>1970-01-01T00:00:00+00:00</time>
        <ele>2337.0</ele>
      </trkpt>
      <trkpt lat="45.26891" lon="6.92469">
        <time>1970-01-01T00:00:00+00:00</time>
        <ele>2336.0</ele>
      </trkpt>
      <trkpt lat="45.26891" lon="6.92469">
        <time>1970-01-01T00:00:00+00:00</time>
        <ele>2336.0</ele>
      </trkpt>
      <trkpt lat="45.26891" lon="6.9246">
        <time>1970-01-01T00:00:00+00:00</time>
        <ele>2335.0</ele>
      </trkpt>
      <trkpt lat="45.26891" lon="6.9246">
        <time>1970-01-01T00:00:00+00:00</time>
        <ele>2335.0</ele>
      </trkpt>
      <trkpt lat="45.26892" lon="6.9245">
        <time>1970-01-01T00:00:00+00:00</time>
        <ele>2333.0</ele>
      </trkpt>
      <trkpt lat="45.26892" lon="6.9245">
        <time>1970-01-01T00:00:00+00:00</time>
        <ele>2333.0</ele>
      </trkpt>
      <trkpt lat="45.26893" lon="6.92439">
        <time>1970-01-01T00:00:00+00:00</time>
        <ele>2332.0</ele>
      </trkpt>
      <trkpt lat="45.26893" lon="6.92439">
        <time>1970-01-01T00:00:00+00:00</time>
        <ele>2332.0</ele>
      </trkpt>
      <trkpt lat="45.26895" lon="6.92428">
        <time>1970-01-01T00:00:00+00:00</time>
        <ele>2331.0</ele>
      </trkpt>
      <trkpt lat="45.26895" lon="6.92428">
        <time>1970-01-01T00:00:00+00:00</time>
        <ele>2331.0</ele>
      </trkpt>
      <trkpt lat="45.26897" lon="6.92421">
        <time>1970-01-01T00:00:00+00:00</time>
        <ele>2330.0</ele>
      </trkpt>
      <trkpt lat="45.26897" lon="6.92421">
        <time>1970-01-01T00:00:00+00:00</time>
        <ele>2330.0</ele>
      </trkpt>
      <trkpt lat="45.269" lon="6.92412">
        <time>1970-01-01T00:00:00+00:00</time>
        <ele>2329.0</ele>
      </trkpt>
      <trkpt lat="45.269" lon="6.92412">
        <time>1970-01-01T00:00:00+00:00</time>
        <ele>2329.0</ele>
      </trkpt>
      <trkpt lat="45.26903" lon="6.92404">
        <time>1970-01-01T00:00:00+00:00</time>
        <ele>2329.0</ele>
      </trkpt>
      <trkpt lat="45.26903" lon="6.92404">
        <time>1970-01-01T00:00:00+00:00</time>
        <ele>2329.0</ele>
      </trkpt>
      <trkpt lat="45.26905" lon="6.92396">
        <time>1970-01-01T00:00:00+00:00</time>
        <ele>2329.0</ele>
      </trkpt>
      <trkpt lat="45.26905" lon="6.92396">
        <time>1970-01-01T00:00:00+00:00</time>
        <ele>2329.0</ele>
      </trkpt>
      <trkpt lat="45.26905" lon="6.92385">
        <time>1970-01-01T00:00:00+00:00</time>
        <ele>2329.0</ele>
      </trkpt>
      <trkpt lat="45.26905" lon="6.92385">
        <time>1970-01-01T00:00:00+00:00</time>
        <ele>2329.0</ele>
      </trkpt>
      <trkpt lat="45.26906" lon="6.92375">
        <time>1970-01-01T00:00:00+00:00</time>
        <ele>2327.0</ele>
      </trkpt>
      <trkpt lat="45.26906" lon="6.92375">
        <time>1970-01-01T00:00:00+00:00</time>
        <ele>2327.0</ele>
      </trkpt>
      <trkpt lat="45.26906" lon="6.92367">
        <time>1970-01-01T00:00:00+00:00</time>
        <ele>2327.0</ele>
      </trkpt>
      <trkpt lat="45.26906" lon="6.92367">
        <time>1970-01-01T00:00:00+00:00</time>
        <ele>2327.0</ele>
      </trkpt>
      <trkpt lat="45.26908" lon="6.92355">
        <time>1970-01-01T00:00:00+00:00</time>
        <ele>2325.0</ele>
      </trkpt>
      <trkpt lat="45.26908" lon="6.92355">
        <time>1970-01-01T00:00:00+00:00</time>
        <ele>2325.0</ele>
      </trkpt>
      <trkpt lat="45.2691" lon="6.92348">
        <time>1970-01-01T00:00:00+00:00</time>
        <ele>2324.0</ele>
      </trkpt>
      <trkpt lat="45.2691" lon="6.92348">
        <time>1970-01-01T00:00:00+00:00</time>
        <ele>2324.0</ele>
      </trkpt>
      <trkpt lat="45.26914" lon="6.92337">
        <time>1970-01-01T00:00:00+00:00</time>
        <ele>2323.0</ele>
      </trkpt>
      <trkpt lat="45.26914" lon="6.92337">
        <time>1970-01-01T00:00:00+00:00</time>
        <ele>2323.0</ele>
      </trkpt>
      <trkpt lat="45.26917" lon="6.92329">
        <time>1970-01-01T00:00:00+00:00</time>
        <ele>2322.0</ele>
      </trkpt>
      <trkpt lat="45.26917" lon="6.92329">
        <time>1970-01-01T00:00:00+00:00</time>
        <ele>2322.0</ele>
      </trkpt>
      <trkpt lat="45.26919" lon="6.92321">
        <time>1970-01-01T00:00:00+00:00</time>
        <ele>2321.0</ele>
      </trkpt>
      <trkpt lat="45.26919" lon="6.92321">
        <time>1970-01-01T00:00:00+00:00</time>
        <ele>2321.0</ele>
      </trkpt>
      <trkpt lat="45.26921" lon="6.92313">
        <time>1970-01-01T00:00:00+00:00</time>
        <ele>2320.0</ele>
      </trkpt>
      <trkpt lat="45.26921" lon="6.92313">
        <time>1970-01-01T00:00:00+00:00</time>
        <ele>2320.0</ele>
      </trkpt>
      <trkpt lat="45.26926" lon="6.92306">
        <time>1970-01-01T00:00:00+00:00</time>
        <ele>2319.0</ele>
      </trkpt>
      <trkpt lat="45.26926" lon="6.92306">
        <time>1970-01-01T00:00:00+00:00</time>
        <ele>2319.0</ele>
      </trkpt>
      <trkpt lat="45.2693" lon="6.92298">
        <time>1970-01-01T00:00:00+00:00</time>
        <ele>2317.0</ele>
      </trkpt>
      <trkpt lat="45.2693" lon="6.92298">
        <time>1970-01-01T00:00:00+00:00</time>
        <ele>2317.0</ele>
      </trkpt>
      <trkpt lat="45.26933" lon="6.9229">
        <time>1970-01-01T00:00:00+00:00</time>
        <ele>2315.0</ele>
      </trkpt>
      <trkpt lat="45.26933" lon="6.9229">
        <time>1970-01-01T00:00:00+00:00</time>
        <ele>2315.0</ele>
      </trkpt>
      <trkpt lat="45.26935" lon="6.92282">
        <time>1970-01-01T00:00:00+00:00</time>
        <ele>2314.0</ele>
      </trkpt>
      <trkpt lat="45.26935" lon="6.92282">
        <time>1970-01-01T00:00:00+00:00</time>
        <ele>2314.0</ele>
      </trkpt>
      <trkpt lat="45.26938" lon="6.92276">
        <time>1970-01-01T00:00:00+00:00</time>
        <ele>2313.0</ele>
      </trkpt>
      <trkpt lat="45.26938" lon="6.92276">
        <time>1970-01-01T00:00:00+00:00</time>
        <ele>2313.0</ele>
      </trkpt>
      <trkpt lat="45.26943" lon="6.92274">
        <time>1970-01-01T00:00:00+00:00</time>
        <ele>2311.0</ele>
      </trkpt>
      <trkpt lat="45.26943" lon="6.92274">
        <time>1970-01-01T00:00:00+00:00</time>
        <ele>2311.0</ele>
      </trkpt>
      <trkpt lat="45.26946" lon="6.92281">
        <time>1970-01-01T00:00:00+00:00</time>
        <ele>2310.0</ele>
      </trkpt>
      <trkpt lat="45.26946" lon="6.92281">
        <time>1970-01-01T00:00:00+00:00</time>
        <ele>2310.0</ele>
      </trkpt>
      <trkpt lat="45.26948" lon="6.92289">
        <time>1970-01-01T00:00:00+00:00</time>
        <ele>2309.0</ele>
      </trkpt>
      <trkpt lat="45.26948" lon="6.92289">
        <time>1970-01-01T00:00:00+00:00</time>
        <ele>2309.0</ele>
      </trkpt>
      <trkpt lat="45.26949" lon="6.92297">
        <time>1970-01-01T00:00:00+00:00</time>
        <ele>2309.0</ele>
      </trkpt>
      <trkpt lat="45.26949" lon="6.92297">
        <time>1970-01-01T00:00:00+00:00</time>
        <ele>2309.0</ele>
      </trkpt>
      <trkpt lat="45.26949" lon="6.92304">
        <time>1970-01-01T00:00:00+00:00</time>
        <ele>2310.0</ele>
      </trkpt>
      <trkpt lat="45.26949" lon="6.92304">
        <time>1970-01-01T00:00:00+00:00</time>
        <ele>2310.0</ele>
      </trkpt>
      <trkpt lat="45.26951" lon="6.9231">
        <time>1970-01-01T00:00:00+00:00</time>
        <ele>2309.0</ele>
      </trkpt>
      <trkpt lat="45.26951" lon="6.9231">
        <time>1970-01-01T00:00:00+00:00</time>
        <ele>2309.0</ele>
      </trkpt>
      <trkpt lat="45.26957" lon="6.92311">
        <time>1970-01-01T00:00:00+00:00</time>
        <ele>2306.0</ele>
      </trkpt>
      <trkpt lat="45.26957" lon="6.92311">
        <time>1970-01-01T00:00:00+00:00</time>
        <ele>2306.0</ele>
      </trkpt>
      <trkpt lat="45.26963" lon="6.92309">
        <time>1970-01-01T00:00:00+00:00</time>
        <ele>2303.0</ele>
      </trkpt>
      <trkpt lat="45.26963" lon="6.92309">
        <time>1970-01-01T00:00:00+00:00</time>
        <ele>2303.0</ele>
      </trkpt>
      <trkpt lat="45.26968" lon="6.92308">
        <time>1970-01-01T00:00:00+00:00</time>
        <ele>2301.0</ele>
      </trkpt>
      <trkpt lat="45.26968" lon="6.92308">
        <time>1970-01-01T00:00:00+00:00</time>
        <ele>2301.0</ele>
      </trkpt>
      <trkpt lat="45.26974" lon="6.92305">
        <time>1970-01-01T00:00:00+00:00</time>
        <ele>2298.0</ele>
      </trkpt>
      <trkpt lat="45.26974" lon="6.92305">
        <time>1970-01-01T00:00:00+00:00</time>
        <ele>2298.0</ele>
      </trkpt>
      <trkpt lat="45.26979" lon="6.92299">
        <time>1970-01-01T00:00:00+00:00</time>
        <ele>2295.0</ele>
      </trkpt>
      <trkpt lat="45.26979" lon="6.92299">
        <time>1970-01-01T00:00:00+00:00</time>
        <ele>2295.0</ele>
      </trkpt>
      <trkpt lat="45.26982" lon="6.9229">
        <time>1970-01-01T00:00:00+00:00</time>
        <ele>2294.0</ele>
      </trkpt>
      <trkpt lat="45.26982" lon="6.9229">
        <time>1970-01-01T00:00:00+00:00</time>
        <ele>2294.0</ele>
      </trkpt>
      <trkpt lat="45.26983" lon="6.92283">
        <time>1970-01-01T00:00:00+00:00</time>
        <ele>2293.0</ele>
      </trkpt>
      <trkpt lat="45.26983" lon="6.92283">
        <time>1970-01-01T00:00:00+00:00</time>
        <ele>2293.0</ele>
      </trkpt>
      <trkpt lat="45.26988" lon="6.92281">
        <time>1970-01-01T00:00:00+00:00</time>
        <ele>2291.0</ele>
      </trkpt>
      <trkpt lat="45.26988" lon="6.92281">
        <time>1970-01-01T00:00:00+00:00</time>
        <ele>2291.0</ele>
      </trkpt>
      <trkpt lat="45.26993" lon="6.9228">
        <time>1970-01-01T00:00:00+00:00</time>
        <ele>2289.0</ele>
      </trkpt>
      <trkpt lat="45.26993" lon="6.9228">
        <time>1970-01-01T00:00:00+00:00</time>
        <ele>2289.0</ele>
      </trkpt>
      <trkpt lat="45.26998" lon="6.92288">
        <time>1970-01-01T00:00:00+00:00</time>
        <ele>2287.0</ele>
      </trkpt>
      <trkpt lat="45.26998" lon="6.92288">
        <time>1970-01-01T00:00:00+00:00</time>
        <ele>2287.0</ele>
      </trkpt>
      <trkpt lat="45.27" lon="6.92294">
        <time>1970-01-01T00:00:00+00:00</time>
        <ele>2286.0</ele>
      </trkpt>
      <trkpt lat="45.27" lon="6.92294">
        <time>1970-01-01T00:00:00+00:00</time>
        <ele>2286.0</ele>
      </trkpt>
      <trkpt lat="45.27002" lon="6.923">
        <time>1970-01-01T00:00:00+00:00</time>
        <ele>2285.0</ele>
      </trkpt>
      <trkpt lat="45.27002" lon="6.923">
        <time>1970-01-01T00:00:00+00:00</time>
        <ele>2285.0</ele>
      </trkpt>
      <trkpt lat="45.27006" lon="6.92311">
        <time>1970-01-01T00:00:00+00:00</time>
        <ele>2283.0</ele>
      </trkpt>
      <trkpt lat="45.27006" lon="6.92311">
        <time>1970-01-01T00:00:00+00:00</time>
        <ele>2283.0</ele>
      </trkpt>
      <trkpt lat="45.27009" lon="6.92316">
        <time>1970-01-01T00:00:00+00:00</time>
        <ele>2282.0</ele>
      </trkpt>
      <trkpt lat="45.27009" lon="6.92316">
        <time>1970-01-01T00:00:00+00:00</time>
        <ele>2282.0</ele>
      </trkpt>
      <trkpt lat="45.27014" lon="6.92316">
        <time>1970-01-01T00:00:00+00:00</time>
        <ele>2280.0</ele>
      </trkpt>
      <trkpt lat="45.27014" lon="6.92316">
        <time>1970-01-01T00:00:00+00:00</time>
        <ele>2280.0</ele>
      </trkpt>
      <trkpt lat="45.27017" lon="6.92308">
        <time>1970-01-01T00:00:00+00:00</time>
        <ele>2279.0</ele>
      </trkpt>
      <trkpt lat="45.27017" lon="6.92308">
        <time>1970-01-01T00:00:00+00:00</time>
        <ele>2279.0</ele>
      </trkpt>
      <trkpt lat="45.27023" lon="6.92302">
        <time>1970-01-01T00:00:00+00:00</time>
        <ele>2276.0</ele>
      </trkpt>
      <trkpt lat="45.27023" lon="6.92302">
        <time>1970-01-01T00:00:00+00:00</time>
        <ele>2276.0</ele>
      </trkpt>
      <trkpt lat="45.27028" lon="6.92295">
        <time>1970-01-01T00:00:00+00:00</time>
        <ele>2273.0</ele>
      </trkpt>
      <trkpt lat="45.27028" lon="6.92295">
        <time>1970-01-01T00:00:00+00:00</time>
        <ele>2273.0</ele>
      </trkpt>
      <trkpt lat="45.27032" lon="6.9229">
        <time>1970-01-01T00:00:00+00:00</time>
        <ele>2271.0</ele>
      </trkpt>
      <trkpt lat="45.27032" lon="6.9229">
        <time>1970-01-01T00:00:00+00:00</time>
        <ele>2271.0</ele>
      </trkpt>
      <trkpt lat="45.27035" lon="6.92284">
        <time>1970-01-01T00:00:00+00:00</time>
        <ele>2269.0</ele>
      </trkpt>
      <trkpt lat="45.27035" lon="6.92284">
        <time>1970-01-01T00:00:00+00:00</time>
        <ele>2269.0</ele>
      </trkpt>
      <trkpt lat="45.27042" lon="6.92287">
        <time>1970-01-01T00:00:00+00:00</time>
        <ele>2266.0</ele>
      </trkpt>
      <trkpt lat="45.27042" lon="6.92287">
        <time>1970-01-01T00:00:00+00:00</time>
        <ele>2266.0</ele>
      </trkpt>
      <trkpt lat="45.27046" lon="6.92296">
        <time>1970-01-01T00:00:00+00:00</time>
        <ele>2265.0</ele>
      </trkpt>
      <trkpt lat="45.27046" lon="6.92296">
        <time>1970-01-01T00:00:00+00:00</time>
        <ele>2265.0</ele>
      </trkpt>
      <trkpt lat="45.27049" lon="6.92304">
        <time>1970-01-01T00:00:00+00:00</time>
        <ele>2264.0</ele>
      </trkpt>
      <trkpt lat="45.27049" lon="6.92304">
        <time>1970-01-01T00:00:00+00:00</time>
        <ele>2264.0</ele>
      </trkpt>
      <trkpt lat="45.27054" lon="6.92308">
        <time>1970-01-01T00:00:00+00:00</time>
        <ele>2262.0</ele>
      </trkpt>
      <trkpt lat="45.27054" lon="6.92308">
        <time>1970-01-01T00:00:00+00:00</time>
        <ele>2262.0</ele>
      </trkpt>
      <trkpt lat="45.27061" lon="6.92308">
        <time>1970-01-01T00:00:00+00:00</time>
        <ele>2258.0</ele>
      </trkpt>
      <trkpt lat="45.27061" lon="6.92308">
        <time>1970-01-01T00:00:00+00:00</time>
        <ele>2258.0</ele>
      </trkpt>
      <trkpt lat="45.27067" lon="6.92308">
        <time>1970-01-01T00:00:00+00:00</time>
        <ele>2255.0</ele>
      </trkpt>
      <trkpt lat="45.27067" lon="6.92308">
        <time>1970-01-01T00:00:00+00:00</time>
        <ele>2255.0</ele>
      </trkpt>
      <trkpt lat="45.2707" lon="6.92303">
        <time>1970-01-01T00:00:00+00:00</time>
        <ele>2253.0</ele>
      </trkpt>
      <trkpt lat="45.2707" lon="6.92303">
        <time>1970-01-01T00:00:00+00:00</time>
        <ele>2253.0</ele>
      </trkpt>
      <trkpt lat="45.27075" lon="6.92295">
        <time>1970-01-01T00:00:00+00:00</time>
        <ele>2250.0</ele>
      </trkpt>
      <trkpt lat="45.27075" lon="6.92295">
        <time>1970-01-01T00:00:00+00:00</time>
        <ele>2250.0</ele>
      </trkpt>
      <trkpt lat="45.27078" lon="6.92287">
        <time>1970-01-01T00:00:00+00:00</time>
        <ele>2248.0</ele>
      </trkpt>
      <trkpt lat="45.27078" lon="6.92287">
        <time>1970-01-01T00:00:00+00:00</time>
        <ele>2248.0</ele>
      </trkpt>
      <trkpt lat="45.27079" lon="6.92277">
        <time>1970-01-01T00:00:00+00:00</time>
        <ele>2246.0</ele>
      </trkpt>
      <trkpt lat="45.27079" lon="6.92277">
        <time>1970-01-01T00:00:00+00:00</time>
        <ele>2246.0</ele>
      </trkpt>
      <trkpt lat="45.27078" lon="6.92266">
        <time>1970-01-01T00:00:00+00:00</time>
        <ele>2246.0</ele>
      </trkpt>
      <trkpt lat="45.27078" lon="6.92266">
        <time>1970-01-01T00:00:00+00:00</time>
        <ele>2246.0</ele>
      </trkpt>
      <trkpt lat="45.27077" lon="6.92255">
        <time>1970-01-01T00:00:00+00:00</time>
        <ele>2245.0</ele>
      </trkpt>
      <trkpt lat="45.27077" lon="6.92255">
        <time>1970-01-01T00:00:00+00:00</time>
        <ele>2245.0</ele>
      </trkpt>
      <trkpt lat="45.27076" lon="6.92243">
        <time>1970-01-01T00:00:00+00:00</time>
        <ele>2244.0</ele>
      </trkpt>
      <trkpt lat="45.27076" lon="6.92243">
        <time>1970-01-01T00:00:00+00:00</time>
        <ele>2244.0</ele>
      </trkpt>
      <trkpt lat="45.27076" lon="6.92232">
        <time>1970-01-01T00:00:00+00:00</time>
        <ele>2242.0</ele>
      </trkpt>
      <trkpt lat="45.27076" lon="6.92232">
        <time>1970-01-01T00:00:00+00:00</time>
        <ele>2242.0</ele>
      </trkpt>
      <trkpt lat="45.27077" lon="6.92222">
        <time>1970-01-01T00:00:00+00:00</time>
        <ele>2241.0</ele>
      </trkpt>
      <trkpt lat="45.27077" lon="6.92222">
        <time>1970-01-01T00:00:00+00:00</time>
        <ele>2241.0</ele>
      </trkpt>
      <trkpt lat="45.27079" lon="6.9221">
        <time>1970-01-01T00:00:00+00:00</time>
        <ele>2240.0</ele>
      </trkpt>
      <trkpt lat="45.27079" lon="6.9221">
        <time>1970-01-01T00:00:00+00:00</time>
        <ele>2240.0</ele>
      </trkpt>
      <trkpt lat="45.2708" lon="6.922">
        <time>1970-01-01T00:00:00+00:00</time>
        <ele>2239.0</ele>
      </trkpt>
      <trkpt lat="45.2708" lon="6.922">
        <time>1970-01-01T00:00:00+00:00</time>
        <ele>2239.0</ele>
      </trkpt>
      <trkpt lat="45.27081" lon="6.92193">
        <time>1970-01-01T00:00:00+00:00</time>
        <ele>2238.0</ele>
      </trkpt>
      <trkpt lat="45.27081" lon="6.92193">
        <time>1970-01-01T00:00:00+00:00</time>
        <ele>2238.0</ele>
      </trkpt>
      <trkpt lat="45.27082" lon="6.92186">
        <time>1970-01-01T00:00:00+00:00</time>
        <ele>2237.0</ele>
      </trkpt>
      <trkpt lat="45.27082" lon="6.92186">
        <time>1970-01-01T00:00:00+00:00</time>
        <ele>2237.0</ele>
      </trkpt>
      <trkpt lat="45.27083" lon="6.92178">
        <time>1970-01-01T00:00:00+00:00</time>
        <ele>2236.0</ele>
      </trkpt>
      <trkpt lat="45.27083" lon="6.92178">
        <time>1970-01-01T00:00:00+00:00</time>
        <ele>2236.0</ele>
      </trkpt>
      <trkpt lat="45.27085" lon="6.9217">
        <time>1970-01-01T00:00:00+00:00</time>
        <ele>2235.0</ele>
      </trkpt>
      <trkpt lat="45.27085" lon="6.9217">
        <time>1970-01-01T00:00:00+00:00</time>
        <ele>2235.0</ele>
      </trkpt>
      <trkpt lat="45.27086" lon="6.92162">
        <time>1970-01-01T00:00:00+00:00</time>
        <ele>2234.0</ele>
      </trkpt>
      <trkpt lat="45.27086" lon="6.92162">
        <time>1970-01-01T00:00:00+00:00</time>
        <ele>2234.0</ele>
      </trkpt>
      <trkpt lat="45.27088" lon="6.92154">
        <time>1970-01-01T00:00:00+00:00</time>
        <ele>2233.0</ele>
      </trkpt>
      <trkpt lat="45.27088" lon="6.92154">
        <time>1970-01-01T00:00:00+00:00</time>
        <ele>2233.0</ele>
      </trkpt>
      <trkpt lat="45.27092" lon="6.92145">
        <time>1970-01-01T00:00:00+00:00</time>
        <ele>2231.0</ele>
      </trkpt>
      <trkpt lat="45.27092" lon="6.92145">
        <time>1970-01-01T00:00:00+00:00</time>
        <ele>2231.0</ele>
      </trkpt>
      <trkpt lat="45.27093" lon="6.92136">
        <time>1970-01-01T00:00:00+00:00</time>
        <ele>2230.0</ele>
      </trkpt>
      <trkpt lat="45.27093" lon="6.92136">
        <time>1970-01-01T00:00:00+00:00</time>
        <ele>2230.0</ele>
      </trkpt>
      <trkpt lat="45.27094" lon="6.92127">
        <time>1970-01-01T00:00:00+00:00</time>
        <ele>2228.0</ele>
      </trkpt>
      <trkpt lat="45.27094" lon="6.92127">
        <time>1970-01-01T00:00:00+00:00</time>
        <ele>2228.0</ele>
      </trkpt>
      <trkpt lat="45.27097" lon="6.92118">
        <time>1970-01-01T00:00:00+00:00</time>
        <ele>2227.0</ele>
      </trkpt>
      <trkpt lat="45.27097" lon="6.92118">
        <time>1970-01-01T00:00:00+00:00</time>
        <ele>2227.0</ele>
      </trkpt>
      <trkpt lat="45.271" lon="6.92113">
        <time>1970-01-01T00:00:00+00:00</time>
        <ele>2226.0</ele>
      </trkpt>
      <trkpt lat="45.271" lon="6.92113">
        <time>1970-01-01T00:00:00+00:00</time>
        <ele>2226.0</ele>
      </trkpt>
      <trkpt lat="45.27103" lon="6.92108">
        <time>1970-01-01T00:00:00+00:00</time>
        <ele>2224.0</ele>
      </trkpt>
      <trkpt lat="45.27103" lon="6.92108">
        <time>1970-01-01T00:00:00+00:00</time>
        <ele>2224.0</ele>
      </trkpt>
      <trkpt lat="45.27108" lon="6.921">
        <time>1970-01-01T00:00:00+00:00</time>
        <ele>2223.0</ele>
      </trkpt>
      <trkpt lat="45.27108" lon="6.921">
        <time>1970-01-01T00:00:00+00:00</time>
        <ele>2223.0</ele>
      </trkpt>
      <trkpt lat="45.27112" lon="6.92093">
        <time>1970-01-01T00:00:00+00:00</time>
        <ele>2221.0</ele>
      </trkpt>
      <trkpt lat="45.27112" lon="6.92093">
        <time>1970-01-01T00:00:00+00:00</time>
        <ele>2221.0</ele>
      </trkpt>
      <trkpt lat="45.27115" lon="6.92088">
        <time>1970-01-01T00:00:00+00:00</time>
        <ele>2219.0</ele>
      </trkpt>
      <trkpt lat="45.27115" lon="6.92088">
        <time>1970-01-01T00:00:00+00:00</time>
        <ele>2219.0</ele>
      </trkpt>
      <trkpt lat="45.27122" lon="6.92087">
        <time>1970-01-01T00:00:00+00:00</time>
        <ele>2217.0</ele>
      </trkpt>
      <trkpt lat="45.27122" lon="6.92087">
        <time>1970-01-01T00:00:00+00:00</time>
        <ele>2217.0</ele>
      </trkpt>
      <trkpt lat="45.27128" lon="6.92092">
        <time>1970-01-01T00:00:00+00:00</time>
        <ele>2215.0</ele>
      </trkpt>
      <trkpt lat="45.27128" lon="6.92092">
        <time>1970-01-01T00:00:00+00:00</time>
        <ele>2215.0</ele>
      </trkpt>
      <trkpt lat="45.27132" lon="6.92099">
        <time>1970-01-01T00:00:00+00:00</time>
        <ele>2213.0</ele>
      </trkpt>
      <trkpt lat="45.27132" lon="6.92099">
        <time>1970-01-01T00:00:00+00:00</time>
        <ele>2213.0</ele>
      </trkpt>
      <trkpt lat="45.27137" lon="6.92099">
        <time>1970-01-01T00:00:00+00:00</time>
        <ele>2211.0</ele>
      </trkpt>
      <trkpt lat="45.27137" lon="6.92099">
        <time>1970-01-01T00:00:00+00:00</time>
        <ele>2211.0</ele>
      </trkpt>
      <trkpt lat="45.27142" lon="6.92094">
        <time>1970-01-01T00:00:00+00:00</time>
        <ele>2208.0</ele>
      </trkpt>
      <trkpt lat="45.27142" lon="6.92094">
        <time>1970-01-01T00:00:00+00:00</time>
        <ele>2208.0</ele>
      </trkpt>
      <trkpt lat="45.27144" lon="6.92087">
        <time>1970-01-01T00:00:00+00:00</time>
        <ele>2207.0</ele>
      </trkpt>
      <trkpt lat="45.27144" lon="6.92087">
        <time>1970-01-01T00:00:00+00:00</time>
        <ele>2207.0</ele>
      </trkpt>
      <trkpt lat="45.27146" lon="6.92078">
        <time>1970-01-01T00:00:00+00:00</time>
        <ele>2206.0</ele>
      </trkpt>
      <trkpt lat="45.27146" lon="6.92078">
        <time>1970-01-01T00:00:00+00:00</time>
        <ele>2206.0</ele>
      </trkpt>
      <trkpt lat="45.27148" lon="6.92072">
        <time>1970-01-01T00:00:00+00:00</time>
        <ele>2205.0</ele>
      </trkpt>
      <trkpt lat="45.27148" lon="6.92072">
        <time>1970-01-01T00:00:00+00:00</time>
        <ele>2205.0</ele>
      </trkpt>
      <trkpt lat="45.27151" lon="6.92065">
        <time>1970-01-01T00:00:00+00:00</time>
        <ele>2204.0</ele>
      </trkpt>
      <trkpt lat="45.27151" lon="6.92065">
        <time>1970-01-01T00:00:00+00:00</time>
        <ele>2204.0</ele>
      </trkpt>
      <trkpt lat="45.27153" lon="6.92059">
        <time>1970-01-01T00:00:00+00:00</time>
        <ele>2203.0</ele>
      </trkpt>
      <trkpt lat="45.27153" lon="6.92059">
        <time>1970-01-01T00:00:00+00:00</time>
        <ele>2203.0</ele>
      </trkpt>
      <trkpt lat="45.27156" lon="6.9205">
        <time>1970-01-01T00:00:00+00:00</time>
        <ele>2202.0</ele>
      </trkpt>
      <trkpt lat="45.27156" lon="6.9205">
        <time>1970-01-01T00:00:00+00:00</time>
        <ele>2202.0</ele>
      </trkpt>
      <trkpt lat="45.27159" lon="6.92043">
        <time>1970-01-01T00:00:00+00:00</time>
        <ele>2200.0</ele>
      </trkpt>
      <trkpt lat="45.27159" lon="6.92043">
        <time>1970-01-01T00:00:00+00:00</time>
        <ele>2200.0</ele>
      </trkpt>
      <trkpt lat="45.27163" lon="6.92038">
        <time>1970-01-01T00:00:00+00:00</time>
        <ele>2198.0</ele>
      </trkpt>
      <trkpt lat="45.27163" lon="6.92038">
        <time>1970-01-01T00:00:00+00:00</time>
        <ele>2198.0</ele>
      </trkpt>
      <trkpt lat="45.27169" lon="6.92036">
        <time>1970-01-01T00:00:00+00:00</time>
        <ele>2195.0</ele>
      </trkpt>
      <trkpt lat="45.27169" lon="6.92036">
        <time>1970-01-01T00:00:00+00:00</time>
        <ele>2195.0</ele>
      </trkpt>
      <trkpt lat="45.27173" lon="6.92039">
        <time>1970-01-01T00:00:00+00:00</time>
        <ele>2194.0</ele>
      </trkpt>
      <trkpt lat="45.27173" lon="6.92039">
        <time>1970-01-01T00:00:00+00:00</time>
        <ele>2194.0</ele>
      </trkpt>
      <trkpt lat="45.27176" lon="6.92046">
        <time>1970-01-01T00:00:00+00:00</time>
        <ele>2193.0</ele>
      </trkpt>
      <trkpt lat="45.27176" lon="6.92046">
        <time>1970-01-01T00:00:00+00:00</time>
        <ele>2193.0</ele>
      </trkpt>
      <trkpt lat="45.27179" lon="6.92054">
        <time>1970-01-01T00:00:00+00:00</time>
        <ele>2192.0</ele>
      </trkpt>
      <trkpt lat="45.27179" lon="6.92054">
        <time>1970-01-01T00:00:00+00:00</time>
        <ele>2192.0</ele>
      </trkpt>
      <trkpt lat="45.27183" lon="6.92059">
        <time>1970-01-01T00:00:00+00:00</time>
        <ele>2190.0</ele>
      </trkpt>
      <trkpt lat="45.27183" lon="6.92059">
        <time>1970-01-01T00:00:00+00:00</time>
        <ele>2190.0</ele>
      </trkpt>
      <trkpt lat="45.27188" lon="6.92062">
        <time>1970-01-01T00:00:00+00:00</time>
        <ele>2189.0</ele>
      </trkpt>
      <trkpt lat="45.27188" lon="6.92062">
        <time>1970-01-01T00:00:00+00:00</time>
        <ele>2189.0</ele>
      </trkpt>
      <trkpt lat="45.27196" lon="6.92059">
        <time>1970-01-01T00:00:00+00:00</time>
        <ele>2186.0</ele>
      </trkpt>
      <trkpt lat="45.27196" lon="6.92059">
        <time>1970-01-01T00:00:00+00:00</time>
        <ele>2186.0</ele>
      </trkpt>
      <trkpt lat="45.27203" lon="6.92056">
        <time>1970-01-01T00:00:00+00:00</time>
        <ele>2184.0</ele>
      </trkpt>
      <trkpt lat="45.27203" lon="6.92056">
        <time>1970-01-01T00:00:00+00:00</time>
        <ele>2184.0</ele>
      </trkpt>
      <trkpt lat="45.27209" lon="6.92052">
        <time>1970-01-01T00:00:00+00:00</time>
        <ele>2182.0</ele>
      </trkpt>
      <trkpt lat="45.27209" lon="6.92052">
        <time>1970-01-01T00:00:00+00:00</time>
        <ele>2182.0</ele>
      </trkpt>
      <trkpt lat="45.27211" lon="6.92045">
        <time>1970-01-01T00:00:00+00:00</time>
        <ele>2180.0</ele>
      </trkpt>
      <trkpt lat="45.27211" lon="6.92045">
        <time>1970-01-01T00:00:00+00:00</time>
        <ele>2180.0</ele>
      </trkpt>
      <trkpt lat="45.27211" lon="6.92035">
        <time>1970-01-01T00:00:00+00:00</time>
        <ele>2179.0</ele>
      </trkpt>
      <trkpt lat="45.27211" lon="6.92035">
        <time>1970-01-01T00:00:00+00:00</time>
        <ele>2179.0</ele>
      </trkpt>
      <trkpt lat="45.27212" lon="6.92028">
        <time>1970-01-01T00:00:00+00:00</time>
        <ele>2178.0</ele>
      </trkpt>
      <trkpt lat="45.27212" lon="6.92028">
        <time>1970-01-01T00:00:00+00:00</time>
        <ele>2178.0</ele>
      </trkpt>
      <trkpt lat="45.27213" lon="6.92019">
        <time>1970-01-01T00:00:00+00:00</time>
        <ele>2176.0</ele>
      </trkpt>
      <trkpt lat="45.27213" lon="6.92019">
        <time>1970-01-01T00:00:00+00:00</time>
        <ele>2176.0</ele>
      </trkpt>
      <trkpt lat="45.27214" lon="6.9201">
        <time>1970-01-01T00:00:00+00:00</time>
        <ele>2175.0</ele>
      </trkpt>
      <trkpt lat="45.27214" lon="6.9201">
        <time>1970-01-01T00:00:00+00:00</time>
        <ele>2175.0</ele>
      </trkpt>
      <trkpt lat="45.27215" lon="6.92002">
        <time>1970-01-01T00:00:00+00:00</time>
        <ele>2174.0</ele>
      </trkpt>
      <trkpt lat="45.27215" lon="6.92002">
        <time>1970-01-01T00:00:00+00:00</time>
        <ele>2174.0</ele>
      </trkpt>
      <trkpt lat="45.27216" lon="6.91995">
        <time>1970-01-01T00:00:00+00:00</time>
        <ele>2173.0</ele>
      </trkpt>
      <trkpt lat="45.27216" lon="6.91995">
        <time>1970-01-01T00:00:00+00:00</time>
        <ele>2173.0</ele>
      </trkpt>
      <trkpt lat="45.27218" lon="6.91989">
        <time>1970-01-01T00:00:00+00:00</time>
        <ele>2172.0</ele>
      </trkpt>
      <trkpt lat="45.27218" lon="6.91989">
        <time>1970-01-01T00:00:00+00:00</time>
        <ele>2172.0</ele>
      </trkpt>
      <trkpt lat="45.27223" lon="6.91983">
        <time>1970-01-01T00:00:00+00:00</time>
        <ele>2170.0</ele>
      </trkpt>
      <trkpt lat="45.27223" lon="6.91983">
        <time>1970-01-01T00:00:00+00:00</time>
        <ele>2170.0</ele>
      </trkpt>
      <trkpt lat="45.27228" lon="6.91983">
        <time>1970-01-01T00:00:00+00:00</time>
        <ele>2167.0</ele>
      </trkpt>
      <trkpt lat="45.27228" lon="6.91983">
        <time>1970-01-01T00:00:00+00:00</time>
        <ele>2167.0</ele>
      </trkpt>
      <trkpt lat="45.27234" lon="6.91987">
        <time>1970-01-01T00:00:00+00:00</time>
        <ele>2164.0</ele>
      </trkpt>
      <trkpt lat="45.27234" lon="6.91987">
        <time>1970-01-01T00:00:00+00:00</time>
        <ele>2164.0</ele>
      </trkpt>
      <trkpt lat="45.27239" lon="6.91991">
        <time>1970-01-01T00:00:00+00:00</time>
        <ele>2162.0</ele>
      </trkpt>
      <trkpt lat="45.27239" lon="6.91991">
        <time>1970-01-01T00:00:00+00:00</time>
        <ele>2162.0</ele>
      </trkpt>
      <trkpt lat="45.27245" lon="6.91994">
        <time>1970-01-01T00:00:00+00:00</time>
        <ele>2159.0</ele>
      </trkpt>
      <trkpt lat="45.27245" lon="6.91994">
        <time>1970-01-01T00:00:00+00:00</time>
        <ele>2159.0</ele>
      </trkpt>
      <trkpt lat="45.2725" lon="6.91997">
        <time>1970-01-01T00:00:00+00:00</time>
        <ele>2157.0</ele>
      </trkpt>
      <trkpt lat="45.2725" lon="6.91997">
        <time>1970-01-01T00:00:00+00:00</time>
        <ele>2157.0</ele>
      </trkpt>
      <trkpt lat="45.27257" lon="6.92002">
        <time>1970-01-01T00:00:00+00:00</time>
        <ele>2154.0</ele>
      </trkpt>
      <trkpt lat="45.27257" lon="6.92002">
        <time>1970-01-01T00:00:00+00:00</time>
        <ele>2154.0</ele>
      </trkpt>
      <trkpt lat="45.27263" lon="6.92006">
        <time>1970-01-01T00:00:00+00:00</time>
        <ele>2151.0</ele>
      </trkpt>
      <trkpt lat="45.27263" lon="6.92006">
        <time>1970-01-01T00:00:00+00:00</time>
        <ele>2151.0</ele>
      </trkpt>
      <trkpt lat="45.27269" lon="6.92009">
        <time>1970-01-01T00:00:00+00:00</time>
        <ele>2147.0</ele>
      </trkpt>
      <trkpt lat="45.27269" lon="6.92009">
        <time>1970-01-01T00:00:00+00:00</time>
        <ele>2147.0</ele>
      </trkpt>
      <trkpt lat="45.27277" lon="6.92014">
        <time>1970-01-01T00:00:00+00:00</time>
        <ele>2143.0</ele>
      </trkpt>
      <trkpt lat="45.27277" lon="6.92014">
        <time>1970-01-01T00:00:00+00:00</time>
        <ele>2143.0</ele>
      </trkpt>
      <trkpt lat="45.27284" lon="6.9202">
        <time>1970-01-01T00:00:00+00:00</time>
        <ele>2139.0</ele>
      </trkpt>
      <trkpt lat="45.27284" lon="6.9202">
        <time>1970-01-01T00:00:00+00:00</time>
        <ele>2139.0</ele>
      </trkpt>
      <trkpt lat="45.27287" lon="6.92025">
        <time>1970-01-01T00:00:00+00:00</time>
        <ele>2138.0</ele>
      </trkpt>
      <trkpt lat="45.27287" lon="6.92025">
        <time>1970-01-01T00:00:00+00:00</time>
        <ele>2138.0</ele>
      </trkpt>
      <trkpt lat="45.2729" lon="6.9203">
        <time>1970-01-01T00:00:00+00:00</time>
        <ele>2137.0</ele>
      </trkpt>
      <trkpt lat="45.2729" lon="6.9203">
        <time>1970-01-01T00:00:00+00:00</time>
        <ele>2137.0</ele>
      </trkpt>
      <trkpt lat="45.27296" lon="6.92038">
        <time>1970-01-01T00:00:00+00:00</time>
        <ele>2134.0</ele>
      </trkpt>
      <trkpt lat="45.27296" lon="6.92038">
        <time>1970-01-01T00:00:00+00:00</time>
        <ele>2134.0</ele>
      </trkpt>
      <trkpt lat="45.273" lon="6.92044">
        <time>1970-01-01T00:00:00+00:00</time>
        <ele>2133.0</ele>
      </trkpt>
      <trkpt lat="45.273" lon="6.92044">
        <time>1970-01-01T00:00:00+00:00</time>
        <ele>2133.0</ele>
      </trkpt>
      <trkpt lat="45.27302" lon="6.9205">
        <time>1970-01-01T00:00:00+00:00</time>
        <ele>2132.0</ele>
      </trkpt>
      <trkpt lat="45.27302" lon="6.9205">
        <time>1970-01-01T00:00:00+00:00</time>
        <ele>2132.0</ele>
      </trkpt>
      <trkpt lat="45.27305" lon="6.92055">
        <time>1970-01-01T00:00:00+00:00</time>
        <ele>2132.0</ele>
      </trkpt>
      <trkpt lat="45.27305" lon="6.92055">
        <time>1970-01-01T00:00:00+00:00</time>
        <ele>2132.0</ele>
      </trkpt>
      <trkpt lat="45.27309" lon="6.92063">
        <time>1970-01-01T00:00:00+00:00</time>
        <ele>2131.0</ele>
      </trkpt>
      <trkpt lat="45.27309" lon="6.92063">
        <time>1970-01-01T00:00:00+00:00</time>
        <ele>2131.0</ele>
      </trkpt>
      <trkpt lat="45.27313" lon="6.92072">
        <time>1970-01-01T00:00:00+00:00</time>
        <ele>2130.0</ele>
      </trkpt>
      <trkpt lat="45.27313" lon="6.92072">
        <time>1970-01-01T00:00:00+00:00</time>
        <ele>2130.0</ele>
      </trkpt>
      <trkpt lat="45.27319" lon="6.92083">
        <time>1970-01-01T00:00:00+00:00</time>
        <ele>2129.0</ele>
      </trkpt>
      <trkpt lat="45.27319" lon="6.92083">
        <time>1970-01-01T00:00:00+00:00</time>
        <ele>2129.0</ele>
      </trkpt>
      <trkpt lat="45.27323" lon="6.92087">
        <time>1970-01-01T00:00:00+00:00</time>
        <ele>2128.0</ele>
      </trkpt>
      <trkpt lat="45.27323" lon="6.92087">
        <time>1970-01-01T00:00:00+00:00</time>
        <ele>2128.0</ele>
      </trkpt>
      <trkpt lat="45.27328" lon="6.92091">
        <time>1970-01-01T00:00:00+00:00</time>
        <ele>2125.0</ele>
      </trkpt>
      <trkpt lat="45.27328" lon="6.92091">
        <time>1970-01-01T00:00:00+00:00</time>
        <ele>2125.0</ele>
      </trkpt>
      <trkpt lat="45.27333" lon="6.92094">
        <time>1970-01-01T00:00:00+00:00</time>
        <ele>2123.0</ele>
      </trkpt>
      <trkpt lat="45.27333" lon="6.92094">
        <time>1970-01-01T00:00:00+00:00</time>
        <ele>2123.0</ele>
      </trkpt>
      <trkpt lat="45.27338" lon="6.92097">
        <time>1970-01-01T00:00:00+00:00</time>
        <ele>2121.0</ele>
      </trkpt>
      <trkpt lat="45.27338" lon="6.92097">
        <time>1970-01-01T00:00:00+00:00</time>
        <ele>2121.0</ele>
      </trkpt>
      <trkpt lat="45.27344" lon="6.92101">
        <time>1970-01-01T00:00:00+00:00</time>
        <ele>2118.0</ele>
      </trkpt>
      <trkpt lat="45.27344" lon="6.92101">
        <time>1970-01-01T00:00:00+00:00</time>
        <ele>2118.0</ele>
      </trkpt>
      <trkpt lat="45.27349" lon="6.92105">
        <time>1970-01-01T00:00:00+00:00</time>
        <ele>2116.0</ele>
      </trkpt>
      <trkpt lat="45.27349" lon="6.92105">
        <time>1970-01-01T00:00:00+00:00</time>
        <ele>2116.0</ele>
      </trkpt>
      <trkpt lat="45.27355" lon="6.92107">
        <time>1970-01-01T00:00:00+00:00</time>
        <ele>2114.0</ele>
      </trkpt>
      <trkpt lat="45.27355" lon="6.92107">
        <time>1970-01-01T00:00:00+00:00</time>
        <ele>2114.0</ele>
      </trkpt>
      <trkpt lat="45.27359" lon="6.92111">
        <time>1970-01-01T00:00:00+00:00</time>
        <ele>2113.0</ele>
      </trkpt>
      <trkpt lat="45.27359" lon="6.92111">
        <time>1970-01-01T00:00:00+00:00</time>
        <ele>2113.0</ele>
      </trkpt>
      <trkpt lat="45.27364" lon="6.92114">
        <time>1970-01-01T00:00:00+00:00</time>
        <ele>2112.0</ele>
      </trkpt>
      <trkpt lat="45.27364" lon="6.92114">
        <time>1970-01-01T00:00:00+00:00</time>
        <ele>2112.0</ele>
      </trkpt>
      <trkpt lat="45.27369" lon="6.92117">
        <time>1970-01-01T00:00:00+00:00</time>
        <ele>2110.0</ele>
      </trkpt>
      <trkpt lat="45.27369" lon="6.92117">
        <time>1970-01-01T00:00:00+00:00</time>
        <ele>2110.0</ele>
      </trkpt>
      <trkpt lat="45.27373" lon="6.9212">
        <time>1970-01-01T00:00:00+00:00</time>
        <ele>2109.0</ele>
      </trkpt>
      <trkpt lat="45.27373" lon="6.9212">
        <time>1970-01-01T00:00:00+00:00</time>
        <ele>2109.0</ele>
      </trkpt>
      <trkpt lat="45.27378" lon="6.92123">
        <time>1970-01-01T00:00:00+00:00</time>
        <ele>2108.0</ele>
      </trkpt>
      <trkpt lat="45.27378" lon="6.92123">
        <time>1970-01-01T00:00:00+00:00</time>
        <ele>2108.0</ele>
      </trkpt>
      <trkpt lat="45.27382" lon="6.92126">
        <time>1970-01-01T00:00:00+00:00</time>
        <ele>2107.0</ele>
      </trkpt>
      <trkpt lat="45.27382" lon="6.92126">
        <time>1970-01-01T00:00:00+00:00</time>
        <ele>2107.0</ele>
      </trkpt>
      <trkpt lat="45.27386" lon="6.92129">
        <time>1970-01-01T00:00:00+00:00</time>
        <ele>2106.0</ele>
      </trkpt>
      <trkpt lat="45.27386" lon="6.92129">
        <time>1970-01-01T00:00:00+00:00</time>
        <ele>2106.0</ele>
      </trkpt>
      <trkpt lat="45.2739" lon="6.92132">
        <time>1970-01-01T00:00:00+00:00</time>
        <ele>2105.0</ele>
      </trkpt>
      <trkpt lat="45.2739" lon="6.92132">
        <time>1970-01-01T00:00:00+00:00</time>
        <ele>2105.0</ele>
      </trkpt>
      <trkpt lat="45.27394" lon="6.92135">
        <time>1970-01-01T00:00:00+00:00</time>
        <ele>2104.0</ele>
      </trkpt>
      <trkpt lat="45.27394" lon="6.92135">
        <time>1970-01-01T00:00:00+00:00</time>
        <ele>2104.0</ele>
      </trkpt>
      <trkpt lat="45.27398" lon="6.92138">
        <time>1970-01-01T00:00:00+00:00</time>
        <ele>2102.0</ele>
      </trkpt>
      <trkpt lat="45.27398" lon="6.92138">
        <time>1970-01-01T00:00:00+00:00</time>
        <ele>2102.0</ele>
      </trkpt>
      <trkpt lat="45.27403" lon="6.9214">
        <time>1970-01-01T00:00:00+00:00</time>
        <ele>2101.0</ele>
      </trkpt>
      <trkpt lat="45.27403" lon="6.9214">
        <time>1970-01-01T00:00:00+00:00</time>
        <ele>2101.0</ele>
      </trkpt>
      <trkpt lat="45.27408" lon="6.92142">
        <time>1970-01-01T00:00:00+00:00</time>
        <ele>2099.0</ele>
      </trkpt>
      <trkpt lat="45.27408" lon="6.92142">
        <time>1970-01-01T00:00:00+00:00</time>
        <ele>2099.0</ele>
      </trkpt>
      <trkpt lat="45.27413" lon="6.92144">
        <time>1970-01-01T00:00:00+00:00</time>
        <ele>2098.0</ele>
      </trkpt>
      <trkpt lat="45.27413" lon="6.92144">
        <time>1970-01-01T00:00:00+00:00</time>
        <ele>2098.0</ele>
      </trkpt>
      <trkpt lat="45.27422" lon="6.92147">
        <time>1970-01-01T00:00:00+00:00</time>
        <ele>2095.0</ele>
      </trkpt>
      <trkpt lat="45.27422" lon="6.92147">
        <time>1970-01-01T00:00:00+00:00</time>
        <ele>2095.0</ele>
      </trkpt>
      <trkpt lat="45.27427" lon="6.92149">
        <time>1970-01-01T00:00:00+00:00</time>
        <ele>2094.0</ele>
      </trkpt>
      <trkpt lat="45.27427" lon="6.92149">
        <time>1970-01-01T00:00:00+00:00</time>
        <ele>2094.0</ele>
      </trkpt>
      <trkpt lat="45.27432" lon="6.92152">
        <time>1970-01-01T00:00:00+00:00</time>
        <ele>2093.0</ele>
      </trkpt>
      <trkpt lat="45.27432" lon="6.92152">
        <time>1970-01-01T00:00:00+00:00</time>
        <ele>2093.0</ele>
      </trkpt>
      <trkpt lat="45.27436" lon="6.92155">
        <time>1970-01-01T00:00:00+00:00</time>
        <ele>2092.0</ele>
      </trkpt>
      <trkpt lat="45.27436" lon="6.92155">
        <time>1970-01-01T00:00:00+00:00</time>
        <ele>2092.0</ele>
      </trkpt>
      <trkpt lat="45.2744" lon="6.9216">
        <time>1970-01-01T00:00:00+00:00</time>
        <ele>2091.0</ele>
      </trkpt>
      <trkpt lat="45.2744" lon="6.9216">
        <time>1970-01-01T00:00:00+00:00</time>
        <ele>2091.0</ele>
      </trkpt>
      <trkpt lat="45.27444" lon="6.92164">
        <time>1970-01-01T00:00:00+00:00</time>
        <ele>2091.0</ele>
      </trkpt>
      <trkpt lat="45.27444" lon="6.92164">
        <time>1970-01-01T00:00:00+00:00</time>
        <ele>2091.0</ele>
      </trkpt>
      <trkpt lat="45.27448" lon="6.92174">
        <time>1970-01-01T00:00:00+00:00</time>
        <ele>2090.0</ele>
      </trkpt>
      <trkpt lat="45.27448" lon="6.92174">
        <time>1970-01-01T00:00:00+00:00</time>
        <ele>2090.0</ele>
      </trkpt>
      <trkpt lat="45.27451" lon="6.92179">
        <time>1970-01-01T00:00:00+00:00</time>
        <ele>2090.0</ele>
      </trkpt>
      <trkpt lat="45.27451" lon="6.92179">
        <time>1970-01-01T00:00:00+00:00</time>
        <ele>2090.0</ele>
      </trkpt>
      <trkpt lat="45.27455" lon="6.92189">
        <time>1970-01-01T00:00:00+00:00</time>
        <ele>2090.0</ele>
      </trkpt>
      <trkpt lat="45.27455" lon="6.92189">
        <time>1970-01-01T00:00:00+00:00</time>
        <ele>2090.0</ele>
      </trkpt>
      <trkpt lat="45.27457" lon="6.92195">
        <time>1970-01-01T00:00:00+00:00</time>
        <ele>2091.0</ele>
      </trkpt>
      <trkpt lat="45.27457" lon="6.92195">
        <time>1970-01-01T00:00:00+00:00</time>
        <ele>2091.0</ele>
      </trkpt>
      <trkpt lat="45.27461" lon="6.92201">
        <time>1970-01-01T00:00:00+00:00</time>
        <ele>2090.0</ele>
      </trkpt>
      <trkpt lat="45.27461" lon="6.92201">
        <time>1970-01-01T00:00:00+00:00</time>
        <ele>2090.0</ele>
      </trkpt>
      <trkpt lat="45.27465" lon="6.92205">
        <time>1970-01-01T00:00:00+00:00</time>
        <ele>2089.0</ele>
      </trkpt>
      <trkpt lat="45.27465" lon="6.92205">
        <time>1970-01-01T00:00:00+00:00</time>
        <ele>2089.0</ele>
      </trkpt>
      <trkpt lat="45.2747" lon="6.92209">
        <time>1970-01-01T00:00:00+00:00</time>
        <ele>2089.0</ele>
      </trkpt>
      <trkpt lat="45.2747" lon="6.92209">
        <time>1970-01-01T00:00:00+00:00</time>
        <ele>2089.0</ele>
      </trkpt>
      <trkpt lat="45.27474" lon="6.92213">
        <time>1970-01-01T00:00:00+00:00</time>
        <ele>2088.0</ele>
      </trkpt>
      <trkpt lat="45.27474" lon="6.92213">
        <time>1970-01-01T00:00:00+00:00</time>
        <ele>2088.0</ele>
      </trkpt>
      <trkpt lat="45.2748" lon="6.92218">
        <time>1970-01-01T00:00:00+00:00</time>
        <ele>2088.0</ele>
      </trkpt>
      <trkpt lat="45.2748" lon="6.92218">
        <time>1970-01-01T00:00:00+00:00</time>
        <ele>2088.0</ele>
      </trkpt>
      <trkpt lat="45.27486" lon="6.92223">
        <time>1970-01-01T00:00:00+00:00</time>
        <ele>2087.0</ele>
      </trkpt>
      <trkpt lat="45.27486" lon="6.92223">
        <time>1970-01-01T00:00:00+00:00</time>
        <ele>2087.0</ele>
      </trkpt>
      <trkpt lat="45.27492" lon="6.92228">
        <time>1970-01-01T00:00:00+00:00</time>
        <ele>2086.0</ele>
      </trkpt>
      <trkpt lat="45.27492" lon="6.92228">
        <time>1970-01-01T00:00:00+00:00</time>
        <ele>2086.0</ele>
      </trkpt>
      <trkpt lat="45.27499" lon="6.92232">
        <time>1970-01-01T00:00:00+00:00</time>
        <ele>2085.0</ele>
      </trkpt>
      <trkpt lat="45.27499" lon="6.92232">
        <time>1970-01-01T00:00:00+00:00</time>
        <ele>2085.0</ele>
      </trkpt>
      <trkpt lat="45.27504" lon="6.92233">
        <time>1970-01-01T00:00:00+00:00</time>
        <ele>2084.0</ele>
      </trkpt>
      <trkpt lat="45.27504" lon="6.92233">
        <time>1970-01-01T00:00:00+00:00</time>
        <ele>2084.0</ele>
      </trkpt>
      <trkpt lat="45.27512" lon="6.92235">
        <time>1970-01-01T00:00:00+00:00</time>
        <ele>2083.0</ele>
      </trkpt>
      <trkpt lat="45.27512" lon="6.92235">
        <time>1970-01-01T00:00:00+00:00</time>
        <ele>2083.0</ele>
      </trkpt>
      <trkpt lat="45.2752" lon="6.92238">
        <time>1970-01-01T00:00:00+00:00</time>
        <ele>2080.0</ele>
      </trkpt>
      <trkpt lat="45.2752" lon="6.92238">
        <time>1970-01-01T00:00:00+00:00</time>
        <ele>2080.0</ele>
      </trkpt>
      <trkpt lat="45.27526" lon="6.92242">
        <time>1970-01-01T00:00:00+00:00</time>
        <ele>2079.0</ele>
      </trkpt>
      <trkpt lat="45.27526" lon="6.92242">
        <time>1970-01-01T00:00:00+00:00</time>
        <ele>2079.0</ele>
      </trkpt>
      <trkpt lat="45.27531" lon="6.92247">
        <time>1970-01-01T00:00:00+00:00</time>
        <ele>2078.0</ele>
      </trkpt>
      <trkpt lat="45.27531" lon="6.92247">
        <time>1970-01-01T00:00:00+00:00</time>
        <ele>2078.0</ele>
      </trkpt>
      <trkpt lat="45.27536" lon="6.92253">
        <time>1970-01-01T00:00:00+00:00</time>
        <ele>2078.0</ele>
      </trkpt>
      <trkpt lat="45.27536" lon="6.92253">
        <time>1970-01-01T00:00:00+00:00</time>
        <ele>2078.0</ele>
      </trkpt>
      <trkpt lat="45.27541" lon="6.92259">
        <time>1970-01-01T00:00:00+00:00</time>
        <ele>2077.0</ele>
      </trkpt>
      <trkpt lat="45.27541" lon="6.92259">
        <time>1970-01-01T00:00:00+00:00</time>
        <ele>2077.0</ele>
      </trkpt>
      <trkpt lat="45.27547" lon="6.92256">
        <time>1970-01-01T00:00:00+00:00</time>
        <ele>2074.0</ele>
      </trkpt>
      <trkpt lat="45.27547" lon="6.92256">
        <time>1970-01-01T00:00:00+00:00</time>
        <ele>2074.0</ele>
      </trkpt>
      <trkpt lat="45.27548" lon="6.92248">
        <time>1970-01-01T00:00:00+00:00</time>
        <ele>2073.0</ele>
      </trkpt>
      <trkpt lat="45.27548" lon="6.92248">
        <time>1970-01-01T00:00:00+00:00</time>
        <ele>2073.0</ele>
      </trkpt>
      <trkpt lat="45.27548" lon="6.9224">
        <time>1970-01-01T00:00:00+00:00</time>
        <ele>2072.0</ele>
      </trkpt>
      <trkpt lat="45.27548" lon="6.9224">
        <time>1970-01-01T00:00:00+00:00</time>
        <ele>2072.0</ele>
      </trkpt>
      <trkpt lat="45.27551" lon="6.92231">
        <time>1970-01-01T00:00:00+00:00</time>
        <ele>2070.0</ele>
      </trkpt>
      <trkpt lat="45.27551" lon="6.92231">
        <time>1970-01-01T00:00:00+00:00</time>
        <ele>2070.0</ele>
      </trkpt>
      <trkpt lat="45.27556" lon="6.92224">
        <time>1970-01-01T00:00:00+00:00</time>
        <ele>2067.0</ele>
      </trkpt>
      <trkpt lat="45.27556" lon="6.92224">
        <time>1970-01-01T00:00:00+00:00</time>
        <ele>2067.0</ele>
      </trkpt>
      <trkpt lat="45.27563" lon="6.92224">
        <time>1970-01-01T00:00:00+00:00</time>
        <ele>2065.0</ele>
      </trkpt>
      <trkpt lat="45.27563" lon="6.92224">
        <time>1970-01-01T00:00:00+00:00</time>
        <ele>2065.0</ele>
      </trkpt>
      <trkpt lat="45.27571" lon="6.92227">
        <time>1970-01-01T00:00:00+00:00</time>
        <ele>2062.0</ele>
      </trkpt>
      <trkpt lat="45.27571" lon="6.92227">
        <time>1970-01-01T00:00:00+00:00</time>
        <ele>2062.0</ele>
      </trkpt>
      <trkpt lat="45.27577" lon="6.92232">
        <time>1970-01-01T00:00:00+00:00</time>
        <ele>2060.0</ele>
      </trkpt>
      <trkpt lat="45.27577" lon="6.92232">
        <time>1970-01-01T00:00:00+00:00</time>
        <ele>2060.0</ele>
      </trkpt>
      <trkpt lat="45.27581" lon="6.92241">
        <time>1970-01-01T00:00:00+00:00</time>
        <ele>2059.0</ele>
      </trkpt>
      <trkpt lat="45.27581" lon="6.92241">
        <time>1970-01-01T00:00:00+00:00</time>
        <ele>2059.0</ele>
      </trkpt>
      <trkpt lat="45.27585" lon="6.9225">
        <time>1970-01-01T00:00:00+00:00</time>
        <ele>2059.0</ele>
      </trkpt>
      <trkpt lat="45.27585" lon="6.9225">
        <time>1970-01-01T00:00:00+00:00</time>
        <ele>2059.0</ele>
      </trkpt>
      <trkpt lat="45.27589" lon="6.92259">
        <time>1970-01-01T00:00:00+00:00</time>
        <ele>2059.0</ele>
      </trkpt>
      <trkpt lat="45.27589" lon="6.92259">
        <time>1970-01-01T00:00:00+00:00</time>
        <ele>2059.0</ele>
      </trkpt>
      <trkpt lat="45.27592" lon="6.92265">
        <time>1970-01-01T00:00:00+00:00</time>
        <ele>2058.0</ele>
      </trkpt>
      <trkpt lat="45.27592" lon="6.92265">
        <time>1970-01-01T00:00:00+00:00</time>
        <ele>2058.0</ele>
      </trkpt>
      <trkpt lat="45.27594" lon="6.92271">
        <time>1970-01-01T00:00:00+00:00</time>
        <ele>2058.0</ele>
      </trkpt>
      <trkpt lat="45.27594" lon="6.92271">
        <time>1970-01-01T00:00:00+00:00</time>
        <ele>2058.0</ele>
      </trkpt>
      <trkpt lat="45.27597" lon="6.92277">
        <time>1970-01-01T00:00:00+00:00</time>
        <ele>2058.0</ele>
      </trkpt>
      <trkpt lat="45.27597" lon="6.92277">
        <time>1970-01-01T00:00:00+00:00</time>
        <ele>2058.0</ele>
      </trkpt>
      <trkpt lat="45.27601" lon="6.92282">
        <time>1970-01-01T00:00:00+00:00</time>
        <ele>2057.0</ele>
      </trkpt>
      <trkpt lat="45.27601" lon="6.92282">
        <time>1970-01-01T00:00:00+00:00</time>
        <ele>2057.0</ele>
      </trkpt>
      <trkpt lat="45.27604" lon="6.92287">
        <time>1970-01-01T00:00:00+00:00</time>
        <ele>2057.0</ele>
      </trkpt>
      <trkpt lat="45.27604" lon="6.92287">
        <time>1970-01-01T00:00:00+00:00</time>
        <ele>2057.0</ele>
      </trkpt>
      <trkpt lat="45.27607" lon="6.92292">
        <time>1970-01-01T00:00:00+00:00</time>
        <ele>2056.0</ele>
      </trkpt>
      <trkpt lat="45.27607" lon="6.92292">
        <time>1970-01-01T00:00:00+00:00</time>
        <ele>2056.0</ele>
      </trkpt>
      <trkpt lat="45.2761" lon="6.92297">
        <time>1970-01-01T00:00:00+00:00</time>
        <ele>2055.0</ele>
      </trkpt>
      <trkpt lat="45.2761" lon="6.92297">
        <time>1970-01-01T00:00:00+00:00</time>
        <ele>2055.0</ele>
      </trkpt>
      <trkpt lat="45.27614" lon="6.92301">
        <time>1970-01-01T00:00:00+00:00</time>
        <ele>2053.0</ele>
      </trkpt>
      <trkpt lat="45.27614" lon="6.92301">
        <time>1970-01-01T00:00:00+00:00</time>
        <ele>2053.0</ele>
      </trkpt>
      <trkpt lat="45.27621" lon="6.92306">
        <time>1970-01-01T00:00:00+00:00</time>
        <ele>2051.0</ele>
      </trkpt>
      <trkpt lat="45.27621" lon="6.92306">
        <time>1970-01-01T00:00:00+00:00</time>
        <ele>2051.0</ele>
      </trkpt>
      <trkpt lat="45.27629" lon="6.92302">
        <time>1970-01-01T00:00:00+00:00</time>
        <ele>2047.0</ele>
      </trkpt>
      <trkpt lat="45.27629" lon="6.92302">
        <time>1970-01-01T00:00:00+00:00</time>
        <ele>2047.0</ele>
      </trkpt>
      <trkpt lat="45.27631" lon="6.92295">
        <time>1970-01-01T00:00:00+00:00</time>
        <ele>2046.0</ele>
      </trkpt>
      <trkpt lat="45.27631" lon="6.92295">
        <time>1970-01-01T00:00:00+00:00</time>
        <ele>2046.0</ele>
      </trkpt>
      <trkpt lat="45.27634" lon="6.92282">
        <time>1970-01-01T00:00:00+00:00</time>
        <ele>2044.0</ele>
      </trkpt>
      <trkpt lat="45.27634" lon="6.92282">
        <time>1970-01-01T00:00:00+00:00</time>
        <ele>2044.0</ele>
      </trkpt>
      <trkpt lat="45.27636" lon="6.92274">
        <time>1970-01-01T00:00:00+00:00</time>
        <ele>2043.0</ele>
      </trkpt>
      <trkpt lat="45.27636" lon="6.92274">
        <time>1970-01-01T00:00:00+00:00</time>
        <ele>2043.0</ele>
      </trkpt>
      <trkpt lat="45.27638" lon="6.92268">
        <time>1970-01-01T00:00:00+00:00</time>
        <ele>2042.0</ele>
      </trkpt>
      <trkpt lat="45.27638" lon="6.92268">
        <time>1970-01-01T00:00:00+00:00</time>
        <ele>2042.0</ele>
      </trkpt>
      <trkpt lat="45.2764" lon="6.92256">
        <time>1970-01-01T00:00:00+00:00</time>
        <ele>2040.0</ele>
      </trkpt>
      <trkpt lat="45.2764" lon="6.92256">
        <time>1970-01-01T00:00:00+00:00</time>
        <ele>2040.0</ele>
      </trkpt>
      <trkpt lat="45.27642" lon="6.9225">
        <time>1970-01-01T00:00:00+00:00</time>
        <ele>2039.0</ele>
      </trkpt>
      <trkpt lat="45.27642" lon="6.9225">
        <time>1970-01-01T00:00:00+00:00</time>
        <ele>2039.0</ele>
      </trkpt>
      <trkpt lat="45.27647" lon="6.92242">
        <time>1970-01-01T00:00:00+00:00</time>
        <ele>2036.0</ele>
      </trkpt>
      <trkpt lat="45.27647" lon="6.92242">
        <time>1970-01-01T00:00:00+00:00</time>
        <ele>2036.0</ele>
      </trkpt>
      <trkpt lat="45.27653" lon="6.92238">
        <time>1970-01-01T00:00:00+00:00</time>
        <ele>2033.0</ele>
      </trkpt>
      <trkpt lat="45.27653" lon="6.92238">
        <time>1970-01-01T00:00:00+00:00</time>
        <ele>2033.0</ele>
      </trkpt>
      <trkpt lat="45.27657" lon="6.92235">
        <time>1970-01-01T00:00:00+00:00</time>
        <ele>2031.0</ele>
      </trkpt>
      <trkpt lat="45.27657" lon="6.92235">
        <time>1970-01-01T00:00:00+00:00</time>
        <ele>2031.0</ele>
      </trkpt>
      <trkpt lat="45.2766" lon="6.92227">
        <time>1970-01-01T00:00:00+00:00</time>
        <ele>2029.0</ele>
      </trkpt>
      <trkpt lat="45.2766" lon="6.92227">
        <time>1970-01-01T00:00:00+00:00</time>
        <ele>2029.0</ele>
      </trkpt>
      <trkpt lat="45.27661" lon="6.92215">
        <time>1970-01-01T00:00:00+00:00</time>
        <ele>2028.0</ele>
      </trkpt>
      <trkpt lat="45.27661" lon="6.92215">
        <time>1970-01-01T00:00:00+00:00</time>
        <ele>2028.0</ele>
      </trkpt>
      <trkpt lat="45.27661" lon="6.92203">
        <time>1970-01-01T00:00:00+00:00</time>
        <ele>2027.0</ele>
      </trkpt>
      <trkpt lat="45.27661" lon="6.92203">
        <time>1970-01-01T00:00:00+00:00</time>
        <ele>2027.0</ele>
      </trkpt>
      <trkpt lat="45.27661" lon="6.92191">
        <time>1970-01-01T00:00:00+00:00</time>
        <ele>2025.0</ele>
      </trkpt>
      <trkpt lat="45.27661" lon="6.92191">
        <time>1970-01-01T00:00:00+00:00</time>
        <ele>2025.0</ele>
      </trkpt>
      <trkpt lat="45.27664" lon="6.92181">
        <time>1970-01-01T00:00:00+00:00</time>
        <ele>2023.0</ele>
      </trkpt>
      <trkpt lat="45.27664" lon="6.92181">
        <time>1970-01-01T00:00:00+00:00</time>
        <ele>2023.0</ele>
      </trkpt>
      <trkpt lat="45.27666" lon="6.9217">
        <time>1970-01-01T00:00:00+00:00</time>
        <ele>2021.0</ele>
      </trkpt>
      <trkpt lat="45.27666" lon="6.9217">
        <time>1970-01-01T00:00:00+00:00</time>
        <ele>2021.0</ele>
      </trkpt>
      <trkpt lat="45.2767" lon="6.92161">
        <time>1970-01-01T00:00:00+00:00</time>
        <ele>2019.0</ele>
      </trkpt>
      <trkpt lat="45.2767" lon="6.92161">
        <time>1970-01-01T00:00:00+00:00</time>
        <ele>2019.0</ele>
      </trkpt>
      <trkpt lat="45.27677" lon="6.92154">
        <time>1970-01-01T00:00:00+00:00</time>
        <ele>2015.0</ele>
      </trkpt>
      <trkpt lat="45.27677" lon="6.92154">
        <time>1970-01-01T00:00:00+00:00</time>
        <ele>2015.0</ele>
      </trkpt>
      <trkpt lat="45.27681" lon="6.92151">
        <time>1970-01-01T00:00:00+00:00</time>
        <ele>2014.0</ele>
      </trkpt>
      <trkpt lat="45.27681" lon="6.92151">
        <time>1970-01-01T00:00:00+00:00</time>
        <ele>2014.0</ele>
      </trkpt>
      <trkpt lat="45.27686" lon="6.92148">
        <time>1970-01-01T00:00:00+00:00</time>
        <ele>2012.0</ele>
      </trkpt>
      <trkpt lat="45.27686" lon="6.92148">
        <time>1970-01-01T00:00:00+00:00</time>
        <ele>2012.0</ele>
      </trkpt>
      <trkpt lat="45.2769" lon="6.92145">
        <time>1970-01-01T00:00:00+00:00</time>
        <ele>2010.0</ele>
      </trkpt>
      <trkpt lat="45.2769" lon="6.92145">
        <time>1970-01-01T00:00:00+00:00</time>
        <ele>2010.0</ele>
      </trkpt>
      <trkpt lat="45.27695" lon="6.92142">
        <time>1970-01-01T00:00:00+00:00</time>
        <ele>2009.0</ele>
      </trkpt>
      <trkpt lat="45.27695" lon="6.92142">
        <time>1970-01-01T00:00:00+00:00</time>
        <ele>2009.0</ele>
      </trkpt>
      <trkpt lat="45.277" lon="6.92139">
        <time>1970-01-01T00:00:00+00:00</time>
        <ele>2007.0</ele>
      </trkpt>
      <trkpt lat="45.277" lon="6.92139">
        <time>1970-01-01T00:00:00+00:00</time>
        <ele>2007.0</ele>
      </trkpt>
      <trkpt lat="45.27706" lon="6.92136">
        <time>1970-01-01T00:00:00+00:00</time>
        <ele>2005.0</ele>
      </trkpt>
      <trkpt lat="45.27706" lon="6.92136">
        <time>1970-01-01T00:00:00+00:00</time>
        <ele>2005.0</ele>
      </trkpt>
      <trkpt lat="45.27711" lon="6.92133">
        <time>1970-01-01T00:00:00+00:00</time>
        <ele>2003.0</ele>
      </trkpt>
      <trkpt lat="45.27711" lon="6.92133">
        <time>1970-01-01T00:00:00+00:00</time>
        <ele>2003.0</ele>
      </trkpt>
      <trkpt lat="45.27717" lon="6.92131">
        <time>1970-01-01T00:00:00+00:00</time>
        <ele>2000.0</ele>
      </trkpt>
      <trkpt lat="45.27717" lon="6.92131">
        <time>1970-01-01T00:00:00+00:00</time>
        <ele>2000.0</ele>
      </trkpt>
      <trkpt lat="45.27722" lon="6.92129">
        <time>1970-01-01T00:00:00+00:00</time>
        <ele>1998.0</ele>
      </trkpt>
      <trkpt lat="45.27722" lon="6.92129">
        <time>1970-01-01T00:00:00+00:00</time>
        <ele>1998.0</ele>
      </trkpt>
      <trkpt lat="45.27727" lon="6.92131">
        <time>1970-01-01T00:00:00+00:00</time>
        <ele>1996.0</ele>
      </trkpt>
      <trkpt lat="45.27727" lon="6.92131">
        <time>1970-01-01T00:00:00+00:00</time>
        <ele>1996.0</ele>
      </trkpt>
      <trkpt lat="45.27736" lon="6.92136">
        <time>1970-01-01T00:00:00+00:00</time>
        <ele>1993.0</ele>
      </trkpt>
      <trkpt lat="45.27736" lon="6.92136">
        <time>1970-01-01T00:00:00+00:00</time>
        <ele>1993.0</ele>
      </trkpt>
      <trkpt lat="45.27741" lon="6.92139">
        <time>1970-01-01T00:00:00+00:00</time>
        <ele>1991.0</ele>
      </trkpt>
      <trkpt lat="45.27741" lon="6.92139">
        <time>1970-01-01T00:00:00+00:00</time>
        <ele>1991.0</ele>
      </trkpt>
      <trkpt lat="45.27745" lon="6.92146">
        <time>1970-01-01T00:00:00+00:00</time>
        <ele>1990.0</ele>
      </trkpt>
      <trkpt lat="45.27745" lon="6.92146">
        <time>1970-01-01T00:00:00+00:00</time>
        <ele>1990.0</ele>
      </trkpt>
      <trkpt lat="45.27748" lon="6.92152">
        <time>1970-01-01T00:00:00+00:00</time>
        <ele>1989.0</ele>
      </trkpt>
      <trkpt lat="45.27748" lon="6.92152">
        <time>1970-01-01T00:00:00+00:00</time>
        <ele>1989.0</ele>
      </trkpt>
      <trkpt lat="45.27751" lon="6.92159">
        <time>1970-01-01T00:00:00+00:00</time>
        <ele>1988.0</ele>
      </trkpt>
      <trkpt lat="45.27751" lon="6.92159">
        <time>1970-01-01T00:00:00+00:00</time>
        <ele>1988.0</ele>
      </trkpt>
      <trkpt lat="45.27754" lon="6.92165">
        <time>1970-01-01T00:00:00+00:00</time>
        <ele>1987.0</ele>
      </trkpt>
      <trkpt lat="45.27754" lon="6.92165">
        <time>1970-01-01T00:00:00+00:00</time>
        <ele>1987.0</ele>
      </trkpt>
      <trkpt lat="45.27757" lon="6.92171">
        <time>1970-01-01T00:00:00+00:00</time>
        <ele>1986.0</ele>
      </trkpt>
      <trkpt lat="45.27757" lon="6.92171">
        <time>1970-01-01T00:00:00+00:00</time>
        <ele>1986.0</ele>
      </trkpt>
      <trkpt lat="45.2776" lon="6.92178">
        <time>1970-01-01T00:00:00+00:00</time>
        <ele>1985.0</ele>
      </trkpt>
      <trkpt lat="45.2776" lon="6.92178">
        <time>1970-01-01T00:00:00+00:00</time>
        <ele>1985.0</ele>
      </trkpt>
      <trkpt lat="45.27762" lon="6.92184">
        <time>1970-01-01T00:00:00+00:00</time>
        <ele>1984.0</ele>
      </trkpt>
      <trkpt lat="45.27762" lon="6.92184">
        <time>1970-01-01T00:00:00+00:00</time>
        <ele>1984.0</ele>
      </trkpt>
      <trkpt lat="45.27764" lon="6.9219">
        <time>1970-01-01T00:00:00+00:00</time>
        <ele>1984.0</ele>
      </trkpt>
      <trkpt lat="45.27764" lon="6.9219">
        <time>1970-01-01T00:00:00+00:00</time>
        <ele>1984.0</ele>
      </trkpt>
      <trkpt lat="45.27769" lon="6.92197">
        <time>1970-01-01T00:00:00+00:00</time>
        <ele>1982.0</ele>
      </trkpt>
      <trkpt lat="45.27769" lon="6.92197">
        <time>1970-01-01T00:00:00+00:00</time>
        <ele>1982.0</ele>
      </trkpt>
      <trkpt lat="45.27775" lon="6.92191">
        <time>1970-01-01T00:00:00+00:00</time>
        <ele>1979.0</ele>
      </trkpt>
      <trkpt lat="45.27775" lon="6.92191">
        <time>1970-01-01T00:00:00+00:00</time>
        <ele>1979.0</ele>
      </trkpt>
      <trkpt lat="45.27779" lon="6.9218">
        <time>1970-01-01T00:00:00+00:00</time>
        <ele>1976.0</ele>
      </trkpt>
      <trkpt lat="45.27779" lon="6.9218">
        <time>1970-01-01T00:00:00+00:00</time>
        <ele>1976.0</ele>
      </trkpt>
      <trkpt lat="45.27779" lon="6.92171">
        <time>1970-01-01T00:00:00+00:00</time>
        <ele>1976.0</ele>
      </trkpt>
      <trkpt lat="45.27779" lon="6.92171">
        <time>1970-01-01T00:00:00+00:00</time>
        <ele>1976.0</ele>
      </trkpt>
      <trkpt lat="45.27778" lon="6.92159">
        <time>1970-01-01T00:00:00+00:00</time>
        <ele>1975.0</ele>
      </trkpt>
      <trkpt lat="45.27778" lon="6.92159">
        <time>1970-01-01T00:00:00+00:00</time>
        <ele>1975.0</ele>
      </trkpt>
      <trkpt lat="45.27777" lon="6.92148">
        <time>1970-01-01T00:00:00+00:00</time>
        <ele>1975.0</ele>
      </trkpt>
      <trkpt lat="45.27777" lon="6.92148">
        <time>1970-01-01T00:00:00+00:00</time>
        <ele>1975.0</ele>
      </trkpt>
      <trkpt lat="45.27776" lon="6.92137">
        <time>1970-01-01T00:00:00+00:00</time>
        <ele>1974.0</ele>
      </trkpt>
      <trkpt lat="45.27776" lon="6.92137">
        <time>1970-01-01T00:00:00+00:00</time>
        <ele>1974.0</ele>
      </trkpt>
      <trkpt lat="45.27776" lon="6.92128">
        <time>1970-01-01T00:00:00+00:00</time>
        <ele>1973.0</ele>
      </trkpt>
      <trkpt lat="45.27776" lon="6.92128">
        <time>1970-01-01T00:00:00+00:00</time>
        <ele>1973.0</ele>
      </trkpt>
      <trkpt lat="45.27775" lon="6.9212">
        <time>1970-01-01T00:00:00+00:00</time>
        <ele>1972.0</ele>
      </trkpt>
      <trkpt lat="45.27775" lon="6.9212">
        <time>1970-01-01T00:00:00+00:00</time>
        <ele>1972.0</ele>
      </trkpt>
      <trkpt lat="45.27773" lon="6.92112">
        <time>1970-01-01T00:00:00+00:00</time>
        <ele>1972.0</ele>
      </trkpt>
      <trkpt lat="45.27773" lon="6.92112">
        <time>1970-01-01T00:00:00+00:00</time>
        <ele>1972.0</ele>
      </trkpt>
      <trkpt lat="45.27772" lon="6.92104">
        <time>1970-01-01T00:00:00+00:00</time>
        <ele>1971.0</ele>
      </trkpt>
      <trkpt lat="45.27772" lon="6.92104">
        <time>1970-01-01T00:00:00+00:00</time>
        <ele>1971.0</ele>
      </trkpt>
      <trkpt lat="45.2777" lon="6.92096">
        <time>1970-01-01T00:00:00+00:00</time>
        <ele>1971.0</ele>
      </trkpt>
      <trkpt lat="45.2777" lon="6.92096">
        <time>1970-01-01T00:00:00+00:00</time>
        <ele>1971.0</ele>
      </trkpt>
      <trkpt lat="45.27769" lon="6.92088">
        <time>1970-01-01T00:00:00+00:00</time>
        <ele>1970.0</ele>
      </trkpt>
      <trkpt lat="45.27769" lon="6.92088">
        <time>1970-01-01T00:00:00+00:00</time>
        <ele>1970.0</ele>
      </trkpt>
      <trkpt lat="45.27768" lon="6.92079">
        <time>1970-01-01T00:00:00+00:00</time>
        <ele>1968.0</ele>
      </trkpt>
      <trkpt lat="45.27768" lon="6.92079">
        <time>1970-01-01T00:00:00+00:00</time>
        <ele>1968.0</ele>
      </trkpt>
      <trkpt lat="45.27767" lon="6.9207">
        <time>1970-01-01T00:00:00+00:00</time>
        <ele>1967.0</ele>
      </trkpt>
      <trkpt lat="45.27767" lon="6.9207">
        <time>1970-01-01T00:00:00+00:00</time>
        <ele>1967.0</ele>
      </trkpt>
      <trkpt lat="45.27765" lon="6.92061">
        <time>1970-01-01T00:00:00+00:00</time>
        <ele>1966.0</ele>
      </trkpt>
      <trkpt lat="45.27765" lon="6.92061">
        <time>1970-01-01T00:00:00+00:00</time>
        <ele>1966.0</ele>
      </trkpt>
      <trkpt lat="45.27764" lon="6.92054">
        <time>1970-01-01T00:00:00+00:00</time>
        <ele>1965.0</ele>
      </trkpt>
      <trkpt lat="45.27764" lon="6.92054">
        <time>1970-01-01T00:00:00+00:00</time>
        <ele>1965.0</ele>
      </trkpt>
      <trkpt lat="45.27762" lon="6.92048">
        <time>1970-01-01T00:00:00+00:00</time>
        <ele>1965.0</ele>
      </trkpt>
      <trkpt lat="45.27762" lon="6.92048">
        <time>1970-01-01T00:00:00+00:00</time>
        <ele>1965.0</ele>
      </trkpt>
      <trkpt lat="45.27761" lon="6.9204">
        <time>1970-01-01T00:00:00+00:00</time>
        <ele>1964.0</ele>
      </trkpt>
      <trkpt lat="45.27761" lon="6.9204">
        <time>1970-01-01T00:00:00+00:00</time>
        <ele>1964.0</ele>
      </trkpt>
      <trkpt lat="45.2776" lon="6.92032">
        <time>1970-01-01T00:00:00+00:00</time>
        <ele>1962.0</ele>
      </trkpt>
      <trkpt lat="45.2776" lon="6.92032">
        <time>1970-01-01T00:00:00+00:00</time>
        <ele>1962.0</ele>
      </trkpt>
      <trkpt lat="45.27759" lon="6.92025">
        <time>1970-01-01T00:00:00+00:00</time>
        <ele>1961.0</ele>
      </trkpt>
      <trkpt lat="45.27759" lon="6.92025">
        <time>1970-01-01T00:00:00+00:00</time>
        <ele>1961.0</ele>
      </trkpt>
      <trkpt lat="45.27758" lon="6.92018">
        <time>1970-01-01T00:00:00+00:00</time>
        <ele>1961.0</ele>
      </trkpt>
      <trkpt lat="45.27758" lon="6.92018">
        <time>1970-01-01T00:00:00+00:00</time>
        <ele>1961.0</ele>
      </trkpt>
      <trkpt lat="45.27757" lon="6.9201">
        <time>1970-01-01T00:00:00+00:00</time>
        <ele>1959.0</ele>
      </trkpt>
      <trkpt lat="45.27757" lon="6.9201">
        <time>1970-01-01T00:00:00+00:00</time>
        <ele>1959.0</ele>
      </trkpt>
      <trkpt lat="45.27756" lon="6.92003">
        <time>1970-01-01T00:00:00+00:00</time>
        <ele>1959.0</ele>
      </trkpt>
      <trkpt lat="45.27756" lon="6.92003">
        <time>1970-01-01T00:00:00+00:00</time>
        <ele>1959.0</ele>
      </trkpt>
      <trkpt lat="45.27756" lon="6.91994">
        <time>1970-01-01T00:00:00+00:00</time>
        <ele>1957.0</ele>
      </trkpt>
      <trkpt lat="45.27756" lon="6.91994">
        <time>1970-01-01T00:00:00+00:00</time>
        <ele>1957.0</ele>
      </trkpt>
      <trkpt lat="45.27757" lon="6.91985">
        <time>1970-01-01T00:00:00+00:00</time>
        <ele>1956.0</ele>
      </trkpt>
      <trkpt lat="45.27757" lon="6.91985">
        <time>1970-01-01T00:00:00+00:00</time>
        <ele>1956.0</ele>
      </trkpt>
      <trkpt lat="45.27757" lon="6.91976">
        <time>1970-01-01T00:00:00+00:00</time>
        <ele>1954.0</ele>
      </trkpt>
      <trkpt lat="45.27757" lon="6.91976">
        <time>1970-01-01T00:00:00+00:00</time>
        <ele>1954.0</ele>
      </trkpt>
      <trkpt lat="45.27757" lon="6.91968">
        <time>1970-01-01T00:00:00+00:00</time>
        <ele>1953.0</ele>
      </trkpt>
      <trkpt lat="45.27757" lon="6.91968">
        <time>1970-01-01T00:00:00+00:00</time>
        <ele>1953.0</ele>
      </trkpt>
      <trkpt lat="45.27756" lon="6.9196">
        <time>1970-01-01T00:00:00+00:00</time>
        <ele>1952.0</ele>
      </trkpt>
      <trkpt lat="45.27756" lon="6.9196">
        <time>1970-01-01T00:00:00+00:00</time>
        <ele>1952.0</ele>
      </trkpt>
      <trkpt lat="45.27756" lon="6.91952">
        <time>1970-01-01T00:00:00+00:00</time>
        <ele>1951.0</ele>
      </trkpt>
      <trkpt lat="45.27756" lon="6.91952">
        <time>1970-01-01T00:00:00+00:00</time>
        <ele>1951.0</ele>
      </trkpt>
      <trkpt lat="45.27756" lon="6.91944">
        <time>1970-01-01T00:00:00+00:00</time>
        <ele>1950.0</ele>
      </trkpt>
      <trkpt lat="45.27756" lon="6.91944">
        <time>1970-01-01T00:00:00+00:00</time>
        <ele>1950.0</ele>
      </trkpt>
      <trkpt lat="45.27754" lon="6.91935">
        <time>1970-01-01T00:00:00+00:00</time>
        <ele>1950.0</ele>
      </trkpt>
      <trkpt lat="45.27754" lon="6.91935">
        <time>1970-01-01T00:00:00+00:00</time>
        <ele>1950.0</ele>
      </trkpt>
      <trkpt lat="45.27752" lon="6.91927">
        <time>1970-01-01T00:00:00+00:00</time>
        <ele>1949.0</ele>
      </trkpt>
      <trkpt lat="45.27752" lon="6.91927">
        <time>1970-01-01T00:00:00+00:00</time>
        <ele>1949.0</ele>
      </trkpt>
      <trkpt lat="45.27748" lon="6.91919">
        <time>1970-01-01T00:00:00+00:00</time>
        <ele>1948.0</ele>
      </trkpt>
      <trkpt lat="45.27748" lon="6.91919">
        <time>1970-01-01T00:00:00+00:00</time>
        <ele>1948.0</ele>
      </trkpt>
      <trkpt lat="45.27745" lon="6.91912">
        <time>1970-01-01T00:00:00+00:00</time>
        <ele>1947.0</ele>
      </trkpt>
      <trkpt lat="45.27745" lon="6.91912">
        <time>1970-01-01T00:00:00+00:00</time>
        <ele>1947.0</ele>
      </trkpt>
      <trkpt lat="45.27742" lon="6.91905">
        <time>1970-01-01T00:00:00+00:00</time>
        <ele>1946.0</ele>
      </trkpt>
      <trkpt lat="45.27742" lon="6.91905">
        <time>1970-01-01T00:00:00+00:00</time>
        <ele>1946.0</ele>
      </trkpt>
      <trkpt lat="45.27738" lon="6.91898">
        <time>1970-01-01T00:00:00+00:00</time>
        <ele>1945.0</ele>
      </trkpt>
      <trkpt lat="45.27738" lon="6.91898">
        <time>1970-01-01T00:00:00+00:00</time>
        <ele>1945.0</ele>
      </trkpt>
      <trkpt lat="45.27734" lon="6.91892">
        <time>1970-01-01T00:00:00+00:00</time>
        <ele>1945.0</ele>
      </trkpt>
      <trkpt lat="45.27734" lon="6.91892">
        <time>1970-01-01T00:00:00+00:00</time>
        <ele>1945.0</ele>
      </trkpt>
      <trkpt lat="45.2773" lon="6.91886">
        <time>1970-01-01T00:00:00+00:00</time>
        <ele>1944.0</ele>
      </trkpt>
      <trkpt lat="45.2773" lon="6.91886">
        <time>1970-01-01T00:00:00+00:00</time>
        <ele>1944.0</ele>
      </trkpt>
      <trkpt lat="45.27726" lon="6.91879">
        <time>1970-01-01T00:00:00+00:00</time>
        <ele>1943.0</ele>
      </trkpt>
      <trkpt lat="45.27726" lon="6.91879">
        <time>1970-01-01T00:00:00+00:00</time>
        <ele>1943.0</ele>
      </trkpt>
      <trkpt lat="45.27722" lon="6.91873">
        <time>1970-01-01T00:00:00+00:00</time>
        <ele>1942.0</ele>
      </trkpt>
      <trkpt lat="45.27722" lon="6.91873">
        <time>1970-01-01T00:00:00+00:00</time>
        <ele>1942.0</ele>
      </trkpt>
      <trkpt lat="45.27717" lon="6.91867">
        <time>1970-01-01T00:00:00+00:00</time>
        <ele>1941.0</ele>
      </trkpt>
      <trkpt lat="45.27717" lon="6.91867">
        <time>1970-01-01T00:00:00+00:00</time>
        <ele>1941.0</ele>
      </trkpt>
      <trkpt lat="45.27713" lon="6.9186">
        <time>1970-01-01T00:00:00+00:00</time>
        <ele>1939.0</ele>
      </trkpt>
      <trkpt lat="45.27713" lon="6.9186">
        <time>1970-01-01T00:00:00+00:00</time>
        <ele>1939.0</ele>
      </trkpt>
      <trkpt lat="45.2771" lon="6.91853">
        <time>1970-01-01T00:00:00+00:00</time>
        <ele>1937.0</ele>
      </trkpt>
      <trkpt lat="45.2771" lon="6.91853">
        <time>1970-01-01T00:00:00+00:00</time>
        <ele>1937.0</ele>
      </trkpt>
      <trkpt lat="45.27708" lon="6.91845">
        <time>1970-01-01T00:00:00+00:00</time>
        <ele>1936.0</ele>
      </trkpt>
      <trkpt lat="45.27708" lon="6.91845">
        <time>1970-01-01T00:00:00+00:00</time>
        <ele>1936.0</ele>
      </trkpt>
      <trkpt lat="45.27705" lon="6.91837">
        <time>1970-01-01T00:00:00+00:00</time>
        <ele>1936.0</ele>
      </trkpt>
      <trkpt lat="45.27705" lon="6.91837">
        <time>1970-01-01T00:00:00+00:00</time>
        <ele>1936.0</ele>
      </trkpt>
      <trkpt lat="45.27704" lon="6.91828">
        <time>1970-01-01T00:00:00+00:00</time>
        <ele>1936.0</ele>
      </trkpt>
      <trkpt lat="45.27704" lon="6.91828">
        <time>1970-01-01T00:00:00+00:00</time>
        <ele>1936.0</ele>
      </trkpt>
      <trkpt lat="45.27704" lon="6.9182">
        <time>1970-01-01T00:00:00+00:00</time>
        <ele>1935.0</ele>
      </trkpt>
      <trkpt lat="45.27704" lon="6.9182">
        <time>1970-01-01T00:00:00+00:00</time>
        <ele>1935.0</ele>
      </trkpt>
      <trkpt lat="45.27703" lon="6.91812">
        <time>1970-01-01T00:00:00+00:00</time>
        <ele>1935.0</ele>
      </trkpt>
      <trkpt lat="45.27703" lon="6.91812">
        <time>1970-01-01T00:00:00+00:00</time>
        <ele>1935.0</ele>
      </trkpt>
      <trkpt lat="45.27702" lon="6.91805">
        <time>1970-01-01T00:00:00+00:00</time>
        <ele>1934.0</ele>
      </trkpt>
      <trkpt lat="45.27702" lon="6.91805">
        <time>1970-01-01T00:00:00+00:00</time>
        <ele>1934.0</ele>
      </trkpt>
      <trkpt lat="45.27699" lon="6.91796">
        <time>1970-01-01T00:00:00+00:00</time>
        <ele>1934.0</ele>
      </trkpt>
      <trkpt lat="45.27699" lon="6.91796">
        <time>1970-01-01T00:00:00+00:00</time>
        <ele>1934.0</ele>
      </trkpt>
      <trkpt lat="45.27697" lon="6.91789">
        <time>1970-01-01T00:00:00+00:00</time>
        <ele>1934.0</ele>
      </trkpt>
      <trkpt lat="45.27697" lon="6.91789">
        <time>1970-01-01T00:00:00+00:00</time>
        <ele>1934.0</ele>
      </trkpt>
      <trkpt lat="45.27696" lon="6.91782">
        <time>1970-01-01T00:00:00+00:00</time>
        <ele>1933.0</ele>
      </trkpt>
      <trkpt lat="45.27696" lon="6.91782">
        <time>1970-01-01T00:00:00+00:00</time>
        <ele>1933.0</ele>
      </trkpt>
      <trkpt lat="45.27695" lon="6.91774">
        <time>1970-01-01T00:00:00+00:00</time>
        <ele>1932.0</ele>
      </trkpt>
      <trkpt lat="45.27695" lon="6.91774">
        <time>1970-01-01T00:00:00+00:00</time>
        <ele>1932.0</ele>
      </trkpt>
      <trkpt lat="45.27694" lon="6.91765">
        <time>1970-01-01T00:00:00+00:00</time>
        <ele>1930.0</ele>
      </trkpt>
      <trkpt lat="45.27694" lon="6.91765">
        <time>1970-01-01T00:00:00+00:00</time>
        <ele>1930.0</ele>
      </trkpt>
      <trkpt lat="45.27692" lon="6.91757">
        <time>1970-01-01T00:00:00+00:00</time>
        <ele>1929.0</ele>
      </trkpt>
      <trkpt lat="45.27692" lon="6.91757">
        <time>1970-01-01T00:00:00+00:00</time>
        <ele>1929.0</ele>
      </trkpt>
      <trkpt lat="45.2769" lon="6.91749">
        <time>1970-01-01T00:00:00+00:00</time>
        <ele>1928.0</ele>
      </trkpt>
      <trkpt lat="45.2769" lon="6.91749">
        <time>1970-01-01T00:00:00+00:00</time>
        <ele>1928.0</ele>
      </trkpt>
      <trkpt lat="45.27688" lon="6.91742">
        <time>1970-01-01T00:00:00+00:00</time>
        <ele>1928.0</ele>
      </trkpt>
      <trkpt lat="45.27688" lon="6.91742">
        <time>1970-01-01T00:00:00+00:00</time>
        <ele>1928.0</ele>
      </trkpt>
      <trkpt lat="45.27685" lon="6.91735">
        <time>1970-01-01T00:00:00+00:00</time>
        <ele>1927.0</ele>
      </trkpt>
      <trkpt lat="45.27685" lon="6.91735">
        <time>1970-01-01T00:00:00+00:00</time>
        <ele>1927.0</ele>
      </trkpt>
      <trkpt lat="45.27681" lon="6.91727">
        <time>1970-01-01T00:00:00+00:00</time>
        <ele>1927.0</ele>
      </trkpt>
      <trkpt lat="45.27681" lon="6.91727">
        <time>1970-01-01T00:00:00+00:00</time>
        <ele>1927.0</ele>
      </trkpt>
      <trkpt lat="45.27678" lon="6.9172">
        <time>1970-01-01T00:00:00+00:00</time>
        <ele>1926.0</ele>
      </trkpt>
      <trkpt lat="45.27678" lon="6.9172">
        <time>1970-01-01T00:00:00+00:00</time>
        <ele>1926.0</ele>
      </trkpt>
      <trkpt lat="45.27674" lon="6.91713">
        <time>1970-01-01T00:00:00+00:00</time>
        <ele>1926.0</ele>
      </trkpt>
      <trkpt lat="45.27674" lon="6.91713">
        <time>1970-01-01T00:00:00+00:00</time>
        <ele>1926.0</ele>
      </trkpt>
      <trkpt lat="45.2767" lon="6.91706">
        <time>1970-01-01T00:00:00+00:00</time>
        <ele>1925.0</ele>
      </trkpt>
      <trkpt lat="45.2767" lon="6.91706">
        <time>1970-01-01T00:00:00+00:00</time>
        <ele>1925.0</ele>
      </trkpt>
      <trkpt lat="45.27666" lon="6.91699">
        <time>1970-01-01T00:00:00+00:00</time>
        <ele>1924.0</ele>
      </trkpt>
      <trkpt lat="45.27666" lon="6.91699">
        <time>1970-01-01T00:00:00+00:00</time>
        <ele>1924.0</ele>
      </trkpt>
      <trkpt lat="45.27662" lon="6.91693">
        <time>1970-01-01T00:00:00+00:00</time>
        <ele>1923.0</ele>
      </trkpt>
      <trkpt lat="45.27662" lon="6.91693">
        <time>1970-01-01T00:00:00+00:00</time>
        <ele>1923.0</ele>
      </trkpt>
      <trkpt lat="45.27658" lon="6.91686">
        <time>1970-01-01T00:00:00+00:00</time>
        <ele>1921.0</ele>
      </trkpt>
      <trkpt lat="45.27658" lon="6.91686">
        <time>1970-01-01T00:00:00+00:00</time>
        <ele>1921.0</ele>
      </trkpt>
      <trkpt lat="45.27654" lon="6.91678">
        <time>1970-01-01T00:00:00+00:00</time>
        <ele>1920.0</ele>
      </trkpt>
      <trkpt lat="45.27654" lon="6.91678">
        <time>1970-01-01T00:00:00+00:00</time>
        <ele>1920.0</ele>
      </trkpt>
      <trkpt lat="45.27651" lon="6.91671">
        <time>1970-01-01T00:00:00+00:00</time>
        <ele>1919.0</ele>
      </trkpt>
      <trkpt lat="45.27651" lon="6.91671">
        <time>1970-01-01T00:00:00+00:00</time>
        <ele>1919.0</ele>
      </trkpt>
      <trkpt lat="45.27651" lon="6.91662">
        <time>1970-01-01T00:00:00+00:00</time>
        <ele>1917.0</ele>
      </trkpt>
      <trkpt lat="45.27651" lon="6.91662">
        <time>1970-01-01T00:00:00+00:00</time>
        <ele>1917.0</ele>
      </trkpt>
      <trkpt lat="45.27651" lon="6.91654">
        <time>1970-01-01T00:00:00+00:00</time>
        <ele>1917.0</ele>
      </trkpt>
      <trkpt lat="45.27651" lon="6.91654">
        <time>1970-01-01T00:00:00+00:00</time>
        <ele>1917.0</ele>
      </trkpt>
      <trkpt lat="45.27651" lon="6.91646">
        <time>1970-01-01T00:00:00+00:00</time>
        <ele>1917.0</ele>
      </trkpt>
      <trkpt lat="45.27651" lon="6.91646">
        <time>1970-01-01T00:00:00+00:00</time>
        <ele>1917.0</ele>
      </trkpt>
      <trkpt lat="45.27652" lon="6.91638">
        <time>1970-01-01T00:00:00+00:00</time>
        <ele>1916.0</ele>
      </trkpt>
      <trkpt lat="45.27652" lon="6.91638">
        <time>1970-01-01T00:00:00+00:00</time>
        <ele>1916.0</ele>
      </trkpt>
      <trkpt lat="45.27652" lon="6.9163">
        <time>1970-01-01T00:00:00+00:00</time>
        <ele>1916.0</ele>
      </trkpt>
      <trkpt lat="45.27652" lon="6.9163">
        <time>1970-01-01T00:00:00+00:00</time>
        <ele>1916.0</ele>
      </trkpt>
      <trkpt lat="45.27652" lon="6.91623">
        <time>1970-01-01T00:00:00+00:00</time>
        <ele>1916.0</ele>
      </trkpt>
      <trkpt lat="45.27652" lon="6.91623">
        <time>1970-01-01T00:00:00+00:00</time>
        <ele>1916.0</ele>
      </trkpt>
      <trkpt lat="45.27649" lon="6.91616">
        <time>1970-01-01T00:00:00+00:00</time>
        <ele>1917.0</ele>
      </trkpt>
      <trkpt lat="45.27649" lon="6.91616">
        <time>1970-01-01T00:00:00+00:00</time>
        <ele>1917.0</ele>
      </trkpt>
      <trkpt lat="45.27645" lon="6.9161">
        <time>1970-01-01T00:00:00+00:00</time>
        <ele>1917.0</ele>
      </trkpt>
      <trkpt lat="45.27645" lon="6.9161">
        <time>1970-01-01T00:00:00+00:00</time>
        <ele>1917.0</ele>
      </trkpt>
      <trkpt lat="45.27642" lon="6.91604">
        <time>1970-01-01T00:00:00+00:00</time>
        <ele>1917.0</ele>
      </trkpt>
      <trkpt lat="45.27642" lon="6.91604">
        <time>1970-01-01T00:00:00+00:00</time>
        <ele>1917.0</ele>
      </trkpt>
      <trkpt lat="45.27639" lon="6.91598">
        <time>1970-01-01T00:00:00+00:00</time>
        <ele>1916.0</ele>
      </trkpt>
      <trkpt lat="45.27639" lon="6.91598">
        <time>1970-01-01T00:00:00+00:00</time>
        <ele>1916.0</ele>
      </trkpt>
      <trkpt lat="45.27635" lon="6.91591">
        <time>1970-01-01T00:00:00+00:00</time>
        <ele>1915.0</ele>
      </trkpt>
      <trkpt lat="45.27635" lon="6.91591">
        <time>1970-01-01T00:00:00+00:00</time>
        <ele>1915.0</ele>
      </trkpt>
      <trkpt lat="45.27631" lon="6.91584">
        <time>1970-01-01T00:00:00+00:00</time>
        <ele>1913.0</ele>
      </trkpt>
      <trkpt lat="45.27631" lon="6.91584">
        <time>1970-01-01T00:00:00+00:00</time>
        <ele>1913.0</ele>
      </trkpt>
      <trkpt lat="45.27627" lon="6.91577">
        <time>1970-01-01T00:00:00+00:00</time>
        <ele>1912.0</ele>
      </trkpt>
      <trkpt lat="45.27627" lon="6.91577">
        <time>1970-01-01T00:00:00+00:00</time>
        <ele>1912.0</ele>
      </trkpt>
      <trkpt lat="45.27623" lon="6.9157">
        <time>1970-01-01T00:00:00+00:00</time>
        <ele>1910.0</ele>
      </trkpt>
      <trkpt lat="45.27623" lon="6.9157">
        <time>1970-01-01T00:00:00+00:00</time>
        <ele>1910.0</ele>
      </trkpt>
      <trkpt lat="45.2762" lon="6.91558">
        <time>1970-01-01T00:00:00+00:00</time>
        <ele>1908.0</ele>
      </trkpt>
      <trkpt lat="45.2762" lon="6.91558">
        <time>1970-01-01T00:00:00+00:00</time>
        <ele>1908.0</ele>
      </trkpt>
      <trkpt lat="45.27618" lon="6.91549">
        <time>1970-01-01T00:00:00+00:00</time>
        <ele>1908.0</ele>
      </trkpt>
      <trkpt lat="45.27618" lon="6.91549">
        <time>1970-01-01T00:00:00+00:00</time>
        <ele>1908.0</ele>
      </trkpt>
      <trkpt lat="45.27617" lon="6.91541">
        <time>1970-01-01T00:00:00+00:00</time>
        <ele>1908.0</ele>
      </trkpt>
      <trkpt lat="45.27617" lon="6.91541">
        <time>1970-01-01T00:00:00+00:00</time>
        <ele>1908.0</ele>
      </trkpt>
      <trkpt lat="45.27617" lon="6.91534">
        <time>1970-01-01T00:00:00+00:00</time>
        <ele>1909.0</ele>
      </trkpt>
      <trkpt lat="45.27617" lon="6.91534">
        <time>1970-01-01T00:00:00+00:00</time>
        <ele>1909.0</ele>
      </trkpt>
      <trkpt lat="45.27617" lon="6.91527">
        <time>1970-01-01T00:00:00+00:00</time>
        <ele>1909.0</ele>
      </trkpt>
      <trkpt lat="45.27617" lon="6.91527">
        <time>1970-01-01T00:00:00+00:00</time>
        <ele>1909.0</ele>
      </trkpt>
      <trkpt lat="45.27617" lon="6.9152">
        <time>1970-01-01T00:00:00+00:00</time>
        <ele>1910.0</ele>
      </trkpt>
      <trkpt lat="45.27617" lon="6.9152">
        <time>1970-01-01T00:00:00+00:00</time>
        <ele>1910.0</ele>
      </trkpt>
      <trkpt lat="45.27618" lon="6.91513">
        <time>1970-01-01T00:00:00+00:00</time>
        <ele>1910.0</ele>
      </trkpt>
      <trkpt lat="45.27618" lon="6.91513">
        <time>1970-01-01T00:00:00+00:00</time>
        <ele>1910.0</ele>
      </trkpt>
      <trkpt lat="45.27619" lon="6.91506">
        <time>1970-01-01T00:00:00+00:00</time>
        <ele>1910.0</ele>
      </trkpt>
      <trkpt lat="45.27619" lon="6.91506">
        <time>1970-01-01T00:00:00+00:00</time>
        <ele>1910.0</ele>
      </trkpt>
      <trkpt lat="45.27621" lon="6.91498">
        <time>1970-01-01T00:00:00+00:00</time>
        <ele>1909.0</ele>
      </trkpt>
      <trkpt lat="45.27621" lon="6.91498">
        <time>1970-01-01T00:00:00+00:00</time>
        <ele>1909.0</ele>
      </trkpt>
      <trkpt lat="45.27623" lon="6.9149">
        <time>1970-01-01T00:00:00+00:00</time>
        <ele>1908.0</ele>
      </trkpt>
      <trkpt lat="45.27623" lon="6.9149">
        <time>1970-01-01T00:00:00+00:00</time>
        <ele>1908.0</ele>
      </trkpt>
      <trkpt lat="45.27625" lon="6.91482">
        <time>1970-01-01T00:00:00+00:00</time>
        <ele>1907.0</ele>
      </trkpt>
      <trkpt lat="45.27625" lon="6.91482">
        <time>1970-01-01T00:00:00+00:00</time>
        <ele>1907.0</ele>
      </trkpt>
      <trkpt lat="45.27627" lon="6.91473">
        <time>1970-01-01T00:00:00+00:00</time>
        <ele>1907.0</ele>
      </trkpt>
      <trkpt lat="45.27627" lon="6.91473">
        <time>1970-01-01T00:00:00+00:00</time>
        <ele>1907.0</ele>
      </trkpt>
      <trkpt lat="45.27629" lon="6.91465">
        <time>1970-01-01T00:00:00+00:00</time>
        <ele>1905.0</ele>
      </trkpt>
      <trkpt lat="45.27629" lon="6.91465">
        <time>1970-01-01T00:00:00+00:00</time>
        <ele>1905.0</ele>
      </trkpt>
      <trkpt lat="45.2763" lon="6.91457">
        <time>1970-01-01T00:00:00+00:00</time>
        <ele>1904.0</ele>
      </trkpt>
      <trkpt lat="45.2763" lon="6.91457">
        <time>1970-01-01T00:00:00+00:00</time>
        <ele>1904.0</ele>
      </trkpt>
      <trkpt lat="45.27631" lon="6.9145">
        <time>1970-01-01T00:00:00+00:00</time>
        <ele>1903.0</ele>
      </trkpt>
      <trkpt lat="45.27631" lon="6.9145">
        <time>1970-01-01T00:00:00+00:00</time>
        <ele>1903.0</ele>
      </trkpt>
      <trkpt lat="45.27632" lon="6.91442">
        <time>1970-01-01T00:00:00+00:00</time>
        <ele>1902.0</ele>
      </trkpt>
      <trkpt lat="45.27632" lon="6.91442">
        <time>1970-01-01T00:00:00+00:00</time>
        <ele>1902.0</ele>
      </trkpt>
      <trkpt lat="45.27632" lon="6.91434">
        <time>1970-01-01T00:00:00+00:00</time>
        <ele>1900.0</ele>
      </trkpt>
      <trkpt lat="45.27632" lon="6.91434">
        <time>1970-01-01T00:00:00+00:00</time>
        <ele>1900.0</ele>
      </trkpt>
      <trkpt lat="45.27631" lon="6.91425">
        <time>1970-01-01T00:00:00+00:00</time>
        <ele>1899.0</ele>
      </trkpt>
      <trkpt lat="45.27631" lon="6.91425">
        <time>1970-01-01T00:00:00+00:00</time>
        <ele>1899.0</ele>
      </trkpt>
      <trkpt lat="45.27631" lon="6.91416">
        <time>1970-01-01T00:00:00+00:00</time>
        <ele>1897.0</ele>
      </trkpt>
      <trkpt lat="45.27631" lon="6.91416">
        <time>1970-01-01T00:00:00+00:00</time>
        <ele>1897.0</ele>
      </trkpt>
      <trkpt lat="45.27631" lon="6.91407">
        <time>1970-01-01T00:00:00+00:00</time>
        <ele>1896.0</ele>
      </trkpt>
      <trkpt lat="45.27631" lon="6.91407">
        <time>1970-01-01T00:00:00+00:00</time>
        <ele>1896.0</ele>
      </trkpt>
      <trkpt lat="45.27631" lon="6.91398">
        <time>1970-01-01T00:00:00+00:00</time>
        <ele>1895.0</ele>
      </trkpt>
      <trkpt lat="45.27631" lon="6.91398">
        <time>1970-01-01T00:00:00+00:00</time>
        <ele>1895.0</ele>
      </trkpt>
      <trkpt lat="45.27632" lon="6.9139">
        <time>1970-01-01T00:00:00+00:00</time>
        <ele>1893.0</ele>
      </trkpt>
      <trkpt lat="45.27632" lon="6.9139">
        <time>1970-01-01T00:00:00+00:00</time>
        <ele>1893.0</ele>
      </trkpt>
      <trkpt lat="45.27632" lon="6.91381">
        <time>1970-01-01T00:00:00+00:00</time>
        <ele>1894.0</ele>
      </trkpt>
      <trkpt lat="45.27632" lon="6.91381">
        <time>1970-01-01T00:00:00+00:00</time>
        <ele>1894.0</ele>
      </trkpt>
      <trkpt lat="45.27632" lon="6.91373">
        <time>1970-01-01T00:00:00+00:00</time>
        <ele>1894.0</ele>
      </trkpt>
      <trkpt lat="45.27632" lon="6.91373">
        <time>1970-01-01T00:00:00+00:00</time>
        <ele>1894.0</ele>
      </trkpt>
      <trkpt lat="45.27633" lon="6.91366">
        <time>1970-01-01T00:00:00+00:00</time>
        <ele>1894.0</ele>
      </trkpt>
      <trkpt lat="45.27633" lon="6.91366">
        <time>1970-01-01T00:00:00+00:00</time>
        <ele>1894.0</ele>
      </trkpt>
      <trkpt lat="45.27634" lon="6.91358">
        <time>1970-01-01T00:00:00+00:00</time>
        <ele>1893.0</ele>
      </trkpt>
      <trkpt lat="45.27634" lon="6.91358">
        <time>1970-01-01T00:00:00+00:00</time>
        <ele>1893.0</ele>
      </trkpt>
      <trkpt lat="45.27635" lon="6.9135">
        <time>1970-01-01T00:00:00+00:00</time>
        <ele>1893.0</ele>
      </trkpt>
      <trkpt lat="45.27635" lon="6.9135">
        <time>1970-01-01T00:00:00+00:00</time>
        <ele>1893.0</ele>
      </trkpt>
      <trkpt lat="45.27637" lon="6.91341">
        <time>1970-01-01T00:00:00+00:00</time>
        <ele>1892.0</ele>
      </trkpt>
      <trkpt lat="45.27637" lon="6.91341">
        <time>1970-01-01T00:00:00+00:00</time>
        <ele>1892.0</ele>
      </trkpt>
      <trkpt lat="45.27639" lon="6.91332">
        <time>1970-01-01T00:00:00+00:00</time>
        <ele>1891.0</ele>
      </trkpt>
      <trkpt lat="45.27639" lon="6.91332">
        <time>1970-01-01T00:00:00+00:00</time>
        <ele>1891.0</ele>
      </trkpt>
      <trkpt lat="45.27641" lon="6.91324">
        <time>1970-01-01T00:00:00+00:00</time>
        <ele>1889.0</ele>
      </trkpt>
      <trkpt lat="45.27641" lon="6.91324">
        <time>1970-01-01T00:00:00+00:00</time>
        <ele>1889.0</ele>
      </trkpt>
      <trkpt lat="45.27644" lon="6.91316">
        <time>1970-01-01T00:00:00+00:00</time>
        <ele>1887.0</ele>
      </trkpt>
      <trkpt lat="45.27644" lon="6.91316">
        <time>1970-01-01T00:00:00+00:00</time>
        <ele>1887.0</ele>
      </trkpt>
      <trkpt lat="45.27647" lon="6.91308">
        <time>1970-01-01T00:00:00+00:00</time>
        <ele>1885.0</ele>
      </trkpt>
      <trkpt lat="45.27647" lon="6.91308">
        <time>1970-01-01T00:00:00+00:00</time>
        <ele>1885.0</ele>
      </trkpt>
      <trkpt lat="45.27651" lon="6.91301">
        <time>1970-01-01T00:00:00+00:00</time>
        <ele>1884.0</ele>
      </trkpt>
      <trkpt lat="45.27651" lon="6.91301">
        <time>1970-01-01T00:00:00+00:00</time>
        <ele>1884.0</ele>
      </trkpt>
      <trkpt lat="45.27654" lon="6.91294">
        <time>1970-01-01T00:00:00+00:00</time>
        <ele>1883.0</ele>
      </trkpt>
      <trkpt lat="45.27654" lon="6.91294">
        <time>1970-01-01T00:00:00+00:00</time>
        <ele>1883.0</ele>
      </trkpt>
      <trkpt lat="45.27659" lon="6.91289">
        <time>1970-01-01T00:00:00+00:00</time>
        <ele>1881.0</ele>
      </trkpt>
      <trkpt lat="45.27659" lon="6.91289">
        <time>1970-01-01T00:00:00+00:00</time>
        <ele>1881.0</ele>
      </trkpt>
      <trkpt lat="45.27663" lon="6.91285">
        <time>1970-01-01T00:00:00+00:00</time>
        <ele>1881.0</ele>
      </trkpt>
      <trkpt lat="45.27663" lon="6.91285">
        <time>1970-01-01T00:00:00+00:00</time>
        <ele>1881.0</ele>
      </trkpt>
      <trkpt lat="45.27668" lon="6.91281">
        <time>1970-01-01T00:00:00+00:00</time>
        <ele>1880.0</ele>
      </trkpt>
      <trkpt lat="45.27668" lon="6.91281">
        <time>1970-01-01T00:00:00+00:00</time>
        <ele>1880.0</ele>
      </trkpt>
      <trkpt lat="45.27673" lon="6.91278">
        <time>1970-01-01T00:00:00+00:00</time>
        <ele>1880.0</ele>
      </trkpt>
      <trkpt lat="45.27673" lon="6.91278">
        <time>1970-01-01T00:00:00+00:00</time>
        <ele>1880.0</ele>
      </trkpt>
      <trkpt lat="45.27678" lon="6.91276">
        <time>1970-01-01T00:00:00+00:00</time>
        <ele>1879.0</ele>
      </trkpt>
      <trkpt lat="45.27678" lon="6.91276">
        <time>1970-01-01T00:00:00+00:00</time>
        <ele>1879.0</ele>
      </trkpt>
      <trkpt lat="45.27687" lon="6.91273">
        <time>1970-01-01T00:00:00+00:00</time>
        <ele>1877.0</ele>
      </trkpt>
      <trkpt lat="45.27687" lon="6.91273">
        <time>1970-01-01T00:00:00+00:00</time>
        <ele>1877.0</ele>
      </trkpt>
      <trkpt lat="45.27692" lon="6.91269">
        <time>1970-01-01T00:00:00+00:00</time>
        <ele>1877.0</ele>
      </trkpt>
      <trkpt lat="45.27692" lon="6.91269">
        <time>1970-01-01T00:00:00+00:00</time>
        <ele>1877.0</ele>
      </trkpt>
      <trkpt lat="45.27697" lon="6.91264">
        <time>1970-01-01T00:00:00+00:00</time>
        <ele>1876.0</ele>
      </trkpt>
      <trkpt lat="45.27697" lon="6.91264">
        <time>1970-01-01T00:00:00+00:00</time>
        <ele>1876.0</ele>
      </trkpt>
      <trkpt lat="45.27701" lon="6.91258">
        <time>1970-01-01T00:00:00+00:00</time>
        <ele>1876.0</ele>
      </trkpt>
      <trkpt lat="45.27701" lon="6.91258">
        <time>1970-01-01T00:00:00+00:00</time>
        <ele>1876.0</ele>
      </trkpt>
      <trkpt lat="45.27704" lon="6.91252">
        <time>1970-01-01T00:00:00+00:00</time>
        <ele>1876.0</ele>
      </trkpt>
      <trkpt lat="45.27704" lon="6.91252">
        <time>1970-01-01T00:00:00+00:00</time>
        <ele>1876.0</ele>
      </trkpt>
      <trkpt lat="45.27706" lon="6.91245">
        <time>1970-01-01T00:00:00+00:00</time>
        <ele>1875.0</ele>
      </trkpt>
      <trkpt lat="45.27706" lon="6.91245">
        <time>1970-01-01T00:00:00+00:00</time>
        <ele>1875.0</ele>
      </trkpt>
      <trkpt lat="45.27706" lon="6.91238">
        <time>1970-01-01T00:00:00+00:00</time>
        <ele>1876.0</ele>
      </trkpt>
      <trkpt lat="45.27706" lon="6.91238">
        <time>1970-01-01T00:00:00+00:00</time>
        <ele>1876.0</ele>
      </trkpt>
      <trkpt lat="45.27707" lon="6.91231">
        <time>1970-01-01T00:00:00+00:00</time>
        <ele>1876.0</ele>
      </trkpt>
      <trkpt lat="45.27707" lon="6.91231">
        <time>1970-01-01T00:00:00+00:00</time>
        <ele>1876.0</ele>
      </trkpt>
      <trkpt lat="45.27708" lon="6.91222">
        <time>1970-01-01T00:00:00+00:00</time>
        <ele>1875.0</ele>
      </trkpt>
      <trkpt lat="45.27708" lon="6.91222">
        <time>1970-01-01T00:00:00+00:00</time>
        <ele>1875.0</ele>
      </trkpt>
      <trkpt lat="45.27708" lon="6.91214">
        <time>1970-01-01T00:00:00+00:00</time>
        <ele>1876.0</ele>
      </trkpt>
      <trkpt lat="45.27708" lon="6.91214">
        <time>1970-01-01T00:00:00+00:00</time>
        <ele>1876.0</ele>
      </trkpt>
      <trkpt lat="45.27709" lon="6.91201">
        <time>1970-01-01T00:00:00+00:00</time>
        <ele>1875.0</ele>
      </trkpt>
      <trkpt lat="45.27709" lon="6.91201">
        <time>1970-01-01T00:00:00+00:00</time>
        <ele>1875.0</ele>
      </trkpt>
      <trkpt lat="45.27708" lon="6.91189">
        <time>1970-01-01T00:00:00+00:00</time>
        <ele>1876.0</ele>
      </trkpt>
      <trkpt lat="45.27708" lon="6.91189">
        <time>1970-01-01T00:00:00+00:00</time>
        <ele>1876.0</ele>
      </trkpt>
      <trkpt lat="45.27708" lon="6.91182">
        <time>1970-01-01T00:00:00+00:00</time>
        <ele>1876.0</ele>
      </trkpt>
      <trkpt lat="45.27708" lon="6.91182">
        <time>1970-01-01T00:00:00+00:00</time>
        <ele>1876.0</ele>
      </trkpt>
      <trkpt lat="45.27708" lon="6.91173">
        <time>1970-01-01T00:00:00+00:00</time>
        <ele>1876.0</ele>
      </trkpt>
      <trkpt lat="45.27708" lon="6.91173">
        <time>1970-01-01T00:00:00+00:00</time>
        <ele>1876.0</ele>
      </trkpt>
      <trkpt lat="45.27709" lon="6.91162">
        <time>1970-01-01T00:00:00+00:00</time>
        <ele>1874.0</ele>
      </trkpt>
      <trkpt lat="45.27709" lon="6.91162">
        <time>1970-01-01T00:00:00+00:00</time>
        <ele>1874.0</ele>
      </trkpt>
      <trkpt lat="45.2771" lon="6.91152">
        <time>1970-01-01T00:00:00+00:00</time>
        <ele>1873.0</ele>
      </trkpt>
      <trkpt lat="45.2771" lon="6.91152">
        <time>1970-01-01T00:00:00+00:00</time>
        <ele>1873.0</ele>
      </trkpt>
      <trkpt lat="45.2771" lon="6.91142">
        <time>1970-01-01T00:00:00+00:00</time>
        <ele>1873.0</ele>
      </trkpt>
      <trkpt lat="45.2771" lon="6.91142">
        <time>1970-01-01T00:00:00+00:00</time>
        <ele>1873.0</ele>
      </trkpt>
      <trkpt lat="45.2771" lon="6.91132">
        <time>1970-01-01T00:00:00+00:00</time>
        <ele>1872.0</ele>
      </trkpt>
      <trkpt lat="45.2771" lon="6.91132">
        <time>1970-01-01T00:00:00+00:00</time>
        <ele>1872.0</ele>
      </trkpt>
      <trkpt lat="45.2771" lon="6.91123">
        <time>1970-01-01T00:00:00+00:00</time>
        <ele>1871.0</ele>
      </trkpt>
      <trkpt lat="45.2771" lon="6.91123">
        <time>1970-01-01T00:00:00+00:00</time>
        <ele>1871.0</ele>
      </trkpt>
      <trkpt lat="45.2771" lon="6.91112">
        <time>1970-01-01T00:00:00+00:00</time>
        <ele>1870.0</ele>
      </trkpt>
      <trkpt lat="45.2771" lon="6.91112">
        <time>1970-01-01T00:00:00+00:00</time>
        <ele>1870.0</ele>
      </trkpt>
      <trkpt lat="45.27709" lon="6.91101">
        <time>1970-01-01T00:00:00+00:00</time>
        <ele>1869.0</ele>
      </trkpt>
      <trkpt lat="45.27709" lon="6.91101">
        <time>1970-01-01T00:00:00+00:00</time>
        <ele>1869.0</ele>
      </trkpt>
      <trkpt lat="45.27708" lon="6.91089">
        <time>1970-01-01T00:00:00+00:00</time>
        <ele>1868.0</ele>
      </trkpt>
      <trkpt lat="45.27708" lon="6.91089">
        <time>1970-01-01T00:00:00+00:00</time>
        <ele>1868.0</ele>
      </trkpt>
      <trkpt lat="45.27707" lon="6.91078">
        <time>1970-01-01T00:00:00+00:00</time>
        <ele>1867.0</ele>
      </trkpt>
      <trkpt lat="45.27707" lon="6.91078">
        <time>1970-01-01T00:00:00+00:00</time>
        <ele>1867.0</ele>
      </trkpt>
      <trkpt lat="45.27705" lon="6.91068">
        <time>1970-01-01T00:00:00+00:00</time>
        <ele>1866.0</ele>
      </trkpt>
      <trkpt lat="45.27705" lon="6.91068">
        <time>1970-01-01T00:00:00+00:00</time>
        <ele>1866.0</ele>
      </trkpt>
      <trkpt lat="45.27703" lon="6.9106">
        <time>1970-01-01T00:00:00+00:00</time>
        <ele>1865.0</ele>
      </trkpt>
      <trkpt lat="45.27703" lon="6.9106">
        <time>1970-01-01T00:00:00+00:00</time>
        <ele>1865.0</ele>
      </trkpt>
      <trkpt lat="45.27701" lon="6.91053">
        <time>1970-01-01T00:00:00+00:00</time>
        <ele>1864.0</ele>
      </trkpt>
      <trkpt lat="45.27701" lon="6.91053">
        <time>1970-01-01T00:00:00+00:00</time>
        <ele>1864.0</ele>
      </trkpt>
      <trkpt lat="45.27697" lon="6.91046">
        <time>1970-01-01T00:00:00+00:00</time>
        <ele>1863.0</ele>
      </trkpt>
      <trkpt lat="45.27697" lon="6.91046">
        <time>1970-01-01T00:00:00+00:00</time>
        <ele>1863.0</ele>
      </trkpt>
      <trkpt lat="45.27694" lon="6.91038">
        <time>1970-01-01T00:00:00+00:00</time>
        <ele>1862.0</ele>
      </trkpt>
      <trkpt lat="45.27694" lon="6.91038">
        <time>1970-01-01T00:00:00+00:00</time>
        <ele>1862.0</ele>
      </trkpt>
      <trkpt lat="45.2769" lon="6.91032">
        <time>1970-01-01T00:00:00+00:00</time>
        <ele>1862.0</ele>
      </trkpt>
      <trkpt lat="45.2769" lon="6.91032">
        <time>1970-01-01T00:00:00+00:00</time>
        <ele>1862.0</ele>
      </trkpt>
      <trkpt lat="45.27687" lon="6.91026">
        <time>1970-01-01T00:00:00+00:00</time>
        <ele>1861.0</ele>
      </trkpt>
      <trkpt lat="45.27687" lon="6.91026">
        <time>1970-01-01T00:00:00+00:00</time>
        <ele>1861.0</ele>
      </trkpt>
      <trkpt lat="45.27683" lon="6.9102">
        <time>1970-01-01T00:00:00+00:00</time>
        <ele>1860.0</ele>
      </trkpt>
      <trkpt lat="45.27683" lon="6.9102">
        <time>1970-01-01T00:00:00+00:00</time>
        <ele>1860.0</ele>
      </trkpt>
      <trkpt lat="45.27678" lon="6.91014">
        <time>1970-01-01T00:00:00+00:00</time>
        <ele>1859.0</ele>
      </trkpt>
      <trkpt lat="45.27678" lon="6.91014">
        <time>1970-01-01T00:00:00+00:00</time>
        <ele>1859.0</ele>
      </trkpt>
      <trkpt lat="45.27674" lon="6.91007">
        <time>1970-01-01T00:00:00+00:00</time>
        <ele>1858.0</ele>
      </trkpt>
      <trkpt lat="45.27674" lon="6.91007">
        <time>1970-01-01T00:00:00+00:00</time>
        <ele>1858.0</ele>
      </trkpt>
      <trkpt lat="45.27669" lon="6.90999">
        <time>1970-01-01T00:00:00+00:00</time>
        <ele>1858.0</ele>
      </trkpt>
      <trkpt lat="45.27669" lon="6.90999">
        <time>1970-01-01T00:00:00+00:00</time>
        <ele>1858.0</ele>
      </trkpt>
      <trkpt lat="45.27665" lon="6.90991">
        <time>1970-01-01T00:00:00+00:00</time>
        <ele>1857.0</ele>
      </trkpt>
      <trkpt lat="45.27665" lon="6.90991">
        <time>1970-01-01T00:00:00+00:00</time>
        <ele>1857.0</ele>
      </trkpt>
      <trkpt lat="45.27662" lon="6.90983">
        <time>1970-01-01T00:00:00+00:00</time>
        <ele>1855.0</ele>
      </trkpt>
      <trkpt lat="45.27662" lon="6.90983">
        <time>1970-01-01T00:00:00+00:00</time>
        <ele>1855.0</ele>
      </trkpt>
      <trkpt lat="45.27658" lon="6.90974">
        <time>1970-01-01T00:00:00+00:00</time>
        <ele>1855.0</ele>
      </trkpt>
      <trkpt lat="45.27658" lon="6.90974">
        <time>1970-01-01T00:00:00+00:00</time>
        <ele>1855.0</ele>
      </trkpt>
      <trkpt lat="45.27656" lon="6.90965">
        <time>1970-01-01T00:00:00+00:00</time>
        <ele>1853.0</ele>
      </trkpt>
      <trkpt lat="45.27656" lon="6.90965">
        <time>1970-01-01T00:00:00+00:00</time>
        <ele>1853.0</ele>
      </trkpt>
      <trkpt lat="45.27654" lon="6.90953">
        <time>1970-01-01T00:00:00+00:00</time>
        <ele>1853.0</ele>
      </trkpt>
      <trkpt lat="45.27654" lon="6.90953">
        <time>1970-01-01T00:00:00+00:00</time>
        <ele>1853.0</ele>
      </trkpt>
      <trkpt lat="45.27654" lon="6.9094">
        <time>1970-01-01T00:00:00+00:00</time>
        <ele>1853.0</ele>
      </trkpt>
      <trkpt lat="45.27654" lon="6.9094">
        <time>1970-01-01T00:00:00+00:00</time>
        <ele>1853.0</ele>
      </trkpt>
      <trkpt lat="45.27656" lon="6.90927">
        <time>1970-01-01T00:00:00+00:00</time>
        <ele>1852.0</ele>
      </trkpt>
      <trkpt lat="45.27656" lon="6.90927">
        <time>1970-01-01T00:00:00+00:00</time>
        <ele>1852.0</ele>
      </trkpt>
      <trkpt lat="45.27657" lon="6.90916">
        <time>1970-01-01T00:00:00+00:00</time>
        <ele>1852.0</ele>
      </trkpt>
      <trkpt lat="45.27657" lon="6.90916">
        <time>1970-01-01T00:00:00+00:00</time>
        <ele>1852.0</ele>
      </trkpt>
      <trkpt lat="45.27658" lon="6.90906">
        <time>1970-01-01T00:00:00+00:00</time>
        <ele>1851.0</ele>
      </trkpt>
      <trkpt lat="45.27658" lon="6.90906">
        <time>1970-01-01T00:00:00+00:00</time>
        <ele>1851.0</ele>
      </trkpt>
      <trkpt lat="45.27658" lon="6.90897">
        <time>1970-01-01T00:00:00+00:00</time>
        <ele>1850.0</ele>
      </trkpt>
      <trkpt lat="45.27658" lon="6.90897">
        <time>1970-01-01T00:00:00+00:00</time>
        <ele>1850.0</ele>
      </trkpt>
      <trkpt lat="45.27657" lon="6.90888">
        <time>1970-01-01T00:00:00+00:00</time>
        <ele>1849.0</ele>
      </trkpt>
      <trkpt lat="45.27657" lon="6.90888">
        <time>1970-01-01T00:00:00+00:00</time>
        <ele>1849.0</ele>
      </trkpt>
      <trkpt lat="45.27656" lon="6.90879">
        <time>1970-01-01T00:00:00+00:00</time>
        <ele>1848.0</ele>
      </trkpt>
      <trkpt lat="45.27656" lon="6.90879">
        <time>1970-01-01T00:00:00+00:00</time>
        <ele>1848.0</ele>
      </trkpt>
      <trkpt lat="45.27654" lon="6.90873">
        <time>1970-01-01T00:00:00+00:00</time>
        <ele>1848.0</ele>
      </trkpt>
      <trkpt lat="45.27654" lon="6.90873">
        <time>1970-01-01T00:00:00+00:00</time>
        <ele>1848.0</ele>
      </trkpt>
      <trkpt lat="45.27652" lon="6.90867">
        <time>1970-01-01T00:00:00+00:00</time>
        <ele>1847.0</ele>
      </trkpt>
      <trkpt lat="45.27652" lon="6.90867">
        <time>1970-01-01T00:00:00+00:00</time>
        <ele>1847.0</ele>
      </trkpt>
      <trkpt lat="45.27647" lon="6.90856">
        <time>1970-01-01T00:00:00+00:00</time>
        <ele>1846.0</ele>
      </trkpt>
      <trkpt lat="45.27647" lon="6.90856">
        <time>1970-01-01T00:00:00+00:00</time>
        <ele>1846.0</ele>
      </trkpt>
      <trkpt lat="45.27645" lon="6.9085">
        <time>1970-01-01T00:00:00+00:00</time>
        <ele>1846.0</ele>
      </trkpt>
      <trkpt lat="45.27645" lon="6.9085">
        <time>1970-01-01T00:00:00+00:00</time>
        <ele>1846.0</ele>
      </trkpt>
      <trkpt lat="45.27643" lon="6.90843">
        <time>1970-01-01T00:00:00+00:00</time>
        <ele>1845.0</ele>
      </trkpt>
      <trkpt lat="45.27643" lon="6.90843">
        <time>1970-01-01T00:00:00+00:00</time>
        <ele>1845.0</ele>
      </trkpt>
      <trkpt lat="45.2764" lon="6.90837">
        <time>1970-01-01T00:00:00+00:00</time>
        <ele>1845.0</ele>
      </trkpt>
      <trkpt lat="45.2764" lon="6.90837">
        <time>1970-01-01T00:00:00+00:00</time>
        <ele>1845.0</ele>
      </trkpt>
      <trkpt lat="45.27637" lon="6.9083">
        <time>1970-01-01T00:00:00+00:00</time>
        <ele>1845.0</ele>
      </trkpt>
      <trkpt lat="45.27637" lon="6.9083">
        <time>1970-01-01T00:00:00+00:00</time>
        <ele>1845.0</ele>
      </trkpt>
      <trkpt lat="45.27633" lon="6.90823">
        <time>1970-01-01T00:00:00+00:00</time>
        <ele>1846.0</ele>
      </trkpt>
      <trkpt lat="45.27633" lon="6.90823">
        <time>1970-01-01T00:00:00+00:00</time>
        <ele>1846.0</ele>
      </trkpt>
      <trkpt lat="45.2763" lon="6.90817">
        <time>1970-01-01T00:00:00+00:00</time>
        <ele>1846.0</ele>
      </trkpt>
      <trkpt lat="45.2763" lon="6.90817">
        <time>1970-01-01T00:00:00+00:00</time>
        <ele>1846.0</ele>
      </trkpt>
      <trkpt lat="45.27626" lon="6.9081">
        <time>1970-01-01T00:00:00+00:00</time>
        <ele>1845.0</ele>
      </trkpt>
      <trkpt lat="45.27626" lon="6.9081">
        <time>1970-01-01T00:00:00+00:00</time>
        <ele>1845.0</ele>
      </trkpt>
      <trkpt lat="45.27622" lon="6.90804">
        <time>1970-01-01T00:00:00+00:00</time>
        <ele>1845.0</ele>
      </trkpt>
      <trkpt lat="45.27622" lon="6.90804">
        <time>1970-01-01T00:00:00+00:00</time>
        <ele>1845.0</ele>
      </trkpt>
      <trkpt lat="45.2762" lon="6.90797">
        <time>1970-01-01T00:00:00+00:00</time>
        <ele>1844.0</ele>
      </trkpt>
      <trkpt lat="45.2762" lon="6.90797">
        <time>1970-01-01T00:00:00+00:00</time>
        <ele>1844.0</ele>
      </trkpt>
      <trkpt lat="45.27617" lon="6.90791">
        <time>1970-01-01T00:00:00+00:00</time>
        <ele>1845.0</ele>
      </trkpt>
      <trkpt lat="45.27617" lon="6.90791">
        <time>1970-01-01T00:00:00+00:00</time>
        <ele>1845.0</ele>
      </trkpt>
      <trkpt lat="45.27615" lon="6.90785">
        <time>1970-01-01T00:00:00+00:00</time>
        <ele>1846.0</ele>
      </trkpt>
      <trkpt lat="45.27615" lon="6.90785">
        <time>1970-01-01T00:00:00+00:00</time>
        <ele>1846.0</ele>
      </trkpt>
      <trkpt lat="45.27613" lon="6.90774">
        <time>1970-01-01T00:00:00+00:00</time>
        <ele>1845.0</ele>
      </trkpt>
      <trkpt lat="45.27613" lon="6.90774">
        <time>1970-01-01T00:00:00+00:00</time>
        <ele>1845.0</ele>
      </trkpt>
      <trkpt lat="45.27617" lon="6.90771">
        <time>1970-01-01T00:00:00+00:00</time>
        <ele>1842.0</ele>
      </trkpt>
      <trkpt lat="45.27617" lon="6.90771">
        <time>1970-01-01T00:00:00+00:00</time>
        <ele>1842.0</ele>
      </trkpt>
      <trkpt lat="45.27622" lon="6.90774">
        <time>1970-01-01T00:00:00+00:00</time>
        <ele>1839.0</ele>
      </trkpt>
      <trkpt lat="45.27622" lon="6.90774">
        <time>1970-01-01T00:00:00+00:00</time>
        <ele>1839.0</ele>
      </trkpt>
      <trkpt lat="45.27627" lon="6.90778">
        <time>1970-01-01T00:00:00+00:00</time>
        <ele>1838.0</ele>
      </trkpt>
      <trkpt lat="45.27627" lon="6.90778">
        <time>1970-01-01T00:00:00+00:00</time>
        <ele>1838.0</ele>
      </trkpt>
      <trkpt lat="45.27632" lon="6.90782">
        <time>1970-01-01T00:00:00+00:00</time>
        <ele>1838.0</ele>
      </trkpt>
      <trkpt lat="45.27632" lon="6.90782">
        <time>1970-01-01T00:00:00+00:00</time>
        <ele>1838.0</ele>
      </trkpt>
      <trkpt lat="45.27637" lon="6.90788">
        <time>1970-01-01T00:00:00+00:00</time>
        <ele>1838.0</ele>
      </trkpt>
      <trkpt lat="45.27637" lon="6.90788">
        <time>1970-01-01T00:00:00+00:00</time>
        <ele>1838.0</ele>
      </trkpt>
      <trkpt lat="45.27642" lon="6.90793">
        <time>1970-01-01T00:00:00+00:00</time>
        <ele>1837.0</ele>
      </trkpt>
      <trkpt lat="45.27642" lon="6.90793">
        <time>1970-01-01T00:00:00+00:00</time>
        <ele>1837.0</ele>
      </trkpt>
      <trkpt lat="45.27647" lon="6.90799">
        <time>1970-01-01T00:00:00+00:00</time>
        <ele>1836.0</ele>
      </trkpt>
      <trkpt lat="45.27647" lon="6.90799">
        <time>1970-01-01T00:00:00+00:00</time>
        <ele>1836.0</ele>
      </trkpt>
      <trkpt lat="45.27652" lon="6.90804">
        <time>1970-01-01T00:00:00+00:00</time>
        <ele>1836.0</ele>
      </trkpt>
      <trkpt lat="45.27652" lon="6.90804">
        <time>1970-01-01T00:00:00+00:00</time>
        <ele>1836.0</ele>
      </trkpt>
      <trkpt lat="45.27658" lon="6.90808">
        <time>1970-01-01T00:00:00+00:00</time>
        <ele>1834.0</ele>
      </trkpt>
      <trkpt lat="45.27658" lon="6.90808">
        <time>1970-01-01T00:00:00+00:00</time>
        <ele>1834.0</ele>
      </trkpt>
      <trkpt lat="45.27664" lon="6.90811">
        <time>1970-01-01T00:00:00+00:00</time>
        <ele>1833.0</ele>
      </trkpt>
      <trkpt lat="45.27664" lon="6.90811">
        <time>1970-01-01T00:00:00+00:00</time>
        <ele>1833.0</ele>
      </trkpt>
      <trkpt lat="45.27669" lon="6.90815">
        <time>1970-01-01T00:00:00+00:00</time>
        <ele>1831.0</ele>
      </trkpt>
      <trkpt lat="45.27669" lon="6.90815">
        <time>1970-01-01T00:00:00+00:00</time>
        <ele>1831.0</ele>
      </trkpt>
      <trkpt lat="45.27675" lon="6.90819">
        <time>1970-01-01T00:00:00+00:00</time>
        <ele>1829.0</ele>
      </trkpt>
      <trkpt lat="45.27675" lon="6.90819">
        <time>1970-01-01T00:00:00+00:00</time>
        <ele>1829.0</ele>
      </trkpt>
      <trkpt lat="45.2768" lon="6.90823">
        <time>1970-01-01T00:00:00+00:00</time>
        <ele>1828.0</ele>
      </trkpt>
      <trkpt lat="45.2768" lon="6.90823">
        <time>1970-01-01T00:00:00+00:00</time>
        <ele>1828.0</ele>
      </trkpt>
      <trkpt lat="45.27686" lon="6.90827">
        <time>1970-01-01T00:00:00+00:00</time>
        <ele>1827.0</ele>
      </trkpt>
      <trkpt lat="45.27686" lon="6.90827">
        <time>1970-01-01T00:00:00+00:00</time>
        <ele>1827.0</ele>
      </trkpt>
      <trkpt lat="45.27692" lon="6.90831">
        <time>1970-01-01T00:00:00+00:00</time>
        <ele>1827.0</ele>
      </trkpt>
      <trkpt lat="45.27692" lon="6.90831">
        <time>1970-01-01T00:00:00+00:00</time>
        <ele>1827.0</ele>
      </trkpt>
      <trkpt lat="45.27697" lon="6.90832">
        <time>1970-01-01T00:00:00+00:00</time>
        <ele>1826.0</ele>
      </trkpt>
      <trkpt lat="45.27697" lon="6.90832">
        <time>1970-01-01T00:00:00+00:00</time>
        <ele>1826.0</ele>
      </trkpt>
      <trkpt lat="45.27703" lon="6.90832">
        <time>1970-01-01T00:00:00+00:00</time>
        <ele>1824.0</ele>
      </trkpt>
      <trkpt lat="45.27703" lon="6.90832">
        <time>1970-01-01T00:00:00+00:00</time>
        <ele>1824.0</ele>
      </trkpt>
      <trkpt lat="45.27709" lon="6.90833">
        <time>1970-01-01T00:00:00+00:00</time>
        <ele>1822.0</ele>
      </trkpt>
      <trkpt lat="45.27709" lon="6.90833">
        <time>1970-01-01T00:00:00+00:00</time>
        <ele>1822.0</ele>
      </trkpt>
      <trkpt lat="45.27715" lon="6.90836">
        <time>1970-01-01T00:00:00+00:00</time>
        <ele>1822.0</ele>
      </trkpt>
      <trkpt lat="45.27715" lon="6.90836">
        <time>1970-01-01T00:00:00+00:00</time>
        <ele>1822.0</ele>
      </trkpt>
      <trkpt lat="45.27721" lon="6.90839">
        <time>1970-01-01T00:00:00+00:00</time>
        <ele>1821.0</ele>
      </trkpt>
      <trkpt lat="45.27721" lon="6.90839">
        <time>1970-01-01T00:00:00+00:00</time>
        <ele>1821.0</ele>
      </trkpt>
      <trkpt lat="45.27726" lon="6.90839">
        <time>1970-01-01T00:00:00+00:00</time>
        <ele>1819.0</ele>
      </trkpt>
      <trkpt lat="45.27726" lon="6.90839">
        <time>1970-01-01T00:00:00+00:00</time>
        <ele>1819.0</ele>
      </trkpt>
      <trkpt lat="45.27731" lon="6.90838">
        <time>1970-01-01T00:00:00+00:00</time>
        <ele>1817.0</ele>
      </trkpt>
      <trkpt lat="45.27731" lon="6.90838">
        <time>1970-01-01T00:00:00+00:00</time>
        <ele>1817.0</ele>
      </trkpt>
      <trkpt lat="45.27736" lon="6.90836">
        <time>1970-01-01T00:00:00+00:00</time>
        <ele>1815.0</ele>
      </trkpt>
      <trkpt lat="45.27736" lon="6.90836">
        <time>1970-01-01T00:00:00+00:00</time>
        <ele>1815.0</ele>
      </trkpt>
      <trkpt lat="45.27741" lon="6.90834">
        <time>1970-01-01T00:00:00+00:00</time>
        <ele>1812.0</ele>
      </trkpt>
      <trkpt lat="45.27741" lon="6.90834">
        <time>1970-01-01T00:00:00+00:00</time>
        <ele>1812.0</ele>
      </trkpt>
      <trkpt lat="45.27746" lon="6.90833">
        <time>1970-01-01T00:00:00+00:00</time>
        <ele>1810.0</ele>
      </trkpt>
      <trkpt lat="45.27746" lon="6.90833">
        <time>1970-01-01T00:00:00+00:00</time>
        <ele>1810.0</ele>
      </trkpt>
      <trkpt lat="45.27751" lon="6.90833">
        <time>1970-01-01T00:00:00+00:00</time>
        <ele>1809.0</ele>
      </trkpt>
      <trkpt lat="45.27751" lon="6.90833">
        <time>1970-01-01T00:00:00+00:00</time>
        <ele>1809.0</ele>
      </trkpt>
      <trkpt lat="45.27756" lon="6.90833">
        <time>1970-01-01T00:00:00+00:00</time>
        <ele>1807.0</ele>
      </trkpt>
      <trkpt lat="45.27756" lon="6.90833">
        <time>1970-01-01T00:00:00+00:00</time>
        <ele>1807.0</ele>
      </trkpt>
      <trkpt lat="45.27761" lon="6.90833">
        <time>1970-01-01T00:00:00+00:00</time>
        <ele>1805.0</ele>
      </trkpt>
      <trkpt lat="45.27761" lon="6.90833">
        <time>1970-01-01T00:00:00+00:00</time>
        <ele>1805.0</ele>
      </trkpt>
      <trkpt lat="45.27767" lon="6.90833">
        <time>1970-01-01T00:00:00+00:00</time>
        <ele>1802.0</ele>
      </trkpt>
      <trkpt lat="45.27767" lon="6.90833">
        <time>1970-01-01T00:00:00+00:00</time>
        <ele>1802.0</ele>
      </trkpt>
      <trkpt lat="45.27772" lon="6.90834">
        <time>1970-01-01T00:00:00+00:00</time>
        <ele>1800.0</ele>
      </trkpt>
      <trkpt lat="45.27772" lon="6.90834">
        <time>1970-01-01T00:00:00+00:00</time>
        <ele>1800.0</ele>
      </trkpt>
      <trkpt lat="45.27778" lon="6.90836">
        <time>1970-01-01T00:00:00+00:00</time>
        <ele>1798.0</ele>
      </trkpt>
      <trkpt lat="45.27778" lon="6.90836">
        <time>1970-01-01T00:00:00+00:00</time>
        <ele>1798.0</ele>
      </trkpt>
      <trkpt lat="45.27784" lon="6.9084">
        <time>1970-01-01T00:00:00+00:00</time>
        <ele>1796.0</ele>
      </trkpt>
      <trkpt lat="45.27784" lon="6.9084">
        <time>1970-01-01T00:00:00+00:00</time>
        <ele>1796.0</ele>
      </trkpt>
      <trkpt lat="45.27789" lon="6.90845">
        <time>1970-01-01T00:00:00+00:00</time>
        <ele>1794.0</ele>
      </trkpt>
      <trkpt lat="45.27789" lon="6.90845">
        <time>1970-01-01T00:00:00+00:00</time>
        <ele>1794.0</ele>
      </trkpt>
      <trkpt lat="45.27793" lon="6.90851">
        <time>1970-01-01T00:00:00+00:00</time>
        <ele>1792.0</ele>
      </trkpt>
      <trkpt lat="45.27793" lon="6.90851">
        <time>1970-01-01T00:00:00+00:00</time>
        <ele>1792.0</ele>
      </trkpt>
      <trkpt lat="45.27797" lon="6.9086">
        <time>1970-01-01T00:00:00+00:00</time>
        <ele>1790.0</ele>
      </trkpt>
      <trkpt lat="45.27797" lon="6.9086">
        <time>1970-01-01T00:00:00+00:00</time>
        <ele>1790.0</ele>
      </trkpt>
      <trkpt lat="45.27801" lon="6.90871">
        <time>1970-01-01T00:00:00+00:00</time>
        <ele>1787.0</ele>
      </trkpt>
      <trkpt lat="45.27801" lon="6.90871">
        <time>1970-01-01T00:00:00+00:00</time>
        <ele>1787.0</ele>
      </trkpt>
      <trkpt lat="45.27804" lon="6.90883">
        <time>1970-01-01T00:00:00+00:00</time>
        <ele>1786.0</ele>
      </trkpt>
      <trkpt lat="45.27804" lon="6.90883">
        <time>1970-01-01T00:00:00+00:00</time>
        <ele>1786.0</ele>
      </trkpt>
      <trkpt lat="45.27807" lon="6.90894">
        <time>1970-01-01T00:00:00+00:00</time>
        <ele>1786.0</ele>
      </trkpt>
      <trkpt lat="45.27807" lon="6.90894">
        <time>1970-01-01T00:00:00+00:00</time>
        <ele>1786.0</ele>
      </trkpt>
      <trkpt lat="45.2781" lon="6.90904">
        <time>1970-01-01T00:00:00+00:00</time>
        <ele>1785.0</ele>
      </trkpt>
      <trkpt lat="45.2781" lon="6.90904">
        <time>1970-01-01T00:00:00+00:00</time>
        <ele>1785.0</ele>
      </trkpt>
      <trkpt lat="45.27813" lon="6.90912">
        <time>1970-01-01T00:00:00+00:00</time>
        <ele>1785.0</ele>
      </trkpt>
      <trkpt lat="45.27813" lon="6.90912">
        <time>1970-01-01T00:00:00+00:00</time>
        <ele>1785.0</ele>
      </trkpt>
      <trkpt lat="45.27816" lon="6.90921">
        <time>1970-01-01T00:00:00+00:00</time>
        <ele>1785.0</ele>
      </trkpt>
      <trkpt lat="45.27816" lon="6.90921">
        <time>1970-01-01T00:00:00+00:00</time>
        <ele>1785.0</ele>
      </trkpt>
      <trkpt lat="45.27819" lon="6.90931">
        <time>1970-01-01T00:00:00+00:00</time>
        <ele>1786.0</ele>
      </trkpt>
      <trkpt lat="45.27819" lon="6.90931">
        <time>1970-01-01T00:00:00+00:00</time>
        <ele>1786.0</ele>
      </trkpt>
      <trkpt lat="45.2782" lon="6.90941">
        <time>1970-01-01T00:00:00+00:00</time>
        <ele>1786.0</ele>
      </trkpt>
      <trkpt lat="45.2782" lon="6.90941">
        <time>1970-01-01T00:00:00+00:00</time>
        <ele>1786.0</ele>
      </trkpt>
      <trkpt lat="45.27822" lon="6.90951">
        <time>1970-01-01T00:00:00+00:00</time>
        <ele>1786.0</ele>
      </trkpt>
      <trkpt lat="45.27822" lon="6.90951">
        <time>1970-01-01T00:00:00+00:00</time>
        <ele>1786.0</ele>
      </trkpt>
      <trkpt lat="45.27825" lon="6.90961">
        <time>1970-01-01T00:00:00+00:00</time>
        <ele>1785.0</ele>
      </trkpt>
      <trkpt lat="45.27825" lon="6.90961">
        <time>1970-01-01T00:00:00+00:00</time>
        <ele>1785.0</ele>
      </trkpt>
      <trkpt lat="45.27827" lon="6.90971">
        <time>1970-01-01T00:00:00+00:00</time>
        <ele>1785.0</ele>
      </trkpt>
      <trkpt lat="45.27827" lon="6.90971">
        <time>1970-01-01T00:00:00+00:00</time>
        <ele>1785.0</ele>
      </trkpt>
      <trkpt lat="45.2783" lon="6.90981">
        <time>1970-01-01T00:00:00+00:00</time>
        <ele>1783.0</ele>
      </trkpt>
      <trkpt lat="45.2783" lon="6.90981">
        <time>1970-01-01T00:00:00+00:00</time>
        <ele>1783.0</ele>
      </trkpt>
      <trkpt lat="45.27835" lon="6.90989">
        <time>1970-01-01T00:00:00+00:00</time>
        <ele>1781.0</ele>
      </trkpt>
      <trkpt lat="45.27835" lon="6.90989">
        <time>1970-01-01T00:00:00+00:00</time>
        <ele>1781.0</ele>
      </trkpt>
      <trkpt lat="45.27839" lon="6.90995">
        <time>1970-01-01T00:00:00+00:00</time>
        <ele>1779.0</ele>
      </trkpt>
      <trkpt lat="45.27839" lon="6.90995">
        <time>1970-01-01T00:00:00+00:00</time>
        <ele>1779.0</ele>
      </trkpt>
      <trkpt lat="45.27844" lon="6.91002">
        <time>1970-01-01T00:00:00+00:00</time>
        <ele>1777.0</ele>
      </trkpt>
      <trkpt lat="45.27844" lon="6.91002">
        <time>1970-01-01T00:00:00+00:00</time>
        <ele>1777.0</ele>
      </trkpt>
      <trkpt lat="45.27847" lon="6.91011">
        <time>1970-01-01T00:00:00+00:00</time>
        <ele>1776.0</ele>
      </trkpt>
      <trkpt lat="45.27847" lon="6.91011">
        <time>1970-01-01T00:00:00+00:00</time>
        <ele>1776.0</ele>
      </trkpt>
      <trkpt lat="45.27851" lon="6.9102">
        <time>1970-01-01T00:00:00+00:00</time>
        <ele>1775.0</ele>
      </trkpt>
      <trkpt lat="45.27851" lon="6.9102">
        <time>1970-01-01T00:00:00+00:00</time>
        <ele>1775.0</ele>
      </trkpt>
      <trkpt lat="45.27855" lon="6.91027">
        <time>1970-01-01T00:00:00+00:00</time>
        <ele>1774.0</ele>
      </trkpt>
      <trkpt lat="45.27855" lon="6.91027">
        <time>1970-01-01T00:00:00+00:00</time>
        <ele>1774.0</ele>
      </trkpt>
      <trkpt lat="45.27858" lon="6.91034">
        <time>1970-01-01T00:00:00+00:00</time>
        <ele>1773.0</ele>
      </trkpt>
      <trkpt lat="45.27858" lon="6.91034">
        <time>1970-01-01T00:00:00+00:00</time>
        <ele>1773.0</ele>
      </trkpt>
      <trkpt lat="45.27862" lon="6.91042">
        <time>1970-01-01T00:00:00+00:00</time>
        <ele>1772.0</ele>
      </trkpt>
      <trkpt lat="45.27862" lon="6.91042">
        <time>1970-01-01T00:00:00+00:00</time>
        <ele>1772.0</ele>
      </trkpt>
      <trkpt lat="45.27867" lon="6.91048">
        <time>1970-01-01T00:00:00+00:00</time>
        <ele>1770.0</ele>
      </trkpt>
      <trkpt lat="45.27867" lon="6.91048">
        <time>1970-01-01T00:00:00+00:00</time>
        <ele>1770.0</ele>
      </trkpt>
      <trkpt lat="45.27872" lon="6.91053">
        <time>1970-01-01T00:00:00+00:00</time>
        <ele>1768.0</ele>
      </trkpt>
      <trkpt lat="45.27872" lon="6.91053">
        <time>1970-01-01T00:00:00+00:00</time>
        <ele>1768.0</ele>
      </trkpt>
      <trkpt lat="45.27876" lon="6.9106">
        <time>1970-01-01T00:00:00+00:00</time>
        <ele>1767.0</ele>
      </trkpt>
      <trkpt lat="45.27876" lon="6.9106">
        <time>1970-01-01T00:00:00+00:00</time>
        <ele>1767.0</ele>
      </trkpt>
      <trkpt lat="45.2788" lon="6.91068">
        <time>1970-01-01T00:00:00+00:00</time>
        <ele>1765.0</ele>
      </trkpt>
      <trkpt lat="45.2788" lon="6.91068">
        <time>1970-01-01T00:00:00+00:00</time>
        <ele>1765.0</ele>
      </trkpt>
      <trkpt lat="45.27883" lon="6.91076">
        <time>1970-01-01T00:00:00+00:00</time>
        <ele>1764.0</ele>
      </trkpt>
      <trkpt lat="45.27883" lon="6.91076">
        <time>1970-01-01T00:00:00+00:00</time>
        <ele>1764.0</ele>
      </trkpt>
      <trkpt lat="45.27886" lon="6.91085">
        <time>1970-01-01T00:00:00+00:00</time>
        <ele>1762.0</ele>
      </trkpt>
      <trkpt lat="45.27886" lon="6.91085">
        <time>1970-01-01T00:00:00+00:00</time>
        <ele>1762.0</ele>
      </trkpt>
      <trkpt lat="45.27889" lon="6.91094">
        <time>1970-01-01T00:00:00+00:00</time>
        <ele>1761.0</ele>
      </trkpt>
      <trkpt lat="45.27889" lon="6.91094">
        <time>1970-01-01T00:00:00+00:00</time>
        <ele>1761.0</ele>
      </trkpt>
      <trkpt lat="45.27892" lon="6.91103">
        <time>1970-01-01T00:00:00+00:00</time>
        <ele>1760.0</ele>
      </trkpt>
      <trkpt lat="45.27892" lon="6.91103">
        <time>1970-01-01T00:00:00+00:00</time>
        <ele>1760.0</ele>
      </trkpt>
      <trkpt lat="45.27894" lon="6.91111">
        <time>1970-01-01T00:00:00+00:00</time>
        <ele>1759.0</ele>
      </trkpt>
      <trkpt lat="45.27894" lon="6.91111">
        <time>1970-01-01T00:00:00+00:00</time>
        <ele>1759.0</ele>
      </trkpt>
      <trkpt lat="45.27897" lon="6.91119">
        <time>1970-01-01T00:00:00+00:00</time>
        <ele>1757.0</ele>
      </trkpt>
      <trkpt lat="45.27897" lon="6.91119">
        <time>1970-01-01T00:00:00+00:00</time>
        <ele>1757.0</ele>
      </trkpt>
      <trkpt lat="45.279" lon="6.91128">
        <time>1970-01-01T00:00:00+00:00</time>
        <ele>1755.0</ele>
      </trkpt>
      <trkpt lat="45.279" lon="6.91128">
        <time>1970-01-01T00:00:00+00:00</time>
        <ele>1755.0</ele>
      </trkpt>
      <trkpt lat="45.27903" lon="6.91135">
        <time>1970-01-01T00:00:00+00:00</time>
        <ele>1754.0</ele>
      </trkpt>
      <trkpt lat="45.27903" lon="6.91135">
        <time>1970-01-01T00:00:00+00:00</time>
        <ele>1754.0</ele>
      </trkpt>
      <trkpt lat="45.27907" lon="6.91143">
        <time>1970-01-01T00:00:00+00:00</time>
        <ele>1751.0</ele>
      </trkpt>
      <trkpt lat="45.27907" lon="6.91143">
        <time>1970-01-01T00:00:00+00:00</time>
        <ele>1751.0</ele>
      </trkpt>
      <trkpt lat="45.2791" lon="6.91152">
        <time>1970-01-01T00:00:00+00:00</time>
        <ele>1750.0</ele>
      </trkpt>
      <trkpt lat="45.2791" lon="6.91152">
        <time>1970-01-01T00:00:00+00:00</time>
        <ele>1750.0</ele>
      </trkpt>
      <trkpt lat="45.27912" lon="6.91162">
        <time>1970-01-01T00:00:00+00:00</time>
        <ele>1749.0</ele>
      </trkpt>
      <trkpt lat="45.27912" lon="6.91162">
        <time>1970-01-01T00:00:00+00:00</time>
        <ele>1749.0</ele>
      </trkpt>
      <trkpt lat="45.27914" lon="6.91171">
        <time>1970-01-01T00:00:00+00:00</time>
        <ele>1748.0</ele>
      </trkpt>
      <trkpt lat="45.27914" lon="6.91171">
        <time>1970-01-01T00:00:00+00:00</time>
        <ele>1748.0</ele>
      </trkpt>
      <trkpt lat="45.27917" lon="6.91178">
        <time>1970-01-01T00:00:00+00:00</time>
        <ele>1747.0</ele>
      </trkpt>
      <trkpt lat="45.27917" lon="6.91178">
        <time>1970-01-01T00:00:00+00:00</time>
        <ele>1747.0</ele>
      </trkpt>
      <trkpt lat="45.27921" lon="6.91185">
        <time>1970-01-01T00:00:00+00:00</time>
        <ele>1745.0</ele>
      </trkpt>
      <trkpt lat="45.27921" lon="6.91185">
        <time>1970-01-01T00:00:00+00:00</time>
        <ele>1745.0</ele>
      </trkpt>
      <trkpt lat="45.27924" lon="6.91191">
        <time>1970-01-01T00:00:00+00:00</time>
        <ele>1744.0</ele>
      </trkpt>
      <trkpt lat="45.27924" lon="6.91191">
        <time>1970-01-01T00:00:00+00:00</time>
        <ele>1744.0</ele>
      </trkpt>
      <trkpt lat="45.27928" lon="6.91198">
        <time>1970-01-01T00:00:00+00:00</time>
        <ele>1743.0</ele>
      </trkpt>
      <trkpt lat="45.27928" lon="6.91198">
        <time>1970-01-01T00:00:00+00:00</time>
        <ele>1743.0</ele>
      </trkpt>
      <trkpt lat="45.27932" lon="6.91205">
        <time>1970-01-01T00:00:00+00:00</time>
        <ele>1741.0</ele>
      </trkpt>
      <trkpt lat="45.27932" lon="6.91205">
        <time>1970-01-01T00:00:00+00:00</time>
        <ele>1741.0</ele>
      </trkpt>
      <trkpt lat="45.27936" lon="6.91211">
        <time>1970-01-01T00:00:00+00:00</time>
        <ele>1740.0</ele>
      </trkpt>
      <trkpt lat="45.27936" lon="6.91211">
        <time>1970-01-01T00:00:00+00:00</time>
        <ele>1740.0</ele>
      </trkpt>
      <trkpt lat="45.2794" lon="6.91217">
        <time>1970-01-01T00:00:00+00:00</time>
        <ele>1739.0</ele>
      </trkpt>
      <trkpt lat="45.2794" lon="6.91217">
        <time>1970-01-01T00:00:00+00:00</time>
        <ele>1739.0</ele>
      </trkpt>
      <trkpt lat="45.27944" lon="6.91222">
        <time>1970-01-01T00:00:00+00:00</time>
        <ele>1738.0</ele>
      </trkpt>
      <trkpt lat="45.27944" lon="6.91222">
        <time>1970-01-01T00:00:00+00:00</time>
        <ele>1738.0</ele>
      </trkpt>
      <trkpt lat="45.27948" lon="6.91226">
        <time>1970-01-01T00:00:00+00:00</time>
        <ele>1737.0</ele>
      </trkpt>
      <trkpt lat="45.27948" lon="6.91226">
        <time>1970-01-01T00:00:00+00:00</time>
        <ele>1737.0</ele>
      </trkpt>
      <trkpt lat="45.27955" lon="6.91234">
        <time>1970-01-01T00:00:00+00:00</time>
        <ele>1735.0</ele>
      </trkpt>
      <trkpt lat="45.27955" lon="6.91234">
        <time>1970-01-01T00:00:00+00:00</time>
        <ele>1735.0</ele>
      </trkpt>
      <trkpt lat="45.2796" lon="6.91238">
        <time>1970-01-01T00:00:00+00:00</time>
        <ele>1733.0</ele>
      </trkpt>
      <trkpt lat="45.2796" lon="6.91238">
        <time>1970-01-01T00:00:00+00:00</time>
        <ele>1733.0</ele>
      </trkpt>
      <trkpt lat="45.27964" lon="6.91242">
        <time>1970-01-01T00:00:00+00:00</time>
        <ele>1732.0</ele>
      </trkpt>
      <trkpt lat="45.27964" lon="6.91242">
        <time>1970-01-01T00:00:00+00:00</time>
        <ele>1732.0</ele>
      </trkpt>
      <trkpt lat="45.27969" lon="6.91246">
        <time>1970-01-01T00:00:00+00:00</time>
        <ele>1730.0</ele>
      </trkpt>
      <trkpt lat="45.27969" lon="6.91246">
        <time>1970-01-01T00:00:00+00:00</time>
        <ele>1730.0</ele>
      </trkpt>
      <trkpt lat="45.27974" lon="6.91249">
        <time>1970-01-01T00:00:00+00:00</time>
        <ele>1728.0</ele>
      </trkpt>
      <trkpt lat="45.27974" lon="6.91249">
        <time>1970-01-01T00:00:00+00:00</time>
        <ele>1728.0</ele>
      </trkpt>
      <trkpt lat="45.2798" lon="6.91251">
        <time>1970-01-01T00:00:00+00:00</time>
        <ele>1726.0</ele>
      </trkpt>
      <trkpt lat="45.2798" lon="6.91251">
        <time>1970-01-01T00:00:00+00:00</time>
        <ele>1726.0</ele>
      </trkpt>
      <trkpt lat="45.27985" lon="6.91254">
        <time>1970-01-01T00:00:00+00:00</time>
        <ele>1724.0</ele>
      </trkpt>
      <trkpt lat="45.27985" lon="6.91254">
        <time>1970-01-01T00:00:00+00:00</time>
        <ele>1724.0</ele>
      </trkpt>
      <trkpt lat="45.27991" lon="6.91257">
        <time>1970-01-01T00:00:00+00:00</time>
        <ele>1721.0</ele>
      </trkpt>
      <trkpt lat="45.27991" lon="6.91257">
        <time>1970-01-01T00:00:00+00:00</time>
        <ele>1721.0</ele>
      </trkpt>
      <trkpt lat="45.27995" lon="6.91262">
        <time>1970-01-01T00:00:00+00:00</time>
        <ele>1719.0</ele>
      </trkpt>
      <trkpt lat="45.27995" lon="6.91262">
        <time>1970-01-01T00:00:00+00:00</time>
        <ele>1719.0</ele>
      </trkpt>
      <trkpt lat="45.27998" lon="6.91268">
        <time>1970-01-01T00:00:00+00:00</time>
        <ele>1718.0</ele>
      </trkpt>
      <trkpt lat="45.27998" lon="6.91268">
        <time>1970-01-01T00:00:00+00:00</time>
        <ele>1718.0</ele>
      </trkpt>
      <trkpt lat="45.28003" lon="6.9127">
        <time>1970-01-01T00:00:00+00:00</time>
        <ele>1716.0</ele>
      </trkpt>
      <trkpt lat="45.28003" lon="6.9127">
        <time>1970-01-01T00:00:00+00:00</time>
        <ele>1716.0</ele>
      </trkpt>
      <trkpt lat="45.28009" lon="6.91272">
        <time>1970-01-01T00:00:00+00:00</time>
        <ele>1714.0</ele>
      </trkpt>
      <trkpt lat="45.28009" lon="6.91272">
        <time>1970-01-01T00:00:00+00:00</time>
        <ele>1714.0</ele>
      </trkpt>
      <trkpt lat="45.28015" lon="6.91276">
        <time>1970-01-01T00:00:00+00:00</time>
        <ele>1712.0</ele>
      </trkpt>
      <trkpt lat="45.28015" lon="6.91276">
        <time>1970-01-01T00:00:00+00:00</time>
        <ele>1712.0</ele>
      </trkpt>
      <trkpt lat="45.28021" lon="6.91279">
        <time>1970-01-01T00:00:00+00:00</time>
        <ele>1709.0</ele>
      </trkpt>
      <trkpt lat="45.28021" lon="6.91279">
        <time>1970-01-01T00:00:00+00:00</time>
        <ele>1709.0</ele>
      </trkpt>
      <trkpt lat="45.28027" lon="6.91284">
        <time>1970-01-01T00:00:00+00:00</time>
        <ele>1707.0</ele>
      </trkpt>
      <trkpt lat="45.28027" lon="6.91284">
        <time>1970-01-01T00:00:00+00:00</time>
        <ele>1707.0</ele>
      </trkpt>
      <trkpt lat="45.28032" lon="6.9129">
        <time>1970-01-01T00:00:00+00:00</time>
        <ele>1706.0</ele>
      </trkpt>
      <trkpt lat="45.28032" lon="6.9129">
        <time>1970-01-01T00:00:00+00:00</time>
        <ele>1706.0</ele>
      </trkpt>
      <trkpt lat="45.28037" lon="6.91295">
        <time>1970-01-01T00:00:00+00:00</time>
        <ele>1704.0</ele>
      </trkpt>
      <trkpt lat="45.28037" lon="6.91295">
        <time>1970-01-01T00:00:00+00:00</time>
        <ele>1704.0</ele>
      </trkpt>
      <trkpt lat="45.28042" lon="6.91298">
        <time>1970-01-01T00:00:00+00:00</time>
        <ele>1703.0</ele>
      </trkpt>
      <trkpt lat="45.28042" lon="6.91298">
        <time>1970-01-01T00:00:00+00:00</time>
        <ele>1703.0</ele>
      </trkpt>
      <trkpt lat="45.28047" lon="6.91302">
        <time>1970-01-01T00:00:00+00:00</time>
        <ele>1702.0</ele>
      </trkpt>
      <trkpt lat="45.28047" lon="6.91302">
        <time>1970-01-01T00:00:00+00:00</time>
        <ele>1702.0</ele>
      </trkpt>
      <trkpt lat="45.28051" lon="6.91306">
        <time>1970-01-01T00:00:00+00:00</time>
        <ele>1701.0</ele>
      </trkpt>
      <trkpt lat="45.28051" lon="6.91306">
        <time>1970-01-01T00:00:00+00:00</time>
        <ele>1701.0</ele>
      </trkpt>
      <trkpt lat="45.28058" lon="6.91312">
        <time>1970-01-01T00:00:00+00:00</time>
        <ele>1700.0</ele>
      </trkpt>
      <trkpt lat="45.28058" lon="6.91312">
        <time>1970-01-01T00:00:00+00:00</time>
        <ele>1700.0</ele>
      </trkpt>
      <trkpt lat="45.28067" lon="6.91313">
        <time>1970-01-01T00:00:00+00:00</time>
        <ele>1697.0</ele>
      </trkpt>
      <trkpt lat="45.28067" lon="6.91313">
        <time>1970-01-01T00:00:00+00:00</time>
        <ele>1697.0</ele>
      </trkpt>
      <trkpt lat="45.28072" lon="6.91313">
        <time>1970-01-01T00:00:00+00:00</time>
        <ele>1695.0</ele>
      </trkpt>
      <trkpt lat="45.28072" lon="6.91313">
        <time>1970-01-01T00:00:00+00:00</time>
        <ele>1695.0</ele>
      </trkpt>
      <trkpt lat="45.28077" lon="6.91311">
        <time>1970-01-01T00:00:00+00:00</time>
        <ele>1694.0</ele>
      </trkpt>
      <trkpt lat="45.28077" lon="6.91311">
        <time>1970-01-01T00:00:00+00:00</time>
        <ele>1694.0</ele>
      </trkpt>
      <trkpt lat="45.28082" lon="6.91309">
        <time>1970-01-01T00:00:00+00:00</time>
        <ele>1692.0</ele>
      </trkpt>
      <trkpt lat="45.28082" lon="6.91309">
        <time>1970-01-01T00:00:00+00:00</time>
        <ele>1692.0</ele>
      </trkpt>
      <trkpt lat="45.28089" lon="6.91307">
        <time>1970-01-01T00:00:00+00:00</time>
        <ele>1689.0</ele>
      </trkpt>
      <trkpt lat="45.28089" lon="6.91307">
        <time>1970-01-01T00:00:00+00:00</time>
        <ele>1689.0</ele>
      </trkpt>
      <trkpt lat="45.28099" lon="6.91313">
        <time>1970-01-01T00:00:00+00:00</time>
        <ele>1686.0</ele>
      </trkpt>
      <trkpt lat="45.28099" lon="6.91313">
        <time>1970-01-01T00:00:00+00:00</time>
        <ele>1686.0</ele>
      </trkpt>
      <trkpt lat="45.28106" lon="6.91314">
        <time>1970-01-01T00:00:00+00:00</time>
        <ele>1683.0</ele>
      </trkpt>
      <trkpt lat="45.28106" lon="6.91314">
        <time>1970-01-01T00:00:00+00:00</time>
        <ele>1683.0</ele>
      </trkpt>
      <trkpt lat="45.28112" lon="6.91312">
        <time>1970-01-01T00:00:00+00:00</time>
        <ele>1681.0</ele>
      </trkpt>
      <trkpt lat="45.28112" lon="6.91312">
        <time>1970-01-01T00:00:00+00:00</time>
        <ele>1681.0</ele>
      </trkpt>
      <trkpt lat="45.28117" lon="6.91309">
        <time>1970-01-01T00:00:00+00:00</time>
        <ele>1679.0</ele>
      </trkpt>
      <trkpt lat="45.28117" lon="6.91309">
        <time>1970-01-01T00:00:00+00:00</time>
        <ele>1679.0</ele>
      </trkpt>
      <trkpt lat="45.28121" lon="6.91306">
        <time>1970-01-01T00:00:00+00:00</time>
        <ele>1677.0</ele>
      </trkpt>
      <trkpt lat="45.28121" lon="6.91306">
        <time>1970-01-01T00:00:00+00:00</time>
        <ele>1677.0</ele>
      </trkpt>
      <trkpt lat="45.28125" lon="6.91303">
        <time>1970-01-01T00:00:00+00:00</time>
        <ele>1676.0</ele>
      </trkpt>
      <trkpt lat="45.28125" lon="6.91303">
        <time>1970-01-01T00:00:00+00:00</time>
        <ele>1676.0</ele>
      </trkpt>
      <trkpt lat="45.28129" lon="6.913">
        <time>1970-01-01T00:00:00+00:00</time>
        <ele>1674.0</ele>
      </trkpt>
      <trkpt lat="45.28129" lon="6.913">
        <time>1970-01-01T00:00:00+00:00</time>
        <ele>1674.0</ele>
      </trkpt>
      <trkpt lat="45.28134" lon="6.91298">
        <time>1970-01-01T00:00:00+00:00</time>
        <ele>1672.0</ele>
      </trkpt>
      <trkpt lat="45.28134" lon="6.91298">
        <time>1970-01-01T00:00:00+00:00</time>
        <ele>1672.0</ele>
      </trkpt>
      <trkpt lat="45.28139" lon="6.91295">
        <time>1970-01-01T00:00:00+00:00</time>
        <ele>1670.0</ele>
      </trkpt>
      <trkpt lat="45.28139" lon="6.91295">
        <time>1970-01-01T00:00:00+00:00</time>
        <ele>1670.0</ele>
      </trkpt>
      <trkpt lat="45.28144" lon="6.91292">
        <time>1970-01-01T00:00:00+00:00</time>
        <ele>1668.0</ele>
      </trkpt>
      <trkpt lat="45.28144" lon="6.91292">
        <time>1970-01-01T00:00:00+00:00</time>
        <ele>1668.0</ele>
      </trkpt>
      <trkpt lat="45.2815" lon="6.91288">
        <time>1970-01-01T00:00:00+00:00</time>
        <ele>1666.0</ele>
      </trkpt>
      <trkpt lat="45.2815" lon="6.91288">
        <time>1970-01-01T00:00:00+00:00</time>
        <ele>1666.0</ele>
      </trkpt>
      <trkpt lat="45.28156" lon="6.91283">
        <time>1970-01-01T00:00:00+00:00</time>
        <ele>1663.0</ele>
      </trkpt>
      <trkpt lat="45.28156" lon="6.91283">
        <time>1970-01-01T00:00:00+00:00</time>
        <ele>1663.0</ele>
      </trkpt>
      <trkpt lat="45.28162" lon="6.91278">
        <time>1970-01-01T00:00:00+00:00</time>
        <ele>1660.0</ele>
      </trkpt>
      <trkpt lat="45.28162" lon="6.91278">
        <time>1970-01-01T00:00:00+00:00</time>
        <ele>1660.0</ele>
      </trkpt>
      <trkpt lat="45.28168" lon="6.91272">
        <time>1970-01-01T00:00:00+00:00</time>
        <ele>1657.0</ele>
      </trkpt>
      <trkpt lat="45.28168" lon="6.91272">
        <time>1970-01-01T00:00:00+00:00</time>
        <ele>1657.0</ele>
      </trkpt>
      <trkpt lat="45.28174" lon="6.91267">
        <time>1970-01-01T00:00:00+00:00</time>
        <ele>1655.0</ele>
      </trkpt>
      <trkpt lat="45.28174" lon="6.91267">
        <time>1970-01-01T00:00:00+00:00</time>
        <ele>1655.0</ele>
      </trkpt>
      <trkpt lat="45.2818" lon="6.91263">
        <time>1970-01-01T00:00:00+00:00</time>
        <ele>1654.0</ele>
      </trkpt>
      <trkpt lat="45.2818" lon="6.91263">
        <time>1970-01-01T00:00:00+00:00</time>
        <ele>1654.0</ele>
      </trkpt>
      <trkpt lat="45.28185" lon="6.9126">
        <time>1970-01-01T00:00:00+00:00</time>
        <ele>1654.0</ele>
      </trkpt>
      <trkpt lat="45.28185" lon="6.9126">
        <time>1970-01-01T00:00:00+00:00</time>
        <ele>1654.0</ele>
      </trkpt>
      <trkpt lat="45.28191" lon="6.91257">
        <time>1970-01-01T00:00:00+00:00</time>
        <ele>1652.0</ele>
      </trkpt>
      <trkpt lat="45.28191" lon="6.91257">
        <time>1970-01-01T00:00:00+00:00</time>
        <ele>1652.0</ele>
      </trkpt>
      <trkpt lat="45.28196" lon="6.91254">
        <time>1970-01-01T00:00:00+00:00</time>
        <ele>1651.0</ele>
      </trkpt>
      <trkpt lat="45.28196" lon="6.91254">
        <time>1970-01-01T00:00:00+00:00</time>
        <ele>1651.0</ele>
      </trkpt>
      <trkpt lat="45.28201" lon="6.91251">
        <time>1970-01-01T00:00:00+00:00</time>
        <ele>1650.0</ele>
      </trkpt>
      <trkpt lat="45.28201" lon="6.91251">
        <time>1970-01-01T00:00:00+00:00</time>
        <ele>1650.0</ele>
      </trkpt>
      <trkpt lat="45.28206" lon="6.91247">
        <time>1970-01-01T00:00:00+00:00</time>
        <ele>1648.0</ele>
      </trkpt>
      <trkpt lat="45.28206" lon="6.91247">
        <time>1970-01-01T00:00:00+00:00</time>
        <ele>1648.0</ele>
      </trkpt>
      <trkpt lat="45.28211" lon="6.91244">
        <time>1970-01-01T00:00:00+00:00</time>
        <ele>1647.0</ele>
      </trkpt>
      <trkpt lat="45.28211" lon="6.91244">
        <time>1970-01-01T00:00:00+00:00</time>
        <ele>1647.0</ele>
      </trkpt>
      <trkpt lat="45.28217" lon="6.91239">
        <time>1970-01-01T00:00:00+00:00</time>
        <ele>1646.0</ele>
      </trkpt>
      <trkpt lat="45.28217" lon="6.91239">
        <time>1970-01-01T00:00:00+00:00</time>
        <ele>1646.0</ele>
      </trkpt>
      <trkpt lat="45.28222" lon="6.91234">
        <time>1970-01-01T00:00:00+00:00</time>
        <ele>1644.0</ele>
      </trkpt>
      <trkpt lat="45.28222" lon="6.91234">
        <time>1970-01-01T00:00:00+00:00</time>
        <ele>1644.0</ele>
      </trkpt>
      <trkpt lat="45.28218" lon="6.9123">
        <time>1970-01-01T00:00:00+00:00</time>
        <ele>1644.0</ele>
      </trkpt>
      <trkpt lat="45.28218" lon="6.9123">
        <time>1970-01-01T00:00:00+00:00</time>
        <ele>1644.0</ele>
      </trkpt>
      <trkpt lat="45.28224" lon="6.9123">
        <time>1970-01-01T00:00:00+00:00</time>
        <ele>1643.0</ele>
      </trkpt>
      <trkpt lat="45.28224" lon="6.9123">
        <time>1970-01-01T00:00:00+00:00</time>
        <ele>1643.0</ele>
      </trkpt>
      <trkpt lat="45.28232" lon="6.91233">
        <time>1970-01-01T00:00:00+00:00</time>
        <ele>1642.0</ele>
      </trkpt>
      <trkpt lat="45.28232" lon="6.91233">
        <time>1970-01-01T00:00:00+00:00</time>
        <ele>1642.0</ele>
      </trkpt>
      <trkpt lat="45.28238" lon="6.91237">
        <time>1970-01-01T00:00:00+00:00</time>
        <ele>1641.0</ele>
      </trkpt>
      <trkpt lat="45.28238" lon="6.91237">
        <time>1970-01-01T00:00:00+00:00</time>
        <ele>1641.0</ele>
      </trkpt>
      <trkpt lat="45.28242" lon="6.91241">
        <time>1970-01-01T00:00:00+00:00</time>
        <ele>1640.0</ele>
      </trkpt>
      <trkpt lat="45.28242" lon="6.91241">
        <time>1970-01-01T00:00:00+00:00</time>
        <ele>1640.0</ele>
      </trkpt>
      <trkpt lat="45.28246" lon="6.91247">
        <time>1970-01-01T00:00:00+00:00</time>
        <ele>1639.0</ele>
      </trkpt>
      <trkpt lat="45.28246" lon="6.91247">
        <time>1970-01-01T00:00:00+00:00</time>
        <ele>1639.0</ele>
      </trkpt>
      <trkpt lat="45.28249" lon="6.91253">
        <time>1970-01-01T00:00:00+00:00</time>
        <ele>1639.0</ele>
      </trkpt>
      <trkpt lat="45.28249" lon="6.91253">
        <time>1970-01-01T00:00:00+00:00</time>
        <ele>1639.0</ele>
      </trkpt>
      <trkpt lat="45.28254" lon="6.9126">
        <time>1970-01-01T00:00:00+00:00</time>
        <ele>1637.0</ele>
      </trkpt>
      <trkpt lat="45.28254" lon="6.9126">
        <time>1970-01-01T00:00:00+00:00</time>
        <ele>1637.0</ele>
      </trkpt>
      <trkpt lat="45.28256" lon="6.91268">
        <time>1970-01-01T00:00:00+00:00</time>
        <ele>1636.0</ele>
      </trkpt>
      <trkpt lat="45.28256" lon="6.91268">
        <time>1970-01-01T00:00:00+00:00</time>
        <ele>1636.0</ele>
      </trkpt>
      <trkpt lat="45.28259" lon="6.91275">
        <time>1970-01-01T00:00:00+00:00</time>
        <ele>1635.0</ele>
      </trkpt>
      <trkpt lat="45.28259" lon="6.91275">
        <time>1970-01-01T00:00:00+00:00</time>
        <ele>1635.0</ele>
      </trkpt>
      <trkpt lat="45.28264" lon="6.91282">
        <time>1970-01-01T00:00:00+00:00</time>
        <ele>1631.0</ele>
      </trkpt>
      <trkpt lat="45.28264" lon="6.91282">
        <time>1970-01-01T00:00:00+00:00</time>
        <ele>1631.0</ele>
      </trkpt>
      <trkpt lat="45.28268" lon="6.91289">
        <time>1970-01-01T00:00:00+00:00</time>
        <ele>1629.0</ele>
      </trkpt>
      <trkpt lat="45.28268" lon="6.91289">
        <time>1970-01-01T00:00:00+00:00</time>
        <ele>1629.0</ele>
      </trkpt>
      <trkpt lat="45.28273" lon="6.91295">
        <time>1970-01-01T00:00:00+00:00</time>
        <ele>1627.0</ele>
      </trkpt>
      <trkpt lat="45.28273" lon="6.91295">
        <time>1970-01-01T00:00:00+00:00</time>
        <ele>1627.0</ele>
      </trkpt>
      <trkpt lat="45.28278" lon="6.91301">
        <time>1970-01-01T00:00:00+00:00</time>
        <ele>1624.0</ele>
      </trkpt>
      <trkpt lat="45.28278" lon="6.91301">
        <time>1970-01-01T00:00:00+00:00</time>
        <ele>1624.0</ele>
      </trkpt>
      <trkpt lat="45.28283" lon="6.91307">
        <time>1970-01-01T00:00:00+00:00</time>
        <ele>1622.0</ele>
      </trkpt>
      <trkpt lat="45.28283" lon="6.91307">
        <time>1970-01-01T00:00:00+00:00</time>
        <ele>1622.0</ele>
      </trkpt>
      <trkpt lat="45.28289" lon="6.91312">
        <time>1970-01-01T00:00:00+00:00</time>
        <ele>1619.0</ele>
      </trkpt>
      <trkpt lat="45.28289" lon="6.91312">
        <time>1970-01-01T00:00:00+00:00</time>
        <ele>1619.0</ele>
      </trkpt>
      <trkpt lat="45.28296" lon="6.91314">
        <time>1970-01-01T00:00:00+00:00</time>
        <ele>1617.0</ele>
      </trkpt>
      <trkpt lat="45.28296" lon="6.91314">
        <time>1970-01-01T00:00:00+00:00</time>
        <ele>1617.0</ele>
      </trkpt>
      <trkpt lat="45.28303" lon="6.91314">
        <time>1970-01-01T00:00:00+00:00</time>
        <ele>1614.0</ele>
      </trkpt>
      <trkpt lat="45.28303" lon="6.91314">
        <time>1970-01-01T00:00:00+00:00</time>
        <ele>1614.0</ele>
      </trkpt>
      <trkpt lat="45.2831" lon="6.91316">
        <time>1970-01-01T00:00:00+00:00</time>
        <ele>1612.0</ele>
      </trkpt>
      <trkpt lat="45.2831" lon="6.91316">
        <time>1970-01-01T00:00:00+00:00</time>
        <ele>1612.0</ele>
      </trkpt>
      <trkpt lat="45.28316" lon="6.91319">
        <time>1970-01-01T00:00:00+00:00</time>
        <ele>1611.0</ele>
      </trkpt>
      <trkpt lat="45.28316" lon="6.91319">
        <time>1970-01-01T00:00:00+00:00</time>
        <ele>1611.0</ele>
      </trkpt>
      <trkpt lat="45.28325" lon="6.91318">
        <time>1970-01-01T00:00:00+00:00</time>
        <ele>1608.0</ele>
      </trkpt>
      <trkpt lat="45.28325" lon="6.91318">
        <time>1970-01-01T00:00:00+00:00</time>
        <ele>1608.0</ele>
      </trkpt>
      <trkpt lat="45.28331" lon="6.91319">
        <time>1970-01-01T00:00:00+00:00</time>
        <ele>1607.0</ele>
      </trkpt>
      <trkpt lat="45.28331" lon="6.91319">
        <time>1970-01-01T00:00:00+00:00</time>
        <ele>1607.0</ele>
      </trkpt>
      <trkpt lat="45.28338" lon="6.9132">
        <time>1970-01-01T00:00:00+00:00</time>
        <ele>1605.0</ele>
      </trkpt>
      <trkpt lat="45.28338" lon="6.9132">
        <time>1970-01-01T00:00:00+00:00</time>
        <ele>1605.0</ele>
      </trkpt>
      <trkpt lat="45.28344" lon="6.91321">
        <time>1970-01-01T00:00:00+00:00</time>
        <ele>1603.0</ele>
      </trkpt>
      <trkpt lat="45.28344" lon="6.91321">
        <time>1970-01-01T00:00:00+00:00</time>
        <ele>1603.0</ele>
      </trkpt>
      <trkpt lat="45.2835" lon="6.91321">
        <time>1970-01-01T00:00:00+00:00</time>
        <ele>1602.0</ele>
      </trkpt>
      <trkpt lat="45.2835" lon="6.91321">
        <time>1970-01-01T00:00:00+00:00</time>
        <ele>1602.0</ele>
      </trkpt>
      <trkpt lat="45.28356" lon="6.91319">
        <time>1970-01-01T00:00:00+00:00</time>
        <ele>1601.0</ele>
      </trkpt>
      <trkpt lat="45.28356" lon="6.91319">
        <time>1970-01-01T00:00:00+00:00</time>
        <ele>1601.0</ele>
      </trkpt>
      <trkpt lat="45.28364" lon="6.91317">
        <time>1970-01-01T00:00:00+00:00</time>
        <ele>1599.0</ele>
      </trkpt>
      <trkpt lat="45.28364" lon="6.91317">
        <time>1970-01-01T00:00:00+00:00</time>
        <ele>1599.0</ele>
      </trkpt>
      <trkpt lat="45.28367" lon="6.91323">
        <time>1970-01-01T00:00:00+00:00</time>
        <ele>1599.0</ele>
      </trkpt>
      <trkpt lat="45.28367" lon="6.91323">
        <time>1970-01-01T00:00:00+00:00</time>
        <ele>1599.0</ele>
      </trkpt>
      <trkpt lat="45.28373" lon="6.91322">
        <time>1970-01-01T00:00:00+00:00</time>
        <ele>1597.0</ele>
      </trkpt>
      <trkpt lat="45.28373" lon="6.91322">
        <time>1970-01-01T00:00:00+00:00</time>
        <ele>1597.0</ele>
      </trkpt>
      <trkpt lat="45.2838" lon="6.91322">
        <time>1970-01-01T00:00:00+00:00</time>
        <ele>1595.0</ele>
      </trkpt>
      <trkpt lat="45.2838" lon="6.91322">
        <time>1970-01-01T00:00:00+00:00</time>
        <ele>1595.0</ele>
      </trkpt>
      <trkpt lat="45.28387" lon="6.91323">
        <time>1970-01-01T00:00:00+00:00</time>
        <ele>1593.0</ele>
      </trkpt>
      <trkpt lat="45.28387" lon="6.91323">
        <time>1970-01-01T00:00:00+00:00</time>
        <ele>1593.0</ele>
      </trkpt>
      <trkpt lat="45.28395" lon="6.91324">
        <time>1970-01-01T00:00:00+00:00</time>
        <ele>1590.0</ele>
      </trkpt>
      <trkpt lat="45.28395" lon="6.91324">
        <time>1970-01-01T00:00:00+00:00</time>
        <ele>1590.0</ele>
      </trkpt>
      <trkpt lat="45.28403" lon="6.91324">
        <time>1970-01-01T00:00:00+00:00</time>
        <ele>1587.0</ele>
      </trkpt>
      <trkpt lat="45.28403" lon="6.91324">
        <time>1970-01-01T00:00:00+00:00</time>
        <ele>1587.0</ele>
      </trkpt>
      <trkpt lat="45.28411" lon="6.91323">
        <time>1970-01-01T00:00:00+00:00</time>
        <ele>1585.0</ele>
      </trkpt>
      <trkpt lat="45.28411" lon="6.91323">
        <time>1970-01-01T00:00:00+00:00</time>
        <ele>1585.0</ele>
      </trkpt>
      <trkpt lat="45.28417" lon="6.9132">
        <time>1970-01-01T00:00:00+00:00</time>
        <ele>1584.0</ele>
      </trkpt>
      <trkpt lat="45.28417" lon="6.9132">
        <time>1970-01-01T00:00:00+00:00</time>
        <ele>1584.0</ele>
      </trkpt>
      <trkpt lat="45.28422" lon="6.91316">
        <time>1970-01-01T00:00:00+00:00</time>
        <ele>1582.0</ele>
      </trkpt>
      <trkpt lat="45.28422" lon="6.91316">
        <time>1970-01-01T00:00:00+00:00</time>
        <ele>1582.0</ele>
      </trkpt>
      <trkpt lat="45.28429" lon="6.91312">
        <time>1970-01-01T00:00:00+00:00</time>
        <ele>1580.0</ele>
      </trkpt>
      <trkpt lat="45.28429" lon="6.91312">
        <time>1970-01-01T00:00:00+00:00</time>
        <ele>1580.0</ele>
      </trkpt>
      <trkpt lat="45.28437" lon="6.9131">
        <time>1970-01-01T00:00:00+00:00</time>
        <ele>1578.0</ele>
      </trkpt>
      <trkpt lat="45.28437" lon="6.9131">
        <time>1970-01-01T00:00:00+00:00</time>
        <ele>1578.0</ele>
      </trkpt>
      <trkpt lat="45.28444" lon="6.91307">
        <time>1970-01-01T00:00:00+00:00</time>
        <ele>1576.0</ele>
      </trkpt>
      <trkpt lat="45.28444" lon="6.91307">
        <time>1970-01-01T00:00:00+00:00</time>
        <ele>1576.0</ele>
      </trkpt>
      <trkpt lat="45.2845" lon="6.91301">
        <time>1970-01-01T00:00:00+00:00</time>
        <ele>1575.0</ele>
      </trkpt>
      <trkpt lat="45.2845" lon="6.91301">
        <time>1970-01-01T00:00:00+00:00</time>
        <ele>1575.0</ele>
      </trkpt>
      <trkpt lat="45.28456" lon="6.91295">
        <time>1970-01-01T00:00:00+00:00</time>
        <ele>1573.0</ele>
      </trkpt>
      <trkpt lat="45.28456" lon="6.91295">
        <time>1970-01-01T00:00:00+00:00</time>
        <ele>1573.0</ele>
      </trkpt>
      <trkpt lat="45.28462" lon="6.91292">
        <time>1970-01-01T00:00:00+00:00</time>
        <ele>1572.0</ele>
      </trkpt>
      <trkpt lat="45.28462" lon="6.91292">
        <time>1970-01-01T00:00:00+00:00</time>
        <ele>1572.0</ele>
      </trkpt>
      <trkpt lat="45.28468" lon="6.9129">
        <time>1970-01-01T00:00:00+00:00</time>
        <ele>1571.0</ele>
      </trkpt>
      <trkpt lat="45.28468" lon="6.9129">
        <time>1970-01-01T00:00:00+00:00</time>
        <ele>1571.0</ele>
      </trkpt>
      <trkpt lat="45.28472" lon="6.91286">
        <time>1970-01-01T00:00:00+00:00</time>
        <ele>1570.0</ele>
      </trkpt>
      <trkpt lat="45.28472" lon="6.91286">
        <time>1970-01-01T00:00:00+00:00</time>
        <ele>1570.0</ele>
      </trkpt>
      <trkpt lat="45.28477" lon="6.91281">
        <time>1970-01-01T00:00:00+00:00</time>
        <ele>1569.0</ele>
      </trkpt>
      <trkpt lat="45.28477" lon="6.91281">
        <time>1970-01-01T00:00:00+00:00</time>
        <ele>1569.0</ele>
      </trkpt>
      <trkpt lat="45.28481" lon="6.91277">
        <time>1970-01-01T00:00:00+00:00</time>
        <ele>1567.0</ele>
      </trkpt>
      <trkpt lat="45.28481" lon="6.91277">
        <time>1970-01-01T00:00:00+00:00</time>
        <ele>1567.0</ele>
      </trkpt>
      <trkpt lat="45.28486" lon="6.91273">
        <time>1970-01-01T00:00:00+00:00</time>
        <ele>1566.0</ele>
      </trkpt>
      <trkpt lat="45.28486" lon="6.91273">
        <time>1970-01-01T00:00:00+00:00</time>
        <ele>1566.0</ele>
      </trkpt>
      <trkpt lat="45.2849" lon="6.9127">
        <time>1970-01-01T00:00:00+00:00</time>
        <ele>1565.0</ele>
      </trkpt>
      <trkpt lat="45.2849" lon="6.9127">
        <time>1970-01-01T00:00:00+00:00</time>
        <ele>1565.0</ele>
      </trkpt>
      <trkpt lat="45.28496" lon="6.91267">
        <time>1970-01-01T00:00:00+00:00</time>
        <ele>1564.0</ele>
      </trkpt>
      <trkpt lat="45.28496" lon="6.91267">
        <time>1970-01-01T00:00:00+00:00</time>
        <ele>1564.0</ele>
      </trkpt>
      <trkpt lat="45.28501" lon="6.91266">
        <time>1970-01-01T00:00:00+00:00</time>
        <ele>1563.0</ele>
      </trkpt>
      <trkpt lat="45.28501" lon="6.91266">
        <time>1970-01-01T00:00:00+00:00</time>
        <ele>1563.0</ele>
      </trkpt>
      <trkpt lat="45.28507" lon="6.91265">
        <time>1970-01-01T00:00:00+00:00</time>
        <ele>1562.0</ele>
      </trkpt>
      <trkpt lat="45.28507" lon="6.91265">
        <time>1970-01-01T00:00:00+00:00</time>
        <ele>1562.0</ele>
      </trkpt>
      <trkpt lat="45.28513" lon="6.91266">
        <time>1970-01-01T00:00:00+00:00</time>
        <ele>1562.0</ele>
      </trkpt>
      <trkpt lat="45.28513" lon="6.91266">
        <time>1970-01-01T00:00:00+00:00</time>
        <ele>1562.0</ele>
      </trkpt>
      <trkpt lat="45.28519" lon="6.91267">
        <time>1970-01-01T00:00:00+00:00</time>
        <ele>1560.0</ele>
      </trkpt>
      <trkpt lat="45.28519" lon="6.91267">
        <time>1970-01-01T00:00:00+00:00</time>
        <ele>1560.0</ele>
      </trkpt>
      <trkpt lat="45.28526" lon="6.91268">
        <time>1970-01-01T00:00:00+00:00</time>
        <ele>1558.0</ele>
      </trkpt>
      <trkpt lat="45.28526" lon="6.91268">
        <time>1970-01-01T00:00:00+00:00</time>
        <ele>1558.0</ele>
      </trkpt>
      <trkpt lat="45.28534" lon="6.9127">
        <time>1970-01-01T00:00:00+00:00</time>
        <ele>1556.0</ele>
      </trkpt>
      <trkpt lat="45.28534" lon="6.9127">
        <time>1970-01-01T00:00:00+00:00</time>
        <ele>1556.0</ele>
      </trkpt>
      <trkpt lat="45.28542" lon="6.91272">
        <time>1970-01-01T00:00:00+00:00</time>
        <ele>1554.0</ele>
      </trkpt>
      <trkpt lat="45.28542" lon="6.91272">
        <time>1970-01-01T00:00:00+00:00</time>
        <ele>1554.0</ele>
      </trkpt>
      <trkpt lat="45.28549" lon="6.91274">
        <time>1970-01-01T00:00:00+00:00</time>
        <ele>1552.0</ele>
      </trkpt>
      <trkpt lat="45.28549" lon="6.91274">
        <time>1970-01-01T00:00:00+00:00</time>
        <ele>1552.0</ele>
      </trkpt>
      <trkpt lat="45.28554" lon="6.91273">
        <time>1970-01-01T00:00:00+00:00</time>
        <ele>1551.0</ele>
      </trkpt>
      <trkpt lat="45.28554" lon="6.91273">
        <time>1970-01-01T00:00:00+00:00</time>
        <ele>1551.0</ele>
      </trkpt>
      <trkpt lat="45.28559" lon="6.91269">
        <time>1970-01-01T00:00:00+00:00</time>
        <ele>1549.0</ele>
      </trkpt>
      <trkpt lat="45.28559" lon="6.91269">
        <time>1970-01-01T00:00:00+00:00</time>
        <ele>1549.0</ele>
      </trkpt>
      <trkpt lat="45.28565" lon="6.91265">
        <time>1970-01-01T00:00:00+00:00</time>
        <ele>1547.0</ele>
      </trkpt>
      <trkpt lat="45.28565" lon="6.91265">
        <time>1970-01-01T00:00:00+00:00</time>
        <ele>1547.0</ele>
      </trkpt>
      <trkpt lat="45.28571" lon="6.91262">
        <time>1970-01-01T00:00:00+00:00</time>
        <ele>1546.0</ele>
      </trkpt>
      <trkpt lat="45.28571" lon="6.91262">
        <time>1970-01-01T00:00:00+00:00</time>
        <ele>1546.0</ele>
      </trkpt>
      <trkpt lat="45.28578" lon="6.91259">
        <time>1970-01-01T00:00:00+00:00</time>
        <ele>1544.0</ele>
      </trkpt>
      <trkpt lat="45.28578" lon="6.91259">
        <time>1970-01-01T00:00:00+00:00</time>
        <ele>1544.0</ele>
      </trkpt>
      <trkpt lat="45.28585" lon="6.91253">
        <time>1970-01-01T00:00:00+00:00</time>
        <ele>1543.0</ele>
      </trkpt>
      <trkpt lat="45.28585" lon="6.91253">
        <time>1970-01-01T00:00:00+00:00</time>
        <ele>1543.0</ele>
      </trkpt>
      <trkpt lat="45.28592" lon="6.91251">
        <time>1970-01-01T00:00:00+00:00</time>
        <ele>1542.0</ele>
      </trkpt>
      <trkpt lat="45.28592" lon="6.91251">
        <time>1970-01-01T00:00:00+00:00</time>
        <ele>1542.0</ele>
      </trkpt>
      <trkpt lat="45.28599" lon="6.9125">
        <time>1970-01-01T00:00:00+00:00</time>
        <ele>1541.0</ele>
      </trkpt>
      <trkpt lat="45.28599" lon="6.9125">
        <time>1970-01-01T00:00:00+00:00</time>
        <ele>1541.0</ele>
      </trkpt>
      <trkpt lat="45.28607" lon="6.91248">
        <time>1970-01-01T00:00:00+00:00</time>
        <ele>1539.0</ele>
      </trkpt>
      <trkpt lat="45.28607" lon="6.91248">
        <time>1970-01-01T00:00:00+00:00</time>
        <ele>1539.0</ele>
      </trkpt>
      <trkpt lat="45.28613" lon="6.91244">
        <time>1970-01-01T00:00:00+00:00</time>
        <ele>1539.0</ele>
      </trkpt>
      <trkpt lat="45.28613" lon="6.91244">
        <time>1970-01-01T00:00:00+00:00</time>
        <ele>1539.0</ele>
      </trkpt>
      <trkpt lat="45.28619" lon="6.91238">
        <time>1970-01-01T00:00:00+00:00</time>
        <ele>1539.0</ele>
      </trkpt>
      <trkpt lat="45.28619" lon="6.91238">
        <time>1970-01-01T00:00:00+00:00</time>
        <ele>1539.0</ele>
      </trkpt>
      <trkpt lat="45.28624" lon="6.91232">
        <time>1970-01-01T00:00:00+00:00</time>
        <ele>1539.0</ele>
      </trkpt>
      <trkpt lat="45.28624" lon="6.91232">
        <time>1970-01-01T00:00:00+00:00</time>
        <ele>1539.0</ele>
      </trkpt>
      <trkpt lat="45.28629" lon="6.91227">
        <time>1970-01-01T00:00:00+00:00</time>
        <ele>1538.0</ele>
      </trkpt>
      <trkpt lat="45.28629" lon="6.91227">
        <time>1970-01-01T00:00:00+00:00</time>
        <ele>1538.0</ele>
      </trkpt>
      <trkpt lat="45.28635" lon="6.91222">
        <time>1970-01-01T00:00:00+00:00</time>
        <ele>1537.0</ele>
      </trkpt>
      <trkpt lat="45.28635" lon="6.91222">
        <time>1970-01-01T00:00:00+00:00</time>
        <ele>1537.0</ele>
      </trkpt>
      <trkpt lat="45.28641" lon="6.91217">
        <time>1970-01-01T00:00:00+00:00</time>
        <ele>1536.0</ele>
      </trkpt>
      <trkpt lat="45.28641" lon="6.91217">
        <time>1970-01-01T00:00:00+00:00</time>
        <ele>1536.0</ele>
      </trkpt>
      <trkpt lat="45.28645" lon="6.91211">
        <time>1970-01-01T00:00:00+00:00</time>
        <ele>1535.0</ele>
      </trkpt>
      <trkpt lat="45.28645" lon="6.91211">
        <time>1970-01-01T00:00:00+00:00</time>
        <ele>1535.0</ele>
      </trkpt>
      <trkpt lat="45.28648" lon="6.91203">
        <time>1970-01-01T00:00:00+00:00</time>
        <ele>1534.0</ele>
      </trkpt>
      <trkpt lat="45.28648" lon="6.91203">
        <time>1970-01-01T00:00:00+00:00</time>
        <ele>1534.0</ele>
      </trkpt>
      <trkpt lat="45.28651" lon="6.91194">
        <time>1970-01-01T00:00:00+00:00</time>
        <ele>1534.0</ele>
      </trkpt>
      <trkpt lat="45.28651" lon="6.91194">
        <time>1970-01-01T00:00:00+00:00</time>
        <ele>1534.0</ele>
      </trkpt>
      <trkpt lat="45.28653" lon="6.91185">
        <time>1970-01-01T00:00:00+00:00</time>
        <ele>1533.0</ele>
      </trkpt>
      <trkpt lat="45.28653" lon="6.91185">
        <time>1970-01-01T00:00:00+00:00</time>
        <ele>1533.0</ele>
      </trkpt>
      <trkpt lat="45.28654" lon="6.91177">
        <time>1970-01-01T00:00:00+00:00</time>
        <ele>1533.0</ele>
      </trkpt>
      <trkpt lat="45.28654" lon="6.91177">
        <time>1970-01-01T00:00:00+00:00</time>
        <ele>1533.0</ele>
      </trkpt>
      <trkpt lat="45.28654" lon="6.91168">
        <time>1970-01-01T00:00:00+00:00</time>
        <ele>1532.0</ele>
      </trkpt>
      <trkpt lat="45.28654" lon="6.91168">
        <time>1970-01-01T00:00:00+00:00</time>
        <ele>1532.0</ele>
      </trkpt>
      <trkpt lat="45.28656" lon="6.9116">
        <time>1970-01-01T00:00:00+00:00</time>
        <ele>1531.0</ele>
      </trkpt>
      <trkpt lat="45.28656" lon="6.9116">
        <time>1970-01-01T00:00:00+00:00</time>
        <ele>1531.0</ele>
      </trkpt>
      <trkpt lat="45.28661" lon="6.91151">
        <time>1970-01-01T00:00:00+00:00</time>
        <ele>1529.0</ele>
      </trkpt>
      <trkpt lat="45.28661" lon="6.91151">
        <time>1970-01-01T00:00:00+00:00</time>
        <ele>1529.0</ele>
      </trkpt>
      <trkpt lat="45.28664" lon="6.91143">
        <time>1970-01-01T00:00:00+00:00</time>
        <ele>1528.0</ele>
      </trkpt>
      <trkpt lat="45.28664" lon="6.91143">
        <time>1970-01-01T00:00:00+00:00</time>
        <ele>1528.0</ele>
      </trkpt>
      <trkpt lat="45.28667" lon="6.91134">
        <time>1970-01-01T00:00:00+00:00</time>
        <ele>1527.0</ele>
      </trkpt>
      <trkpt lat="45.28667" lon="6.91134">
        <time>1970-01-01T00:00:00+00:00</time>
        <ele>1527.0</ele>
      </trkpt>
      <trkpt lat="45.28669" lon="6.91125">
        <time>1970-01-01T00:00:00+00:00</time>
        <ele>1526.0</ele>
      </trkpt>
      <trkpt lat="45.28669" lon="6.91125">
        <time>1970-01-01T00:00:00+00:00</time>
        <ele>1526.0</ele>
      </trkpt>
      <trkpt lat="45.28671" lon="6.91117">
        <time>1970-01-01T00:00:00+00:00</time>
        <ele>1526.0</ele>
      </trkpt>
      <trkpt lat="45.28671" lon="6.91117">
        <time>1970-01-01T00:00:00+00:00</time>
        <ele>1526.0</ele>
      </trkpt>
      <trkpt lat="45.28672" lon="6.91108">
        <time>1970-01-01T00:00:00+00:00</time>
        <ele>1525.0</ele>
      </trkpt>
      <trkpt lat="45.28672" lon="6.91108">
        <time>1970-01-01T00:00:00+00:00</time>
        <ele>1525.0</ele>
      </trkpt>
      <trkpt lat="45.28676" lon="6.91101">
        <time>1970-01-01T00:00:00+00:00</time>
        <ele>1525.0</ele>
      </trkpt>
      <trkpt lat="45.28676" lon="6.91101">
        <time>1970-01-01T00:00:00+00:00</time>
        <ele>1525.0</ele>
      </trkpt>
      <trkpt lat="45.28678" lon="6.91093">
        <time>1970-01-01T00:00:00+00:00</time>
        <ele>1525.0</ele>
      </trkpt>
      <trkpt lat="45.28678" lon="6.91093">
        <time>1970-01-01T00:00:00+00:00</time>
        <ele>1525.0</ele>
      </trkpt>
      <trkpt lat="45.2868" lon="6.91085">
        <time>1970-01-01T00:00:00+00:00</time>
        <ele>1524.0</ele>
      </trkpt>
      <trkpt lat="45.2868" lon="6.91085">
        <time>1970-01-01T00:00:00+00:00</time>
        <ele>1524.0</ele>
      </trkpt>
      <trkpt lat="45.28679" lon="6.91076">
        <time>1970-01-01T00:00:00+00:00</time>
        <ele>1522.0</ele>
      </trkpt>
      <trkpt lat="45.28679" lon="6.91076">
        <time>1970-01-01T00:00:00+00:00</time>
        <ele>1522.0</ele>
      </trkpt>
      <trkpt lat="45.28683" lon="6.91069">
        <time>1970-01-01T00:00:00+00:00</time>
        <ele>1522.0</ele>
      </trkpt>
      <trkpt lat="45.28683" lon="6.91069">
        <time>1970-01-01T00:00:00+00:00</time>
        <ele>1522.0</ele>
      </trkpt>
      <trkpt lat="45.28685" lon="6.91062">
        <time>1970-01-01T00:00:00+00:00</time>
        <ele>1520.0</ele>
      </trkpt>
      <trkpt lat="45.28685" lon="6.91062">
        <time>1970-01-01T00:00:00+00:00</time>
        <ele>1520.0</ele>
      </trkpt>
      <trkpt lat="45.28686" lon="6.91053">
        <time>1970-01-01T00:00:00+00:00</time>
        <ele>1519.0</ele>
      </trkpt>
      <trkpt lat="45.28686" lon="6.91053">
        <time>1970-01-01T00:00:00+00:00</time>
        <ele>1519.0</ele>
      </trkpt>
      <trkpt lat="45.28687" lon="6.91045">
        <time>1970-01-01T00:00:00+00:00</time>
        <ele>1518.0</ele>
      </trkpt>
      <trkpt lat="45.28687" lon="6.91045">
        <time>1970-01-01T00:00:00+00:00</time>
        <ele>1518.0</ele>
      </trkpt>
      <trkpt lat="45.28692" lon="6.91037">
        <time>1970-01-01T00:00:00+00:00</time>
        <ele>1516.0</ele>
      </trkpt>
      <trkpt lat="45.28692" lon="6.91037">
        <time>1970-01-01T00:00:00+00:00</time>
        <ele>1516.0</ele>
      </trkpt>
      <trkpt lat="45.28697" lon="6.9103">
        <time>1970-01-01T00:00:00+00:00</time>
        <ele>1515.0</ele>
      </trkpt>
      <trkpt lat="45.28697" lon="6.9103">
        <time>1970-01-01T00:00:00+00:00</time>
        <ele>1515.0</ele>
      </trkpt>
      <trkpt lat="45.287" lon="6.91022">
        <time>1970-01-01T00:00:00+00:00</time>
        <ele>1514.0</ele>
      </trkpt>
      <trkpt lat="45.287" lon="6.91022">
        <time>1970-01-01T00:00:00+00:00</time>
        <ele>1514.0</ele>
      </trkpt>
      <trkpt lat="45.28702" lon="6.91014">
        <time>1970-01-01T00:00:00+00:00</time>
        <ele>1513.0</ele>
      </trkpt>
      <trkpt lat="45.28702" lon="6.91014">
        <time>1970-01-01T00:00:00+00:00</time>
        <ele>1513.0</ele>
      </trkpt>
      <trkpt lat="45.28707" lon="6.91008">
        <time>1970-01-01T00:00:00+00:00</time>
        <ele>1512.0</ele>
      </trkpt>
      <trkpt lat="45.28707" lon="6.91008">
        <time>1970-01-01T00:00:00+00:00</time>
        <ele>1512.0</ele>
      </trkpt>
      <trkpt lat="45.28712" lon="6.91002">
        <time>1970-01-01T00:00:00+00:00</time>
        <ele>1512.0</ele>
      </trkpt>
      <trkpt lat="45.28712" lon="6.91002">
        <time>1970-01-01T00:00:00+00:00</time>
        <ele>1512.0</ele>
      </trkpt>
      <trkpt lat="45.28716" lon="6.90996">
        <time>1970-01-01T00:00:00+00:00</time>
        <ele>1511.0</ele>
      </trkpt>
      <trkpt lat="45.28716" lon="6.90996">
        <time>1970-01-01T00:00:00+00:00</time>
        <ele>1511.0</ele>
      </trkpt>
      <trkpt lat="45.28721" lon="6.9099">
        <time>1970-01-01T00:00:00+00:00</time>
        <ele>1511.0</ele>
      </trkpt>
      <trkpt lat="45.28721" lon="6.9099">
        <time>1970-01-01T00:00:00+00:00</time>
        <ele>1511.0</ele>
      </trkpt>
      <trkpt lat="45.28722" lon="6.90983">
        <time>1970-01-01T00:00:00+00:00</time>
        <ele>1510.0</ele>
      </trkpt>
      <trkpt lat="45.28722" lon="6.90983">
        <time>1970-01-01T00:00:00+00:00</time>
        <ele>1510.0</ele>
      </trkpt>
      <trkpt lat="45.28724" lon="6.90975">
        <time>1970-01-01T00:00:00+00:00</time>
        <ele>1510.0</ele>
      </trkpt>
      <trkpt lat="45.28724" lon="6.90975">
        <time>1970-01-01T00:00:00+00:00</time>
        <ele>1510.0</ele>
      </trkpt>
      <trkpt lat="45.28725" lon="6.90968">
        <time>1970-01-01T00:00:00+00:00</time>
        <ele>1509.0</ele>
      </trkpt>
      <trkpt lat="45.28725" lon="6.90968">
        <time>1970-01-01T00:00:00+00:00</time>
        <ele>1509.0</ele>
      </trkpt>
      <trkpt lat="45.28726" lon="6.9096">
        <time>1970-01-01T00:00:00+00:00</time>
        <ele>1509.0</ele>
      </trkpt>
      <trkpt lat="45.28726" lon="6.9096">
        <time>1970-01-01T00:00:00+00:00</time>
        <ele>1509.0</ele>
      </trkpt>
      <trkpt lat="45.28728" lon="6.90951">
        <time>1970-01-01T00:00:00+00:00</time>
        <ele>1508.0</ele>
      </trkpt>
      <trkpt lat="45.28728" lon="6.90951">
        <time>1970-01-01T00:00:00+00:00</time>
        <ele>1508.0</ele>
      </trkpt>
      <trkpt lat="45.28729" lon="6.90943">
        <time>1970-01-01T00:00:00+00:00</time>
        <ele>1508.0</ele>
      </trkpt>
      <trkpt lat="45.28729" lon="6.90943">
        <time>1970-01-01T00:00:00+00:00</time>
        <ele>1508.0</ele>
      </trkpt>
      <trkpt lat="45.2873" lon="6.90935">
        <time>1970-01-01T00:00:00+00:00</time>
        <ele>1507.0</ele>
      </trkpt>
      <trkpt lat="45.2873" lon="6.90935">
        <time>1970-01-01T00:00:00+00:00</time>
        <ele>1507.0</ele>
      </trkpt>
      <trkpt lat="45.28731" lon="6.90926">
        <time>1970-01-01T00:00:00+00:00</time>
        <ele>1507.0</ele>
      </trkpt>
      <trkpt lat="45.28731" lon="6.90926">
        <time>1970-01-01T00:00:00+00:00</time>
        <ele>1507.0</ele>
      </trkpt>
      <trkpt lat="45.28732" lon="6.90918">
        <time>1970-01-01T00:00:00+00:00</time>
        <ele>1506.0</ele>
      </trkpt>
      <trkpt lat="45.28732" lon="6.90918">
        <time>1970-01-01T00:00:00+00:00</time>
        <ele>1506.0</ele>
      </trkpt>
      <trkpt lat="45.28734" lon="6.90911">
        <time>1970-01-01T00:00:00+00:00</time>
        <ele>1505.0</ele>
      </trkpt>
      <trkpt lat="45.28734" lon="6.90911">
        <time>1970-01-01T00:00:00+00:00</time>
        <ele>1505.0</ele>
      </trkpt>
      <trkpt lat="45.28735" lon="6.90904">
        <time>1970-01-01T00:00:00+00:00</time>
        <ele>1505.0</ele>
      </trkpt>
      <trkpt lat="45.28735" lon="6.90904">
        <time>1970-01-01T00:00:00+00:00</time>
        <ele>1505.0</ele>
      </trkpt>
      <trkpt lat="45.28736" lon="6.90896">
        <time>1970-01-01T00:00:00+00:00</time>
        <ele>1504.0</ele>
      </trkpt>
      <trkpt lat="45.28736" lon="6.90896">
        <time>1970-01-01T00:00:00+00:00</time>
        <ele>1504.0</ele>
      </trkpt>
      <trkpt lat="45.28738" lon="6.90889">
        <time>1970-01-01T00:00:00+00:00</time>
        <ele>1503.0</ele>
      </trkpt>
      <trkpt lat="45.28738" lon="6.90889">
        <time>1970-01-01T00:00:00+00:00</time>
        <ele>1503.0</ele>
      </trkpt>
      <trkpt lat="45.28741" lon="6.90883">
        <time>1970-01-01T00:00:00+00:00</time>
        <ele>1503.0</ele>
      </trkpt>
      <trkpt lat="45.28741" lon="6.90883">
        <time>1970-01-01T00:00:00+00:00</time>
        <ele>1503.0</ele>
      </trkpt>
      <trkpt lat="45.28745" lon="6.90878">
        <time>1970-01-01T00:00:00+00:00</time>
        <ele>1501.0</ele>
      </trkpt>
      <trkpt lat="45.28745" lon="6.90878">
        <time>1970-01-01T00:00:00+00:00</time>
        <ele>1501.0</ele>
      </trkpt>
      <trkpt lat="45.28751" lon="6.90874">
        <time>1970-01-01T00:00:00+00:00</time>
        <ele>1500.0</ele>
      </trkpt>
      <trkpt lat="45.28751" lon="6.90874">
        <time>1970-01-01T00:00:00+00:00</time>
        <ele>1500.0</ele>
      </trkpt>
      <trkpt lat="45.28758" lon="6.90875">
        <time>1970-01-01T00:00:00+00:00</time>
        <ele>1499.0</ele>
      </trkpt>
      <trkpt lat="45.28758" lon="6.90875">
        <time>1970-01-01T00:00:00+00:00</time>
        <ele>1499.0</ele>
      </trkpt>
      <trkpt lat="45.28766" lon="6.90876">
        <time>1970-01-01T00:00:00+00:00</time>
        <ele>1496.0</ele>
      </trkpt>
      <trkpt lat="45.28766" lon="6.90876">
        <time>1970-01-01T00:00:00+00:00</time>
        <ele>1496.0</ele>
      </trkpt>
      <trkpt lat="45.28772" lon="6.90877">
        <time>1970-01-01T00:00:00+00:00</time>
        <ele>1494.0</ele>
      </trkpt>
      <trkpt lat="45.28772" lon="6.90877">
        <time>1970-01-01T00:00:00+00:00</time>
        <ele>1494.0</ele>
      </trkpt>
      <trkpt lat="45.28779" lon="6.90877">
        <time>1970-01-01T00:00:00+00:00</time>
        <ele>1491.0</ele>
      </trkpt>
      <trkpt lat="45.28779" lon="6.90877">
        <time>1970-01-01T00:00:00+00:00</time>
        <ele>1491.0</ele>
      </trkpt>
      <trkpt lat="45.28785" lon="6.90877">
        <time>1970-01-01T00:00:00+00:00</time>
        <ele>1490.0</ele>
      </trkpt>
      <trkpt lat="45.28785" lon="6.90877">
        <time>1970-01-01T00:00:00+00:00</time>
        <ele>1490.0</ele>
      </trkpt>
      <trkpt lat="45.28792" lon="6.90874">
        <time>1970-01-01T00:00:00+00:00</time>
        <ele>1488.0</ele>
      </trkpt>
      <trkpt lat="45.28792" lon="6.90874">
        <time>1970-01-01T00:00:00+00:00</time>
        <ele>1488.0</ele>
      </trkpt>
      <trkpt lat="45.28798" lon="6.90873">
        <time>1970-01-01T00:00:00+00:00</time>
        <ele>1487.0</ele>
      </trkpt>
      <trkpt lat="45.28798" lon="6.90873">
        <time>1970-01-01T00:00:00+00:00</time>
        <ele>1487.0</ele>
      </trkpt>
      <trkpt lat="45.28807" lon="6.90874">
        <time>1970-01-01T00:00:00+00:00</time>
        <ele>1484.0</ele>
      </trkpt>
      <trkpt lat="45.28807" lon="6.90874">
        <time>1970-01-01T00:00:00+00:00</time>
        <ele>1484.0</ele>
      </trkpt>
      <trkpt lat="45.28813" lon="6.90868">
        <time>1970-01-01T00:00:00+00:00</time>
        <ele>1482.0</ele>
      </trkpt>
      <trkpt lat="45.28813" lon="6.90868">
        <time>1970-01-01T00:00:00+00:00</time>
        <ele>1482.0</ele>
      </trkpt>
      <trkpt lat="45.2881" lon="6.90861">
        <time>1970-01-01T00:00:00+00:00</time>
        <ele>1483.0</ele>
      </trkpt>
      <trkpt lat="45.2881" lon="6.90861">
        <time>1970-01-01T00:00:00+00:00</time>
        <ele>1483.0</ele>
      </trkpt>
      <trkpt lat="45.28815" lon="6.90862">
        <time>1970-01-01T00:00:00+00:00</time>
        <ele>1481.0</ele>
      </trkpt>
      <trkpt lat="45.28815" lon="6.90862">
        <time>1970-01-01T00:00:00+00:00</time>
        <ele>1481.0</ele>
      </trkpt>
      <trkpt lat="45.28825" lon="6.90864">
        <time>1970-01-01T00:00:00+00:00</time>
        <ele>1478.0</ele>
      </trkpt>
      <trkpt lat="45.28825" lon="6.90864">
        <time>1970-01-01T00:00:00+00:00</time>
        <ele>1478.0</ele>
      </trkpt>
      <trkpt lat="45.28832" lon="6.90863">
        <time>1970-01-01T00:00:00+00:00</time>
        <ele>1476.0</ele>
      </trkpt>
      <trkpt lat="45.28832" lon="6.90863">
        <time>1970-01-01T00:00:00+00:00</time>
        <ele>1476.0</ele>
      </trkpt>
      <trkpt lat="45.28841" lon="6.9086">
        <time>1970-01-01T00:00:00+00:00</time>
        <ele>1475.0</ele>
      </trkpt>
      <trkpt lat="45.28841" lon="6.9086">
        <time>1970-01-01T00:00:00+00:00</time>
        <ele>1475.0</ele>
      </trkpt>
      <trkpt lat="45.28849" lon="6.90856">
        <time>1970-01-01T00:00:00+00:00</time>
        <ele>1473.0</ele>
      </trkpt>
      <trkpt lat="45.28849" lon="6.90856">
        <time>1970-01-01T00:00:00+00:00</time>
        <ele>1473.0</ele>
      </trkpt>
      <trkpt lat="45.28853" lon="6.90851">
        <time>1970-01-01T00:00:00+00:00</time>
        <ele>1473.0</ele>
      </trkpt>
      <trkpt lat="45.28853" lon="6.90851">
        <time>1970-01-01T00:00:00+00:00</time>
        <ele>1473.0</ele>
      </trkpt>
      <trkpt lat="45.28856" lon="6.90843">
        <time>1970-01-01T00:00:00+00:00</time>
        <ele>1472.0</ele>
      </trkpt>
      <trkpt lat="45.28856" lon="6.90843">
        <time>1970-01-01T00:00:00+00:00</time>
        <ele>1472.0</ele>
      </trkpt>
      <trkpt lat="45.28859" lon="6.90835">
        <time>1970-01-01T00:00:00+00:00</time>
        <ele>1472.0</ele>
      </trkpt>
      <trkpt lat="45.28859" lon="6.90835">
        <time>1970-01-01T00:00:00+00:00</time>
        <ele>1472.0</ele>
      </trkpt>
      <trkpt lat="45.28863" lon="6.90829">
        <time>1970-01-01T00:00:00+00:00</time>
        <ele>1471.0</ele>
      </trkpt>
      <trkpt lat="45.28863" lon="6.90829">
        <time>1970-01-01T00:00:00+00:00</time>
        <ele>1471.0</ele>
      </trkpt>
      <trkpt lat="45.28868" lon="6.90822">
        <time>1970-01-01T00:00:00+00:00</time>
        <ele>1470.0</ele>
      </trkpt>
      <trkpt lat="45.28868" lon="6.90822">
        <time>1970-01-01T00:00:00+00:00</time>
        <ele>1470.0</ele>
      </trkpt>
      <trkpt lat="45.28872" lon="6.90818">
        <time>1970-01-01T00:00:00+00:00</time>
        <ele>1469.0</ele>
      </trkpt>
      <trkpt lat="45.28872" lon="6.90818">
        <time>1970-01-01T00:00:00+00:00</time>
        <ele>1469.0</ele>
      </trkpt>
      <trkpt lat="45.28877" lon="6.90816">
        <time>1970-01-01T00:00:00+00:00</time>
        <ele>1469.0</ele>
      </trkpt>
      <trkpt lat="45.28877" lon="6.90816">
        <time>1970-01-01T00:00:00+00:00</time>
        <ele>1469.0</ele>
      </trkpt>
      <trkpt lat="45.28882" lon="6.90813">
        <time>1970-01-01T00:00:00+00:00</time>
        <ele>1468.0</ele>
      </trkpt>
      <trkpt lat="45.28882" lon="6.90813">
        <time>1970-01-01T00:00:00+00:00</time>
        <ele>1468.0</ele>
      </trkpt>
      <trkpt lat="45.28888" lon="6.90811">
        <time>1970-01-01T00:00:00+00:00</time>
        <ele>1467.0</ele>
      </trkpt>
      <trkpt lat="45.28888" lon="6.90811">
        <time>1970-01-01T00:00:00+00:00</time>
        <ele>1467.0</ele>
      </trkpt>
      <trkpt lat="45.28894" lon="6.90809">
        <time>1970-01-01T00:00:00+00:00</time>
        <ele>1467.0</ele>
      </trkpt>
      <trkpt lat="45.28894" lon="6.90809">
        <time>1970-01-01T00:00:00+00:00</time>
        <ele>1467.0</ele>
      </trkpt>
      <trkpt lat="45.28899" lon="6.90809">
        <time>1970-01-01T00:00:00+00:00</time>
        <ele>1467.0</ele>
      </trkpt>
      <trkpt lat="45.28899" lon="6.90809">
        <time>1970-01-01T00:00:00+00:00</time>
        <ele>1467.0</ele>
      </trkpt>
      <trkpt lat="45.28901" lon="6.90815">
        <time>1970-01-01T00:00:00+00:00</time>
        <ele>1467.0</ele>
      </trkpt>
      <trkpt lat="45.28901" lon="6.90815">
        <time>1970-01-01T00:00:00+00:00</time>
        <ele>1467.0</ele>
      </trkpt>
      <trkpt lat="45.28904" lon="6.9082">
        <time>1970-01-01T00:00:00+00:00</time>
        <ele>1467.0</ele>
      </trkpt>
      <trkpt lat="45.28904" lon="6.9082">
        <time>1970-01-01T00:00:00+00:00</time>
        <ele>1467.0</ele>
      </trkpt>
      <trkpt lat="45.2891" lon="6.90823">
        <time>1970-01-01T00:00:00+00:00</time>
        <ele>1467.0</ele>
      </trkpt>
      <trkpt lat="45.2891" lon="6.90823">
        <time>1970-01-01T00:00:00+00:00</time>
        <ele>1467.0</ele>
      </trkpt>
      <trkpt lat="45.28915" lon="6.90824">
        <time>1970-01-01T00:00:00+00:00</time>
        <ele>1468.0</ele>
      </trkpt>
      <trkpt lat="45.28915" lon="6.90824">
        <time>1970-01-01T00:00:00+00:00</time>
        <ele>1468.0</ele>
      </trkpt>
      <trkpt lat="45.2892" lon="6.90824">
        <time>1970-01-01T00:00:00+00:00</time>
        <ele>1468.0</ele>
      </trkpt>
      <trkpt lat="45.2892" lon="6.90824">
        <time>1970-01-01T00:00:00+00:00</time>
        <ele>1468.0</ele>
      </trkpt>
      <trkpt lat="45.28924" lon="6.9082">
        <time>1970-01-01T00:00:00+00:00</time>
        <ele>1469.0</ele>
      </trkpt>
      <trkpt lat="45.28924" lon="6.9082">
        <time>1970-01-01T00:00:00+00:00</time>
        <ele>1469.0</ele>
      </trkpt>
      <trkpt lat="45.28928" lon="6.90815">
        <time>1970-01-01T00:00:00+00:00</time>
        <ele>1469.0</ele>
      </trkpt>
      <trkpt lat="45.28928" lon="6.90815">
        <time>1970-01-01T00:00:00+00:00</time>
        <ele>1469.0</ele>
      </trkpt>
      <trkpt lat="45.28932" lon="6.90811">
        <time>1970-01-01T00:00:00+00:00</time>
        <ele>1469.0</ele>
      </trkpt>
      <trkpt lat="45.28932" lon="6.90811">
        <time>1970-01-01T00:00:00+00:00</time>
        <ele>1469.0</ele>
      </trkpt>
      <trkpt lat="45.28937" lon="6.9081">
        <time>1970-01-01T00:00:00+00:00</time>
        <ele>1470.0</ele>
      </trkpt>
      <trkpt lat="45.28937" lon="6.9081">
        <time>1970-01-01T00:00:00+00:00</time>
        <ele>1470.0</ele>
      </trkpt>
      <trkpt lat="45.28941" lon="6.90807">
        <time>1970-01-01T00:00:00+00:00</time>
        <ele>1470.0</ele>
      </trkpt>
      <trkpt lat="45.28941" lon="6.90807">
        <time>1970-01-01T00:00:00+00:00</time>
        <ele>1470.0</ele>
      </trkpt>
      <trkpt lat="45.28944" lon="6.90798">
        <time>1970-01-01T00:00:00+00:00</time>
        <ele>1471.0</ele>
      </trkpt>
      <trkpt lat="45.28944" lon="6.90798">
        <time>1970-01-01T00:00:00+00:00</time>
        <ele>1471.0</ele>
      </trkpt>
      <trkpt lat="45.28944" lon="6.90791">
        <time>1970-01-01T00:00:00+00:00</time>
        <ele>1470.0</ele>
      </trkpt>
      <trkpt lat="45.28944" lon="6.90791">
        <time>1970-01-01T00:00:00+00:00</time>
        <ele>1470.0</ele>
      </trkpt>
      <trkpt lat="45.28945" lon="6.90782">
        <time>1970-01-01T00:00:00+00:00</time>
        <ele>1470.0</ele>
      </trkpt>
      <trkpt lat="45.28945" lon="6.90782">
        <time>1970-01-01T00:00:00+00:00</time>
        <ele>1470.0</ele>
      </trkpt>
      <trkpt lat="45.28945" lon="6.90775">
        <time>1970-01-01T00:00:00+00:00</time>
        <ele>1470.0</ele>
      </trkpt>
      <trkpt lat="45.28945" lon="6.90775">
        <time>1970-01-01T00:00:00+00:00</time>
        <ele>1470.0</ele>
      </trkpt>
      <trkpt lat="45.28946" lon="6.90767">
        <time>1970-01-01T00:00:00+00:00</time>
        <ele>1470.0</ele>
      </trkpt>
      <trkpt lat="45.28946" lon="6.90767">
        <time>1970-01-01T00:00:00+00:00</time>
        <ele>1470.0</ele>
      </trkpt>
      <trkpt lat="45.28947" lon="6.9076">
        <time>1970-01-01T00:00:00+00:00</time>
        <ele>1469.0</ele>
      </trkpt>
      <trkpt lat="45.28947" lon="6.9076">
        <time>1970-01-01T00:00:00+00:00</time>
        <ele>1469.0</ele>
      </trkpt>
      <trkpt lat="45.28948" lon="6.90753">
        <time>1970-01-01T00:00:00+00:00</time>
        <ele>1469.0</ele>
      </trkpt>
      <trkpt lat="45.28948" lon="6.90753">
        <time>1970-01-01T00:00:00+00:00</time>
        <ele>1469.0</ele>
      </trkpt>
      <trkpt lat="45.28948" lon="6.90746">
        <time>1970-01-01T00:00:00+00:00</time>
        <ele>1468.0</ele>
      </trkpt>
      <trkpt lat="45.28948" lon="6.90746">
        <time>1970-01-01T00:00:00+00:00</time>
        <ele>1468.0</ele>
      </trkpt>
      <trkpt lat="45.28949" lon="6.90739">
        <time>1970-01-01T00:00:00+00:00</time>
        <ele>1468.0</ele>
      </trkpt>
      <trkpt lat="45.28949" lon="6.90739">
        <time>1970-01-01T00:00:00+00:00</time>
        <ele>1468.0</ele>
      </trkpt>
      <trkpt lat="45.2895" lon="6.90732">
        <time>1970-01-01T00:00:00+00:00</time>
        <ele>1468.0</ele>
      </trkpt>
      <trkpt lat="45.2895" lon="6.90732">
        <time>1970-01-01T00:00:00+00:00</time>
        <ele>1468.0</ele>
      </trkpt>
      <trkpt lat="45.28952" lon="6.90726">
        <time>1970-01-01T00:00:00+00:00</time>
        <ele>1468.0</ele>
      </trkpt>
      <trkpt lat="45.28952" lon="6.90726">
        <time>1970-01-01T00:00:00+00:00</time>
        <ele>1468.0</ele>
      </trkpt>
      <trkpt lat="45.28953" lon="6.90718">
        <time>1970-01-01T00:00:00+00:00</time>
        <ele>1468.0</ele>
      </trkpt>
      <trkpt lat="45.28953" lon="6.90718">
        <time>1970-01-01T00:00:00+00:00</time>
        <ele>1468.0</ele>
      </trkpt>
      <trkpt lat="45.28954" lon="6.90711">
        <time>1970-01-01T00:00:00+00:00</time>
        <ele>1468.0</ele>
      </trkpt>
      <trkpt lat="45.28954" lon="6.90711">
        <time>1970-01-01T00:00:00+00:00</time>
        <ele>1468.0</ele>
      </trkpt>
      <trkpt lat="45.28954" lon="6.90703">
        <time>1970-01-01T00:00:00+00:00</time>
        <ele>1468.0</ele>
      </trkpt>
      <trkpt lat="45.28954" lon="6.90703">
        <time>1970-01-01T00:00:00+00:00</time>
        <ele>1468.0</ele>
      </trkpt>
      <trkpt lat="45.28956" lon="6.90694">
        <time>1970-01-01T00:00:00+00:00</time>
        <ele>1468.0</ele>
      </trkpt>
      <trkpt lat="45.28956" lon="6.90694">
        <time>1970-01-01T00:00:00+00:00</time>
        <ele>1468.0</ele>
      </trkpt>
      <trkpt lat="45.28958" lon="6.90688">
        <time>1970-01-01T00:00:00+00:00</time>
        <ele>1468.0</ele>
      </trkpt>
      <trkpt lat="45.28958" lon="6.90688">
        <time>1970-01-01T00:00:00+00:00</time>
        <ele>1468.0</ele>
      </trkpt>
      <trkpt lat="45.28959" lon="6.9068">
        <time>1970-01-01T00:00:00+00:00</time>
        <ele>1468.0</ele>
      </trkpt>
      <trkpt lat="45.28959" lon="6.9068">
        <time>1970-01-01T00:00:00+00:00</time>
        <ele>1468.0</ele>
      </trkpt>
      <trkpt lat="45.28962" lon="6.90674">
        <time>1970-01-01T00:00:00+00:00</time>
        <ele>1468.0</ele>
      </trkpt>
      <trkpt lat="45.28962" lon="6.90674">
        <time>1970-01-01T00:00:00+00:00</time>
        <ele>1468.0</ele>
      </trkpt>
      <trkpt lat="45.28966" lon="6.9067">
        <time>1970-01-01T00:00:00+00:00</time>
        <ele>1468.0</ele>
      </trkpt>
      <trkpt lat="45.28966" lon="6.9067">
        <time>1970-01-01T00:00:00+00:00</time>
        <ele>1468.0</ele>
      </trkpt>
      <trkpt lat="45.2897" lon="6.90666">
        <time>1970-01-01T00:00:00+00:00</time>
        <ele>1468.0</ele>
      </trkpt>
      <trkpt lat="45.2897" lon="6.90666">
        <time>1970-01-01T00:00:00+00:00</time>
        <ele>1468.0</ele>
      </trkpt>
      <trkpt lat="45.28973" lon="6.9066">
        <time>1970-01-01T00:00:00+00:00</time>
        <ele>1468.0</ele>
      </trkpt>
      <trkpt lat="45.28973" lon="6.9066">
        <time>1970-01-01T00:00:00+00:00</time>
        <ele>1468.0</ele>
      </trkpt>
      <trkpt lat="45.28977" lon="6.90657">
        <time>1970-01-01T00:00:00+00:00</time>
        <ele>1468.0</ele>
      </trkpt>
      <trkpt lat="45.28977" lon="6.90657">
        <time>1970-01-01T00:00:00+00:00</time>
        <ele>1468.0</ele>
      </trkpt>
      <trkpt lat="45.28982" lon="6.90655">
        <time>1970-01-01T00:00:00+00:00</time>
        <ele>1468.0</ele>
      </trkpt>
      <trkpt lat="45.28982" lon="6.90655">
        <time>1970-01-01T00:00:00+00:00</time>
        <ele>1468.0</ele>
      </trkpt>
      <trkpt lat="45.28988" lon="6.90656">
        <time>1970-01-01T00:00:00+00:00</time>
        <ele>1469.0</ele>
      </trkpt>
      <trkpt lat="45.28988" lon="6.90656">
        <time>1970-01-01T00:00:00+00:00</time>
        <ele>1469.0</ele>
      </trkpt>
      <trkpt lat="45.28992" lon="6.9066">
        <time>1970-01-01T00:00:00+00:00</time>
        <ele>1469.0</ele>
      </trkpt>
      <trkpt lat="45.28992" lon="6.9066">
        <time>1970-01-01T00:00:00+00:00</time>
        <ele>1469.0</ele>
      </trkpt>
      <trkpt lat="45.28996" lon="6.90664">
        <time>1970-01-01T00:00:00+00:00</time>
        <ele>1469.0</ele>
      </trkpt>
      <trkpt lat="45.28996" lon="6.90664">
        <time>1970-01-01T00:00:00+00:00</time>
        <ele>1469.0</ele>
      </trkpt>
      <trkpt lat="45.29001" lon="6.90667">
        <time>1970-01-01T00:00:00+00:00</time>
        <ele>1468.0</ele>
      </trkpt>
      <trkpt lat="45.29001" lon="6.90667">
        <time>1970-01-01T00:00:00+00:00</time>
        <ele>1468.0</ele>
      </trkpt>
      <trkpt lat="45.29006" lon="6.90671">
        <time>1970-01-01T00:00:00+00:00</time>
        <ele>1467.0</ele>
      </trkpt>
      <trkpt lat="45.29006" lon="6.90671">
        <time>1970-01-01T00:00:00+00:00</time>
        <ele>1467.0</ele>
      </trkpt>
      <trkpt lat="45.2901" lon="6.90674">
        <time>1970-01-01T00:00:00+00:00</time>
        <ele>1467.0</ele>
      </trkpt>
      <trkpt lat="45.2901" lon="6.90674">
        <time>1970-01-01T00:00:00+00:00</time>
        <ele>1467.0</ele>
      </trkpt>
      <trkpt lat="45.29015" lon="6.90676">
        <time>1970-01-01T00:00:00+00:00</time>
        <ele>1466.0</ele>
      </trkpt>
      <trkpt lat="45.29015" lon="6.90676">
        <time>1970-01-01T00:00:00+00:00</time>
        <ele>1466.0</ele>
      </trkpt>
      <trkpt lat="45.2902" lon="6.90678">
        <time>1970-01-01T00:00:00+00:00</time>
        <ele>1465.0</ele>
      </trkpt>
      <trkpt lat="45.2902" lon="6.90678">
        <time>1970-01-01T00:00:00+00:00</time>
        <ele>1465.0</ele>
      </trkpt>
      <trkpt lat="45.29024" lon="6.90682">
        <time>1970-01-01T00:00:00+00:00</time>
        <ele>1465.0</ele>
      </trkpt>
      <trkpt lat="45.29024" lon="6.90682">
        <time>1970-01-01T00:00:00+00:00</time>
        <ele>1465.0</ele>
      </trkpt>
      <trkpt lat="45.29027" lon="6.90688">
        <time>1970-01-01T00:00:00+00:00</time>
        <ele>1465.0</ele>
      </trkpt>
      <trkpt lat="45.29027" lon="6.90688">
        <time>1970-01-01T00:00:00+00:00</time>
        <ele>1465.0</ele>
      </trkpt>
      <trkpt lat="45.29029" lon="6.90697">
        <time>1970-01-01T00:00:00+00:00</time>
        <ele>1464.0</ele>
      </trkpt>
      <trkpt lat="45.29029" lon="6.90697">
        <time>1970-01-01T00:00:00+00:00</time>
        <ele>1464.0</ele>
      </trkpt>
      <trkpt lat="45.2903" lon="6.90704">
        <time>1970-01-01T00:00:00+00:00</time>
        <ele>1464.0</ele>
      </trkpt>
      <trkpt lat="45.2903" lon="6.90704">
        <time>1970-01-01T00:00:00+00:00</time>
        <ele>1464.0</ele>
      </trkpt>
      <trkpt lat="45.29031" lon="6.90712">
        <time>1970-01-01T00:00:00+00:00</time>
        <ele>1463.0</ele>
      </trkpt>
      <trkpt lat="45.29031" lon="6.90712">
        <time>1970-01-01T00:00:00+00:00</time>
        <ele>1463.0</ele>
      </trkpt>
      <trkpt lat="45.29032" lon="6.90721">
        <time>1970-01-01T00:00:00+00:00</time>
        <ele>1463.0</ele>
      </trkpt>
      <trkpt lat="45.29032" lon="6.90721">
        <time>1970-01-01T00:00:00+00:00</time>
        <ele>1463.0</ele>
      </trkpt>
      <trkpt lat="45.29033" lon="6.90728">
        <time>1970-01-01T00:00:00+00:00</time>
        <ele>1462.0</ele>
      </trkpt>
      <trkpt lat="45.29033" lon="6.90728">
        <time>1970-01-01T00:00:00+00:00</time>
        <ele>1462.0</ele>
      </trkpt>
      <trkpt lat="45.29033" lon="6.90735">
        <time>1970-01-01T00:00:00+00:00</time>
        <ele>1462.0</ele>
      </trkpt>
      <trkpt lat="45.29033" lon="6.90735">
        <time>1970-01-01T00:00:00+00:00</time>
        <ele>1462.0</ele>
      </trkpt>
      <trkpt lat="45.29034" lon="6.90742">
        <time>1970-01-01T00:00:00+00:00</time>
        <ele>1461.0</ele>
      </trkpt>
      <trkpt lat="45.29034" lon="6.90742">
        <time>1970-01-01T00:00:00+00:00</time>
        <ele>1461.0</ele>
      </trkpt>
      <trkpt lat="45.29034" lon="6.9075">
        <time>1970-01-01T00:00:00+00:00</time>
        <ele>1461.0</ele>
      </trkpt>
      <trkpt lat="45.29034" lon="6.9075">
        <time>1970-01-01T00:00:00+00:00</time>
        <ele>1461.0</ele>
      </trkpt>
      <trkpt lat="45.29034" lon="6.90757">
        <time>1970-01-01T00:00:00+00:00</time>
        <ele>1461.0</ele>
      </trkpt>
      <trkpt lat="45.29034" lon="6.90757">
        <time>1970-01-01T00:00:00+00:00</time>
        <ele>1461.0</ele>
      </trkpt>
      <trkpt lat="45.29034" lon="6.90764">
        <time>1970-01-01T00:00:00+00:00</time>
        <ele>1461.0</ele>
      </trkpt>
      <trkpt lat="45.29034" lon="6.90764">
        <time>1970-01-01T00:00:00+00:00</time>
        <ele>1461.0</ele>
      </trkpt>
      <trkpt lat="45.29034" lon="6.90772">
        <time>1970-01-01T00:00:00+00:00</time>
        <ele>1461.0</ele>
      </trkpt>
      <trkpt lat="45.29034" lon="6.90772">
        <time>1970-01-01T00:00:00+00:00</time>
        <ele>1461.0</ele>
      </trkpt>
      <trkpt lat="45.29033" lon="6.90782">
        <time>1970-01-01T00:00:00+00:00</time>
        <ele>1461.0</ele>
      </trkpt>
      <trkpt lat="45.29033" lon="6.90782">
        <time>1970-01-01T00:00:00+00:00</time>
        <ele>1461.0</ele>
      </trkpt>
      <trkpt lat="45.29033" lon="6.90789">
        <time>1970-01-01T00:00:00+00:00</time>
        <ele>1461.0</ele>
      </trkpt>
      <trkpt lat="45.29033" lon="6.90789">
        <time>1970-01-01T00:00:00+00:00</time>
        <ele>1461.0</ele>
      </trkpt>
      <trkpt lat="45.29034" lon="6.90796">
        <time>1970-01-01T00:00:00+00:00</time>
        <ele>1462.0</ele>
      </trkpt>
      <trkpt lat="45.29034" lon="6.90796">
        <time>1970-01-01T00:00:00+00:00</time>
        <ele>1462.0</ele>
      </trkpt>
      <trkpt lat="45.29034" lon="6.90803">
        <time>1970-01-01T00:00:00+00:00</time>
        <ele>1462.0</ele>
      </trkpt>
      <trkpt lat="45.29034" lon="6.90803">
        <time>1970-01-01T00:00:00+00:00</time>
        <ele>1462.0</ele>
      </trkpt>
      <trkpt lat="45.29034" lon="6.9081">
        <time>1970-01-01T00:00:00+00:00</time>
        <ele>1462.0</ele>
      </trkpt>
      <trkpt lat="45.29034" lon="6.9081">
        <time>1970-01-01T00:00:00+00:00</time>
        <ele>1462.0</ele>
      </trkpt>
      <trkpt lat="45.29034" lon="6.90817">
        <time>1970-01-01T00:00:00+00:00</time>
        <ele>1462.0</ele>
      </trkpt>
      <trkpt lat="45.29034" lon="6.90817">
        <time>1970-01-01T00:00:00+00:00</time>
        <ele>1462.0</ele>
      </trkpt>
      <trkpt lat="45.29035" lon="6.90824">
        <time>1970-01-01T00:00:00+00:00</time>
        <ele>1462.0</ele>
      </trkpt>
      <trkpt lat="45.29035" lon="6.90824">
        <time>1970-01-01T00:00:00+00:00</time>
        <ele>1462.0</ele>
      </trkpt>
      <trkpt lat="45.29035" lon="6.90831">
        <time>1970-01-01T00:00:00+00:00</time>
        <ele>1462.0</ele>
      </trkpt>
      <trkpt lat="45.29035" lon="6.90831">
        <time>1970-01-01T00:00:00+00:00</time>
        <ele>1462.0</ele>
      </trkpt>
      <trkpt lat="45.29036" lon="6.90838">
        <time>1970-01-01T00:00:00+00:00</time>
        <ele>1462.0</ele>
      </trkpt>
      <trkpt lat="45.29036" lon="6.90838">
        <time>1970-01-01T00:00:00+00:00</time>
        <ele>1462.0</ele>
      </trkpt>
      <trkpt lat="45.29038" lon="6.90844">
        <time>1970-01-01T00:00:00+00:00</time>
        <ele>1462.0</ele>
      </trkpt>
      <trkpt lat="45.29038" lon="6.90844">
        <time>1970-01-01T00:00:00+00:00</time>
        <ele>1462.0</ele>
      </trkpt>
      <trkpt lat="45.2904" lon="6.9085">
        <time>1970-01-01T00:00:00+00:00</time>
        <ele>1462.0</ele>
      </trkpt>
      <trkpt lat="45.2904" lon="6.9085">
        <time>1970-01-01T00:00:00+00:00</time>
        <ele>1462.0</ele>
      </trkpt>
      <trkpt lat="45.29043" lon="6.90855">
        <time>1970-01-01T00:00:00+00:00</time>
        <ele>1462.0</ele>
      </trkpt>
      <trkpt lat="45.29043" lon="6.90855">
        <time>1970-01-01T00:00:00+00:00</time>
        <ele>1462.0</ele>
      </trkpt>
      <trkpt lat="45.29044" lon="6.90863">
        <time>1970-01-01T00:00:00+00:00</time>
        <ele>1462.0</ele>
      </trkpt>
      <trkpt lat="45.29044" lon="6.90863">
        <time>1970-01-01T00:00:00+00:00</time>
        <ele>1462.0</ele>
      </trkpt>
      <trkpt lat="45.29044" lon="6.90871">
        <time>1970-01-01T00:00:00+00:00</time>
        <ele>1462.0</ele>
      </trkpt>
      <trkpt lat="45.29044" lon="6.90871">
        <time>1970-01-01T00:00:00+00:00</time>
        <ele>1462.0</ele>
      </trkpt>
      <trkpt lat="45.29044" lon="6.90879">
        <time>1970-01-01T00:00:00+00:00</time>
        <ele>1462.0</ele>
      </trkpt>
      <trkpt lat="45.29044" lon="6.90879">
        <time>1970-01-01T00:00:00+00:00</time>
        <ele>1462.0</ele>
      </trkpt>
      <trkpt lat="45.29044" lon="6.90887">
        <time>1970-01-01T00:00:00+00:00</time>
        <ele>1462.0</ele>
      </trkpt>
      <trkpt lat="45.29044" lon="6.90887">
        <time>1970-01-01T00:00:00+00:00</time>
        <ele>1462.0</ele>
      </trkpt>
      <trkpt lat="45.29044" lon="6.90894">
        <time>1970-01-01T00:00:00+00:00</time>
        <ele>1462.0</ele>
      </trkpt>
      <trkpt lat="45.29044" lon="6.90894">
        <time>1970-01-01T00:00:00+00:00</time>
        <ele>1462.0</ele>
      </trkpt>
      <trkpt lat="45.29045" lon="6.90903">
        <time>1970-01-01T00:00:00+00:00</time>
        <ele>1462.0</ele>
      </trkpt>
      <trkpt lat="45.29045" lon="6.90903">
        <time>1970-01-01T00:00:00+00:00</time>
        <ele>1462.0</ele>
      </trkpt>
      <trkpt lat="45.29045" lon="6.9091">
        <time>1970-01-01T00:00:00+00:00</time>
        <ele>1462.0</ele>
      </trkpt>
      <trkpt lat="45.29045" lon="6.9091">
        <time>1970-01-01T00:00:00+00:00</time>
        <ele>1462.0</ele>
      </trkpt>
      <trkpt lat="45.29047" lon="6.90919">
        <time>1970-01-01T00:00:00+00:00</time>
        <ele>1462.0</ele>
      </trkpt>
      <trkpt lat="45.29047" lon="6.90919">
        <time>1970-01-01T00:00:00+00:00</time>
        <ele>1462.0</ele>
      </trkpt>
      <trkpt lat="45.2905" lon="6.90925">
        <time>1970-01-01T00:00:00+00:00</time>
        <ele>1462.0</ele>
      </trkpt>
      <trkpt lat="45.2905" lon="6.90925">
        <time>1970-01-01T00:00:00+00:00</time>
        <ele>1462.0</ele>
      </trkpt>
      <trkpt lat="45.29054" lon="6.90929">
        <time>1970-01-01T00:00:00+00:00</time>
        <ele>1461.0</ele>
      </trkpt>
      <trkpt lat="45.29054" lon="6.90929">
        <time>1970-01-01T00:00:00+00:00</time>
        <ele>1461.0</ele>
      </trkpt>
      <trkpt lat="45.2905" lon="6.90926">
        <time>1970-01-01T00:00:00+00:00</time>
        <ele>1462.0</ele>
      </trkpt>
      <trkpt lat="45.2905" lon="6.90926">
        <time>1970-01-01T00:00:00+00:00</time>
        <ele>1462.0</ele>
      </trkpt>
      <trkpt lat="45.29046" lon="6.90922">
        <time>1970-01-01T00:00:00+00:00</time>
        <ele>1462.0</ele>
      </trkpt>
      <trkpt lat="45.29046" lon="6.90922">
        <time>1970-01-01T00:00:00+00:00</time>
        <ele>1462.0</ele>
      </trkpt>
      <trkpt lat="45.29042" lon="6.90919">
        <time>1970-01-01T00:00:00+00:00</time>
        <ele>1463.0</ele>
      </trkpt>
      <trkpt lat="45.29042" lon="6.90919">
        <time>1970-01-01T00:00:00+00:00</time>
        <ele>1463.0</ele>
      </trkpt>
      <trkpt lat="45.29039" lon="6.90914">
        <time>1970-01-01T00:00:00+00:00</time>
        <ele>1463.0</ele>
      </trkpt>
      <trkpt lat="45.29039" lon="6.90914">
        <time>1970-01-01T00:00:00+00:00</time>
        <ele>1463.0</ele>
      </trkpt>
      <trkpt lat="45.29042" lon="6.90919">
        <time>1970-01-01T00:00:00+00:00</time>
        <ele>1463.0</ele>
      </trkpt>
      <trkpt lat="45.29042" lon="6.90919">
        <time>1970-01-01T00:00:00+00:00</time>
        <ele>1463.0</ele>
      </trkpt>
      <trkpt lat="45.29047" lon="6.90921">
        <time>1970-01-01T00:00:00+00:00</time>
        <ele>1462.0</ele>
      </trkpt>
    </trkseg>
  </trk>
</gpx>
